<?xml version="1.0" encoding="UTF-8" standalone="no" ?>
<gpx xmlns="http://www.topografix.com/GPX/1/1" xmlns:xsi="http://www.w3.org/2001/XMLSchema-instance" xsi:schemaLocation="http://www.topografix.com/GPX/1/1 http://www.topografix.com/GPX/1/1/gpx.xsd" version="1.1" creator="VisuGPX - https://www.visugpx.com">
  <metadata>
    <name>VTT - Canal de Vegay - VTopo 13 Initié</name>
    <desc><![CDATA[Les Ferres - Roquesteron - Conségudes / Relevé terrain

Le CR ASCVTT:
<http://www.ascvtt.com/wordpress/2009/03/29/roc-esteron/>]]></desc>
  </metadata>
  <trk>
    <name><![CDATA[Les_ferres on GPSies.com]]></name>
    <trkseg>
      <trkpt lat="43.84554" lon="7.0928">
        <ele>608.65185</ele>
        <time>2009-03-22T08:04:53Z</time>
      </trkpt>
      <trkpt lat="43.84554" lon="7.09279">
        <ele>607.69067</ele>
        <time>2009-03-22T08:05:07Z</time>
      </trkpt>
      <trkpt lat="43.84553" lon="7.09278">
        <ele>607.69067</ele>
        <time>2009-03-22T08:05:09Z</time>
      </trkpt>
      <trkpt lat="43.8454" lon="7.09276">
        <ele>607.20996</ele>
        <time>2009-03-22T08:05:14Z</time>
      </trkpt>
      <trkpt lat="43.84514" lon="7.09276">
        <ele>605.28735</ele>
        <time>2009-03-22T08:05:20Z</time>
      </trkpt>
      <trkpt lat="43.84502" lon="7.09265">
        <ele>603.84521</ele>
        <time>2009-03-22T08:05:24Z</time>
      </trkpt>
      <trkpt lat="43.84499" lon="7.09261">
        <ele>601.9226</ele>
        <time>2009-03-22T08:05:25Z</time>
      </trkpt>
      <trkpt lat="43.84489" lon="7.09248">
        <ele>600.96118</ele>
        <time>2009-03-22T08:05:28Z</time>
      </trkpt>
      <trkpt lat="43.84465" lon="7.09233">
        <ele>600</ele>
        <time>2009-03-22T08:05:33Z</time>
      </trkpt>
      <trkpt lat="43.84443" lon="7.09238">
        <ele>600</ele>
        <time>2009-03-22T08:05:37Z</time>
      </trkpt>
      <trkpt lat="43.84426" lon="7.09244">
        <ele>599.51928</ele>
        <time>2009-03-22T08:05:40Z</time>
      </trkpt>
      <trkpt lat="43.84398" lon="7.09243">
        <ele>597.11596</ele>
        <time>2009-03-22T08:05:45Z</time>
      </trkpt>
      <trkpt lat="43.84382" lon="7.0922">
        <ele>596.15478</ele>
        <time>2009-03-22T08:05:49Z</time>
      </trkpt>
      <trkpt lat="43.84379" lon="7.09205">
        <ele>597.11596</ele>
        <time>2009-03-22T08:05:51Z</time>
      </trkpt>
      <trkpt lat="43.84363" lon="7.09126">
        <ele>596.15478</ele>
        <time>2009-03-22T08:06:01Z</time>
      </trkpt>
      <trkpt lat="43.8435" lon="7.09064">
        <ele>597.11596</ele>
        <time>2009-03-22T08:06:09Z</time>
      </trkpt>
      <trkpt lat="43.84332" lon="7.0903">
        <ele>597.59668</ele>
        <time>2009-03-22T08:06:14Z</time>
      </trkpt>
      <trkpt lat="43.84307" lon="7.08989">
        <ele>598.07739</ele>
        <time>2009-03-22T08:06:20Z</time>
      </trkpt>
      <trkpt lat="43.84303" lon="7.08983">
        <ele>598.55786</ele>
        <time>2009-03-22T08:06:21Z</time>
      </trkpt>
      <trkpt lat="43.8428" lon="7.08966">
        <ele>598.55786</ele>
        <time>2009-03-22T08:06:25Z</time>
      </trkpt>
      <trkpt lat="43.84266" lon="7.08962">
        <ele>598.07739</ele>
        <time>2009-03-22T08:06:27Z</time>
      </trkpt>
      <trkpt lat="43.84241" lon="7.08972">
        <ele>598.55786</ele>
        <time>2009-03-22T08:06:31Z</time>
      </trkpt>
      <trkpt lat="43.84233" lon="7.08995">
        <ele>597.59668</ele>
        <time>2009-03-22T08:06:34Z</time>
      </trkpt>
      <trkpt lat="43.84236" lon="7.09022">
        <ele>598.07739</ele>
        <time>2009-03-22T08:06:37Z</time>
      </trkpt>
      <trkpt lat="43.84242" lon="7.09056">
        <ele>598.07739</ele>
        <time>2009-03-22T08:06:41Z</time>
      </trkpt>
      <trkpt lat="43.84244" lon="7.09086">
        <ele>598.55786</ele>
        <time>2009-03-22T08:06:45Z</time>
      </trkpt>
      <trkpt lat="43.84235" lon="7.09102">
        <ele>598.07739</ele>
        <time>2009-03-22T08:06:48Z</time>
      </trkpt>
      <trkpt lat="43.84221" lon="7.09106">
        <ele>598.07739</ele>
        <time>2009-03-22T08:06:51Z</time>
      </trkpt>
      <trkpt lat="43.84205" lon="7.09098">
        <ele>599.03857</ele>
        <time>2009-03-22T08:06:55Z</time>
      </trkpt>
      <trkpt lat="43.84199" lon="7.09085">
        <ele>599.51928</ele>
        <time>2009-03-22T08:06:58Z</time>
      </trkpt>
      <trkpt lat="43.84179" lon="7.09058">
        <ele>600.96118</ele>
        <time>2009-03-22T08:07:05Z</time>
      </trkpt>
      <trkpt lat="43.84165" lon="7.09035">
        <ele>600.48071</ele>
        <time>2009-03-22T08:07:10Z</time>
      </trkpt>
      <trkpt lat="43.84147" lon="7.09011">
        <ele>602.88378</ele>
        <time>2009-03-22T08:07:16Z</time>
      </trkpt>
      <trkpt lat="43.84143" lon="7.09008">
        <ele>603.3645</ele>
        <time>2009-03-22T08:07:17Z</time>
      </trkpt>
      <trkpt lat="43.84117" lon="7.08989">
        <ele>604.32617</ele>
        <time>2009-03-22T08:07:24Z</time>
      </trkpt>
      <trkpt lat="43.84095" lon="7.08975">
        <ele>605.28735</ele>
        <time>2009-03-22T08:07:30Z</time>
      </trkpt>
      <trkpt lat="43.84076" lon="7.08965">
        <ele>606.24853</ele>
        <time>2009-03-22T08:07:35Z</time>
      </trkpt>
      <trkpt lat="43.84072" lon="7.08963">
        <ele>606.72924</ele>
        <time>2009-03-22T08:07:36Z</time>
      </trkpt>
      <trkpt lat="43.84051" lon="7.08938">
        <ele>608.17138</ele>
        <time>2009-03-22T08:07:42Z</time>
      </trkpt>
      <trkpt lat="43.84045" lon="7.08928">
        <ele>608.65185</ele>
        <time>2009-03-22T08:07:44Z</time>
      </trkpt>
      <trkpt lat="43.84037" lon="7.08898">
        <ele>609.61328</ele>
        <time>2009-03-22T08:07:49Z</time>
      </trkpt>
      <trkpt lat="43.84032" lon="7.08843">
        <ele>611.05517</ele>
        <time>2009-03-22T08:07:58Z</time>
      </trkpt>
      <trkpt lat="43.84019" lon="7.0881">
        <ele>612.0166</ele>
        <time>2009-03-22T08:08:04Z</time>
      </trkpt>
      <trkpt lat="43.84012" lon="7.08794">
        <ele>612.0166</ele>
        <time>2009-03-22T08:08:07Z</time>
      </trkpt>
      <trkpt lat="43.84008" lon="7.0876">
        <ele>611.53588</ele>
        <time>2009-03-22T08:08:13Z</time>
      </trkpt>
      <trkpt lat="43.84009" lon="7.0875">
        <ele>611.53588</ele>
        <time>2009-03-22T08:08:15Z</time>
      </trkpt>
      <trkpt lat="43.84013" lon="7.08717">
        <ele>611.05517</ele>
        <time>2009-03-22T08:08:22Z</time>
      </trkpt>
      <trkpt lat="43.84013" lon="7.08696">
        <ele>610.57446</ele>
        <time>2009-03-22T08:08:27Z</time>
      </trkpt>
      <trkpt lat="43.84012" lon="7.08663">
        <ele>610.57446</ele>
        <time>2009-03-22T08:08:34Z</time>
      </trkpt>
      <trkpt lat="43.84011" lon="7.08638">
        <ele>611.05517</ele>
        <time>2009-03-22T08:08:39Z</time>
      </trkpt>
      <trkpt lat="43.84011" lon="7.08602">
        <ele>612.97778</ele>
        <time>2009-03-22T08:08:46Z</time>
      </trkpt>
      <trkpt lat="43.84011" lon="7.08558">
        <ele>612.97778</ele>
        <time>2009-03-22T08:08:54Z</time>
      </trkpt>
      <trkpt lat="43.84012" lon="7.08531">
        <ele>611.53588</ele>
        <time>2009-03-22T08:08:59Z</time>
      </trkpt>
      <trkpt lat="43.84016" lon="7.08514">
        <ele>611.53588</ele>
        <time>2009-03-22T08:09:02Z</time>
      </trkpt>
      <trkpt lat="43.84013" lon="7.08496">
        <ele>612.49707</ele>
        <time>2009-03-22T08:09:06Z</time>
      </trkpt>
      <trkpt lat="43.84004" lon="7.08502">
        <ele>613.45849</ele>
        <time>2009-03-22T08:09:10Z</time>
      </trkpt>
      <trkpt lat="43.84001" lon="7.08514">
        <ele>614.41967</ele>
        <time>2009-03-22T08:09:14Z</time>
      </trkpt>
      <trkpt lat="43.83996" lon="7.0854">
        <ele>615.3811</ele>
        <time>2009-03-22T08:09:22Z</time>
      </trkpt>
      <trkpt lat="43.83993" lon="7.08554">
        <ele>613.93896</ele>
        <time>2009-03-22T08:09:28Z</time>
      </trkpt>
      <trkpt lat="43.83991" lon="7.08568">
        <ele>614.41967</ele>
        <time>2009-03-22T08:09:35Z</time>
      </trkpt>
      <trkpt lat="43.83987" lon="7.08585">
        <ele>615.3811</ele>
        <time>2009-03-22T08:09:43Z</time>
      </trkpt>
      <trkpt lat="43.83985" lon="7.086">
        <ele>616.34228</ele>
        <time>2009-03-22T08:09:50Z</time>
      </trkpt>
      <trkpt lat="43.83983" lon="7.08614">
        <ele>616.34228</ele>
        <time>2009-03-22T08:09:57Z</time>
      </trkpt>
      <trkpt lat="43.83979" lon="7.08632">
        <ele>617.78418</ele>
        <time>2009-03-22T08:10:05Z</time>
      </trkpt>
      <trkpt lat="43.83977" lon="7.08649">
        <ele>619.70703</ele>
        <time>2009-03-22T08:10:13Z</time>
      </trkpt>
      <trkpt lat="43.83976" lon="7.08666">
        <ele>620.66845</ele>
        <time>2009-03-22T08:10:21Z</time>
      </trkpt>
      <trkpt lat="43.83975" lon="7.08676">
        <ele>620.66845</ele>
        <time>2009-03-22T08:10:26Z</time>
      </trkpt>
      <trkpt lat="43.83976" lon="7.08688">
        <ele>621.62963</ele>
        <time>2009-03-22T08:10:33Z</time>
      </trkpt>
      <trkpt lat="43.83976" lon="7.08697">
        <ele>622.11035</ele>
        <time>2009-03-22T08:10:38Z</time>
      </trkpt>
      <trkpt lat="43.83973" lon="7.08716">
        <ele>623.07177</ele>
        <time>2009-03-22T08:10:47Z</time>
      </trkpt>
      <trkpt lat="43.83967" lon="7.08727">
        <ele>624.51367</ele>
        <time>2009-03-22T08:10:53Z</time>
      </trkpt>
      <trkpt lat="43.83956" lon="7.0874">
        <ele>625.95556</ele>
        <time>2009-03-22T08:11:02Z</time>
      </trkpt>
      <trkpt lat="43.83949" lon="7.0873">
        <ele>627.3977</ele>
        <time>2009-03-22T08:11:09Z</time>
      </trkpt>
      <trkpt lat="43.83952" lon="7.08719">
        <ele>629.32006</ele>
        <time>2009-03-22T08:11:15Z</time>
      </trkpt>
      <trkpt lat="43.83957" lon="7.08704">
        <ele>630.28149</ele>
        <time>2009-03-22T08:11:22Z</time>
      </trkpt>
      <trkpt lat="43.83957" lon="7.08686">
        <ele>629.80078</ele>
        <time>2009-03-22T08:11:31Z</time>
      </trkpt>
      <trkpt lat="43.83951" lon="7.08665">
        <ele>632.2041</ele>
        <time>2009-03-22T08:11:42Z</time>
      </trkpt>
      <trkpt lat="43.83947" lon="7.08653">
        <ele>633.64599</ele>
        <time>2009-03-22T08:11:49Z</time>
      </trkpt>
      <trkpt lat="43.83943" lon="7.08639">
        <ele>634.60742</ele>
        <time>2009-03-22T08:11:57Z</time>
      </trkpt>
      <trkpt lat="43.8394" lon="7.08623">
        <ele>636.53027</ele>
        <time>2009-03-22T08:12:06Z</time>
      </trkpt>
      <trkpt lat="43.83936" lon="7.08607">
        <ele>637.97216</ele>
        <time>2009-03-22T08:12:15Z</time>
      </trkpt>
      <trkpt lat="43.83931" lon="7.08589">
        <ele>639.89477</ele>
        <time>2009-03-22T08:12:25Z</time>
      </trkpt>
      <trkpt lat="43.83927" lon="7.08574">
        <ele>640.37548</ele>
        <time>2009-03-22T08:12:33Z</time>
      </trkpt>
      <trkpt lat="43.83923" lon="7.0856">
        <ele>640.85595</ele>
        <time>2009-03-22T08:12:41Z</time>
      </trkpt>
      <trkpt lat="43.83919" lon="7.08548">
        <ele>641.33667</ele>
        <time>2009-03-22T08:12:48Z</time>
      </trkpt>
      <trkpt lat="43.83917" lon="7.08533">
        <ele>641.81738</ele>
        <time>2009-03-22T08:12:56Z</time>
      </trkpt>
      <trkpt lat="43.83914" lon="7.08516">
        <ele>642.7788</ele>
        <time>2009-03-22T08:13:05Z</time>
      </trkpt>
      <trkpt lat="43.83913" lon="7.08498">
        <ele>643.73999</ele>
        <time>2009-03-22T08:13:15Z</time>
      </trkpt>
      <trkpt lat="43.83913" lon="7.08484">
        <ele>644.2207</ele>
        <time>2009-03-22T08:13:23Z</time>
      </trkpt>
      <trkpt lat="43.83912" lon="7.0846">
        <ele>644.70117</ele>
        <time>2009-03-22T08:13:35Z</time>
      </trkpt>
      <trkpt lat="43.83912" lon="7.08456">
        <ele>644.70117</ele>
        <time>2009-03-22T08:13:37Z</time>
      </trkpt>
      <trkpt lat="43.83911" lon="7.08435">
        <ele>646.14331</ele>
        <time>2009-03-22T08:13:48Z</time>
      </trkpt>
      <trkpt lat="43.83909" lon="7.08419">
        <ele>646.62402</ele>
        <time>2009-03-22T08:13:55Z</time>
      </trkpt>
      <trkpt lat="43.83904" lon="7.08396">
        <ele>647.5852</ele>
        <time>2009-03-22T08:14:06Z</time>
      </trkpt>
      <trkpt lat="43.839" lon="7.08381">
        <ele>648.06591</ele>
        <time>2009-03-22T08:14:13Z</time>
      </trkpt>
      <trkpt lat="43.83898" lon="7.0836">
        <ele>649.0271</ele>
        <time>2009-03-22T08:14:23Z</time>
      </trkpt>
      <trkpt lat="43.83896" lon="7.08341">
        <ele>649.98852</ele>
        <time>2009-03-22T08:14:32Z</time>
      </trkpt>
      <trkpt lat="43.83894" lon="7.08324">
        <ele>650.9497</ele>
        <time>2009-03-22T08:14:40Z</time>
      </trkpt>
      <trkpt lat="43.83892" lon="7.08307">
        <ele>652.39184</ele>
        <time>2009-03-22T08:14:48Z</time>
      </trkpt>
      <trkpt lat="43.8389" lon="7.08287">
        <ele>653.83398</ele>
        <time>2009-03-22T08:14:57Z</time>
      </trkpt>
      <trkpt lat="43.83888" lon="7.08267">
        <ele>654.79516</ele>
        <time>2009-03-22T08:15:06Z</time>
      </trkpt>
      <trkpt lat="43.83885" lon="7.08247">
        <ele>656.23706</ele>
        <time>2009-03-22T08:15:15Z</time>
      </trkpt>
      <trkpt lat="43.83883" lon="7.08232">
        <ele>657.67919</ele>
        <time>2009-03-22T08:15:22Z</time>
      </trkpt>
      <trkpt lat="43.83881" lon="7.08213">
        <ele>659.12109</ele>
        <time>2009-03-22T08:15:31Z</time>
      </trkpt>
      <trkpt lat="43.83878" lon="7.08196">
        <ele>661.0437</ele>
        <time>2009-03-22T08:15:40Z</time>
      </trkpt>
      <trkpt lat="43.83876" lon="7.08177">
        <ele>662.48559</ele>
        <time>2009-03-22T08:15:49Z</time>
      </trkpt>
      <trkpt lat="43.83877" lon="7.08168">
        <ele>662.00512</ele>
        <time>2009-03-22T08:15:53Z</time>
      </trkpt>
      <trkpt lat="43.8388" lon="7.08153">
        <ele>662.9663</ele>
        <time>2009-03-22T08:16:00Z</time>
      </trkpt>
      <trkpt lat="43.83878" lon="7.08141">
        <ele>664.4082</ele>
        <time>2009-03-22T08:16:06Z</time>
      </trkpt>
      <trkpt lat="43.83872" lon="7.08138">
        <ele>665.36962</ele>
        <time>2009-03-22T08:16:11Z</time>
      </trkpt>
      <trkpt lat="43.83871" lon="7.08136">
        <ele>666.33081</ele>
        <time>2009-03-22T08:16:16Z</time>
      </trkpt>
      <trkpt lat="43.83871" lon="7.08135">
        <ele>665.36962</ele>
        <time>2009-03-22T08:16:28Z</time>
      </trkpt>
      <trkpt lat="43.8387" lon="7.08135">
        <ele>664.88891</ele>
        <time>2009-03-22T08:16:46Z</time>
      </trkpt>
      <trkpt lat="43.83871" lon="7.08135">
        <ele>667.29223</ele>
        <time>2009-03-22T08:17:35Z</time>
      </trkpt>
      <trkpt lat="43.8387" lon="7.08138">
        <ele>667.29223</ele>
        <time>2009-03-22T08:17:40Z</time>
      </trkpt>
      <trkpt lat="43.83867" lon="7.0815">
        <ele>667.7727</ele>
        <time>2009-03-22T08:17:45Z</time>
      </trkpt>
      <trkpt lat="43.83867" lon="7.08157">
        <ele>668.73437</ele>
        <time>2009-03-22T08:17:47Z</time>
      </trkpt>
      <trkpt lat="43.83865" lon="7.08182">
        <ele>670.65698</ele>
        <time>2009-03-22T08:17:56Z</time>
      </trkpt>
      <trkpt lat="43.83863" lon="7.08195">
        <ele>671.61816</ele>
        <time>2009-03-22T08:18:02Z</time>
      </trkpt>
      <trkpt lat="43.83863" lon="7.08208">
        <ele>674.02148</ele>
        <time>2009-03-22T08:18:09Z</time>
      </trkpt>
      <trkpt lat="43.83861" lon="7.08221">
        <ele>676.4248</ele>
        <time>2009-03-22T08:18:15Z</time>
      </trkpt>
      <trkpt lat="43.83859" lon="7.08234">
        <ele>678.34741</ele>
        <time>2009-03-22T08:18:22Z</time>
      </trkpt>
      <trkpt lat="43.83857" lon="7.08249">
        <ele>681.23144</ele>
        <time>2009-03-22T08:18:30Z</time>
      </trkpt>
      <trkpt lat="43.83853" lon="7.08264">
        <ele>682.19262</ele>
        <time>2009-03-22T08:18:38Z</time>
      </trkpt>
      <trkpt lat="43.83848" lon="7.08284">
        <ele>683.1538</ele>
        <time>2009-03-22T08:18:48Z</time>
      </trkpt>
      <trkpt lat="43.83841" lon="7.08305">
        <ele>684.59619</ele>
        <time>2009-03-22T08:18:58Z</time>
      </trkpt>
      <trkpt lat="43.83834" lon="7.08321">
        <ele>686.03808</ele>
        <time>2009-03-22T08:19:06Z</time>
      </trkpt>
      <trkpt lat="43.83828" lon="7.08336">
        <ele>687.47998</ele>
        <time>2009-03-22T08:19:13Z</time>
      </trkpt>
      <trkpt lat="43.83822" lon="7.08359">
        <ele>689.40258</ele>
        <time>2009-03-22T08:19:23Z</time>
      </trkpt>
      <trkpt lat="43.8382" lon="7.08375">
        <ele>690.84448</ele>
        <time>2009-03-22T08:19:30Z</time>
      </trkpt>
      <trkpt lat="43.83817" lon="7.08395">
        <ele>692.76733</ele>
        <time>2009-03-22T08:19:39Z</time>
      </trkpt>
      <trkpt lat="43.83816" lon="7.08412">
        <ele>695.17041</ele>
        <time>2009-03-22T08:19:47Z</time>
      </trkpt>
      <trkpt lat="43.83813" lon="7.08433">
        <ele>698.53491</ele>
        <time>2009-03-22T08:19:56Z</time>
      </trkpt>
      <trkpt lat="43.83811" lon="7.0845">
        <ele>701.8999</ele>
        <time>2009-03-22T08:20:04Z</time>
      </trkpt>
      <trkpt lat="43.83808" lon="7.08468">
        <ele>705.74511</ele>
        <time>2009-03-22T08:20:13Z</time>
      </trkpt>
      <trkpt lat="43.83802" lon="7.08481">
        <ele>707.66772</ele>
        <time>2009-03-22T08:20:20Z</time>
      </trkpt>
      <trkpt lat="43.83799" lon="7.08496">
        <ele>708.6289</ele>
        <time>2009-03-22T08:20:28Z</time>
      </trkpt>
      <trkpt lat="43.83799" lon="7.0851">
        <ele>710.55151</ele>
        <time>2009-03-22T08:20:36Z</time>
      </trkpt>
      <trkpt lat="43.83797" lon="7.08524">
        <ele>710.0708</ele>
        <time>2009-03-22T08:20:44Z</time>
      </trkpt>
      <trkpt lat="43.83796" lon="7.0854">
        <ele>710.55151</ele>
        <time>2009-03-22T08:20:52Z</time>
      </trkpt>
      <trkpt lat="43.83796" lon="7.08558">
        <ele>712.95483</ele>
        <time>2009-03-22T08:21:01Z</time>
      </trkpt>
      <trkpt lat="43.83796" lon="7.08575">
        <ele>713.91601</ele>
        <time>2009-03-22T08:21:09Z</time>
      </trkpt>
      <trkpt lat="43.83795" lon="7.08591">
        <ele>714.39672</ele>
        <time>2009-03-22T08:21:16Z</time>
      </trkpt>
      <trkpt lat="43.83795" lon="7.08609">
        <ele>715.35815</ele>
        <time>2009-03-22T08:21:24Z</time>
      </trkpt>
      <trkpt lat="43.83791" lon="7.08615">
        <ele>715.83886</ele>
        <time>2009-03-22T08:21:28Z</time>
      </trkpt>
      <trkpt lat="43.83783" lon="7.08612">
        <ele>717.281</ele>
        <time>2009-03-22T08:21:34Z</time>
      </trkpt>
      <trkpt lat="43.83783" lon="7.08604">
        <ele>718.7229</ele>
        <time>2009-03-22T08:21:39Z</time>
      </trkpt>
      <trkpt lat="43.83783" lon="7.08579">
        <ele>720.6455</ele>
        <time>2009-03-22T08:21:50Z</time>
      </trkpt>
      <trkpt lat="43.83779" lon="7.08561">
        <ele>720.6455</ele>
        <time>2009-03-22T08:21:58Z</time>
      </trkpt>
      <trkpt lat="43.83774" lon="7.08548">
        <ele>720.6455</ele>
        <time>2009-03-22T08:22:05Z</time>
      </trkpt>
      <trkpt lat="43.83773" lon="7.08546">
        <ele>721.12622</ele>
        <time>2009-03-22T08:22:06Z</time>
      </trkpt>
      <trkpt lat="43.83767" lon="7.08532">
        <ele>721.60668</ele>
        <time>2009-03-22T08:22:14Z</time>
      </trkpt>
      <trkpt lat="43.83762" lon="7.08516">
        <ele>721.60668</ele>
        <time>2009-03-22T08:22:23Z</time>
      </trkpt>
      <trkpt lat="43.83759" lon="7.08504">
        <ele>724.97143</ele>
        <time>2009-03-22T08:22:30Z</time>
      </trkpt>
      <trkpt lat="43.83757" lon="7.08491">
        <ele>727.37475</ele>
        <time>2009-03-22T08:22:37Z</time>
      </trkpt>
      <trkpt lat="43.83753" lon="7.08476">
        <ele>727.85522</ele>
        <time>2009-03-22T08:22:45Z</time>
      </trkpt>
      <trkpt lat="43.83749" lon="7.08457">
        <ele>726.41333</ele>
        <time>2009-03-22T08:22:54Z</time>
      </trkpt>
      <trkpt lat="43.83748" lon="7.08443">
        <ele>726.89404</ele>
        <time>2009-03-22T08:23:02Z</time>
      </trkpt>
      <trkpt lat="43.83749" lon="7.08431">
        <ele>729.77783</ele>
        <time>2009-03-22T08:23:09Z</time>
      </trkpt>
      <trkpt lat="43.83748" lon="7.08412">
        <ele>730.25854</ele>
        <time>2009-03-22T08:23:19Z</time>
      </trkpt>
      <trkpt lat="43.83749" lon="7.08395">
        <ele>730.73925</ele>
        <time>2009-03-22T08:23:27Z</time>
      </trkpt>
      <trkpt lat="43.83748" lon="7.08381">
        <ele>731.70043</ele>
        <time>2009-03-22T08:23:35Z</time>
      </trkpt>
      <trkpt lat="43.83745" lon="7.08361">
        <ele>730.73925</ele>
        <time>2009-03-22T08:23:44Z</time>
      </trkpt>
      <trkpt lat="43.83741" lon="7.08343">
        <ele>730.25854</ele>
        <time>2009-03-22T08:23:54Z</time>
      </trkpt>
      <trkpt lat="43.8374" lon="7.08331">
        <ele>731.21997</ele>
        <time>2009-03-22T08:24:02Z</time>
      </trkpt>
      <trkpt lat="43.83737" lon="7.08317">
        <ele>731.70043</ele>
        <time>2009-03-22T08:24:10Z</time>
      </trkpt>
      <trkpt lat="43.83736" lon="7.08302">
        <ele>731.21997</ele>
        <time>2009-03-22T08:24:18Z</time>
      </trkpt>
      <trkpt lat="43.83734" lon="7.08289">
        <ele>732.6621</ele>
        <time>2009-03-22T08:24:24Z</time>
      </trkpt>
      <trkpt lat="43.83731" lon="7.08273">
        <ele>734.58471</ele>
        <time>2009-03-22T08:24:33Z</time>
      </trkpt>
      <trkpt lat="43.8373" lon="7.08263">
        <ele>736.02661</ele>
        <time>2009-03-22T08:24:39Z</time>
      </trkpt>
      <trkpt lat="43.83729" lon="7.0825">
        <ele>738.42993</ele>
        <time>2009-03-22T08:24:46Z</time>
      </trkpt>
      <trkpt lat="43.83728" lon="7.08243">
        <ele>738.42993</ele>
        <time>2009-03-22T08:24:50Z</time>
      </trkpt>
      <trkpt lat="43.83727" lon="7.0823">
        <ele>739.87182</ele>
        <time>2009-03-22T08:24:57Z</time>
      </trkpt>
      <trkpt lat="43.83723" lon="7.08213">
        <ele>741.31372</ele>
        <time>2009-03-22T08:25:05Z</time>
      </trkpt>
      <trkpt lat="43.83721" lon="7.08198">
        <ele>742.27514</ele>
        <time>2009-03-22T08:25:13Z</time>
      </trkpt>
      <trkpt lat="43.83719" lon="7.08187">
        <ele>743.23632</ele>
        <time>2009-03-22T08:25:20Z</time>
      </trkpt>
      <trkpt lat="43.83718" lon="7.08171">
        <ele>741.79443</ele>
        <time>2009-03-22T08:25:28Z</time>
      </trkpt>
      <trkpt lat="43.83716" lon="7.08156">
        <ele>742.27514</ele>
        <time>2009-03-22T08:25:35Z</time>
      </trkpt>
      <trkpt lat="43.83714" lon="7.08141">
        <ele>742.27514</ele>
        <time>2009-03-22T08:25:42Z</time>
      </trkpt>
      <trkpt lat="43.83712" lon="7.08128">
        <ele>742.75585</ele>
        <time>2009-03-22T08:25:49Z</time>
      </trkpt>
      <trkpt lat="43.8371" lon="7.08111">
        <ele>742.75585</ele>
        <time>2009-03-22T08:25:58Z</time>
      </trkpt>
      <trkpt lat="43.83709" lon="7.08102">
        <ele>743.71704</ele>
        <time>2009-03-22T08:26:03Z</time>
      </trkpt>
      <trkpt lat="43.83708" lon="7.08086">
        <ele>745.63964</ele>
        <time>2009-03-22T08:26:12Z</time>
      </trkpt>
      <trkpt lat="43.83706" lon="7.08069">
        <ele>747.56225</ele>
        <time>2009-03-22T08:26:22Z</time>
      </trkpt>
      <trkpt lat="43.83705" lon="7.08055">
        <ele>749.4851</ele>
        <time>2009-03-22T08:26:30Z</time>
      </trkpt>
      <trkpt lat="43.83703" lon="7.08042">
        <ele>749.96582</ele>
        <time>2009-03-22T08:26:37Z</time>
      </trkpt>
      <trkpt lat="43.83702" lon="7.0803">
        <ele>749.96582</ele>
        <time>2009-03-22T08:26:44Z</time>
      </trkpt>
      <trkpt lat="43.837" lon="7.08013">
        <ele>751.40771</ele>
        <time>2009-03-22T08:26:53Z</time>
      </trkpt>
      <trkpt lat="43.83697" lon="7.07998">
        <ele>751.88842</ele>
        <time>2009-03-22T08:27:01Z</time>
      </trkpt>
      <trkpt lat="43.83696" lon="7.07977">
        <ele>754.29174</ele>
        <time>2009-03-22T08:27:12Z</time>
      </trkpt>
      <trkpt lat="43.83696" lon="7.07975">
        <ele>754.77221</ele>
        <time>2009-03-22T08:27:13Z</time>
      </trkpt>
      <trkpt lat="43.83695" lon="7.07957">
        <ele>755.25293</ele>
        <time>2009-03-22T08:27:23Z</time>
      </trkpt>
      <trkpt lat="43.83695" lon="7.07943">
        <ele>756.69482</ele>
        <time>2009-03-22T08:27:31Z</time>
      </trkpt>
      <trkpt lat="43.83694" lon="7.07929">
        <ele>758.61743</ele>
        <time>2009-03-22T08:27:39Z</time>
      </trkpt>
      <trkpt lat="43.83694" lon="7.07914">
        <ele>761.02075</ele>
        <time>2009-03-22T08:27:47Z</time>
      </trkpt>
      <trkpt lat="43.83694" lon="7.07898">
        <ele>762.94335</ele>
        <time>2009-03-22T08:27:56Z</time>
      </trkpt>
      <trkpt lat="43.83693" lon="7.07886">
        <ele>764.38549</ele>
        <time>2009-03-22T08:28:03Z</time>
      </trkpt>
      <trkpt lat="43.83694" lon="7.07872">
        <ele>765.34692</ele>
        <time>2009-03-22T08:28:10Z</time>
      </trkpt>
      <trkpt lat="43.83694" lon="7.07859">
        <ele>767.26953</ele>
        <time>2009-03-22T08:28:17Z</time>
      </trkpt>
      <trkpt lat="43.83695" lon="7.07843">
        <ele>769.19213</ele>
        <time>2009-03-22T08:28:26Z</time>
      </trkpt>
      <trkpt lat="43.83695" lon="7.07832">
        <ele>770.63403</ele>
        <time>2009-03-22T08:28:32Z</time>
      </trkpt>
      <trkpt lat="43.83696" lon="7.07827">
        <ele>771.11474</ele>
        <time>2009-03-22T08:28:35Z</time>
      </trkpt>
      <trkpt lat="43.83698" lon="7.0781">
        <ele>773.51806</ele>
        <time>2009-03-22T08:28:44Z</time>
      </trkpt>
      <trkpt lat="43.83699" lon="7.07794">
        <ele>773.99853</ele>
        <time>2009-03-22T08:28:52Z</time>
      </trkpt>
      <trkpt lat="43.83699" lon="7.07781">
        <ele>775.44043</ele>
        <time>2009-03-22T08:28:59Z</time>
      </trkpt>
      <trkpt lat="43.837" lon="7.07767">
        <ele>776.40185</ele>
        <time>2009-03-22T08:29:07Z</time>
      </trkpt>
      <trkpt lat="43.83701" lon="7.07755">
        <ele>777.36328</ele>
        <time>2009-03-22T08:29:14Z</time>
      </trkpt>
      <trkpt lat="43.83702" lon="7.07743">
        <ele>778.32446</ele>
        <time>2009-03-22T08:29:21Z</time>
      </trkpt>
      <trkpt lat="43.83702" lon="7.0773">
        <ele>778.80517</ele>
        <time>2009-03-22T08:29:27Z</time>
      </trkpt>
      <trkpt lat="43.83701" lon="7.07716">
        <ele>779.28564</ele>
        <time>2009-03-22T08:29:34Z</time>
      </trkpt>
      <trkpt lat="43.83701" lon="7.07704">
        <ele>780.24731</ele>
        <time>2009-03-22T08:29:41Z</time>
      </trkpt>
      <trkpt lat="43.837" lon="7.0769">
        <ele>782.65063</ele>
        <time>2009-03-22T08:29:49Z</time>
      </trkpt>
      <trkpt lat="43.83699" lon="7.07677">
        <ele>783.1311</ele>
        <time>2009-03-22T08:29:56Z</time>
      </trkpt>
      <trkpt lat="43.83698" lon="7.07675">
        <ele>783.1311</ele>
        <time>2009-03-22T08:29:57Z</time>
      </trkpt>
      <trkpt lat="43.83698" lon="7.0766">
        <ele>783.61181</ele>
        <time>2009-03-22T08:30:05Z</time>
      </trkpt>
      <trkpt lat="43.83696" lon="7.07646">
        <ele>783.61181</ele>
        <time>2009-03-22T08:30:13Z</time>
      </trkpt>
      <trkpt lat="43.83695" lon="7.07633">
        <ele>784.57324</ele>
        <time>2009-03-22T08:30:20Z</time>
      </trkpt>
      <trkpt lat="43.83696" lon="7.07618">
        <ele>786.01513</ele>
        <time>2009-03-22T08:30:28Z</time>
      </trkpt>
      <trkpt lat="43.83696" lon="7.07608">
        <ele>786.01513</ele>
        <time>2009-03-22T08:30:34Z</time>
      </trkpt>
      <trkpt lat="43.83695" lon="7.0759">
        <ele>787.93774</ele>
        <time>2009-03-22T08:30:44Z</time>
      </trkpt>
      <trkpt lat="43.83693" lon="7.07573">
        <ele>786.97631</ele>
        <time>2009-03-22T08:30:53Z</time>
      </trkpt>
      <trkpt lat="43.83692" lon="7.0756">
        <ele>786.01513</ele>
        <time>2009-03-22T08:31:00Z</time>
      </trkpt>
      <trkpt lat="43.83689" lon="7.07545">
        <ele>786.97631</ele>
        <time>2009-03-22T08:31:08Z</time>
      </trkpt>
      <trkpt lat="43.83686" lon="7.07533">
        <ele>786.97631</ele>
        <time>2009-03-22T08:31:15Z</time>
      </trkpt>
      <trkpt lat="43.83682" lon="7.07521">
        <ele>789.37963</ele>
        <time>2009-03-22T08:31:23Z</time>
      </trkpt>
      <trkpt lat="43.83681" lon="7.07516">
        <ele>791.30224</ele>
        <time>2009-03-22T08:31:26Z</time>
      </trkpt>
      <trkpt lat="43.83677" lon="7.07504">
        <ele>792.26367</ele>
        <time>2009-03-22T08:31:34Z</time>
      </trkpt>
      <trkpt lat="43.83672" lon="7.07489">
        <ele>795.14746</ele>
        <time>2009-03-22T08:31:41Z</time>
      </trkpt>
      <trkpt lat="43.83667" lon="7.07478">
        <ele>797.07031</ele>
        <time>2009-03-22T08:31:48Z</time>
      </trkpt>
      <trkpt lat="43.8366" lon="7.07465">
        <ele>797.07031</ele>
        <time>2009-03-22T08:31:57Z</time>
      </trkpt>
      <trkpt lat="43.83654" lon="7.07452">
        <ele>798.99292</ele>
        <time>2009-03-22T08:32:05Z</time>
      </trkpt>
      <trkpt lat="43.83649" lon="7.0744">
        <ele>800.91552</ele>
        <time>2009-03-22T08:32:12Z</time>
      </trkpt>
      <trkpt lat="43.83644" lon="7.07429">
        <ele>803.31884</ele>
        <time>2009-03-22T08:32:19Z</time>
      </trkpt>
      <trkpt lat="43.83639" lon="7.07422">
        <ele>803.79956</ele>
        <time>2009-03-22T08:32:24Z</time>
      </trkpt>
      <trkpt lat="43.83631" lon="7.07411">
        <ele>805.24145</ele>
        <time>2009-03-22T08:32:31Z</time>
      </trkpt>
      <trkpt lat="43.83623" lon="7.07402">
        <ele>805.72216</ele>
        <time>2009-03-22T08:32:38Z</time>
      </trkpt>
      <trkpt lat="43.83617" lon="7.07389">
        <ele>807.16406</ele>
        <time>2009-03-22T08:32:45Z</time>
      </trkpt>
      <trkpt lat="43.8361" lon="7.07373">
        <ele>808.60595</ele>
        <time>2009-03-22T08:32:53Z</time>
      </trkpt>
      <trkpt lat="43.83606" lon="7.07363">
        <ele>811.48999</ele>
        <time>2009-03-22T08:33:00Z</time>
      </trkpt>
      <trkpt lat="43.83605" lon="7.07361">
        <ele>811.9707</ele>
        <time>2009-03-22T08:33:01Z</time>
      </trkpt>
      <trkpt lat="43.83602" lon="7.07352">
        <ele>814.37402</ele>
        <time>2009-03-22T08:33:07Z</time>
      </trkpt>
      <trkpt lat="43.83595" lon="7.07343">
        <ele>813.89331</ele>
        <time>2009-03-22T08:33:13Z</time>
      </trkpt>
      <trkpt lat="43.83591" lon="7.07331">
        <ele>814.37402</ele>
        <time>2009-03-22T08:33:20Z</time>
      </trkpt>
      <trkpt lat="43.83588" lon="7.07315">
        <ele>815.81616</ele>
        <time>2009-03-22T08:33:28Z</time>
      </trkpt>
      <trkpt lat="43.83584" lon="7.07299">
        <ele>816.29663</ele>
        <time>2009-03-22T08:33:37Z</time>
      </trkpt>
      <trkpt lat="43.83583" lon="7.07284">
        <ele>814.85473</ele>
        <time>2009-03-22T08:33:45Z</time>
      </trkpt>
      <trkpt lat="43.8358" lon="7.07271">
        <ele>814.85473</ele>
        <time>2009-03-22T08:33:52Z</time>
      </trkpt>
      <trkpt lat="43.83575" lon="7.07254">
        <ele>813.41284</ele>
        <time>2009-03-22T08:34:00Z</time>
      </trkpt>
      <trkpt lat="43.83571" lon="7.07238">
        <ele>812.45141</ele>
        <time>2009-03-22T08:34:08Z</time>
      </trkpt>
      <trkpt lat="43.83567" lon="7.07222">
        <ele>812.93212</ele>
        <time>2009-03-22T08:34:17Z</time>
      </trkpt>
      <trkpt lat="43.83565" lon="7.07208">
        <ele>813.89331</ele>
        <time>2009-03-22T08:34:24Z</time>
      </trkpt>
      <trkpt lat="43.83563" lon="7.07195">
        <ele>814.85473</ele>
        <time>2009-03-22T08:34:31Z</time>
      </trkpt>
      <trkpt lat="43.83561" lon="7.07181">
        <ele>816.29663</ele>
        <time>2009-03-22T08:34:38Z</time>
      </trkpt>
      <trkpt lat="43.83557" lon="7.07166">
        <ele>817.25805</ele>
        <time>2009-03-22T08:34:46Z</time>
      </trkpt>
      <trkpt lat="43.83555" lon="7.07149">
        <ele>817.73852</ele>
        <time>2009-03-22T08:34:55Z</time>
      </trkpt>
      <trkpt lat="43.83554" lon="7.07132">
        <ele>819.66137</ele>
        <time>2009-03-22T08:35:04Z</time>
      </trkpt>
      <trkpt lat="43.83554" lon="7.07119">
        <ele>821.10327</ele>
        <time>2009-03-22T08:35:11Z</time>
      </trkpt>
      <trkpt lat="43.83554" lon="7.07116">
        <ele>821.58374</ele>
        <time>2009-03-22T08:35:13Z</time>
      </trkpt>
      <trkpt lat="43.83554" lon="7.07096">
        <ele>823.02587</ele>
        <time>2009-03-22T08:35:23Z</time>
      </trkpt>
      <trkpt lat="43.83553" lon="7.0708">
        <ele>824.46777</ele>
        <time>2009-03-22T08:35:32Z</time>
      </trkpt>
      <trkpt lat="43.83552" lon="7.07062">
        <ele>824.94848</ele>
        <time>2009-03-22T08:35:41Z</time>
      </trkpt>
      <trkpt lat="43.8355" lon="7.07045">
        <ele>825.42895</ele>
        <time>2009-03-22T08:35:49Z</time>
      </trkpt>
      <trkpt lat="43.83549" lon="7.07031">
        <ele>825.42895</ele>
        <time>2009-03-22T08:35:56Z</time>
      </trkpt>
      <trkpt lat="43.83549" lon="7.07018">
        <ele>828.79394</ele>
        <time>2009-03-22T08:36:03Z</time>
      </trkpt>
      <trkpt lat="43.8355" lon="7.07003">
        <ele>830.71655</ele>
        <time>2009-03-22T08:36:10Z</time>
      </trkpt>
      <trkpt lat="43.8355" lon="7.06998">
        <ele>831.19726</ele>
        <time>2009-03-22T08:36:14Z</time>
      </trkpt>
      <trkpt lat="43.83551" lon="7.06998">
        <ele>831.67773</ele>
        <time>2009-03-22T08:36:22Z</time>
      </trkpt>
      <trkpt lat="43.83553" lon="7.06997">
        <ele>834.08105</ele>
        <time>2009-03-22T08:41:07Z</time>
      </trkpt>
      <trkpt lat="43.8355" lon="7.06997">
        <ele>831.67773</ele>
        <time>2009-03-22T08:42:23Z</time>
      </trkpt>
      <trkpt lat="43.8355" lon="7.06997">
        <ele>830.71655</ele>
        <time>2009-03-22T08:42:46Z</time>
      </trkpt>
      <trkpt lat="43.83552" lon="7.06997">
        <ele>833.11962</ele>
        <time>2009-03-22T08:43:14Z</time>
      </trkpt>
      <trkpt lat="43.83553" lon="7.06998">
        <ele>835.04248</ele>
        <time>2009-03-22T08:43:42Z</time>
      </trkpt>
      <trkpt lat="43.83551" lon="7.06997">
        <ele>833.60034</ele>
        <time>2009-03-22T08:44:16Z</time>
      </trkpt>
      <trkpt lat="43.83547" lon="7.06997">
        <ele>826.87109</ele>
        <time>2009-03-22T08:44:27Z</time>
      </trkpt>
      <trkpt lat="43.83547" lon="7.06997">
        <ele>826.87109</ele>
        <time>2009-03-22T08:44:38Z</time>
      </trkpt>
      <trkpt lat="43.83547" lon="7.06997">
        <ele>827.3518</ele>
        <time>2009-03-22T08:44:48Z</time>
      </trkpt>
      <trkpt lat="43.83552" lon="7.06998">
        <ele>835.04248</ele>
        <time>2009-03-22T08:45:00Z</time>
      </trkpt>
      <trkpt lat="43.83556" lon="7.06998">
        <ele>839.36816</ele>
        <time>2009-03-22T08:45:44Z</time>
      </trkpt>
      <trkpt lat="43.83558" lon="7.06998">
        <ele>840.81005</ele>
        <time>2009-03-22T08:46:08Z</time>
      </trkpt>
      <trkpt lat="43.83554" lon="7.06998">
        <ele>837.44555</ele>
        <time>2009-03-22T08:46:15Z</time>
      </trkpt>
      <trkpt lat="43.83553" lon="7.06996">
        <ele>835.52294</ele>
        <time>2009-03-22T08:46:23Z</time>
      </trkpt>
      <trkpt lat="43.83554" lon="7.06994">
        <ele>835.52294</ele>
        <time>2009-03-22T08:46:29Z</time>
      </trkpt>
      <trkpt lat="43.83549" lon="7.06995">
        <ele>828.79394</ele>
        <time>2009-03-22T08:46:52Z</time>
      </trkpt>
      <trkpt lat="43.8355" lon="7.06998">
        <ele>832.15844</ele>
        <time>2009-03-22T08:47:12Z</time>
      </trkpt>
      <trkpt lat="43.83546" lon="7.06993">
        <ele>826.87109</ele>
        <time>2009-03-22T08:47:33Z</time>
      </trkpt>
      <trkpt lat="43.83546" lon="7.06985">
        <ele>826.39038</ele>
        <time>2009-03-22T08:47:37Z</time>
      </trkpt>
      <trkpt lat="43.83553" lon="7.06966">
        <ele>830.23584</ele>
        <time>2009-03-22T08:47:45Z</time>
      </trkpt>
      <trkpt lat="43.83559" lon="7.06947">
        <ele>830.23584</ele>
        <time>2009-03-22T08:47:51Z</time>
      </trkpt>
      <trkpt lat="43.83562" lon="7.06925">
        <ele>831.19726</ele>
        <time>2009-03-22T08:47:58Z</time>
      </trkpt>
      <trkpt lat="43.83565" lon="7.06895">
        <ele>833.11962</ele>
        <time>2009-03-22T08:48:07Z</time>
      </trkpt>
      <trkpt lat="43.83571" lon="7.0687">
        <ele>833.11962</ele>
        <time>2009-03-22T08:48:14Z</time>
      </trkpt>
      <trkpt lat="43.83579" lon="7.06834">
        <ele>832.15844</ele>
        <time>2009-03-22T08:48:24Z</time>
      </trkpt>
      <trkpt lat="43.83587" lon="7.06802">
        <ele>831.19726</ele>
        <time>2009-03-22T08:48:33Z</time>
      </trkpt>
      <trkpt lat="43.83596" lon="7.06775">
        <ele>829.27441</ele>
        <time>2009-03-22T08:48:41Z</time>
      </trkpt>
      <trkpt lat="43.83607" lon="7.06743">
        <ele>825.90966</ele>
        <time>2009-03-22T08:48:50Z</time>
      </trkpt>
      <trkpt lat="43.83616" lon="7.06718">
        <ele>824.94848</ele>
        <time>2009-03-22T08:48:57Z</time>
      </trkpt>
      <trkpt lat="43.83623" lon="7.06691">
        <ele>824.46777</ele>
        <time>2009-03-22T08:49:04Z</time>
      </trkpt>
      <trkpt lat="43.83623" lon="7.06664">
        <ele>825.42895</ele>
        <time>2009-03-22T08:49:11Z</time>
      </trkpt>
      <trkpt lat="43.83622" lon="7.06633">
        <ele>826.87109</ele>
        <time>2009-03-22T08:49:19Z</time>
      </trkpt>
      <trkpt lat="43.83624" lon="7.06602">
        <ele>829.27441</ele>
        <time>2009-03-22T08:49:27Z</time>
      </trkpt>
      <trkpt lat="43.83617" lon="7.06568">
        <ele>830.23584</ele>
        <time>2009-03-22T08:49:36Z</time>
      </trkpt>
      <trkpt lat="43.8361" lon="7.06542">
        <ele>828.31323</ele>
        <time>2009-03-22T08:49:43Z</time>
      </trkpt>
      <trkpt lat="43.83602" lon="7.06506">
        <ele>827.3518</ele>
        <time>2009-03-22T08:49:52Z</time>
      </trkpt>
      <trkpt lat="43.83596" lon="7.06475">
        <ele>825.90966</ele>
        <time>2009-03-22T08:50:00Z</time>
      </trkpt>
      <trkpt lat="43.83589" lon="7.06442">
        <ele>829.27441</ele>
        <time>2009-03-22T08:50:08Z</time>
      </trkpt>
      <trkpt lat="43.83588" lon="7.06422">
        <ele>832.15844</ele>
        <time>2009-03-22T08:50:13Z</time>
      </trkpt>
      <trkpt lat="43.83586" lon="7.06385">
        <ele>834.56176</ele>
        <time>2009-03-22T08:50:22Z</time>
      </trkpt>
      <trkpt lat="43.83583" lon="7.06347">
        <ele>832.63916</ele>
        <time>2009-03-22T08:50:30Z</time>
      </trkpt>
      <trkpt lat="43.8358" lon="7.06311">
        <ele>832.63916</ele>
        <time>2009-03-22T08:50:38Z</time>
      </trkpt>
      <trkpt lat="43.8358" lon="7.06294">
        <ele>832.63916</ele>
        <time>2009-03-22T08:50:43Z</time>
      </trkpt>
      <trkpt lat="43.83586" lon="7.06256">
        <ele>834.08105</ele>
        <time>2009-03-22T08:50:51Z</time>
      </trkpt>
      <trkpt lat="43.83582" lon="7.06222">
        <ele>830.71655</ele>
        <time>2009-03-22T08:50:59Z</time>
      </trkpt>
      <trkpt lat="43.83584" lon="7.06193">
        <ele>835.52294</ele>
        <time>2009-03-22T08:51:06Z</time>
      </trkpt>
      <trkpt lat="43.83587" lon="7.06167">
        <ele>839.84887</ele>
        <time>2009-03-22T08:51:12Z</time>
      </trkpt>
      <trkpt lat="43.83587" lon="7.06137">
        <ele>842.73291</ele>
        <time>2009-03-22T08:51:19Z</time>
      </trkpt>
      <trkpt lat="43.83588" lon="7.0611">
        <ele>841.29077</ele>
        <time>2009-03-22T08:51:26Z</time>
      </trkpt>
      <trkpt lat="43.83595" lon="7.06075">
        <ele>838.88769</ele>
        <time>2009-03-22T08:51:34Z</time>
      </trkpt>
      <trkpt lat="43.836" lon="7.06053">
        <ele>836.96484</ele>
        <time>2009-03-22T08:51:40Z</time>
      </trkpt>
      <trkpt lat="43.83601" lon="7.06033">
        <ele>836.00366</ele>
        <time>2009-03-22T08:51:45Z</time>
      </trkpt>
      <trkpt lat="43.83599" lon="7.05988">
        <ele>835.04248</ele>
        <time>2009-03-22T08:51:56Z</time>
      </trkpt>
      <trkpt lat="43.83598" lon="7.05957">
        <ele>836.96484</ele>
        <time>2009-03-22T08:52:04Z</time>
      </trkpt>
      <trkpt lat="43.83591" lon="7.05931">
        <ele>834.56176</ele>
        <time>2009-03-22T08:52:11Z</time>
      </trkpt>
      <trkpt lat="43.83584" lon="7.05899">
        <ele>829.27441</ele>
        <time>2009-03-22T08:52:19Z</time>
      </trkpt>
      <trkpt lat="43.83581" lon="7.05862">
        <ele>827.83227</ele>
        <time>2009-03-22T08:52:28Z</time>
      </trkpt>
      <trkpt lat="43.83577" lon="7.05834">
        <ele>827.83227</ele>
        <time>2009-03-22T08:52:35Z</time>
      </trkpt>
      <trkpt lat="43.83574" lon="7.05803">
        <ele>829.75512</ele>
        <time>2009-03-22T08:52:42Z</time>
      </trkpt>
      <trkpt lat="43.83573" lon="7.05773">
        <ele>831.19726</ele>
        <time>2009-03-22T08:52:49Z</time>
      </trkpt>
      <trkpt lat="43.83572" lon="7.05739">
        <ele>831.67773</ele>
        <time>2009-03-22T08:52:57Z</time>
      </trkpt>
      <trkpt lat="43.83573" lon="7.0571">
        <ele>831.67773</ele>
        <time>2009-03-22T08:53:04Z</time>
      </trkpt>
      <trkpt lat="43.83576" lon="7.0568">
        <ele>831.19726</ele>
        <time>2009-03-22T08:53:11Z</time>
      </trkpt>
      <trkpt lat="43.83578" lon="7.0565">
        <ele>832.15844</ele>
        <time>2009-03-22T08:53:18Z</time>
      </trkpt>
      <trkpt lat="43.83582" lon="7.05622">
        <ele>834.56176</ele>
        <time>2009-03-22T08:53:25Z</time>
      </trkpt>
      <trkpt lat="43.83584" lon="7.05595">
        <ele>834.08105</ele>
        <time>2009-03-22T08:53:31Z</time>
      </trkpt>
      <trkpt lat="43.83582" lon="7.05565">
        <ele>832.15844</ele>
        <time>2009-03-22T08:53:38Z</time>
      </trkpt>
      <trkpt lat="43.83584" lon="7.05529">
        <ele>829.75512</ele>
        <time>2009-03-22T08:53:46Z</time>
      </trkpt>
      <trkpt lat="43.83587" lon="7.05499">
        <ele>829.27441</ele>
        <time>2009-03-22T08:53:53Z</time>
      </trkpt>
      <trkpt lat="43.83591" lon="7.05467">
        <ele>831.19726</ele>
        <time>2009-03-22T08:54:00Z</time>
      </trkpt>
      <trkpt lat="43.83595" lon="7.05435">
        <ele>832.63916</ele>
        <time>2009-03-22T08:54:07Z</time>
      </trkpt>
      <trkpt lat="43.83596" lon="7.05406">
        <ele>831.19726</ele>
        <time>2009-03-22T08:54:13Z</time>
      </trkpt>
      <trkpt lat="43.83597" lon="7.05367">
        <ele>833.60034</ele>
        <time>2009-03-22T08:54:22Z</time>
      </trkpt>
      <trkpt lat="43.83594" lon="7.05338">
        <ele>832.15844</ele>
        <time>2009-03-22T08:54:28Z</time>
      </trkpt>
      <trkpt lat="43.83593" lon="7.05308">
        <ele>833.11962</ele>
        <time>2009-03-22T08:54:35Z</time>
      </trkpt>
      <trkpt lat="43.83598" lon="7.05278">
        <ele>835.52294</ele>
        <time>2009-03-22T08:54:42Z</time>
      </trkpt>
      <trkpt lat="43.83602" lon="7.05245">
        <ele>833.11962</ele>
        <time>2009-03-22T08:54:49Z</time>
      </trkpt>
      <trkpt lat="43.83603" lon="7.05215">
        <ele>833.11962</ele>
        <time>2009-03-22T08:54:56Z</time>
      </trkpt>
      <trkpt lat="43.83603" lon="7.05193">
        <ele>831.67773</ele>
        <time>2009-03-22T08:55:01Z</time>
      </trkpt>
      <trkpt lat="43.83606" lon="7.05164">
        <ele>828.79394</ele>
        <time>2009-03-22T08:55:08Z</time>
      </trkpt>
      <trkpt lat="43.8361" lon="7.05138">
        <ele>829.75512</ele>
        <time>2009-03-22T08:55:14Z</time>
      </trkpt>
      <trkpt lat="43.83613" lon="7.05112">
        <ele>831.19726</ele>
        <time>2009-03-22T08:55:20Z</time>
      </trkpt>
      <trkpt lat="43.83612" lon="7.05086">
        <ele>831.19726</ele>
        <time>2009-03-22T08:55:26Z</time>
      </trkpt>
      <trkpt lat="43.83613" lon="7.05059">
        <ele>831.19726</ele>
        <time>2009-03-22T08:55:32Z</time>
      </trkpt>
      <trkpt lat="43.83617" lon="7.0502">
        <ele>831.67773</ele>
        <time>2009-03-22T08:55:41Z</time>
      </trkpt>
      <trkpt lat="43.83622" lon="7.04981">
        <ele>833.11962</ele>
        <time>2009-03-22T08:55:50Z</time>
      </trkpt>
      <trkpt lat="43.83626" lon="7.04955">
        <ele>832.15844</ele>
        <time>2009-03-22T08:55:56Z</time>
      </trkpt>
      <trkpt lat="43.83628" lon="7.04923">
        <ele>829.75512</ele>
        <time>2009-03-22T08:56:03Z</time>
      </trkpt>
      <trkpt lat="43.83632" lon="7.04889">
        <ele>829.75512</ele>
        <time>2009-03-22T08:56:11Z</time>
      </trkpt>
      <trkpt lat="43.83636" lon="7.04858">
        <ele>828.79394</ele>
        <time>2009-03-22T08:56:18Z</time>
      </trkpt>
      <trkpt lat="43.83648" lon="7.04828">
        <ele>828.31323</ele>
        <time>2009-03-22T08:56:26Z</time>
      </trkpt>
      <trkpt lat="43.83657" lon="7.048">
        <ele>828.79394</ele>
        <time>2009-03-22T08:56:34Z</time>
      </trkpt>
      <trkpt lat="43.83659" lon="7.04776">
        <ele>826.87109</ele>
        <time>2009-03-22T08:56:41Z</time>
      </trkpt>
      <trkpt lat="43.83664" lon="7.04748">
        <ele>825.90966</ele>
        <time>2009-03-22T08:56:49Z</time>
      </trkpt>
      <trkpt lat="43.83663" lon="7.04731">
        <ele>828.31323</ele>
        <time>2009-03-22T08:56:55Z</time>
      </trkpt>
      <trkpt lat="43.83656" lon="7.04715">
        <ele>828.79394</ele>
        <time>2009-03-22T08:57:00Z</time>
      </trkpt>
      <trkpt lat="43.83649" lon="7.04691">
        <ele>828.79394</ele>
        <time>2009-03-22T08:57:07Z</time>
      </trkpt>
      <trkpt lat="43.83653" lon="7.04667">
        <ele>827.83227</ele>
        <time>2009-03-22T08:57:13Z</time>
      </trkpt>
      <trkpt lat="43.83664" lon="7.04633">
        <ele>827.3518</ele>
        <time>2009-03-22T08:57:22Z</time>
      </trkpt>
      <trkpt lat="43.83675" lon="7.04603">
        <ele>829.75512</ele>
        <time>2009-03-22T08:57:30Z</time>
      </trkpt>
      <trkpt lat="43.83683" lon="7.04566">
        <ele>833.60034</ele>
        <time>2009-03-22T08:57:39Z</time>
      </trkpt>
      <trkpt lat="43.83687" lon="7.04528">
        <ele>836.48437</ele>
        <time>2009-03-22T08:57:48Z</time>
      </trkpt>
      <trkpt lat="43.83687" lon="7.04487">
        <ele>840.32959</ele>
        <time>2009-03-22T08:57:58Z</time>
      </trkpt>
      <trkpt lat="43.83686" lon="7.04459">
        <ele>840.32959</ele>
        <time>2009-03-22T08:58:05Z</time>
      </trkpt>
      <trkpt lat="43.83685" lon="7.0443">
        <ele>839.36816</ele>
        <time>2009-03-22T08:58:12Z</time>
      </trkpt>
      <trkpt lat="43.83683" lon="7.04395">
        <ele>839.36816</ele>
        <time>2009-03-22T08:58:20Z</time>
      </trkpt>
      <trkpt lat="43.83683" lon="7.04351">
        <ele>839.84887</ele>
        <time>2009-03-22T08:58:30Z</time>
      </trkpt>
      <trkpt lat="43.83684" lon="7.0432">
        <ele>838.88769</ele>
        <time>2009-03-22T08:58:37Z</time>
      </trkpt>
      <trkpt lat="43.83689" lon="7.04284">
        <ele>837.92627</ele>
        <time>2009-03-22T08:58:45Z</time>
      </trkpt>
      <trkpt lat="43.83695" lon="7.04253">
        <ele>836.96484</ele>
        <time>2009-03-22T08:58:52Z</time>
      </trkpt>
      <trkpt lat="43.83695" lon="7.04222">
        <ele>836.00366</ele>
        <time>2009-03-22T08:58:59Z</time>
      </trkpt>
      <trkpt lat="43.83697" lon="7.04187">
        <ele>836.96484</ele>
        <time>2009-03-22T08:59:07Z</time>
      </trkpt>
      <trkpt lat="43.83702" lon="7.04149">
        <ele>834.08105</ele>
        <time>2009-03-22T08:59:15Z</time>
      </trkpt>
      <trkpt lat="43.83706" lon="7.04109">
        <ele>832.63916</ele>
        <time>2009-03-22T08:59:24Z</time>
      </trkpt>
      <trkpt lat="43.83708" lon="7.0408">
        <ele>832.15844</ele>
        <time>2009-03-22T08:59:31Z</time>
      </trkpt>
      <trkpt lat="43.83709" lon="7.04043">
        <ele>830.71655</ele>
        <time>2009-03-22T08:59:39Z</time>
      </trkpt>
      <trkpt lat="43.8371" lon="7.04008">
        <ele>831.67773</ele>
        <time>2009-03-22T08:59:47Z</time>
      </trkpt>
      <trkpt lat="43.83712" lon="7.03979">
        <ele>834.56176</ele>
        <time>2009-03-22T08:59:54Z</time>
      </trkpt>
      <trkpt lat="43.83711" lon="7.03949">
        <ele>835.04248</ele>
        <time>2009-03-22T09:00:01Z</time>
      </trkpt>
      <trkpt lat="43.83713" lon="7.03923">
        <ele>835.52294</ele>
        <time>2009-03-22T09:00:07Z</time>
      </trkpt>
      <trkpt lat="43.83714" lon="7.03896">
        <ele>836.48437</ele>
        <time>2009-03-22T09:00:13Z</time>
      </trkpt>
      <trkpt lat="43.83717" lon="7.03862">
        <ele>834.08105</ele>
        <time>2009-03-22T09:00:20Z</time>
      </trkpt>
      <trkpt lat="43.83724" lon="7.03831">
        <ele>831.67773</ele>
        <time>2009-03-22T09:00:27Z</time>
      </trkpt>
      <trkpt lat="43.83728" lon="7.03797">
        <ele>828.31323</ele>
        <time>2009-03-22T09:00:34Z</time>
      </trkpt>
      <trkpt lat="43.8373" lon="7.03765">
        <ele>826.87109</ele>
        <time>2009-03-22T09:00:41Z</time>
      </trkpt>
      <trkpt lat="43.83733" lon="7.03722">
        <ele>832.63916</ele>
        <time>2009-03-22T09:00:51Z</time>
      </trkpt>
      <trkpt lat="43.83731" lon="7.03697">
        <ele>835.52294</ele>
        <time>2009-03-22T09:00:57Z</time>
      </trkpt>
      <trkpt lat="43.83727" lon="7.03665">
        <ele>833.60034</ele>
        <time>2009-03-22T09:01:04Z</time>
      </trkpt>
      <trkpt lat="43.83721" lon="7.03633">
        <ele>835.52294</ele>
        <time>2009-03-22T09:01:12Z</time>
      </trkpt>
      <trkpt lat="43.83717" lon="7.03612">
        <ele>835.04248</ele>
        <time>2009-03-22T09:01:17Z</time>
      </trkpt>
      <trkpt lat="43.83711" lon="7.03592">
        <ele>833.60034</ele>
        <time>2009-03-22T09:01:22Z</time>
      </trkpt>
      <trkpt lat="43.83713" lon="7.03568">
        <ele>834.56176</ele>
        <time>2009-03-22T09:01:27Z</time>
      </trkpt>
      <trkpt lat="43.83725" lon="7.03538">
        <ele>835.52294</ele>
        <time>2009-03-22T09:01:34Z</time>
      </trkpt>
      <trkpt lat="43.83728" lon="7.03503">
        <ele>836.00366</ele>
        <time>2009-03-22T09:01:41Z</time>
      </trkpt>
      <trkpt lat="43.83729" lon="7.03471">
        <ele>838.88769</ele>
        <time>2009-03-22T09:01:48Z</time>
      </trkpt>
      <trkpt lat="43.8373" lon="7.03427">
        <ele>839.84887</ele>
        <time>2009-03-22T09:01:57Z</time>
      </trkpt>
      <trkpt lat="43.83726" lon="7.03393">
        <ele>838.40698</ele>
        <time>2009-03-22T09:02:04Z</time>
      </trkpt>
      <trkpt lat="43.8372" lon="7.03371">
        <ele>837.44555</ele>
        <time>2009-03-22T09:02:09Z</time>
      </trkpt>
      <trkpt lat="43.83717" lon="7.03338">
        <ele>834.56176</ele>
        <time>2009-03-22T09:02:15Z</time>
      </trkpt>
      <trkpt lat="43.8371" lon="7.03313">
        <ele>831.19726</ele>
        <time>2009-03-22T09:02:20Z</time>
      </trkpt>
      <trkpt lat="43.83696" lon="7.03277">
        <ele>827.83227</ele>
        <time>2009-03-22T09:02:28Z</time>
      </trkpt>
      <trkpt lat="43.83691" lon="7.03246">
        <ele>828.31323</ele>
        <time>2009-03-22T09:02:34Z</time>
      </trkpt>
      <trkpt lat="43.83698" lon="7.03217">
        <ele>827.83227</ele>
        <time>2009-03-22T09:02:40Z</time>
      </trkpt>
      <trkpt lat="43.8371" lon="7.03186">
        <ele>828.79394</ele>
        <time>2009-03-22T09:02:47Z</time>
      </trkpt>
      <trkpt lat="43.83726" lon="7.03169">
        <ele>829.27441</ele>
        <time>2009-03-22T09:02:52Z</time>
      </trkpt>
      <trkpt lat="43.83748" lon="7.03143">
        <ele>828.31323</ele>
        <time>2009-03-22T09:02:59Z</time>
      </trkpt>
      <trkpt lat="43.83753" lon="7.03117">
        <ele>828.31323</ele>
        <time>2009-03-22T09:03:04Z</time>
      </trkpt>
      <trkpt lat="43.83752" lon="7.03087">
        <ele>831.67773</ele>
        <time>2009-03-22T09:03:10Z</time>
      </trkpt>
      <trkpt lat="43.83749" lon="7.03051">
        <ele>831.67773</ele>
        <time>2009-03-22T09:03:17Z</time>
      </trkpt>
      <trkpt lat="43.83747" lon="7.0301">
        <ele>832.63916</ele>
        <time>2009-03-22T09:03:25Z</time>
      </trkpt>
      <trkpt lat="43.83746" lon="7.02975">
        <ele>834.56176</ele>
        <time>2009-03-22T09:03:32Z</time>
      </trkpt>
      <trkpt lat="43.83758" lon="7.02955">
        <ele>835.04248</ele>
        <time>2009-03-22T09:03:37Z</time>
      </trkpt>
      <trkpt lat="43.83773" lon="7.02925">
        <ele>835.52294</ele>
        <time>2009-03-22T09:03:44Z</time>
      </trkpt>
      <trkpt lat="43.83778" lon="7.02894">
        <ele>835.52294</ele>
        <time>2009-03-22T09:03:50Z</time>
      </trkpt>
      <trkpt lat="43.83775" lon="7.02835">
        <ele>834.08105</ele>
        <time>2009-03-22T09:04:01Z</time>
      </trkpt>
      <trkpt lat="43.83765" lon="7.02819">
        <ele>834.08105</ele>
        <time>2009-03-22T09:04:05Z</time>
      </trkpt>
      <trkpt lat="43.83748" lon="7.02797">
        <ele>833.11962</ele>
        <time>2009-03-22T09:04:11Z</time>
      </trkpt>
      <trkpt lat="43.83745" lon="7.02772">
        <ele>833.60034</ele>
        <time>2009-03-22T09:04:16Z</time>
      </trkpt>
      <trkpt lat="43.83753" lon="7.02742">
        <ele>834.08105</ele>
        <time>2009-03-22T09:04:22Z</time>
      </trkpt>
      <trkpt lat="43.83762" lon="7.02711">
        <ele>836.00366</ele>
        <time>2009-03-22T09:04:28Z</time>
      </trkpt>
      <trkpt lat="43.83775" lon="7.02685">
        <ele>836.96484</ele>
        <time>2009-03-22T09:04:34Z</time>
      </trkpt>
      <trkpt lat="43.83793" lon="7.02657">
        <ele>837.44555</ele>
        <time>2009-03-22T09:04:41Z</time>
      </trkpt>
      <trkpt lat="43.83812" lon="7.02629">
        <ele>837.44555</ele>
        <time>2009-03-22T09:04:48Z</time>
      </trkpt>
      <trkpt lat="43.83822" lon="7.02619">
        <ele>837.44555</ele>
        <time>2009-03-22T09:04:51Z</time>
      </trkpt>
      <trkpt lat="43.83833" lon="7.0261">
        <ele>836.48437</ele>
        <time>2009-03-22T09:04:54Z</time>
      </trkpt>
      <trkpt lat="43.83844" lon="7.02591">
        <ele>835.52294</ele>
        <time>2009-03-22T09:04:58Z</time>
      </trkpt>
      <trkpt lat="43.83853" lon="7.02549">
        <ele>836.00366</ele>
        <time>2009-03-22T09:05:06Z</time>
      </trkpt>
      <trkpt lat="43.83862" lon="7.02519">
        <ele>837.92627</ele>
        <time>2009-03-22T09:05:12Z</time>
      </trkpt>
      <trkpt lat="43.83862" lon="7.02482">
        <ele>836.96484</ele>
        <time>2009-03-22T09:05:19Z</time>
      </trkpt>
      <trkpt lat="43.83857" lon="7.0247">
        <ele>836.96484</ele>
        <time>2009-03-22T09:05:23Z</time>
      </trkpt>
      <trkpt lat="43.83845" lon="7.0245">
        <ele>836.48437</ele>
        <time>2009-03-22T09:05:27Z</time>
      </trkpt>
      <trkpt lat="43.83839" lon="7.02419">
        <ele>837.92627</ele>
        <time>2009-03-22T09:05:32Z</time>
      </trkpt>
      <trkpt lat="43.83841" lon="7.02375">
        <ele>837.44555</ele>
        <time>2009-03-22T09:05:40Z</time>
      </trkpt>
      <trkpt lat="43.83848" lon="7.02343">
        <ele>836.96484</ele>
        <time>2009-03-22T09:05:46Z</time>
      </trkpt>
      <trkpt lat="43.8385" lon="7.02339">
        <ele>836.96484</ele>
        <time>2009-03-22T09:05:47Z</time>
      </trkpt>
      <trkpt lat="43.83864" lon="7.02304">
        <ele>836.96484</ele>
        <time>2009-03-22T09:05:54Z</time>
      </trkpt>
      <trkpt lat="43.83868" lon="7.02261">
        <ele>837.44555</ele>
        <time>2009-03-22T09:06:02Z</time>
      </trkpt>
      <trkpt lat="43.83872" lon="7.02213">
        <ele>837.44555</ele>
        <time>2009-03-22T09:06:11Z</time>
      </trkpt>
      <trkpt lat="43.83879" lon="7.02158">
        <ele>838.88769</ele>
        <time>2009-03-22T09:06:21Z</time>
      </trkpt>
      <trkpt lat="43.83891" lon="7.02131">
        <ele>839.84887</ele>
        <time>2009-03-22T09:06:27Z</time>
      </trkpt>
      <trkpt lat="43.83893" lon="7.02126">
        <ele>839.84887</ele>
        <time>2009-03-22T09:06:28Z</time>
      </trkpt>
      <trkpt lat="43.83903" lon="7.02081">
        <ele>839.36816</ele>
        <time>2009-03-22T09:06:36Z</time>
      </trkpt>
      <trkpt lat="43.83902" lon="7.02041">
        <ele>840.32959</ele>
        <time>2009-03-22T09:06:43Z</time>
      </trkpt>
      <trkpt lat="43.83899" lon="7.02">
        <ele>839.36816</ele>
        <time>2009-03-22T09:06:50Z</time>
      </trkpt>
      <trkpt lat="43.83902" lon="7.01967">
        <ele>838.88769</ele>
        <time>2009-03-22T09:06:56Z</time>
      </trkpt>
      <trkpt lat="43.83914" lon="7.01931">
        <ele>838.40698</ele>
        <time>2009-03-22T09:07:03Z</time>
      </trkpt>
      <trkpt lat="43.83926" lon="7.01897">
        <ele>838.88769</ele>
        <time>2009-03-22T09:07:10Z</time>
      </trkpt>
      <trkpt lat="43.83936" lon="7.01861">
        <ele>838.88769</ele>
        <time>2009-03-22T09:07:17Z</time>
      </trkpt>
      <trkpt lat="43.83945" lon="7.018">
        <ele>838.40698</ele>
        <time>2009-03-22T09:07:28Z</time>
      </trkpt>
      <trkpt lat="43.83948" lon="7.01772">
        <ele>836.96484</ele>
        <time>2009-03-22T09:07:33Z</time>
      </trkpt>
      <trkpt lat="43.83943" lon="7.01727">
        <ele>838.40698</ele>
        <time>2009-03-22T09:07:41Z</time>
      </trkpt>
      <trkpt lat="43.83944" lon="7.01706">
        <ele>838.88769</ele>
        <time>2009-03-22T09:07:45Z</time>
      </trkpt>
      <trkpt lat="43.83954" lon="7.01658">
        <ele>840.81005</ele>
        <time>2009-03-22T09:07:54Z</time>
      </trkpt>
      <trkpt lat="43.83966" lon="7.01603">
        <ele>841.77148</ele>
        <time>2009-03-22T09:08:04Z</time>
      </trkpt>
      <trkpt lat="43.83981" lon="7.01548">
        <ele>842.73291</ele>
        <time>2009-03-22T09:08:14Z</time>
      </trkpt>
      <trkpt lat="43.83992" lon="7.01519">
        <ele>844.65551</ele>
        <time>2009-03-22T09:08:20Z</time>
      </trkpt>
      <trkpt lat="43.84006" lon="7.01479">
        <ele>847.05883</ele>
        <time>2009-03-22T09:08:28Z</time>
      </trkpt>
      <trkpt lat="43.84009" lon="7.01444">
        <ele>846.09765</ele>
        <time>2009-03-22T09:08:34Z</time>
      </trkpt>
      <trkpt lat="43.84011" lon="7.01403">
        <ele>844.17504</ele>
        <time>2009-03-22T09:08:41Z</time>
      </trkpt>
      <trkpt lat="43.84017" lon="7.01357">
        <ele>843.21337</ele>
        <time>2009-03-22T09:08:49Z</time>
      </trkpt>
      <trkpt lat="43.84027" lon="7.01302">
        <ele>844.17504</ele>
        <time>2009-03-22T09:08:59Z</time>
      </trkpt>
      <trkpt lat="43.8403" lon="7.01279">
        <ele>843.21337</ele>
        <time>2009-03-22T09:09:03Z</time>
      </trkpt>
      <trkpt lat="43.84035" lon="7.01226">
        <ele>840.32959</ele>
        <time>2009-03-22T09:09:12Z</time>
      </trkpt>
      <trkpt lat="43.84039" lon="7.01173">
        <ele>839.84887</ele>
        <time>2009-03-22T09:09:21Z</time>
      </trkpt>
      <trkpt lat="43.84038" lon="7.01122">
        <ele>840.32959</ele>
        <time>2009-03-22T09:09:30Z</time>
      </trkpt>
      <trkpt lat="43.84038" lon="7.01069">
        <ele>840.32959</ele>
        <time>2009-03-22T09:09:39Z</time>
      </trkpt>
      <trkpt lat="43.84034" lon="7.01015">
        <ele>840.32959</ele>
        <time>2009-03-22T09:09:48Z</time>
      </trkpt>
      <trkpt lat="43.84034" lon="7.00968">
        <ele>841.77148</ele>
        <time>2009-03-22T09:09:56Z</time>
      </trkpt>
      <trkpt lat="43.84031" lon="7.00921">
        <ele>842.73291</ele>
        <time>2009-03-22T09:10:04Z</time>
      </trkpt>
      <trkpt lat="43.84031" lon="7.00915">
        <ele>843.21337</ele>
        <time>2009-03-22T09:10:05Z</time>
      </trkpt>
      <trkpt lat="43.84028" lon="7.00865">
        <ele>843.21337</ele>
        <time>2009-03-22T09:10:14Z</time>
      </trkpt>
      <trkpt lat="43.8403" lon="7.00826">
        <ele>844.17504</ele>
        <time>2009-03-22T09:10:21Z</time>
      </trkpt>
      <trkpt lat="43.8403" lon="7.00771">
        <ele>842.73291</ele>
        <time>2009-03-22T09:10:30Z</time>
      </trkpt>
      <trkpt lat="43.84028" lon="7.00723">
        <ele>843.21337</ele>
        <time>2009-03-22T09:10:38Z</time>
      </trkpt>
      <trkpt lat="43.84023" lon="7.00669">
        <ele>844.17504</ele>
        <time>2009-03-22T09:10:47Z</time>
      </trkpt>
      <trkpt lat="43.84017" lon="7.00639">
        <ele>842.25219</ele>
        <time>2009-03-22T09:10:52Z</time>
      </trkpt>
      <trkpt lat="43.84006" lon="7.00594">
        <ele>841.77148</ele>
        <time>2009-03-22T09:11:00Z</time>
      </trkpt>
      <trkpt lat="43.84004" lon="7.00588">
        <ele>841.29077</ele>
        <time>2009-03-22T09:11:01Z</time>
      </trkpt>
      <trkpt lat="43.84006" lon="7.00557">
        <ele>841.77148</ele>
        <time>2009-03-22T09:11:06Z</time>
      </trkpt>
      <trkpt lat="43.84019" lon="7.00519">
        <ele>842.25219</ele>
        <time>2009-03-22T09:11:13Z</time>
      </trkpt>
      <trkpt lat="43.84033" lon="7.00473">
        <ele>842.73291</ele>
        <time>2009-03-22T09:11:21Z</time>
      </trkpt>
      <trkpt lat="43.84037" lon="7.00456">
        <ele>842.73291</ele>
        <time>2009-03-22T09:11:24Z</time>
      </trkpt>
      <trkpt lat="43.84041" lon="7.004">
        <ele>841.77148</ele>
        <time>2009-03-22T09:11:33Z</time>
      </trkpt>
      <trkpt lat="43.8404" lon="7.00382">
        <ele>841.29077</ele>
        <time>2009-03-22T09:11:36Z</time>
      </trkpt>
      <trkpt lat="43.8403" lon="7.00333">
        <ele>839.36816</ele>
        <time>2009-03-22T09:11:44Z</time>
      </trkpt>
      <trkpt lat="43.84031" lon="7.00282">
        <ele>841.77148</ele>
        <time>2009-03-22T09:11:52Z</time>
      </trkpt>
      <trkpt lat="43.84038" lon="7.00233">
        <ele>841.77148</ele>
        <time>2009-03-22T09:12:00Z</time>
      </trkpt>
      <trkpt lat="43.84044" lon="7.00197">
        <ele>841.29077</ele>
        <time>2009-03-22T09:12:06Z</time>
      </trkpt>
      <trkpt lat="43.84045" lon="7.00155">
        <ele>842.73291</ele>
        <time>2009-03-22T09:12:13Z</time>
      </trkpt>
      <trkpt lat="43.84051" lon="7.00133">
        <ele>843.69409</ele>
        <time>2009-03-22T09:12:17Z</time>
      </trkpt>
      <trkpt lat="43.8406" lon="7.00117">
        <ele>844.17504</ele>
        <time>2009-03-22T09:12:20Z</time>
      </trkpt>
      <trkpt lat="43.84074" lon="7.00073">
        <ele>845.13623</ele>
        <time>2009-03-22T09:12:28Z</time>
      </trkpt>
      <trkpt lat="43.84089" lon="7.00027">
        <ele>845.13623</ele>
        <time>2009-03-22T09:12:36Z</time>
      </trkpt>
      <trkpt lat="43.84103" lon="6.99994">
        <ele>846.09765</ele>
        <time>2009-03-22T09:12:42Z</time>
      </trkpt>
      <trkpt lat="43.84123" lon="6.99954">
        <ele>850.42358</ele>
        <time>2009-03-22T09:12:50Z</time>
      </trkpt>
      <trkpt lat="43.84131" lon="6.9994">
        <ele>851.38476</ele>
        <time>2009-03-22T09:12:53Z</time>
      </trkpt>
      <trkpt lat="43.84144" lon="6.9991">
        <ele>850.90405</ele>
        <time>2009-03-22T09:12:59Z</time>
      </trkpt>
      <trkpt lat="43.8415" lon="6.99895">
        <ele>850.42358</ele>
        <time>2009-03-22T09:13:02Z</time>
      </trkpt>
      <trkpt lat="43.84159" lon="6.9987">
        <ele>849.94287</ele>
        <time>2009-03-22T09:13:07Z</time>
      </trkpt>
      <trkpt lat="43.84161" lon="6.99865">
        <ele>850.42358</ele>
        <time>2009-03-22T09:13:08Z</time>
      </trkpt>
      <trkpt lat="43.8417" lon="6.99841">
        <ele>851.38476</ele>
        <time>2009-03-22T09:13:13Z</time>
      </trkpt>
      <trkpt lat="43.84172" lon="6.99826">
        <ele>851.86547</ele>
        <time>2009-03-22T09:13:16Z</time>
      </trkpt>
      <trkpt lat="43.8418" lon="6.99799">
        <ele>851.86547</ele>
        <time>2009-03-22T09:13:21Z</time>
      </trkpt>
      <trkpt lat="43.84194" lon="6.9976">
        <ele>850.42358</ele>
        <time>2009-03-22T09:13:28Z</time>
      </trkpt>
      <trkpt lat="43.84203" lon="6.99741">
        <ele>850.42358</ele>
        <time>2009-03-22T09:13:32Z</time>
      </trkpt>
      <trkpt lat="43.84213" lon="6.99717">
        <ele>852.34594</ele>
        <time>2009-03-22T09:13:37Z</time>
      </trkpt>
      <trkpt lat="43.84226" lon="6.99688">
        <ele>851.86547</ele>
        <time>2009-03-22T09:13:43Z</time>
      </trkpt>
      <trkpt lat="43.84236" lon="6.99652">
        <ele>851.38476</ele>
        <time>2009-03-22T09:13:50Z</time>
      </trkpt>
      <trkpt lat="43.8424" lon="6.99637">
        <ele>850.90405</ele>
        <time>2009-03-22T09:13:53Z</time>
      </trkpt>
      <trkpt lat="43.8425" lon="6.99603">
        <ele>850.42358</ele>
        <time>2009-03-22T09:14:00Z</time>
      </trkpt>
      <trkpt lat="43.84264" lon="6.99563">
        <ele>851.38476</ele>
        <time>2009-03-22T09:14:09Z</time>
      </trkpt>
      <trkpt lat="43.84269" lon="6.99539">
        <ele>851.38476</ele>
        <time>2009-03-22T09:14:15Z</time>
      </trkpt>
      <trkpt lat="43.84275" lon="6.99509">
        <ele>848.02026</ele>
        <time>2009-03-22T09:14:22Z</time>
      </trkpt>
      <trkpt lat="43.84281" lon="6.99483">
        <ele>848.50073</ele>
        <time>2009-03-22T09:14:29Z</time>
      </trkpt>
      <trkpt lat="43.84283" lon="6.99458">
        <ele>849.94287</ele>
        <time>2009-03-22T09:14:35Z</time>
      </trkpt>
      <trkpt lat="43.84289" lon="6.99442">
        <ele>851.38476</ele>
        <time>2009-03-22T09:14:40Z</time>
      </trkpt>
      <trkpt lat="43.84305" lon="6.9942">
        <ele>854.26879</ele>
        <time>2009-03-22T09:14:48Z</time>
      </trkpt>
      <trkpt lat="43.84321" lon="6.99408">
        <ele>860.99804</ele>
        <time>2009-03-22T09:14:55Z</time>
      </trkpt>
      <trkpt lat="43.84329" lon="6.9939">
        <ele>858.59448</ele>
        <time>2009-03-22T09:15:01Z</time>
      </trkpt>
      <trkpt lat="43.84333" lon="6.99372">
        <ele>857.15258</ele>
        <time>2009-03-22T09:15:08Z</time>
      </trkpt>
      <trkpt lat="43.84339" lon="6.9936">
        <ele>857.15258</ele>
        <time>2009-03-22T09:15:15Z</time>
      </trkpt>
      <trkpt lat="43.84346" lon="6.99354">
        <ele>858.11401</ele>
        <time>2009-03-22T09:15:21Z</time>
      </trkpt>
      <trkpt lat="43.84353" lon="6.99349">
        <ele>858.11401</ele>
        <time>2009-03-22T09:15:27Z</time>
      </trkpt>
      <trkpt lat="43.84362" lon="6.99346">
        <ele>857.15258</ele>
        <time>2009-03-22T09:15:32Z</time>
      </trkpt>
      <trkpt lat="43.84374" lon="6.99346">
        <ele>856.19116</ele>
        <time>2009-03-22T09:15:38Z</time>
      </trkpt>
      <trkpt lat="43.84379" lon="6.99347">
        <ele>856.67187</ele>
        <time>2009-03-22T09:15:43Z</time>
      </trkpt>
      <trkpt lat="43.84386" lon="6.99342">
        <ele>856.67187</ele>
        <time>2009-03-22T09:15:48Z</time>
      </trkpt>
      <trkpt lat="43.84397" lon="6.99331">
        <ele>856.19116</ele>
        <time>2009-03-22T09:15:55Z</time>
      </trkpt>
      <trkpt lat="43.84402" lon="6.99316">
        <ele>857.6333</ele>
        <time>2009-03-22T09:16:01Z</time>
      </trkpt>
      <trkpt lat="43.84399" lon="6.99296">
        <ele>858.11401</ele>
        <time>2009-03-22T09:16:08Z</time>
      </trkpt>
      <trkpt lat="43.84399" lon="6.99274">
        <ele>860.51733</ele>
        <time>2009-03-22T09:16:16Z</time>
      </trkpt>
      <trkpt lat="43.84407" lon="6.99256">
        <ele>863.40136</ele>
        <time>2009-03-22T09:16:24Z</time>
      </trkpt>
      <trkpt lat="43.84415" lon="6.99242">
        <ele>865.32397</ele>
        <time>2009-03-22T09:16:31Z</time>
      </trkpt>
      <trkpt lat="43.84417" lon="6.99235">
        <ele>865.80468</ele>
        <time>2009-03-22T09:16:37Z</time>
      </trkpt>
      <trkpt lat="43.84415" lon="6.99235">
        <ele>864.84326</ele>
        <time>2009-03-22T09:16:44Z</time>
      </trkpt>
      <trkpt lat="43.84415" lon="6.99237">
        <ele>865.80468</ele>
        <time>2009-03-22T09:17:06Z</time>
      </trkpt>
      <trkpt lat="43.84417" lon="6.99232">
        <ele>857.6333</ele>
        <time>2009-03-22T09:19:21Z</time>
      </trkpt>
      <trkpt lat="43.84414" lon="6.99221">
        <ele>855.22998</ele>
        <time>2009-03-22T09:19:25Z</time>
      </trkpt>
      <trkpt lat="43.84402" lon="6.99202">
        <ele>856.19116</ele>
        <time>2009-03-22T09:19:30Z</time>
      </trkpt>
      <trkpt lat="43.84384" lon="6.99182">
        <ele>859.07519</ele>
        <time>2009-03-22T09:19:36Z</time>
      </trkpt>
      <trkpt lat="43.84371" lon="6.9917">
        <ele>862.43994</ele>
        <time>2009-03-22T09:19:42Z</time>
      </trkpt>
      <trkpt lat="43.84357" lon="6.99155">
        <ele>866.76586</ele>
        <time>2009-03-22T09:19:50Z</time>
      </trkpt>
      <trkpt lat="43.84354" lon="6.99151">
        <ele>870.61108</ele>
        <time>2009-03-22T09:19:55Z</time>
      </trkpt>
      <trkpt lat="43.84353" lon="6.99147">
        <ele>866.76586</ele>
        <time>2009-03-22T09:20:12Z</time>
      </trkpt>
      <trkpt lat="43.8435" lon="6.99145">
        <ele>871.57226</ele>
        <time>2009-03-22T09:20:20Z</time>
      </trkpt>
      <trkpt lat="43.84349" lon="6.99144">
        <ele>871.09179</ele>
        <time>2009-03-22T09:20:22Z</time>
      </trkpt>
      <trkpt lat="43.84344" lon="6.9914">
        <ele>871.09179</ele>
        <time>2009-03-22T09:20:26Z</time>
      </trkpt>
      <trkpt lat="43.84333" lon="6.99128">
        <ele>870.61108</ele>
        <time>2009-03-22T09:20:32Z</time>
      </trkpt>
      <trkpt lat="43.84325" lon="6.99116">
        <ele>873.49511</ele>
        <time>2009-03-22T09:20:38Z</time>
      </trkpt>
      <trkpt lat="43.84317" lon="6.9911">
        <ele>874.93701</ele>
        <time>2009-03-22T09:20:43Z</time>
      </trkpt>
      <trkpt lat="43.84311" lon="6.99111">
        <ele>874.93701</ele>
        <time>2009-03-22T09:20:46Z</time>
      </trkpt>
      <trkpt lat="43.84304" lon="6.99121">
        <ele>875.41748</ele>
        <time>2009-03-22T09:20:52Z</time>
      </trkpt>
      <trkpt lat="43.84298" lon="6.9914">
        <ele>876.85986</ele>
        <time>2009-03-22T09:21:00Z</time>
      </trkpt>
      <trkpt lat="43.84291" lon="6.99157">
        <ele>877.34057</ele>
        <time>2009-03-22T09:21:08Z</time>
      </trkpt>
      <trkpt lat="43.84288" lon="6.9916">
        <ele>877.34057</ele>
        <time>2009-03-22T09:21:13Z</time>
      </trkpt>
      <trkpt lat="43.84286" lon="6.99159">
        <ele>876.85986</ele>
        <time>2009-03-22T09:21:21Z</time>
      </trkpt>
      <trkpt lat="43.84283" lon="6.99155">
        <ele>878.78247</ele>
        <time>2009-03-22T09:23:26Z</time>
      </trkpt>
      <trkpt lat="43.84282" lon="6.99154">
        <ele>876.85986</ele>
        <time>2009-03-22T09:23:39Z</time>
      </trkpt>
      <trkpt lat="43.84281" lon="6.99155">
        <ele>875.41748</ele>
        <time>2009-03-22T09:23:58Z</time>
      </trkpt>
      <trkpt lat="43.84283" lon="6.99157">
        <ele>873.97558</ele>
        <time>2009-03-22T09:25:13Z</time>
      </trkpt>
      <trkpt lat="43.84283" lon="6.99157">
        <ele>874.45629</ele>
        <time>2009-03-22T09:25:20Z</time>
      </trkpt>
      <trkpt lat="43.84286" lon="6.99159">
        <ele>876.85986</ele>
        <time>2009-03-22T09:34:47Z</time>
      </trkpt>
      <trkpt lat="43.84287" lon="6.99159">
        <ele>876.85986</ele>
        <time>2009-03-22T09:34:50Z</time>
      </trkpt>
      <trkpt lat="43.84295" lon="6.99146">
        <ele>877.34057</ele>
        <time>2009-03-22T09:34:56Z</time>
      </trkpt>
      <trkpt lat="43.84302" lon="6.99123">
        <ele>875.89819</ele>
        <time>2009-03-22T09:35:02Z</time>
      </trkpt>
      <trkpt lat="43.84308" lon="6.99111">
        <ele>874.93701</ele>
        <time>2009-03-22T09:35:05Z</time>
      </trkpt>
      <trkpt lat="43.84322" lon="6.99109">
        <ele>873.0144</ele>
        <time>2009-03-22T09:35:09Z</time>
      </trkpt>
      <trkpt lat="43.84333" lon="6.99126">
        <ele>871.09179</ele>
        <time>2009-03-22T09:35:13Z</time>
      </trkpt>
      <trkpt lat="43.84343" lon="6.99137">
        <ele>868.68847</ele>
        <time>2009-03-22T09:35:16Z</time>
      </trkpt>
      <trkpt lat="43.84361" lon="6.99163">
        <ele>861.95947</ele>
        <time>2009-03-22T09:35:21Z</time>
      </trkpt>
      <trkpt lat="43.84379" lon="6.99175">
        <ele>856.67187</ele>
        <time>2009-03-22T09:35:26Z</time>
      </trkpt>
      <trkpt lat="43.84393" lon="6.9917">
        <ele>853.30737</ele>
        <time>2009-03-22T09:35:31Z</time>
      </trkpt>
      <trkpt lat="43.84398" lon="6.99172">
        <ele>852.82666</ele>
        <time>2009-03-22T09:35:35Z</time>
      </trkpt>
      <trkpt lat="43.84398" lon="6.99174">
        <ele>855.22998</ele>
        <time>2009-03-22T09:35:41Z</time>
      </trkpt>
      <trkpt lat="43.8441" lon="6.99184">
        <ele>858.11401</ele>
        <time>2009-03-22T09:35:47Z</time>
      </trkpt>
      <trkpt lat="43.84416" lon="6.99187">
        <ele>857.6333</ele>
        <time>2009-03-22T09:35:49Z</time>
      </trkpt>
      <trkpt lat="43.84437" lon="6.99194">
        <ele>856.19116</ele>
        <time>2009-03-22T09:35:54Z</time>
      </trkpt>
      <trkpt lat="43.84434" lon="6.99183">
        <ele>854.74926</ele>
        <time>2009-03-22T09:35:57Z</time>
      </trkpt>
      <trkpt lat="43.84424" lon="6.99165">
        <ele>855.22998</ele>
        <time>2009-03-22T09:36:01Z</time>
      </trkpt>
      <trkpt lat="43.84422" lon="6.99158">
        <ele>855.22998</ele>
        <time>2009-03-22T09:36:02Z</time>
      </trkpt>
      <trkpt lat="43.8441" lon="6.99133">
        <ele>853.30737</ele>
        <time>2009-03-22T09:36:06Z</time>
      </trkpt>
      <trkpt lat="43.84397" lon="6.99108">
        <ele>845.13623</ele>
        <time>2009-03-22T09:36:11Z</time>
      </trkpt>
      <trkpt lat="43.84389" lon="6.99099">
        <ele>842.73291</ele>
        <time>2009-03-22T09:36:13Z</time>
      </trkpt>
      <trkpt lat="43.84374" lon="6.99061">
        <ele>839.36816</ele>
        <time>2009-03-22T09:36:18Z</time>
      </trkpt>
      <trkpt lat="43.84367" lon="6.9905">
        <ele>838.40698</ele>
        <time>2009-03-22T09:36:20Z</time>
      </trkpt>
      <trkpt lat="43.84356" lon="6.9904">
        <ele>838.40698</ele>
        <time>2009-03-22T09:36:22Z</time>
      </trkpt>
      <trkpt lat="43.84344" lon="6.9902">
        <ele>837.44555</ele>
        <time>2009-03-22T09:36:26Z</time>
      </trkpt>
      <trkpt lat="43.84349" lon="6.99005">
        <ele>836.48437</ele>
        <time>2009-03-22T09:36:30Z</time>
      </trkpt>
      <trkpt lat="43.84362" lon="6.99">
        <ele>838.40698</ele>
        <time>2009-03-22T09:36:34Z</time>
      </trkpt>
      <trkpt lat="43.84385" lon="6.98992">
        <ele>838.40698</ele>
        <time>2009-03-22T09:36:39Z</time>
      </trkpt>
      <trkpt lat="43.84401" lon="6.98982">
        <ele>837.44555</ele>
        <time>2009-03-22T09:36:44Z</time>
      </trkpt>
      <trkpt lat="43.84411" lon="6.98979">
        <ele>835.52294</ele>
        <time>2009-03-22T09:36:46Z</time>
      </trkpt>
      <trkpt lat="43.8443" lon="6.98962">
        <ele>832.63916</ele>
        <time>2009-03-22T09:36:51Z</time>
      </trkpt>
      <trkpt lat="43.8445" lon="6.98921">
        <ele>827.83227</ele>
        <time>2009-03-22T09:36:57Z</time>
      </trkpt>
      <trkpt lat="43.84469" lon="6.98886">
        <ele>824.94848</ele>
        <time>2009-03-22T09:37:02Z</time>
      </trkpt>
      <trkpt lat="43.84485" lon="6.9886">
        <ele>827.3518</ele>
        <time>2009-03-22T09:37:07Z</time>
      </trkpt>
      <trkpt lat="43.84493" lon="6.98849">
        <ele>825.90966</ele>
        <time>2009-03-22T09:37:09Z</time>
      </trkpt>
      <trkpt lat="43.84505" lon="6.98815">
        <ele>822.54516</ele>
        <time>2009-03-22T09:37:14Z</time>
      </trkpt>
      <trkpt lat="43.84504" lon="6.98808">
        <ele>822.06445</ele>
        <time>2009-03-22T09:37:15Z</time>
      </trkpt>
      <trkpt lat="43.84502" lon="6.98764">
        <ele>818.21923</ele>
        <time>2009-03-22T09:37:20Z</time>
      </trkpt>
      <trkpt lat="43.84515" lon="6.98736">
        <ele>820.14184</ele>
        <time>2009-03-22T09:37:24Z</time>
      </trkpt>
      <trkpt lat="43.8452" lon="6.98734">
        <ele>820.62255</ele>
        <time>2009-03-22T09:37:25Z</time>
      </trkpt>
      <trkpt lat="43.84537" lon="6.98725">
        <ele>820.14184</ele>
        <time>2009-03-22T09:37:28Z</time>
      </trkpt>
      <trkpt lat="43.8455" lon="6.98716">
        <ele>817.25805</ele>
        <time>2009-03-22T09:37:30Z</time>
      </trkpt>
      <trkpt lat="43.84561" lon="6.98705">
        <ele>812.45141</ele>
        <time>2009-03-22T09:37:32Z</time>
      </trkpt>
      <trkpt lat="43.84564" lon="6.98673">
        <ele>808.60595</ele>
        <time>2009-03-22T09:37:36Z</time>
      </trkpt>
      <trkpt lat="43.84568" lon="6.98656">
        <ele>809.56738</ele>
        <time>2009-03-22T09:37:38Z</time>
      </trkpt>
      <trkpt lat="43.84586" lon="6.98649">
        <ele>811.9707</ele>
        <time>2009-03-22T09:37:42Z</time>
      </trkpt>
      <trkpt lat="43.84607" lon="6.98637">
        <ele>811.9707</ele>
        <time>2009-03-22T09:37:46Z</time>
      </trkpt>
      <trkpt lat="43.84618" lon="6.98617">
        <ele>810.52856</ele>
        <time>2009-03-22T09:37:49Z</time>
      </trkpt>
      <trkpt lat="43.84623" lon="6.98594">
        <ele>808.12548</ele>
        <time>2009-03-22T09:37:52Z</time>
      </trkpt>
      <trkpt lat="43.84619" lon="6.98548">
        <ele>802.83813</ele>
        <time>2009-03-22T09:37:57Z</time>
      </trkpt>
      <trkpt lat="43.84613" lon="6.9852">
        <ele>800.43505</ele>
        <time>2009-03-22T09:38:00Z</time>
      </trkpt>
      <trkpt lat="43.84612" lon="6.98471">
        <ele>795.62817</ele>
        <time>2009-03-22T09:38:05Z</time>
      </trkpt>
      <trkpt lat="43.84624" lon="6.98455">
        <ele>796.58984</ele>
        <time>2009-03-22T09:38:08Z</time>
      </trkpt>
      <trkpt lat="43.84643" lon="6.98451">
        <ele>798.03173</ele>
        <time>2009-03-22T09:38:11Z</time>
      </trkpt>
      <trkpt lat="43.84662" lon="6.98457">
        <ele>798.03173</ele>
        <time>2009-03-22T09:38:14Z</time>
      </trkpt>
      <trkpt lat="43.8469" lon="6.9846">
        <ele>794.18627</ele>
        <time>2009-03-22T09:38:19Z</time>
      </trkpt>
      <trkpt lat="43.84706" lon="6.9844">
        <ele>789.86035</ele>
        <time>2009-03-22T09:38:23Z</time>
      </trkpt>
      <trkpt lat="43.8471" lon="6.9841">
        <ele>788.89917</ele>
        <time>2009-03-22T09:38:27Z</time>
      </trkpt>
      <trkpt lat="43.84712" lon="6.98403">
        <ele>788.41845</ele>
        <time>2009-03-22T09:38:28Z</time>
      </trkpt>
      <trkpt lat="43.84717" lon="6.9839">
        <ele>787.93774</ele>
        <time>2009-03-22T09:38:30Z</time>
      </trkpt>
      <trkpt lat="43.84719" lon="6.98365">
        <ele>789.86035</ele>
        <time>2009-03-22T09:38:35Z</time>
      </trkpt>
      <trkpt lat="43.84712" lon="6.9835">
        <ele>794.18627</ele>
        <time>2009-03-22T09:38:40Z</time>
      </trkpt>
      <trkpt lat="43.84701" lon="6.98329">
        <ele>799.95434</ele>
        <time>2009-03-22T09:38:47Z</time>
      </trkpt>
      <trkpt lat="43.8469" lon="6.98316">
        <ele>800.91552</ele>
        <time>2009-03-22T09:38:53Z</time>
      </trkpt>
      <trkpt lat="43.84673" lon="6.98306">
        <ele>798.03173</ele>
        <time>2009-03-22T09:39:00Z</time>
      </trkpt>
      <trkpt lat="43.8466" lon="6.9829">
        <ele>798.5122</ele>
        <time>2009-03-22T09:39:07Z</time>
      </trkpt>
      <trkpt lat="43.84644" lon="6.9827">
        <ele>797.07031</ele>
        <time>2009-03-22T09:39:15Z</time>
      </trkpt>
      <trkpt lat="43.8463" lon="6.98246">
        <ele>795.62817</ele>
        <time>2009-03-22T09:39:22Z</time>
      </trkpt>
      <trkpt lat="43.84618" lon="6.98234">
        <ele>796.10913</ele>
        <time>2009-03-22T09:39:26Z</time>
      </trkpt>
      <trkpt lat="43.846" lon="6.98233">
        <ele>798.99292</ele>
        <time>2009-03-22T09:39:33Z</time>
      </trkpt>
      <trkpt lat="43.84597" lon="6.98233">
        <ele>800.43505</ele>
        <time>2009-03-22T09:39:35Z</time>
      </trkpt>
      <trkpt lat="43.84593" lon="6.98227">
        <ele>805.24145</ele>
        <time>2009-03-22T09:39:40Z</time>
      </trkpt>
      <trkpt lat="43.84585" lon="6.98204">
        <ele>813.41284</ele>
        <time>2009-03-22T09:39:48Z</time>
      </trkpt>
      <trkpt lat="43.84584" lon="6.98187">
        <ele>819.66137</ele>
        <time>2009-03-22T09:39:54Z</time>
      </trkpt>
      <trkpt lat="43.84584" lon="6.98174">
        <ele>821.58374</ele>
        <time>2009-03-22T09:40:00Z</time>
      </trkpt>
      <trkpt lat="43.84587" lon="6.98161">
        <ele>823.50659</ele>
        <time>2009-03-22T09:40:06Z</time>
      </trkpt>
      <trkpt lat="43.84588" lon="6.98151">
        <ele>823.50659</ele>
        <time>2009-03-22T09:40:12Z</time>
      </trkpt>
      <trkpt lat="43.84589" lon="6.98133">
        <ele>824.46777</ele>
        <time>2009-03-22T09:40:20Z</time>
      </trkpt>
      <trkpt lat="43.84585" lon="6.98115">
        <ele>824.94848</ele>
        <time>2009-03-22T09:40:27Z</time>
      </trkpt>
      <trkpt lat="43.84589" lon="6.98097">
        <ele>826.87109</ele>
        <time>2009-03-22T09:40:35Z</time>
      </trkpt>
      <trkpt lat="43.84595" lon="6.98084">
        <ele>833.11962</ele>
        <time>2009-03-22T09:40:42Z</time>
      </trkpt>
      <trkpt lat="43.846" lon="6.98078">
        <ele>839.84887</ele>
        <time>2009-03-22T09:40:46Z</time>
      </trkpt>
      <trkpt lat="43.84612" lon="6.98063">
        <ele>847.53955</ele>
        <time>2009-03-22T09:40:54Z</time>
      </trkpt>
      <trkpt lat="43.84619" lon="6.98044">
        <ele>848.98144</ele>
        <time>2009-03-22T09:41:01Z</time>
      </trkpt>
      <trkpt lat="43.84624" lon="6.9802">
        <ele>844.65551</ele>
        <time>2009-03-22T09:41:08Z</time>
      </trkpt>
      <trkpt lat="43.84635" lon="6.98001">
        <ele>838.40698</ele>
        <time>2009-03-22T09:41:14Z</time>
      </trkpt>
      <trkpt lat="43.84643" lon="6.97988">
        <ele>836.96484</ele>
        <time>2009-03-22T09:41:20Z</time>
      </trkpt>
      <trkpt lat="43.84654" lon="6.97973">
        <ele>835.04248</ele>
        <time>2009-03-22T09:41:27Z</time>
      </trkpt>
      <trkpt lat="43.84666" lon="6.97958">
        <ele>833.60034</ele>
        <time>2009-03-22T09:41:34Z</time>
      </trkpt>
      <trkpt lat="43.84672" lon="6.97938">
        <ele>830.71655</ele>
        <time>2009-03-22T09:41:42Z</time>
      </trkpt>
      <trkpt lat="43.8467" lon="6.97922">
        <ele>828.79394</ele>
        <time>2009-03-22T09:41:49Z</time>
      </trkpt>
      <trkpt lat="43.84668" lon="6.97905">
        <ele>826.87109</ele>
        <time>2009-03-22T09:41:56Z</time>
      </trkpt>
      <trkpt lat="43.84665" lon="6.97891">
        <ele>827.3518</ele>
        <time>2009-03-22T09:42:02Z</time>
      </trkpt>
      <trkpt lat="43.84659" lon="6.97873">
        <ele>828.79394</ele>
        <time>2009-03-22T09:42:11Z</time>
      </trkpt>
      <trkpt lat="43.84652" lon="6.97856">
        <ele>832.15844</ele>
        <time>2009-03-22T09:42:19Z</time>
      </trkpt>
      <trkpt lat="43.84646" lon="6.97844">
        <ele>836.00366</ele>
        <time>2009-03-22T09:42:25Z</time>
      </trkpt>
      <trkpt lat="43.8464" lon="6.97833">
        <ele>837.44555</ele>
        <time>2009-03-22T09:42:31Z</time>
      </trkpt>
      <trkpt lat="43.84635" lon="6.97821">
        <ele>840.32959</ele>
        <time>2009-03-22T09:42:38Z</time>
      </trkpt>
      <trkpt lat="43.84628" lon="6.97807">
        <ele>840.81005</ele>
        <time>2009-03-22T09:42:45Z</time>
      </trkpt>
      <trkpt lat="43.84621" lon="6.97796">
        <ele>840.81005</ele>
        <time>2009-03-22T09:42:52Z</time>
      </trkpt>
      <trkpt lat="43.8462" lon="6.97795">
        <ele>841.29077</ele>
        <time>2009-03-22T09:42:53Z</time>
      </trkpt>
      <trkpt lat="43.84613" lon="6.97786">
        <ele>841.77148</ele>
        <time>2009-03-22T09:43:00Z</time>
      </trkpt>
      <trkpt lat="43.84609" lon="6.97774">
        <ele>844.65551</ele>
        <time>2009-03-22T09:43:06Z</time>
      </trkpt>
      <trkpt lat="43.84607" lon="6.97768">
        <ele>846.09765</ele>
        <time>2009-03-22T09:43:09Z</time>
      </trkpt>
      <trkpt lat="43.84602" lon="6.97755">
        <ele>848.98144</ele>
        <time>2009-03-22T09:43:17Z</time>
      </trkpt>
      <trkpt lat="43.84597" lon="6.97741">
        <ele>852.34594</ele>
        <time>2009-03-22T09:43:24Z</time>
      </trkpt>
      <trkpt lat="43.84595" lon="6.97736">
        <ele>854.74926</ele>
        <time>2009-03-22T09:43:27Z</time>
      </trkpt>
      <trkpt lat="43.84588" lon="6.9772">
        <ele>857.15258</ele>
        <time>2009-03-22T09:43:36Z</time>
      </trkpt>
      <trkpt lat="43.84587" lon="6.97717">
        <ele>856.67187</ele>
        <time>2009-03-22T09:43:37Z</time>
      </trkpt>
      <trkpt lat="43.84582" lon="6.97699">
        <ele>857.15258</ele>
        <time>2009-03-22T09:43:45Z</time>
      </trkpt>
      <trkpt lat="43.84582" lon="6.97698">
        <ele>857.6333</ele>
        <time>2009-03-22T09:43:46Z</time>
      </trkpt>
      <trkpt lat="43.84591" lon="6.9768">
        <ele>864.84326</ele>
        <time>2009-03-22T09:43:55Z</time>
      </trkpt>
      <trkpt lat="43.846" lon="6.97662">
        <ele>867.72705</ele>
        <time>2009-03-22T09:44:01Z</time>
      </trkpt>
      <trkpt lat="43.84605" lon="6.97651">
        <ele>867.72705</ele>
        <time>2009-03-22T09:44:04Z</time>
      </trkpt>
      <trkpt lat="43.84602" lon="6.97626">
        <ele>862.43994</ele>
        <time>2009-03-22T09:44:10Z</time>
      </trkpt>
      <trkpt lat="43.84593" lon="6.97611">
        <ele>856.19116</ele>
        <time>2009-03-22T09:44:15Z</time>
      </trkpt>
      <trkpt lat="43.84587" lon="6.97611">
        <ele>854.26879</ele>
        <time>2009-03-22T09:44:17Z</time>
      </trkpt>
      <trkpt lat="43.8457" lon="6.97606">
        <ele>851.38476</ele>
        <time>2009-03-22T09:44:23Z</time>
      </trkpt>
      <trkpt lat="43.84554" lon="6.97589">
        <ele>848.98144</ele>
        <time>2009-03-22T09:44:29Z</time>
      </trkpt>
      <trkpt lat="43.84543" lon="6.97568">
        <ele>848.98144</ele>
        <time>2009-03-22T09:44:35Z</time>
      </trkpt>
      <trkpt lat="43.84529" lon="6.97546">
        <ele>846.57836</ele>
        <time>2009-03-22T09:44:41Z</time>
      </trkpt>
      <trkpt lat="43.84523" lon="6.97525">
        <ele>846.09765</ele>
        <time>2009-03-22T09:44:46Z</time>
      </trkpt>
      <trkpt lat="43.8452" lon="6.975">
        <ele>847.53955</ele>
        <time>2009-03-22T09:44:52Z</time>
      </trkpt>
      <trkpt lat="43.84518" lon="6.97469">
        <ele>846.09765</ele>
        <time>2009-03-22T09:45:00Z</time>
      </trkpt>
      <trkpt lat="43.8452" lon="6.97441">
        <ele>847.53955</ele>
        <time>2009-03-22T09:45:07Z</time>
      </trkpt>
      <trkpt lat="43.84524" lon="6.97416">
        <ele>852.82666</ele>
        <time>2009-03-22T09:45:13Z</time>
      </trkpt>
      <trkpt lat="43.8452" lon="6.97394">
        <ele>854.26879</ele>
        <time>2009-03-22T09:45:20Z</time>
      </trkpt>
      <trkpt lat="43.84517" lon="6.97375">
        <ele>855.71069</ele>
        <time>2009-03-22T09:45:28Z</time>
      </trkpt>
      <trkpt lat="43.84524" lon="6.9736">
        <ele>863.88183</ele>
        <time>2009-03-22T09:45:34Z</time>
      </trkpt>
      <trkpt lat="43.84533" lon="6.97347">
        <ele>873.0144</ele>
        <time>2009-03-22T09:45:41Z</time>
      </trkpt>
      <trkpt lat="43.84539" lon="6.97339">
        <ele>876.37915</ele>
        <time>2009-03-22T09:45:47Z</time>
      </trkpt>
      <trkpt lat="43.84549" lon="6.97321">
        <ele>881.66626</ele>
        <time>2009-03-22T09:45:57Z</time>
      </trkpt>
      <trkpt lat="43.84556" lon="6.97309">
        <ele>883.58886</ele>
        <time>2009-03-22T09:46:03Z</time>
      </trkpt>
      <trkpt lat="43.84562" lon="6.9729">
        <ele>881.66626</ele>
        <time>2009-03-22T09:46:10Z</time>
      </trkpt>
      <trkpt lat="43.8457" lon="6.97279">
        <ele>878.78247</ele>
        <time>2009-03-22T09:46:16Z</time>
      </trkpt>
      <trkpt lat="43.84579" lon="6.9728">
        <ele>877.82104</ele>
        <time>2009-03-22T09:46:22Z</time>
      </trkpt>
      <trkpt lat="43.84584" lon="6.97291">
        <ele>878.30175</ele>
        <time>2009-03-22T09:46:28Z</time>
      </trkpt>
      <trkpt lat="43.8459" lon="6.97303">
        <ele>878.30175</ele>
        <time>2009-03-22T09:46:35Z</time>
      </trkpt>
      <trkpt lat="43.84597" lon="6.9731">
        <ele>878.78247</ele>
        <time>2009-03-22T09:46:40Z</time>
      </trkpt>
      <trkpt lat="43.84609" lon="6.97308">
        <ele>877.34057</ele>
        <time>2009-03-22T09:46:46Z</time>
      </trkpt>
      <trkpt lat="43.84613" lon="6.97305">
        <ele>879.74365</ele>
        <time>2009-03-22T09:46:49Z</time>
      </trkpt>
      <trkpt lat="43.84623" lon="6.97294">
        <ele>879.26293</ele>
        <time>2009-03-22T09:46:56Z</time>
      </trkpt>
      <trkpt lat="43.84628" lon="6.9728">
        <ele>881.66626</ele>
        <time>2009-03-22T09:47:04Z</time>
      </trkpt>
      <trkpt lat="43.84634" lon="6.97265">
        <ele>883.58886</ele>
        <time>2009-03-22T09:47:13Z</time>
      </trkpt>
      <trkpt lat="43.8464" lon="6.97253">
        <ele>886.4729</ele>
        <time>2009-03-22T09:47:20Z</time>
      </trkpt>
      <trkpt lat="43.84647" lon="6.97247">
        <ele>887.43408</ele>
        <time>2009-03-22T09:47:26Z</time>
      </trkpt>
      <trkpt lat="43.84658" lon="6.9724">
        <ele>886.95336</ele>
        <time>2009-03-22T09:47:32Z</time>
      </trkpt>
      <trkpt lat="43.84667" lon="6.97238">
        <ele>887.43408</ele>
        <time>2009-03-22T09:47:39Z</time>
      </trkpt>
      <trkpt lat="43.84675" lon="6.97237">
        <ele>889.35668</ele>
        <time>2009-03-22T09:47:43Z</time>
      </trkpt>
      <trkpt lat="43.84685" lon="6.97226">
        <ele>889.8374</ele>
        <time>2009-03-22T09:47:50Z</time>
      </trkpt>
      <trkpt lat="43.84693" lon="6.97214">
        <ele>891.76001</ele>
        <time>2009-03-22T09:47:57Z</time>
      </trkpt>
      <trkpt lat="43.84697" lon="6.97204">
        <ele>894.16357</ele>
        <time>2009-03-22T09:48:03Z</time>
      </trkpt>
      <trkpt lat="43.847" lon="6.97193">
        <ele>898.96997</ele>
        <time>2009-03-22T09:48:10Z</time>
      </trkpt>
      <trkpt lat="43.84703" lon="6.97179">
        <ele>901.37329</ele>
        <time>2009-03-22T09:48:17Z</time>
      </trkpt>
      <trkpt lat="43.84708" lon="6.97168">
        <ele>907.62182</ele>
        <time>2009-03-22T09:48:24Z</time>
      </trkpt>
      <trkpt lat="43.84713" lon="6.97155">
        <ele>912.90918</ele>
        <time>2009-03-22T09:48:31Z</time>
      </trkpt>
      <trkpt lat="43.8472" lon="6.97133">
        <ele>917.2351</ele>
        <time>2009-03-22T09:48:41Z</time>
      </trkpt>
      <trkpt lat="43.84721" lon="6.97133">
        <ele>920.11889</ele>
        <time>2009-03-22T09:48:42Z</time>
      </trkpt>
      <trkpt lat="43.8473" lon="6.97125">
        <ele>920.11889</ele>
        <time>2009-03-22T09:48:47Z</time>
      </trkpt>
      <trkpt lat="43.84734" lon="6.97129">
        <ele>917.71557</ele>
        <time>2009-03-22T09:48:53Z</time>
      </trkpt>
      <trkpt lat="43.84741" lon="6.97131">
        <ele>914.83178</ele>
        <time>2009-03-22T09:48:57Z</time>
      </trkpt>
      <trkpt lat="43.84757" lon="6.97129">
        <ele>904.73779</ele>
        <time>2009-03-22T09:49:04Z</time>
      </trkpt>
      <trkpt lat="43.84768" lon="6.97128">
        <ele>900.4121</ele>
        <time>2009-03-22T09:49:10Z</time>
      </trkpt>
      <trkpt lat="43.84778" lon="6.97125">
        <ele>898.48925</ele>
        <time>2009-03-22T09:49:15Z</time>
      </trkpt>
      <trkpt lat="43.84787" lon="6.97118">
        <ele>899.45068</ele>
        <time>2009-03-22T09:49:21Z</time>
      </trkpt>
      <trkpt lat="43.84793" lon="6.9711">
        <ele>902.33447</ele>
        <time>2009-03-22T09:49:28Z</time>
      </trkpt>
      <trkpt lat="43.84799" lon="6.97101">
        <ele>904.73779</ele>
        <time>2009-03-22T09:49:34Z</time>
      </trkpt>
      <trkpt lat="43.84804" lon="6.97095">
        <ele>904.73779</ele>
        <time>2009-03-22T09:49:38Z</time>
      </trkpt>
      <trkpt lat="43.8481" lon="6.97082">
        <ele>905.2185</ele>
        <time>2009-03-22T09:49:46Z</time>
      </trkpt>
      <trkpt lat="43.84816" lon="6.97072">
        <ele>908.10278</ele>
        <time>2009-03-22T09:49:52Z</time>
      </trkpt>
      <trkpt lat="43.8482" lon="6.97066">
        <ele>910.50585</ele>
        <time>2009-03-22T09:49:57Z</time>
      </trkpt>
      <trkpt lat="43.8483" lon="6.97058">
        <ele>915.3125</ele>
        <time>2009-03-22T09:50:04Z</time>
      </trkpt>
      <trkpt lat="43.84837" lon="6.9705">
        <ele>916.27368</ele>
        <time>2009-03-22T09:50:10Z</time>
      </trkpt>
      <trkpt lat="43.84839" lon="6.9705">
        <ele>917.2351</ele>
        <time>2009-03-22T09:50:12Z</time>
      </trkpt>
      <trkpt lat="43.84854" lon="6.97038">
        <ele>915.3125</ele>
        <time>2009-03-22T09:50:21Z</time>
      </trkpt>
      <trkpt lat="43.8487" lon="6.97028">
        <ele>911.94799</ele>
        <time>2009-03-22T09:50:29Z</time>
      </trkpt>
      <trkpt lat="43.84883" lon="6.97019">
        <ele>910.02514</ele>
        <time>2009-03-22T09:50:36Z</time>
      </trkpt>
      <trkpt lat="43.84896" lon="6.9701">
        <ele>909.54467</ele>
        <time>2009-03-22T09:50:42Z</time>
      </trkpt>
      <trkpt lat="43.84904" lon="6.97011">
        <ele>908.58325</ele>
        <time>2009-03-22T09:50:48Z</time>
      </trkpt>
      <trkpt lat="43.8491" lon="6.97026">
        <ele>909.54467</ele>
        <time>2009-03-22T09:50:56Z</time>
      </trkpt>
      <trkpt lat="43.84919" lon="6.97046">
        <ele>909.06396</ele>
        <time>2009-03-22T09:51:06Z</time>
      </trkpt>
      <trkpt lat="43.84924" lon="6.97057">
        <ele>910.98657</ele>
        <time>2009-03-22T09:51:13Z</time>
      </trkpt>
      <trkpt lat="43.84933" lon="6.97074">
        <ele>911.94799</ele>
        <time>2009-03-22T09:51:22Z</time>
      </trkpt>
      <trkpt lat="43.84944" lon="6.97094">
        <ele>911.46728</ele>
        <time>2009-03-22T09:51:32Z</time>
      </trkpt>
      <trkpt lat="43.84952" lon="6.97108">
        <ele>911.94799</ele>
        <time>2009-03-22T09:51:39Z</time>
      </trkpt>
      <trkpt lat="43.84962" lon="6.97123">
        <ele>913.38989</ele>
        <time>2009-03-22T09:51:47Z</time>
      </trkpt>
      <trkpt lat="43.84973" lon="6.97141">
        <ele>916.27368</ele>
        <time>2009-03-22T09:51:56Z</time>
      </trkpt>
      <trkpt lat="43.84981" lon="6.97158">
        <ele>915.3125</ele>
        <time>2009-03-22T09:52:03Z</time>
      </trkpt>
      <trkpt lat="43.84983" lon="6.97164">
        <ele>916.27368</ele>
        <time>2009-03-22T09:52:06Z</time>
      </trkpt>
      <trkpt lat="43.84991" lon="6.97163">
        <ele>915.3125</ele>
        <time>2009-03-22T09:52:12Z</time>
      </trkpt>
      <trkpt lat="43.84991" lon="6.97161">
        <ele>914.83178</ele>
        <time>2009-03-22T09:52:13Z</time>
      </trkpt>
      <trkpt lat="43.84991" lon="6.97154">
        <ele>913.87036</ele>
        <time>2009-03-22T09:52:16Z</time>
      </trkpt>
      <trkpt lat="43.84984" lon="6.97136">
        <ele>912.42846</ele>
        <time>2009-03-22T09:52:24Z</time>
      </trkpt>
      <trkpt lat="43.8498" lon="6.97122">
        <ele>909.54467</ele>
        <time>2009-03-22T09:52:31Z</time>
      </trkpt>
      <trkpt lat="43.84975" lon="6.97105">
        <ele>910.02514</ele>
        <time>2009-03-22T09:52:38Z</time>
      </trkpt>
      <trkpt lat="43.84972" lon="6.97086">
        <ele>910.02514</ele>
        <time>2009-03-22T09:52:47Z</time>
      </trkpt>
      <trkpt lat="43.84966" lon="6.97065">
        <ele>917.2351</ele>
        <time>2009-03-22T09:52:57Z</time>
      </trkpt>
      <trkpt lat="43.84966" lon="6.97052">
        <ele>917.2351</ele>
        <time>2009-03-22T09:53:04Z</time>
      </trkpt>
      <trkpt lat="43.84963" lon="6.97033">
        <ele>921.08032</ele>
        <time>2009-03-22T09:53:13Z</time>
      </trkpt>
      <trkpt lat="43.84963" lon="6.97026">
        <ele>920.11889</ele>
        <time>2009-03-22T09:53:19Z</time>
      </trkpt>
      <trkpt lat="43.84965" lon="6.97026">
        <ele>921.56079</ele>
        <time>2009-03-22T09:53:32Z</time>
      </trkpt>
      <trkpt lat="43.84965" lon="6.97023">
        <ele>921.56079</ele>
        <time>2009-03-22T09:53:38Z</time>
      </trkpt>
      <trkpt lat="43.84962" lon="6.97011">
        <ele>924.92578</ele>
        <time>2009-03-22T09:53:44Z</time>
      </trkpt>
      <trkpt lat="43.8496" lon="6.96991">
        <ele>926.84838</ele>
        <time>2009-03-22T09:53:52Z</time>
      </trkpt>
      <trkpt lat="43.84958" lon="6.96972">
        <ele>928.29028</ele>
        <time>2009-03-22T09:54:00Z</time>
      </trkpt>
      <trkpt lat="43.84956" lon="6.96955">
        <ele>929.25146</ele>
        <time>2009-03-22T09:54:07Z</time>
      </trkpt>
      <trkpt lat="43.84953" lon="6.96936">
        <ele>930.21289</ele>
        <time>2009-03-22T09:54:15Z</time>
      </trkpt>
      <trkpt lat="43.84949" lon="6.96921">
        <ele>931.65478</ele>
        <time>2009-03-22T09:54:22Z</time>
      </trkpt>
      <trkpt lat="43.84946" lon="6.96907">
        <ele>932.61621</ele>
        <time>2009-03-22T09:54:29Z</time>
      </trkpt>
      <trkpt lat="43.84943" lon="6.9689">
        <ele>932.13549</ele>
        <time>2009-03-22T09:54:37Z</time>
      </trkpt>
      <trkpt lat="43.84938" lon="6.96869">
        <ele>934.53881</ele>
        <time>2009-03-22T09:54:47Z</time>
      </trkpt>
      <trkpt lat="43.84931" lon="6.96854">
        <ele>937.4226</ele>
        <time>2009-03-22T09:54:54Z</time>
      </trkpt>
      <trkpt lat="43.84924" lon="6.96837">
        <ele>937.4226</ele>
        <time>2009-03-22T09:55:02Z</time>
      </trkpt>
      <trkpt lat="43.84919" lon="6.96825">
        <ele>935.5</ele>
        <time>2009-03-22T09:55:09Z</time>
      </trkpt>
      <trkpt lat="43.84907" lon="6.9682">
        <ele>940.30688</ele>
        <time>2009-03-22T09:55:17Z</time>
      </trkpt>
      <trkpt lat="43.84904" lon="6.9682">
        <ele>941.74877</ele>
        <time>2009-03-22T09:55:19Z</time>
      </trkpt>
      <trkpt lat="43.84898" lon="6.96812">
        <ele>943.19067</ele>
        <time>2009-03-22T09:55:26Z</time>
      </trkpt>
      <trkpt lat="43.84898" lon="6.96811">
        <ele>944.63256</ele>
        <time>2009-03-22T09:55:32Z</time>
      </trkpt>
      <trkpt lat="43.84899" lon="6.96811">
        <ele>944.63256</ele>
        <time>2009-03-22T09:55:38Z</time>
      </trkpt>
      <trkpt lat="43.84901" lon="6.96811">
        <ele>945.11328</ele>
        <time>2009-03-22T09:55:40Z</time>
      </trkpt>
      <trkpt lat="43.84904" lon="6.9681">
        <ele>946.0747</ele>
        <time>2009-03-22T09:55:43Z</time>
      </trkpt>
      <trkpt lat="43.84906" lon="6.96803">
        <ele>945.59399</ele>
        <time>2009-03-22T09:55:49Z</time>
      </trkpt>
      <trkpt lat="43.84906" lon="6.96804">
        <ele>945.59399</ele>
        <time>2009-03-22T09:56:00Z</time>
      </trkpt>
      <trkpt lat="43.84903" lon="6.96805">
        <ele>942.7102</ele>
        <time>2009-03-22T09:56:17Z</time>
      </trkpt>
      <trkpt lat="43.84904" lon="6.96804">
        <ele>944.63256</ele>
        <time>2009-03-22T09:58:13Z</time>
      </trkpt>
      <trkpt lat="43.84899" lon="6.96812">
        <ele>945.59399</ele>
        <time>2009-03-22T09:58:19Z</time>
      </trkpt>
      <trkpt lat="43.84895" lon="6.96815">
        <ele>945.11328</ele>
        <time>2009-03-22T09:58:24Z</time>
      </trkpt>
      <trkpt lat="43.8489" lon="6.96809">
        <ele>944.1521</ele>
        <time>2009-03-22T09:58:31Z</time>
      </trkpt>
      <trkpt lat="43.84889" lon="6.96807">
        <ele>944.1521</ele>
        <time>2009-03-22T09:58:36Z</time>
      </trkpt>
      <trkpt lat="43.8489" lon="6.96808">
        <ele>945.11328</ele>
        <time>2009-03-22T09:58:47Z</time>
      </trkpt>
      <trkpt lat="43.8489" lon="6.96807">
        <ele>946.0747</ele>
        <time>2009-03-22T09:58:57Z</time>
      </trkpt>
      <trkpt lat="43.8489" lon="6.96806">
        <ele>946.0747</ele>
        <time>2009-03-22T09:59:20Z</time>
      </trkpt>
      <trkpt lat="43.8489" lon="6.96804">
        <ele>945.59399</ele>
        <time>2009-03-22T09:59:46Z</time>
      </trkpt>
      <trkpt lat="43.84891" lon="6.96804">
        <ele>945.59399</ele>
        <time>2009-03-22T10:00:03Z</time>
      </trkpt>
      <trkpt lat="43.84891" lon="6.96804">
        <ele>945.59399</ele>
        <time>2009-03-22T10:00:56Z</time>
      </trkpt>
      <trkpt lat="43.84891" lon="6.96803">
        <ele>945.11328</ele>
        <time>2009-03-22T10:01:19Z</time>
      </trkpt>
      <trkpt lat="43.84889" lon="6.96799">
        <ele>946.55542</ele>
        <time>2009-03-22T10:01:58Z</time>
      </trkpt>
      <trkpt lat="43.8489" lon="6.96799">
        <ele>947.03588</ele>
        <time>2009-03-22T10:02:15Z</time>
      </trkpt>
      <trkpt lat="43.8489" lon="6.968">
        <ele>947.03588</ele>
        <time>2009-03-22T10:02:42Z</time>
      </trkpt>
      <trkpt lat="43.8489" lon="6.968">
        <ele>946.55542</ele>
        <time>2009-03-22T10:03:00Z</time>
      </trkpt>
      <trkpt lat="43.84891" lon="6.96801">
        <ele>946.55542</ele>
        <time>2009-03-22T10:03:11Z</time>
      </trkpt>
      <trkpt lat="43.84891" lon="6.96801">
        <ele>947.5166</ele>
        <time>2009-03-22T10:03:24Z</time>
      </trkpt>
      <trkpt lat="43.84891" lon="6.96801">
        <ele>947.5166</ele>
        <time>2009-03-22T10:03:38Z</time>
      </trkpt>
      <trkpt lat="43.84891" lon="6.96802">
        <ele>947.99731</ele>
        <time>2009-03-22T10:03:53Z</time>
      </trkpt>
      <trkpt lat="43.84891" lon="6.96802">
        <ele>947.5166</ele>
        <time>2009-03-22T10:04:14Z</time>
      </trkpt>
      <trkpt lat="43.8489" lon="6.96803">
        <ele>946.55542</ele>
        <time>2009-03-22T10:04:34Z</time>
      </trkpt>
      <trkpt lat="43.8489" lon="6.96803">
        <ele>946.55542</ele>
        <time>2009-03-22T10:04:53Z</time>
      </trkpt>
      <trkpt lat="43.84891" lon="6.96803">
        <ele>945.59399</ele>
        <time>2009-03-22T10:05:38Z</time>
      </trkpt>
      <trkpt lat="43.8489" lon="6.96803">
        <ele>945.59399</ele>
        <time>2009-03-22T10:05:51Z</time>
      </trkpt>
      <trkpt lat="43.8489" lon="6.96804">
        <ele>945.11328</ele>
        <time>2009-03-22T10:06:06Z</time>
      </trkpt>
      <trkpt lat="43.8489" lon="6.96804">
        <ele>945.11328</ele>
        <time>2009-03-22T10:06:20Z</time>
      </trkpt>
      <trkpt lat="43.8489" lon="6.96804">
        <ele>945.59399</ele>
        <time>2009-03-22T10:06:40Z</time>
      </trkpt>
      <trkpt lat="43.84891" lon="6.96803">
        <ele>945.59399</ele>
        <time>2009-03-22T10:07:07Z</time>
      </trkpt>
      <trkpt lat="43.84891" lon="6.96803">
        <ele>945.59399</ele>
        <time>2009-03-22T10:07:22Z</time>
      </trkpt>
      <trkpt lat="43.8489" lon="6.96803">
        <ele>945.11328</ele>
        <time>2009-03-22T10:07:39Z</time>
      </trkpt>
      <trkpt lat="43.8489" lon="6.96803">
        <ele>943.67138</ele>
        <time>2009-03-22T10:08:38Z</time>
      </trkpt>
      <trkpt lat="43.8489" lon="6.96803">
        <ele>945.11328</ele>
        <time>2009-03-22T10:09:09Z</time>
      </trkpt>
      <trkpt lat="43.8489" lon="6.96803">
        <ele>945.11328</ele>
        <time>2009-03-22T10:09:39Z</time>
      </trkpt>
      <trkpt lat="43.84889" lon="6.96805">
        <ele>944.63256</ele>
        <time>2009-03-22T10:09:55Z</time>
      </trkpt>
      <trkpt lat="43.84883" lon="6.96798">
        <ele>943.19067</ele>
        <time>2009-03-22T10:10:02Z</time>
      </trkpt>
      <trkpt lat="43.84882" lon="6.96794">
        <ele>944.1521</ele>
        <time>2009-03-22T10:10:05Z</time>
      </trkpt>
      <trkpt lat="43.84879" lon="6.96789">
        <ele>945.11328</ele>
        <time>2009-03-22T10:10:13Z</time>
      </trkpt>
      <trkpt lat="43.84876" lon="6.96791">
        <ele>945.59399</ele>
        <time>2009-03-22T10:10:32Z</time>
      </trkpt>
      <trkpt lat="43.84878" lon="6.96786">
        <ele>947.03588</ele>
        <time>2009-03-22T10:11:17Z</time>
      </trkpt>
      <trkpt lat="43.84878" lon="6.96786">
        <ele>947.03588</ele>
        <time>2009-03-22T10:11:26Z</time>
      </trkpt>
      <trkpt lat="43.84877" lon="6.96786">
        <ele>946.0747</ele>
        <time>2009-03-22T10:11:39Z</time>
      </trkpt>
      <trkpt lat="43.84875" lon="6.96779">
        <ele>946.55542</ele>
        <time>2009-03-22T10:11:43Z</time>
      </trkpt>
      <trkpt lat="43.8487" lon="6.96764">
        <ele>950.40063</ele>
        <time>2009-03-22T10:11:48Z</time>
      </trkpt>
      <trkpt lat="43.84868" lon="6.96757">
        <ele>950.40063</ele>
        <time>2009-03-22T10:11:53Z</time>
      </trkpt>
      <trkpt lat="43.84865" lon="6.96759">
        <ele>949.91992</ele>
        <time>2009-03-22T10:12:02Z</time>
      </trkpt>
      <trkpt lat="43.84867" lon="6.9676">
        <ele>950.40063</ele>
        <time>2009-03-22T10:12:21Z</time>
      </trkpt>
      <trkpt lat="43.84869" lon="6.96761">
        <ele>944.1521</ele>
        <time>2009-03-22T10:12:27Z</time>
      </trkpt>
      <trkpt lat="43.84872" lon="6.96765">
        <ele>943.19067</ele>
        <time>2009-03-22T10:12:33Z</time>
      </trkpt>
      <trkpt lat="43.84875" lon="6.96765">
        <ele>940.78735</ele>
        <time>2009-03-22T10:12:38Z</time>
      </trkpt>
      <trkpt lat="43.84878" lon="6.96767">
        <ele>937.90332</ele>
        <time>2009-03-22T10:12:46Z</time>
      </trkpt>
      <trkpt lat="43.84879" lon="6.96768">
        <ele>937.4226</ele>
        <time>2009-03-22T10:12:49Z</time>
      </trkpt>
      <trkpt lat="43.84887" lon="6.96778">
        <ele>934.53881</ele>
        <time>2009-03-22T10:12:57Z</time>
      </trkpt>
      <trkpt lat="43.84884" lon="6.96779">
        <ele>935.5</ele>
        <time>2009-03-22T10:13:02Z</time>
      </trkpt>
      <trkpt lat="43.84888" lon="6.96779">
        <ele>939.82592</ele>
        <time>2009-03-22T10:13:14Z</time>
      </trkpt>
      <trkpt lat="43.84886" lon="6.96782">
        <ele>940.30688</ele>
        <time>2009-03-22T10:13:23Z</time>
      </trkpt>
      <trkpt lat="43.84888" lon="6.96789">
        <ele>943.67138</ele>
        <time>2009-03-22T10:14:00Z</time>
      </trkpt>
      <trkpt lat="43.84886" lon="6.96788">
        <ele>939.82592</ele>
        <time>2009-03-22T10:14:09Z</time>
      </trkpt>
      <trkpt lat="43.84885" lon="6.96788">
        <ele>937.90332</ele>
        <time>2009-03-22T10:14:16Z</time>
      </trkpt>
      <trkpt lat="43.84885" lon="6.96788">
        <ele>941.26806</ele>
        <time>2009-03-22T10:14:23Z</time>
      </trkpt>
      <trkpt lat="43.84885" lon="6.96789">
        <ele>933.57739</ele>
        <time>2009-03-22T10:14:39Z</time>
      </trkpt>
      <trkpt lat="43.84883" lon="6.9679">
        <ele>936.46142</ele>
        <time>2009-03-22T10:14:45Z</time>
      </trkpt>
      <trkpt lat="43.84882" lon="6.96789">
        <ele>943.19067</ele>
        <time>2009-03-22T10:14:59Z</time>
      </trkpt>
      <trkpt lat="43.8488" lon="6.96786">
        <ele>945.59399</ele>
        <time>2009-03-22T10:15:05Z</time>
      </trkpt>
      <trkpt lat="43.84878" lon="6.96784">
        <ele>945.11328</ele>
        <time>2009-03-22T10:15:12Z</time>
      </trkpt>
      <trkpt lat="43.84877" lon="6.96786">
        <ele>945.59399</ele>
        <time>2009-03-22T10:15:17Z</time>
      </trkpt>
      <trkpt lat="43.84875" lon="6.9679">
        <ele>944.63256</ele>
        <time>2009-03-22T10:15:23Z</time>
      </trkpt>
      <trkpt lat="43.84879" lon="6.96796">
        <ele>943.19067</ele>
        <time>2009-03-22T10:15:29Z</time>
      </trkpt>
      <trkpt lat="43.84887" lon="6.96808">
        <ele>943.19067</ele>
        <time>2009-03-22T10:15:35Z</time>
      </trkpt>
      <trkpt lat="43.84892" lon="6.96811">
        <ele>943.19067</ele>
        <time>2009-03-22T10:15:37Z</time>
      </trkpt>
      <trkpt lat="43.84903" lon="6.96805">
        <ele>944.1521</ele>
        <time>2009-03-22T10:15:42Z</time>
      </trkpt>
      <trkpt lat="43.84919" lon="6.96799">
        <ele>947.03588</ele>
        <time>2009-03-22T10:15:49Z</time>
      </trkpt>
      <trkpt lat="43.84925" lon="6.9679">
        <ele>947.03588</ele>
        <time>2009-03-22T10:15:55Z</time>
      </trkpt>
      <trkpt lat="43.84926" lon="6.96788">
        <ele>943.19067</ele>
        <time>2009-03-22T10:16:15Z</time>
      </trkpt>
      <trkpt lat="43.84928" lon="6.96792">
        <ele>942.22949</ele>
        <time>2009-03-22T10:16:20Z</time>
      </trkpt>
      <trkpt lat="43.84931" lon="6.96791">
        <ele>941.74877</ele>
        <time>2009-03-22T10:16:27Z</time>
      </trkpt>
      <trkpt lat="43.84939" lon="6.96788">
        <ele>943.19067</ele>
        <time>2009-03-22T10:16:32Z</time>
      </trkpt>
      <trkpt lat="43.8495" lon="6.96783">
        <ele>944.1521</ele>
        <time>2009-03-22T10:16:35Z</time>
      </trkpt>
      <trkpt lat="43.84965" lon="6.96781">
        <ele>945.59399</ele>
        <time>2009-03-22T10:16:41Z</time>
      </trkpt>
      <trkpt lat="43.84981" lon="6.96776">
        <ele>945.59399</ele>
        <time>2009-03-22T10:16:46Z</time>
      </trkpt>
      <trkpt lat="43.84996" lon="6.96767">
        <ele>942.22949</ele>
        <time>2009-03-22T10:16:51Z</time>
      </trkpt>
      <trkpt lat="43.85005" lon="6.96751">
        <ele>940.78735</ele>
        <time>2009-03-22T10:16:56Z</time>
      </trkpt>
      <trkpt lat="43.8501" lon="6.96734">
        <ele>939.82592</ele>
        <time>2009-03-22T10:17:01Z</time>
      </trkpt>
      <trkpt lat="43.85011" lon="6.96735">
        <ele>937.90332</ele>
        <time>2009-03-22T10:17:06Z</time>
      </trkpt>
      <trkpt lat="43.85012" lon="6.96732">
        <ele>939.34521</ele>
        <time>2009-03-22T10:17:09Z</time>
      </trkpt>
      <trkpt lat="43.85014" lon="6.96727">
        <ele>941.74877</ele>
        <time>2009-03-22T10:17:14Z</time>
      </trkpt>
      <trkpt lat="43.85018" lon="6.96723">
        <ele>942.7102</ele>
        <time>2009-03-22T10:17:19Z</time>
      </trkpt>
      <trkpt lat="43.85022" lon="6.96715">
        <ele>943.19067</ele>
        <time>2009-03-22T10:17:23Z</time>
      </trkpt>
      <trkpt lat="43.85033" lon="6.96708">
        <ele>943.19067</ele>
        <time>2009-03-22T10:17:28Z</time>
      </trkpt>
      <trkpt lat="43.85035" lon="6.9669">
        <ele>940.78735</ele>
        <time>2009-03-22T10:17:32Z</time>
      </trkpt>
      <trkpt lat="43.85034" lon="6.96676">
        <ele>941.74877</ele>
        <time>2009-03-22T10:17:34Z</time>
      </trkpt>
      <trkpt lat="43.85042" lon="6.96646">
        <ele>937.4226</ele>
        <time>2009-03-22T10:17:40Z</time>
      </trkpt>
      <trkpt lat="43.85048" lon="6.96631">
        <ele>935.5</ele>
        <time>2009-03-22T10:17:44Z</time>
      </trkpt>
      <trkpt lat="43.85048" lon="6.96623">
        <ele>937.4226</ele>
        <time>2009-03-22T10:17:46Z</time>
      </trkpt>
      <trkpt lat="43.85046" lon="6.96614">
        <ele>936.94189</ele>
        <time>2009-03-22T10:17:48Z</time>
      </trkpt>
      <trkpt lat="43.85047" lon="6.9658">
        <ele>931.17431</ele>
        <time>2009-03-22T10:17:54Z</time>
      </trkpt>
      <trkpt lat="43.85053" lon="6.96559">
        <ele>925.40625</ele>
        <time>2009-03-22T10:17:58Z</time>
      </trkpt>
      <trkpt lat="43.85061" lon="6.96532">
        <ele>920.5996</ele>
        <time>2009-03-22T10:18:02Z</time>
      </trkpt>
      <trkpt lat="43.85071" lon="6.96509">
        <ele>916.27368</ele>
        <time>2009-03-22T10:18:06Z</time>
      </trkpt>
      <trkpt lat="43.85084" lon="6.96481">
        <ele>910.50585</ele>
        <time>2009-03-22T10:18:12Z</time>
      </trkpt>
      <trkpt lat="43.85092" lon="6.96461">
        <ele>904.73779</ele>
        <time>2009-03-22T10:18:17Z</time>
      </trkpt>
      <trkpt lat="43.85095" lon="6.96462">
        <ele>902.81518</ele>
        <time>2009-03-22T10:18:23Z</time>
      </trkpt>
      <trkpt lat="43.85101" lon="6.9646">
        <ele>906.6604</ele>
        <time>2009-03-22T10:18:29Z</time>
      </trkpt>
      <trkpt lat="43.85102" lon="6.96453">
        <ele>901.37329</ele>
        <time>2009-03-22T10:18:38Z</time>
      </trkpt>
      <trkpt lat="43.85102" lon="6.96435">
        <ele>903.77661</ele>
        <time>2009-03-22T10:18:43Z</time>
      </trkpt>
      <trkpt lat="43.85109" lon="6.96413">
        <ele>901.37329</ele>
        <time>2009-03-22T10:18:48Z</time>
      </trkpt>
      <trkpt lat="43.85112" lon="6.96401">
        <ele>900.4121</ele>
        <time>2009-03-22T10:18:50Z</time>
      </trkpt>
      <trkpt lat="43.85132" lon="6.96364">
        <ele>896.56689</ele>
        <time>2009-03-22T10:18:57Z</time>
      </trkpt>
      <trkpt lat="43.85144" lon="6.96335">
        <ele>896.56689</ele>
        <time>2009-03-22T10:19:02Z</time>
      </trkpt>
      <trkpt lat="43.85155" lon="6.96311">
        <ele>893.68286</ele>
        <time>2009-03-22T10:19:06Z</time>
      </trkpt>
      <trkpt lat="43.85165" lon="6.96284">
        <ele>888.3955</ele>
        <time>2009-03-22T10:19:11Z</time>
      </trkpt>
      <trkpt lat="43.85169" lon="6.96274">
        <ele>885.51147</ele>
        <time>2009-03-22T10:19:13Z</time>
      </trkpt>
      <trkpt lat="43.85183" lon="6.96247">
        <ele>881.18579</ele>
        <time>2009-03-22T10:19:18Z</time>
      </trkpt>
      <trkpt lat="43.852" lon="6.96215">
        <ele>882.14697</ele>
        <time>2009-03-22T10:19:24Z</time>
      </trkpt>
      <trkpt lat="43.8521" lon="6.96215">
        <ele>879.74365</ele>
        <time>2009-03-22T10:19:27Z</time>
      </trkpt>
      <trkpt lat="43.85221" lon="6.96214">
        <ele>881.18579</ele>
        <time>2009-03-22T10:19:32Z</time>
      </trkpt>
      <trkpt lat="43.85224" lon="6.96207">
        <ele>880.22436</ele>
        <time>2009-03-22T10:19:36Z</time>
      </trkpt>
      <trkpt lat="43.85225" lon="6.96198">
        <ele>878.30175</ele>
        <time>2009-03-22T10:19:50Z</time>
      </trkpt>
      <trkpt lat="43.85226" lon="6.96196">
        <ele>878.30175</ele>
        <time>2009-03-22T10:19:55Z</time>
      </trkpt>
      <trkpt lat="43.85224" lon="6.96176">
        <ele>878.78247</ele>
        <time>2009-03-22T10:20:00Z</time>
      </trkpt>
      <trkpt lat="43.85222" lon="6.96158">
        <ele>872.53369</ele>
        <time>2009-03-22T10:20:04Z</time>
      </trkpt>
      <trkpt lat="43.85229" lon="6.96134">
        <ele>858.59448</ele>
        <time>2009-03-22T10:20:09Z</time>
      </trkpt>
      <trkpt lat="43.85236" lon="6.96109">
        <ele>853.78808</ele>
        <time>2009-03-22T10:20:14Z</time>
      </trkpt>
      <trkpt lat="43.85245" lon="6.96094">
        <ele>848.50073</ele>
        <time>2009-03-22T10:20:18Z</time>
      </trkpt>
      <trkpt lat="43.85248" lon="6.9609">
        <ele>847.05883</ele>
        <time>2009-03-22T10:20:19Z</time>
      </trkpt>
      <trkpt lat="43.85254" lon="6.96073">
        <ele>847.05883</ele>
        <time>2009-03-22T10:20:22Z</time>
      </trkpt>
      <trkpt lat="43.8526" lon="6.96043">
        <ele>849.46215</ele>
        <time>2009-03-22T10:20:27Z</time>
      </trkpt>
      <trkpt lat="43.85267" lon="6.96022">
        <ele>852.82666</ele>
        <time>2009-03-22T10:20:31Z</time>
      </trkpt>
      <trkpt lat="43.85286" lon="6.95997">
        <ele>845.61694</ele>
        <time>2009-03-22T10:20:37Z</time>
      </trkpt>
      <trkpt lat="43.85301" lon="6.95973">
        <ele>841.29077</ele>
        <time>2009-03-22T10:20:43Z</time>
      </trkpt>
      <trkpt lat="43.85315" lon="6.9595">
        <ele>842.73291</ele>
        <time>2009-03-22T10:20:49Z</time>
      </trkpt>
      <trkpt lat="43.85327" lon="6.95928">
        <ele>843.69409</ele>
        <time>2009-03-22T10:20:54Z</time>
      </trkpt>
      <trkpt lat="43.85327" lon="6.95905">
        <ele>847.05883</ele>
        <time>2009-03-22T10:20:58Z</time>
      </trkpt>
      <trkpt lat="43.85336" lon="6.95887">
        <ele>845.61694</ele>
        <time>2009-03-22T10:21:02Z</time>
      </trkpt>
      <trkpt lat="43.85338" lon="6.95884">
        <ele>847.53955</ele>
        <time>2009-03-22T10:21:05Z</time>
      </trkpt>
      <trkpt lat="43.85343" lon="6.9588">
        <ele>847.05883</ele>
        <time>2009-03-22T10:21:09Z</time>
      </trkpt>
      <trkpt lat="43.85354" lon="6.95871">
        <ele>842.73291</ele>
        <time>2009-03-22T10:21:13Z</time>
      </trkpt>
      <trkpt lat="43.85357" lon="6.95869">
        <ele>841.77148</ele>
        <time>2009-03-22T10:21:14Z</time>
      </trkpt>
      <trkpt lat="43.85369" lon="6.95868">
        <ele>836.96484</ele>
        <time>2009-03-22T10:21:18Z</time>
      </trkpt>
      <trkpt lat="43.85384" lon="6.95862">
        <ele>831.19726</ele>
        <time>2009-03-22T10:21:23Z</time>
      </trkpt>
      <trkpt lat="43.85407" lon="6.9585">
        <ele>827.3518</ele>
        <time>2009-03-22T10:21:29Z</time>
      </trkpt>
      <trkpt lat="43.85423" lon="6.95853">
        <ele>822.54516</ele>
        <time>2009-03-22T10:21:33Z</time>
      </trkpt>
      <trkpt lat="43.85433" lon="6.95869">
        <ele>819.18066</ele>
        <time>2009-03-22T10:21:37Z</time>
      </trkpt>
      <trkpt lat="43.85433" lon="6.95873">
        <ele>818.69995</ele>
        <time>2009-03-22T10:21:38Z</time>
      </trkpt>
      <trkpt lat="43.85436" lon="6.95899">
        <ele>816.77734</ele>
        <time>2009-03-22T10:21:43Z</time>
      </trkpt>
      <trkpt lat="43.85441" lon="6.95915">
        <ele>814.85473</ele>
        <time>2009-03-22T10:21:46Z</time>
      </trkpt>
      <trkpt lat="43.85451" lon="6.9594">
        <ele>814.37402</ele>
        <time>2009-03-22T10:21:50Z</time>
      </trkpt>
      <trkpt lat="43.85466" lon="6.95969">
        <ele>812.45141</ele>
        <time>2009-03-22T10:21:56Z</time>
      </trkpt>
      <trkpt lat="43.85471" lon="6.95991">
        <ele>809.56738</ele>
        <time>2009-03-22T10:22:00Z</time>
      </trkpt>
      <trkpt lat="43.85476" lon="6.96021">
        <ele>803.79956</ele>
        <time>2009-03-22T10:22:04Z</time>
      </trkpt>
      <trkpt lat="43.8548" lon="6.96036">
        <ele>802.35742</ele>
        <time>2009-03-22T10:22:06Z</time>
      </trkpt>
      <trkpt lat="43.85491" lon="6.96056">
        <ele>803.31884</ele>
        <time>2009-03-22T10:22:09Z</time>
      </trkpt>
      <trkpt lat="43.85499" lon="6.96078">
        <ele>801.39624</ele>
        <time>2009-03-22T10:22:12Z</time>
      </trkpt>
      <trkpt lat="43.85514" lon="6.96107">
        <ele>796.58984</ele>
        <time>2009-03-22T10:22:17Z</time>
      </trkpt>
      <trkpt lat="43.85516" lon="6.96129">
        <ele>789.37963</ele>
        <time>2009-03-22T10:22:21Z</time>
      </trkpt>
      <trkpt lat="43.85516" lon="6.96132">
        <ele>786.97631</ele>
        <time>2009-03-22T10:22:22Z</time>
      </trkpt>
      <trkpt lat="43.85519" lon="6.96151">
        <ele>780.72802</ele>
        <time>2009-03-22T10:22:27Z</time>
      </trkpt>
      <trkpt lat="43.85527" lon="6.96173">
        <ele>771.59521</ele>
        <time>2009-03-22T10:22:32Z</time>
      </trkpt>
      <trkpt lat="43.85531" lon="6.96182">
        <ele>772.07592</ele>
        <time>2009-03-22T10:22:37Z</time>
      </trkpt>
      <trkpt lat="43.85532" lon="6.96184">
        <ele>771.11474</ele>
        <time>2009-03-22T10:22:41Z</time>
      </trkpt>
      <trkpt lat="43.85532" lon="6.96184">
        <ele>770.15332</ele>
        <time>2009-03-22T10:22:42Z</time>
      </trkpt>
      <trkpt lat="43.85532" lon="6.9618">
        <ele>769.67285</ele>
        <time>2009-03-22T10:22:47Z</time>
      </trkpt>
      <trkpt lat="43.85569" lon="6.9619">
        <ele>796.10913</ele>
        <time>2009-03-22T10:23:53Z</time>
      </trkpt>
      <trkpt lat="43.85544" lon="6.96176">
        <ele>778.80517</ele>
        <time>2009-03-22T10:26:43Z</time>
      </trkpt>
      <trkpt lat="43.85543" lon="6.96179">
        <ele>777.36328</ele>
        <time>2009-03-22T10:26:51Z</time>
      </trkpt>
      <trkpt lat="43.85545" lon="6.96179">
        <ele>778.80517</ele>
        <time>2009-03-22T10:27:01Z</time>
      </trkpt>
      <trkpt lat="43.8554" lon="6.96184">
        <ele>774.47924</ele>
        <time>2009-03-22T10:28:50Z</time>
      </trkpt>
      <trkpt lat="43.85547" lon="6.96185">
        <ele>782.65063</ele>
        <time>2009-03-22T10:29:16Z</time>
      </trkpt>
      <trkpt lat="43.85552" lon="6.96186">
        <ele>786.97631</ele>
        <time>2009-03-22T10:29:22Z</time>
      </trkpt>
      <trkpt lat="43.85551" lon="6.96185">
        <ele>784.57324</ele>
        <time>2009-03-22T10:29:30Z</time>
      </trkpt>
      <trkpt lat="43.85555" lon="6.9618">
        <ele>783.61181</ele>
        <time>2009-03-22T10:29:36Z</time>
      </trkpt>
      <trkpt lat="43.85542" lon="6.96185">
        <ele>762.94335</ele>
        <time>2009-03-22T10:29:50Z</time>
      </trkpt>
      <trkpt lat="43.85549" lon="6.96188">
        <ele>785.53442</ele>
        <time>2009-03-22T10:35:21Z</time>
      </trkpt>
      <trkpt lat="43.85551" lon="6.96186">
        <ele>791.30224</ele>
        <time>2009-03-22T10:35:30Z</time>
      </trkpt>
      <trkpt lat="43.85557" lon="6.96193">
        <ele>786.49585</ele>
        <time>2009-03-22T10:35:36Z</time>
      </trkpt>
      <trkpt lat="43.85567" lon="6.96202">
        <ele>780.24731</ele>
        <time>2009-03-22T10:35:42Z</time>
      </trkpt>
      <trkpt lat="43.85583" lon="6.96229">
        <ele>778.32446</ele>
        <time>2009-03-22T10:35:47Z</time>
      </trkpt>
      <trkpt lat="43.8559" lon="6.96237">
        <ele>774.47924</ele>
        <time>2009-03-22T10:35:50Z</time>
      </trkpt>
      <trkpt lat="43.85591" lon="6.96234">
        <ele>768.23071</ele>
        <time>2009-03-22T10:35:54Z</time>
      </trkpt>
      <trkpt lat="43.85591" lon="6.96235">
        <ele>766.78881</ele>
        <time>2009-03-22T10:35:55Z</time>
      </trkpt>
      <trkpt lat="43.856" lon="6.96251">
        <ele>759.57885</ele>
        <time>2009-03-22T10:36:00Z</time>
      </trkpt>
      <trkpt lat="43.85604" lon="6.96258">
        <ele>757.65625</ele>
        <time>2009-03-22T10:36:01Z</time>
      </trkpt>
      <trkpt lat="43.85614" lon="6.96272">
        <ele>751.88842</ele>
        <time>2009-03-22T10:36:05Z</time>
      </trkpt>
      <trkpt lat="43.85616" lon="6.96264">
        <ele>747.56225</ele>
        <time>2009-03-22T10:36:08Z</time>
      </trkpt>
      <trkpt lat="43.85624" lon="6.96268">
        <ele>743.71704</ele>
        <time>2009-03-22T10:36:12Z</time>
      </trkpt>
      <trkpt lat="43.85644" lon="6.96284">
        <ele>736.50732</ele>
        <time>2009-03-22T10:36:18Z</time>
      </trkpt>
      <trkpt lat="43.85658" lon="6.96291">
        <ele>733.62329</ele>
        <time>2009-03-22T10:36:21Z</time>
      </trkpt>
      <trkpt lat="43.85678" lon="6.96303">
        <ele>727.85522</ele>
        <time>2009-03-22T10:36:25Z</time>
      </trkpt>
      <trkpt lat="43.85694" lon="6.96313">
        <ele>724.01001</ele>
        <time>2009-03-22T10:36:28Z</time>
      </trkpt>
      <trkpt lat="43.85708" lon="6.96318">
        <ele>717.281</ele>
        <time>2009-03-22T10:36:31Z</time>
      </trkpt>
      <trkpt lat="43.85721" lon="6.96329">
        <ele>711.51293</ele>
        <time>2009-03-22T10:36:35Z</time>
      </trkpt>
      <trkpt lat="43.85725" lon="6.96339">
        <ele>706.70629</ele>
        <time>2009-03-22T10:36:38Z</time>
      </trkpt>
      <trkpt lat="43.85733" lon="6.96332">
        <ele>702.86108</ele>
        <time>2009-03-22T10:36:41Z</time>
      </trkpt>
      <trkpt lat="43.8574" lon="6.9632">
        <ele>699.49633</ele>
        <time>2009-03-22T10:36:45Z</time>
      </trkpt>
      <trkpt lat="43.85744" lon="6.96318">
        <ele>698.05444</ele>
        <time>2009-03-22T10:36:47Z</time>
      </trkpt>
      <trkpt lat="43.85757" lon="6.96325">
        <ele>696.13183</ele>
        <time>2009-03-22T10:36:53Z</time>
      </trkpt>
      <trkpt lat="43.85758" lon="6.9632">
        <ele>693.2478</ele>
        <time>2009-03-22T10:36:56Z</time>
      </trkpt>
      <trkpt lat="43.85759" lon="6.96318">
        <ele>693.2478</ele>
        <time>2009-03-22T10:36:57Z</time>
      </trkpt>
      <trkpt lat="43.85756" lon="6.96301">
        <ele>687.47998</ele>
        <time>2009-03-22T10:37:03Z</time>
      </trkpt>
      <trkpt lat="43.8576" lon="6.96295">
        <ele>685.55737</ele>
        <time>2009-03-22T10:37:06Z</time>
      </trkpt>
      <trkpt lat="43.85771" lon="6.96298">
        <ele>684.59619</ele>
        <time>2009-03-22T10:37:10Z</time>
      </trkpt>
      <trkpt lat="43.85781" lon="6.96307">
        <ele>683.1538</ele>
        <time>2009-03-22T10:37:14Z</time>
      </trkpt>
      <trkpt lat="43.85785" lon="6.96308">
        <ele>680.75073</ele>
        <time>2009-03-22T10:37:17Z</time>
      </trkpt>
      <trkpt lat="43.85787" lon="6.96309">
        <ele>679.7893</ele>
        <time>2009-03-22T10:37:19Z</time>
      </trkpt>
      <trkpt lat="43.85789" lon="6.96312">
        <ele>677.38623</ele>
        <time>2009-03-22T10:37:24Z</time>
      </trkpt>
      <trkpt lat="43.85791" lon="6.96301">
        <ele>676.4248</ele>
        <time>2009-03-22T10:37:28Z</time>
      </trkpt>
      <trkpt lat="43.85794" lon="6.96305">
        <ele>674.98291</ele>
        <time>2009-03-22T10:37:31Z</time>
      </trkpt>
      <trkpt lat="43.858" lon="6.96312">
        <ele>671.61816</ele>
        <time>2009-03-22T10:37:35Z</time>
      </trkpt>
      <trkpt lat="43.85806" lon="6.96303">
        <ele>668.25366</ele>
        <time>2009-03-22T10:37:39Z</time>
      </trkpt>
      <trkpt lat="43.85804" lon="6.96289">
        <ele>665.85034</ele>
        <time>2009-03-22T10:37:43Z</time>
      </trkpt>
      <trkpt lat="43.85807" lon="6.96286">
        <ele>663.92749</ele>
        <time>2009-03-22T10:37:46Z</time>
      </trkpt>
      <trkpt lat="43.85815" lon="6.96293">
        <ele>662.48559</ele>
        <time>2009-03-22T10:37:50Z</time>
      </trkpt>
      <trkpt lat="43.85825" lon="6.96299">
        <ele>660.56298</ele>
        <time>2009-03-22T10:37:54Z</time>
      </trkpt>
      <trkpt lat="43.85826" lon="6.96288">
        <ele>657.67919</ele>
        <time>2009-03-22T10:37:57Z</time>
      </trkpt>
      <trkpt lat="43.85829" lon="6.96285">
        <ele>656.71777</ele>
        <time>2009-03-22T10:38:00Z</time>
      </trkpt>
      <trkpt lat="43.85838" lon="6.96293">
        <ele>652.87255</ele>
        <time>2009-03-22T10:38:04Z</time>
      </trkpt>
      <trkpt lat="43.85839" lon="6.96285">
        <ele>649.98852</ele>
        <time>2009-03-22T10:38:07Z</time>
      </trkpt>
      <trkpt lat="43.85844" lon="6.96283">
        <ele>647.5852</ele>
        <time>2009-03-22T10:38:10Z</time>
      </trkpt>
      <trkpt lat="43.85847" lon="6.96285">
        <ele>647.5852</ele>
        <time>2009-03-22T10:38:11Z</time>
      </trkpt>
      <trkpt lat="43.85852" lon="6.96291">
        <ele>646.62402</ele>
        <time>2009-03-22T10:38:13Z</time>
      </trkpt>
      <trkpt lat="43.85855" lon="6.96303">
        <ele>645.18188</ele>
        <time>2009-03-22T10:38:16Z</time>
      </trkpt>
      <trkpt lat="43.85865" lon="6.96297">
        <ele>641.33667</ele>
        <time>2009-03-22T10:38:20Z</time>
      </trkpt>
      <trkpt lat="43.85871" lon="6.96294">
        <ele>638.45288</ele>
        <time>2009-03-22T10:38:23Z</time>
      </trkpt>
      <trkpt lat="43.85872" lon="6.96305">
        <ele>636.04956</ele>
        <time>2009-03-22T10:38:26Z</time>
      </trkpt>
      <trkpt lat="43.8587" lon="6.9631">
        <ele>635.5686</ele>
        <time>2009-03-22T10:38:27Z</time>
      </trkpt>
      <trkpt lat="43.85871" lon="6.9632">
        <ele>629.80078</ele>
        <time>2009-03-22T10:38:34Z</time>
      </trkpt>
      <trkpt lat="43.85873" lon="6.96329">
        <ele>628.35888</ele>
        <time>2009-03-22T10:38:38Z</time>
      </trkpt>
      <trkpt lat="43.85881" lon="6.96356">
        <ele>627.87817</ele>
        <time>2009-03-22T10:38:44Z</time>
      </trkpt>
      <trkpt lat="43.85882" lon="6.96379">
        <ele>625.95556</ele>
        <time>2009-03-22T10:38:49Z</time>
      </trkpt>
      <trkpt lat="43.85876" lon="6.96398">
        <ele>623.07177</ele>
        <time>2009-03-22T10:38:54Z</time>
      </trkpt>
      <trkpt lat="43.85869" lon="6.96415">
        <ele>619.22631</ele>
        <time>2009-03-22T10:38:59Z</time>
      </trkpt>
      <trkpt lat="43.8587" lon="6.96427">
        <ele>617.30371</ele>
        <time>2009-03-22T10:39:03Z</time>
      </trkpt>
      <trkpt lat="43.85873" lon="6.96441">
        <ele>614.90039</ele>
        <time>2009-03-22T10:39:07Z</time>
      </trkpt>
      <trkpt lat="43.85878" lon="6.96436">
        <ele>609.13256</ele>
        <time>2009-03-22T10:39:11Z</time>
      </trkpt>
      <trkpt lat="43.85881" lon="6.96438">
        <ele>608.17138</ele>
        <time>2009-03-22T10:39:14Z</time>
      </trkpt>
      <trkpt lat="43.85877" lon="6.9645">
        <ele>601.9226</ele>
        <time>2009-03-22T10:39:19Z</time>
      </trkpt>
      <trkpt lat="43.85878" lon="6.96451">
        <ele>600.48071</ele>
        <time>2009-03-22T10:39:20Z</time>
      </trkpt>
      <trkpt lat="43.85882" lon="6.96453">
        <ele>599.51928</ele>
        <time>2009-03-22T10:39:22Z</time>
      </trkpt>
      <trkpt lat="43.85883" lon="6.96455">
        <ele>598.07739</ele>
        <time>2009-03-22T10:39:24Z</time>
      </trkpt>
      <trkpt lat="43.85895" lon="6.96466">
        <ele>595.19335</ele>
        <time>2009-03-22T10:39:30Z</time>
      </trkpt>
      <trkpt lat="43.85897" lon="6.96468">
        <ele>595.19335</ele>
        <time>2009-03-22T10:39:31Z</time>
      </trkpt>
      <trkpt lat="43.85897" lon="6.96474">
        <ele>593.27075</ele>
        <time>2009-03-22T10:39:34Z</time>
      </trkpt>
      <trkpt lat="43.85891" lon="6.96489">
        <ele>589.42553</ele>
        <time>2009-03-22T10:39:39Z</time>
      </trkpt>
      <trkpt lat="43.85882" lon="6.96492">
        <ele>584.13818</ele>
        <time>2009-03-22T10:39:44Z</time>
      </trkpt>
      <trkpt lat="43.85876" lon="6.96497">
        <ele>586.06079</ele>
        <time>2009-03-22T10:39:54Z</time>
      </trkpt>
      <trkpt lat="43.85879" lon="6.96505">
        <ele>593.27075</ele>
        <time>2009-03-22T10:39:59Z</time>
      </trkpt>
      <trkpt lat="43.85876" lon="6.96514">
        <ele>601.9226</ele>
        <time>2009-03-22T10:40:04Z</time>
      </trkpt>
      <trkpt lat="43.85878" lon="6.96517">
        <ele>604.80664</ele>
        <time>2009-03-22T10:40:08Z</time>
      </trkpt>
      <trkpt lat="43.85883" lon="6.96517">
        <ele>605.76806</ele>
        <time>2009-03-22T10:40:12Z</time>
      </trkpt>
      <trkpt lat="43.85897" lon="6.96514">
        <ele>590.86743</ele>
        <time>2009-03-22T10:41:44Z</time>
      </trkpt>
      <trkpt lat="43.85888" lon="6.96535">
        <ele>546.64685</ele>
        <time>2009-03-22T10:42:02Z</time>
      </trkpt>
      <trkpt lat="43.85878" lon="6.9655">
        <ele>525.4978</ele>
        <time>2009-03-22T10:42:08Z</time>
      </trkpt>
      <trkpt lat="43.85876" lon="6.96562">
        <ele>500.98413</ele>
        <time>2009-03-22T10:42:18Z</time>
      </trkpt>
      <trkpt lat="43.85866" lon="6.96561">
        <ele>489.92907</ele>
        <time>2009-03-22T10:42:24Z</time>
      </trkpt>
      <trkpt lat="43.85888" lon="6.96526">
        <ele>578.85107</ele>
        <time>2009-03-22T10:42:43Z</time>
      </trkpt>
      <trkpt lat="43.85905" lon="6.96512">
        <ele>617.78418</ele>
        <time>2009-03-22T10:42:54Z</time>
      </trkpt>
      <trkpt lat="43.85901" lon="6.96512">
        <ele>621.62963</ele>
        <time>2009-03-22T10:43:06Z</time>
      </trkpt>
      <trkpt lat="43.85901" lon="6.96512">
        <ele>621.14917</ele>
        <time>2009-03-22T10:43:07Z</time>
      </trkpt>
      <trkpt lat="43.85899" lon="6.96515">
        <ele>615.3811</ele>
        <time>2009-03-22T10:43:14Z</time>
      </trkpt>
      <trkpt lat="43.85893" lon="6.96519">
        <ele>601.9226</ele>
        <time>2009-03-22T10:43:27Z</time>
      </trkpt>
      <trkpt lat="43.85903" lon="6.96515">
        <ele>601.9226</ele>
        <time>2009-03-22T10:43:32Z</time>
      </trkpt>
      <trkpt lat="43.8591" lon="6.96507">
        <ele>590.86743</ele>
        <time>2009-03-22T10:43:36Z</time>
      </trkpt>
      <trkpt lat="43.85912" lon="6.96506">
        <ele>588.94506</ele>
        <time>2009-03-22T10:43:37Z</time>
      </trkpt>
      <trkpt lat="43.85921" lon="6.96501">
        <ele>574.04443</ele>
        <time>2009-03-22T10:43:43Z</time>
      </trkpt>
      <trkpt lat="43.85931" lon="6.96489">
        <ele>569.23779</ele>
        <time>2009-03-22T10:43:47Z</time>
      </trkpt>
      <trkpt lat="43.8594" lon="6.96474">
        <ele>570.67968</ele>
        <time>2009-03-22T10:43:51Z</time>
      </trkpt>
      <trkpt lat="43.85942" lon="6.9647">
        <ele>574.52514</ele>
        <time>2009-03-22T10:43:54Z</time>
      </trkpt>
      <trkpt lat="43.8594" lon="6.96469">
        <ele>577.40918</ele>
        <time>2009-03-22T10:43:58Z</time>
      </trkpt>
      <trkpt lat="43.8594" lon="6.96462">
        <ele>579.33154</ele>
        <time>2009-03-22T10:44:05Z</time>
      </trkpt>
      <trkpt lat="43.85945" lon="6.96459">
        <ele>575.96704</ele>
        <time>2009-03-22T10:44:09Z</time>
      </trkpt>
      <trkpt lat="43.85947" lon="6.96459">
        <ele>577.40918</ele>
        <time>2009-03-22T10:44:10Z</time>
      </trkpt>
      <trkpt lat="43.8595" lon="6.96459">
        <ele>578.85107</ele>
        <time>2009-03-22T10:44:12Z</time>
      </trkpt>
      <trkpt lat="43.85953" lon="6.96478">
        <ele>575.96704</ele>
        <time>2009-03-22T10:44:17Z</time>
      </trkpt>
      <trkpt lat="43.85949" lon="6.96504">
        <ele>567.79565</ele>
        <time>2009-03-22T10:44:21Z</time>
      </trkpt>
      <trkpt lat="43.8594" lon="6.96519">
        <ele>563.46997</ele>
        <time>2009-03-22T10:44:26Z</time>
      </trkpt>
      <trkpt lat="43.85941" lon="6.96526">
        <ele>556.74072</ele>
        <time>2009-03-22T10:44:48Z</time>
      </trkpt>
      <trkpt lat="43.85946" lon="6.9654">
        <ele>553.85668</ele>
        <time>2009-03-22T10:44:52Z</time>
      </trkpt>
      <trkpt lat="43.85948" lon="6.96555">
        <ele>549.05004</ele>
        <time>2009-03-22T10:44:56Z</time>
      </trkpt>
      <trkpt lat="43.85946" lon="6.96556">
        <ele>555.77929</ele>
        <time>2009-03-22T10:45:00Z</time>
      </trkpt>
      <trkpt lat="43.85943" lon="6.96544">
        <ele>587.98339</ele>
        <time>2009-03-22T10:45:15Z</time>
      </trkpt>
      <trkpt lat="43.85944" lon="6.96542">
        <ele>583.17675</ele>
        <time>2009-03-22T10:45:24Z</time>
      </trkpt>
      <trkpt lat="43.85949" lon="6.9655">
        <ele>576.92846</ele>
        <time>2009-03-22T10:45:29Z</time>
      </trkpt>
      <trkpt lat="43.85951" lon="6.96551">
        <ele>575.00585</ele>
        <time>2009-03-22T10:45:31Z</time>
      </trkpt>
      <trkpt lat="43.85951" lon="6.96546">
        <ele>576.92846</ele>
        <time>2009-03-22T10:45:36Z</time>
      </trkpt>
      <trkpt lat="43.85953" lon="6.9654">
        <ele>570.19897</ele>
        <time>2009-03-22T10:45:48Z</time>
      </trkpt>
      <trkpt lat="43.85956" lon="6.96538">
        <ele>569.23779</ele>
        <time>2009-03-22T10:45:52Z</time>
      </trkpt>
      <trkpt lat="43.85964" lon="6.96521">
        <ele>575.48632</ele>
        <time>2009-03-22T10:45:59Z</time>
      </trkpt>
      <trkpt lat="43.8597" lon="6.96504">
        <ele>574.04443</ele>
        <time>2009-03-22T10:46:04Z</time>
      </trkpt>
      <trkpt lat="43.85986" lon="6.96493">
        <ele>571.64086</ele>
        <time>2009-03-22T10:46:08Z</time>
      </trkpt>
      <trkpt lat="43.85991" lon="6.96491">
        <ele>571.1604</ele>
        <time>2009-03-22T10:46:09Z</time>
      </trkpt>
      <trkpt lat="43.86003" lon="6.96475">
        <ele>569.7185</ele>
        <time>2009-03-22T10:46:13Z</time>
      </trkpt>
      <trkpt lat="43.86015" lon="6.96447">
        <ele>566.35376</ele>
        <time>2009-03-22T10:46:19Z</time>
      </trkpt>
      <trkpt lat="43.86017" lon="6.96441">
        <ele>566.35376</ele>
        <time>2009-03-22T10:46:20Z</time>
      </trkpt>
      <trkpt lat="43.86019" lon="6.96424">
        <ele>561.06665</ele>
        <time>2009-03-22T10:46:23Z</time>
      </trkpt>
      <trkpt lat="43.86024" lon="6.96411">
        <ele>562.02807</ele>
        <time>2009-03-22T10:46:25Z</time>
      </trkpt>
      <trkpt lat="43.86042" lon="6.96385">
        <ele>559.62475</ele>
        <time>2009-03-22T10:46:30Z</time>
      </trkpt>
      <trkpt lat="43.8606" lon="6.96367">
        <ele>556.74072</ele>
        <time>2009-03-22T10:46:34Z</time>
      </trkpt>
      <trkpt lat="43.86085" lon="6.96357">
        <ele>552.89526</ele>
        <time>2009-03-22T10:46:39Z</time>
      </trkpt>
      <trkpt lat="43.86095" lon="6.96338">
        <ele>550.49218</ele>
        <time>2009-03-22T10:46:42Z</time>
      </trkpt>
      <trkpt lat="43.86097" lon="6.96331">
        <ele>550.49218</ele>
        <time>2009-03-22T10:46:43Z</time>
      </trkpt>
      <trkpt lat="43.8611" lon="6.9628">
        <ele>545.68554</ele>
        <time>2009-03-22T10:46:49Z</time>
      </trkpt>
      <trkpt lat="43.86113" lon="6.96253">
        <ele>543.2821</ele>
        <time>2009-03-22T10:46:53Z</time>
      </trkpt>
      <trkpt lat="43.86115" lon="6.9622">
        <ele>547.12744</ele>
        <time>2009-03-22T10:46:57Z</time>
      </trkpt>
      <trkpt lat="43.86117" lon="6.96211">
        <ele>546.64685</ele>
        <time>2009-03-22T10:46:58Z</time>
      </trkpt>
      <trkpt lat="43.86131" lon="6.96202">
        <ele>544.24365</ele>
        <time>2009-03-22T10:47:02Z</time>
      </trkpt>
      <trkpt lat="43.86137" lon="6.96212">
        <ele>539.43689</ele>
        <time>2009-03-22T10:47:04Z</time>
      </trkpt>
      <trkpt lat="43.86157" lon="6.96236">
        <ele>533.66894</ele>
        <time>2009-03-22T10:47:10Z</time>
      </trkpt>
      <trkpt lat="43.86174" lon="6.96252">
        <ele>533.66894</ele>
        <time>2009-03-22T10:47:14Z</time>
      </trkpt>
      <trkpt lat="43.86199" lon="6.96268">
        <ele>527.42041</ele>
        <time>2009-03-22T10:47:19Z</time>
      </trkpt>
      <trkpt lat="43.86213" lon="6.96282">
        <ele>521.65258</ele>
        <time>2009-03-22T10:47:24Z</time>
      </trkpt>
      <trkpt lat="43.86214" lon="6.96285">
        <ele>518.28784</ele>
        <time>2009-03-22T10:47:28Z</time>
      </trkpt>
      <trkpt lat="43.86217" lon="6.96287">
        <ele>517.80725</ele>
        <time>2009-03-22T10:47:32Z</time>
      </trkpt>
      <trkpt lat="43.86225" lon="6.96292">
        <ele>519.24926</ele>
        <time>2009-03-22T10:47:38Z</time>
      </trkpt>
      <trkpt lat="43.86234" lon="6.96305">
        <ele>514.44262</ele>
        <time>2009-03-22T10:47:44Z</time>
      </trkpt>
      <trkpt lat="43.86245" lon="6.96318">
        <ele>514.92334</ele>
        <time>2009-03-22T10:47:48Z</time>
      </trkpt>
      <trkpt lat="43.8625" lon="6.96346">
        <ele>514.44262</ele>
        <time>2009-03-22T10:47:52Z</time>
      </trkpt>
      <trkpt lat="43.86257" lon="6.96412">
        <ele>511.078</ele>
        <time>2009-03-22T10:47:59Z</time>
      </trkpt>
      <trkpt lat="43.86263" lon="6.96452">
        <ele>507.7135</ele>
        <time>2009-03-22T10:48:04Z</time>
      </trkpt>
      <trkpt lat="43.86267" lon="6.96472">
        <ele>506.75207</ele>
        <time>2009-03-22T10:48:07Z</time>
      </trkpt>
      <trkpt lat="43.86282" lon="6.96512">
        <ele>497.61962</ele>
        <time>2009-03-22T10:48:13Z</time>
      </trkpt>
      <trkpt lat="43.86289" lon="6.96498">
        <ele>486.56445</ele>
        <time>2009-03-22T10:48:17Z</time>
      </trkpt>
      <trkpt lat="43.86289" lon="6.96491">
        <ele>481.75781</ele>
        <time>2009-03-22T10:48:19Z</time>
      </trkpt>
      <trkpt lat="43.86289" lon="6.9649">
        <ele>480.79663</ele>
        <time>2009-03-22T10:48:25Z</time>
      </trkpt>
      <trkpt lat="43.86287" lon="6.96484">
        <ele>477.91247</ele>
        <time>2009-03-22T10:48:34Z</time>
      </trkpt>
      <trkpt lat="43.8629" lon="6.96475">
        <ele>478.39318</ele>
        <time>2009-03-22T10:48:42Z</time>
      </trkpt>
      <trkpt lat="43.86292" lon="6.96471">
        <ele>480.31591</ele>
        <time>2009-03-22T10:48:47Z</time>
      </trkpt>
      <trkpt lat="43.86297" lon="6.96468">
        <ele>481.75781</ele>
        <time>2009-03-22T10:48:53Z</time>
      </trkpt>
      <trkpt lat="43.86298" lon="6.96468">
        <ele>481.27722</ele>
        <time>2009-03-22T10:48:54Z</time>
      </trkpt>
      <trkpt lat="43.86301" lon="6.96455">
        <ele>478.8739</ele>
        <time>2009-03-22T10:48:59Z</time>
      </trkpt>
      <trkpt lat="43.86306" lon="6.96444">
        <ele>476.47058</ele>
        <time>2009-03-22T10:49:03Z</time>
      </trkpt>
      <trkpt lat="43.86308" lon="6.96442">
        <ele>475.98986</ele>
        <time>2009-03-22T10:49:04Z</time>
      </trkpt>
      <trkpt lat="43.86317" lon="6.96425">
        <ele>468.29931</ele>
        <time>2009-03-22T10:49:09Z</time>
      </trkpt>
      <trkpt lat="43.86322" lon="6.96415">
        <ele>463.49279</ele>
        <time>2009-03-22T10:49:13Z</time>
      </trkpt>
      <trkpt lat="43.86327" lon="6.96412">
        <ele>463.01208</ele>
        <time>2009-03-22T10:49:19Z</time>
      </trkpt>
      <trkpt lat="43.86329" lon="6.9643">
        <ele>472.14465</ele>
        <time>2009-03-22T10:52:54Z</time>
      </trkpt>
      <trkpt lat="43.86331" lon="6.96447">
        <ele>470.22192</ele>
        <time>2009-03-22T10:53:00Z</time>
      </trkpt>
      <trkpt lat="43.86336" lon="6.96468">
        <ele>469.26074</ele>
        <time>2009-03-22T10:53:06Z</time>
      </trkpt>
      <trkpt lat="43.86338" lon="6.96496">
        <ele>469.26074</ele>
        <time>2009-03-22T10:53:13Z</time>
      </trkpt>
      <trkpt lat="43.86333" lon="6.9651">
        <ele>471.18335</ele>
        <time>2009-03-22T10:53:17Z</time>
      </trkpt>
      <trkpt lat="43.86327" lon="6.96526">
        <ele>476.95129</ele>
        <time>2009-03-22T10:53:22Z</time>
      </trkpt>
      <trkpt lat="43.86316" lon="6.96538">
        <ele>477.43188</ele>
        <time>2009-03-22T10:53:28Z</time>
      </trkpt>
      <trkpt lat="43.86303" lon="6.9655">
        <ele>478.8739</ele>
        <time>2009-03-22T10:53:35Z</time>
      </trkpt>
      <trkpt lat="43.86303" lon="6.96552">
        <ele>482.23852</ele>
        <time>2009-03-22T10:53:37Z</time>
      </trkpt>
      <trkpt lat="43.86311" lon="6.96568">
        <ele>486.56445</ele>
        <time>2009-03-22T10:53:42Z</time>
      </trkpt>
      <trkpt lat="43.86317" lon="6.96579">
        <ele>484.16113</ele>
        <time>2009-03-22T10:53:47Z</time>
      </trkpt>
      <trkpt lat="43.86323" lon="6.96597">
        <ele>477.43188</ele>
        <time>2009-03-22T10:53:54Z</time>
      </trkpt>
      <trkpt lat="43.86323" lon="6.96614">
        <ele>476.95129</ele>
        <time>2009-03-22T10:54:00Z</time>
      </trkpt>
      <trkpt lat="43.86322" lon="6.9662">
        <ele>476.47058</ele>
        <time>2009-03-22T10:54:02Z</time>
      </trkpt>
      <trkpt lat="43.86312" lon="6.96638">
        <ele>475.50927</ele>
        <time>2009-03-22T10:54:07Z</time>
      </trkpt>
      <trkpt lat="43.86302" lon="6.96656">
        <ele>481.27722</ele>
        <time>2009-03-22T10:54:11Z</time>
      </trkpt>
      <trkpt lat="43.86301" lon="6.96661">
        <ele>481.27722</ele>
        <time>2009-03-22T10:54:12Z</time>
      </trkpt>
      <trkpt lat="43.86312" lon="6.9667">
        <ele>482.23852</ele>
        <time>2009-03-22T10:54:16Z</time>
      </trkpt>
      <trkpt lat="43.86322" lon="6.96672">
        <ele>488.48718</ele>
        <time>2009-03-22T10:54:19Z</time>
      </trkpt>
      <trkpt lat="43.86329" lon="6.96689">
        <ele>490.40979</ele>
        <time>2009-03-22T10:54:27Z</time>
      </trkpt>
      <trkpt lat="43.86333" lon="6.96716">
        <ele>488.48718</ele>
        <time>2009-03-22T10:54:36Z</time>
      </trkpt>
      <trkpt lat="43.86338" lon="6.96742">
        <ele>485.12243</ele>
        <time>2009-03-22T10:54:43Z</time>
      </trkpt>
      <trkpt lat="43.86341" lon="6.96766">
        <ele>479.35449</ele>
        <time>2009-03-22T10:54:50Z</time>
      </trkpt>
      <trkpt lat="43.86344" lon="6.96778">
        <ele>479.83508</ele>
        <time>2009-03-22T10:54:56Z</time>
      </trkpt>
      <trkpt lat="43.86344" lon="6.9678">
        <ele>481.75781</ele>
        <time>2009-03-22T10:55:01Z</time>
      </trkpt>
      <trkpt lat="43.86348" lon="6.96789">
        <ele>485.12243</ele>
        <time>2009-03-22T10:55:07Z</time>
      </trkpt>
      <trkpt lat="43.86348" lon="6.96792">
        <ele>490.40979</ele>
        <time>2009-03-22T10:55:12Z</time>
      </trkpt>
      <trkpt lat="43.86352" lon="6.96805">
        <ele>494.73559</ele>
        <time>2009-03-22T10:55:22Z</time>
      </trkpt>
      <trkpt lat="43.86354" lon="6.96824">
        <ele>492.33239</ele>
        <time>2009-03-22T10:55:28Z</time>
      </trkpt>
      <trkpt lat="43.86349" lon="6.96844">
        <ele>495.21618</ele>
        <time>2009-03-22T10:55:34Z</time>
      </trkpt>
      <trkpt lat="43.86342" lon="6.96855">
        <ele>500.02294</ele>
        <time>2009-03-22T10:55:39Z</time>
      </trkpt>
      <trkpt lat="43.86341" lon="6.9686">
        <ele>501.94555</ele>
        <time>2009-03-22T10:55:41Z</time>
      </trkpt>
      <trkpt lat="43.86348" lon="6.96868">
        <ele>506.75207</ele>
        <time>2009-03-22T10:55:46Z</time>
      </trkpt>
      <trkpt lat="43.8636" lon="6.96887">
        <ele>501.46484</ele>
        <time>2009-03-22T10:55:53Z</time>
      </trkpt>
      <trkpt lat="43.86367" lon="6.96912">
        <ele>494.255</ele>
        <time>2009-03-22T10:56:01Z</time>
      </trkpt>
      <trkpt lat="43.86368" lon="6.96933">
        <ele>490.40979</ele>
        <time>2009-03-22T10:56:08Z</time>
      </trkpt>
      <trkpt lat="43.86365" lon="6.9695">
        <ele>490.89038</ele>
        <time>2009-03-22T10:56:14Z</time>
      </trkpt>
      <trkpt lat="43.86359" lon="6.96972">
        <ele>491.85168</ele>
        <time>2009-03-22T10:56:20Z</time>
      </trkpt>
      <trkpt lat="43.86354" lon="6.96992">
        <ele>490.89038</ele>
        <time>2009-03-22T10:56:24Z</time>
      </trkpt>
      <trkpt lat="43.86345" lon="6.97014">
        <ele>487.52563</ele>
        <time>2009-03-22T10:56:28Z</time>
      </trkpt>
      <trkpt lat="43.86334" lon="6.97043">
        <ele>493.29357</ele>
        <time>2009-03-22T10:56:33Z</time>
      </trkpt>
      <trkpt lat="43.86325" lon="6.97073">
        <ele>491.85168</ele>
        <time>2009-03-22T10:56:38Z</time>
      </trkpt>
      <trkpt lat="43.86332" lon="6.97083">
        <ele>489.92907</ele>
        <time>2009-03-22T10:56:41Z</time>
      </trkpt>
      <trkpt lat="43.86342" lon="6.97087">
        <ele>488.48718</ele>
        <time>2009-03-22T10:56:45Z</time>
      </trkpt>
      <trkpt lat="43.86358" lon="6.97092">
        <ele>488.00647</ele>
        <time>2009-03-22T10:56:51Z</time>
      </trkpt>
      <trkpt lat="43.86371" lon="6.97094">
        <ele>487.04504</ele>
        <time>2009-03-22T10:56:58Z</time>
      </trkpt>
      <trkpt lat="43.86381" lon="6.97099">
        <ele>488.00647</ele>
        <time>2009-03-22T10:57:05Z</time>
      </trkpt>
      <trkpt lat="43.8639" lon="6.97106">
        <ele>488.48718</ele>
        <time>2009-03-22T10:57:12Z</time>
      </trkpt>
      <trkpt lat="43.86401" lon="6.97117">
        <ele>487.04504</ele>
        <time>2009-03-22T10:57:21Z</time>
      </trkpt>
      <trkpt lat="43.86409" lon="6.97134">
        <ele>486.56445</ele>
        <time>2009-03-22T10:57:30Z</time>
      </trkpt>
      <trkpt lat="43.86417" lon="6.97148">
        <ele>489.92907</ele>
        <time>2009-03-22T10:57:37Z</time>
      </trkpt>
      <trkpt lat="43.86424" lon="6.97162">
        <ele>499.54223</ele>
        <time>2009-03-22T10:57:45Z</time>
      </trkpt>
      <trkpt lat="43.86428" lon="6.97177">
        <ele>507.23278</ele>
        <time>2009-03-22T10:57:54Z</time>
      </trkpt>
      <trkpt lat="43.86434" lon="6.97193">
        <ele>507.7135</ele>
        <time>2009-03-22T10:58:00Z</time>
      </trkpt>
      <trkpt lat="43.86441" lon="6.97215">
        <ele>507.23278</ele>
        <time>2009-03-22T10:58:07Z</time>
      </trkpt>
      <trkpt lat="43.86448" lon="6.97237">
        <ele>502.90673</ele>
        <time>2009-03-22T10:58:14Z</time>
      </trkpt>
      <trkpt lat="43.86452" lon="6.97243">
        <ele>503.38745</ele>
        <time>2009-03-22T10:58:16Z</time>
      </trkpt>
      <trkpt lat="43.86454" lon="6.9726">
        <ele>508.19409</ele>
        <time>2009-03-22T10:58:22Z</time>
      </trkpt>
      <trkpt lat="43.86461" lon="6.97274">
        <ele>504.34887</ele>
        <time>2009-03-22T10:58:27Z</time>
      </trkpt>
      <trkpt lat="43.86471" lon="6.97297">
        <ele>502.42614</ele>
        <time>2009-03-22T10:58:34Z</time>
      </trkpt>
      <trkpt lat="43.8648" lon="6.97327">
        <ele>500.02294</ele>
        <time>2009-03-22T10:58:41Z</time>
      </trkpt>
      <trkpt lat="43.86483" lon="6.97349">
        <ele>499.06152</ele>
        <time>2009-03-22T10:58:46Z</time>
      </trkpt>
      <trkpt lat="43.86487" lon="6.97374">
        <ele>498.58093</ele>
        <time>2009-03-22T10:58:52Z</time>
      </trkpt>
      <trkpt lat="43.86491" lon="6.97395">
        <ele>498.58093</ele>
        <time>2009-03-22T10:58:57Z</time>
      </trkpt>
      <trkpt lat="43.86492" lon="6.97419">
        <ele>500.50354</ele>
        <time>2009-03-22T10:59:02Z</time>
      </trkpt>
      <trkpt lat="43.865" lon="6.97427">
        <ele>502.90673</ele>
        <time>2009-03-22T10:59:06Z</time>
      </trkpt>
      <trkpt lat="43.86507" lon="6.97442">
        <ele>502.42614</ele>
        <time>2009-03-22T10:59:10Z</time>
      </trkpt>
      <trkpt lat="43.86505" lon="6.9746">
        <ele>502.42614</ele>
        <time>2009-03-22T10:59:14Z</time>
      </trkpt>
      <trkpt lat="43.86494" lon="6.9747">
        <ele>500.98413</ele>
        <time>2009-03-22T10:59:19Z</time>
      </trkpt>
      <trkpt lat="43.86484" lon="6.9748">
        <ele>510.59729</ele>
        <time>2009-03-22T10:59:26Z</time>
      </trkpt>
      <trkpt lat="43.86483" lon="6.97481">
        <ele>512.03942</ele>
        <time>2009-03-22T10:59:27Z</time>
      </trkpt>
      <trkpt lat="43.86492" lon="6.97486">
        <ele>521.17199</ele>
        <time>2009-03-22T10:59:32Z</time>
      </trkpt>
      <trkpt lat="43.86495" lon="6.97486">
        <ele>522.13317</ele>
        <time>2009-03-22T10:59:33Z</time>
      </trkpt>
      <trkpt lat="43.86523" lon="6.97502">
        <ele>519.24926</ele>
        <time>2009-03-22T10:59:39Z</time>
      </trkpt>
      <trkpt lat="43.86531" lon="6.97522">
        <ele>513.48144</ele>
        <time>2009-03-22T10:59:42Z</time>
      </trkpt>
      <trkpt lat="43.86532" lon="6.97545">
        <ele>509.6361</ele>
        <time>2009-03-22T10:59:45Z</time>
      </trkpt>
      <trkpt lat="43.86529" lon="6.97562">
        <ele>508.19409</ele>
        <time>2009-03-22T10:59:47Z</time>
      </trkpt>
      <trkpt lat="43.86531" lon="6.97573">
        <ele>506.27148</ele>
        <time>2009-03-22T10:59:49Z</time>
      </trkpt>
      <trkpt lat="43.86553" lon="6.97585">
        <ele>501.94555</ele>
        <time>2009-03-22T10:59:53Z</time>
      </trkpt>
      <trkpt lat="43.86561" lon="6.97591">
        <ele>499.54223</ele>
        <time>2009-03-22T10:59:55Z</time>
      </trkpt>
      <trkpt lat="43.86575" lon="6.97607">
        <ele>495.69689</ele>
        <time>2009-03-22T10:59:59Z</time>
      </trkpt>
      <trkpt lat="43.86598" lon="6.97643">
        <ele>490.89038</ele>
        <time>2009-03-22T11:00:06Z</time>
      </trkpt>
      <trkpt lat="43.86613" lon="6.97672">
        <ele>488.96777</ele>
        <time>2009-03-22T11:00:12Z</time>
      </trkpt>
      <trkpt lat="43.86619" lon="6.97681">
        <ele>488.96777</ele>
        <time>2009-03-22T11:00:14Z</time>
      </trkpt>
      <trkpt lat="43.8663" lon="6.977">
        <ele>488.96777</ele>
        <time>2009-03-22T11:00:18Z</time>
      </trkpt>
      <trkpt lat="43.86639" lon="6.97716">
        <ele>495.21618</ele>
        <time>2009-03-22T11:00:23Z</time>
      </trkpt>
      <trkpt lat="43.86646" lon="6.97727">
        <ele>497.61962</ele>
        <time>2009-03-22T11:00:27Z</time>
      </trkpt>
      <trkpt lat="43.8665" lon="6.97735">
        <ele>497.13891</ele>
        <time>2009-03-22T11:00:29Z</time>
      </trkpt>
      <trkpt lat="43.86659" lon="6.97751">
        <ele>494.255</ele>
        <time>2009-03-22T11:00:32Z</time>
      </trkpt>
      <trkpt lat="43.86664" lon="6.97771">
        <ele>490.40979</ele>
        <time>2009-03-22T11:00:35Z</time>
      </trkpt>
      <trkpt lat="43.86666" lon="6.97802">
        <ele>489.92907</ele>
        <time>2009-03-22T11:00:39Z</time>
      </trkpt>
      <trkpt lat="43.86682" lon="6.97823">
        <ele>490.40979</ele>
        <time>2009-03-22T11:00:43Z</time>
      </trkpt>
      <trkpt lat="43.86687" lon="6.97837">
        <ele>491.37097</ele>
        <time>2009-03-22T11:00:45Z</time>
      </trkpt>
      <trkpt lat="43.86704" lon="6.97862">
        <ele>490.89038</ele>
        <time>2009-03-22T11:00:49Z</time>
      </trkpt>
      <trkpt lat="43.86738" lon="6.97906">
        <ele>487.04504</ele>
        <time>2009-03-22T11:00:56Z</time>
      </trkpt>
      <trkpt lat="43.86759" lon="6.97945">
        <ele>484.64184</ele>
        <time>2009-03-22T11:01:02Z</time>
      </trkpt>
      <trkpt lat="43.86774" lon="6.97977">
        <ele>483.19982</ele>
        <time>2009-03-22T11:01:07Z</time>
      </trkpt>
      <trkpt lat="43.86778" lon="6.98012">
        <ele>485.12243</ele>
        <time>2009-03-22T11:01:12Z</time>
      </trkpt>
      <trkpt lat="43.86784" lon="6.9803">
        <ele>486.08374</ele>
        <time>2009-03-22T11:01:15Z</time>
      </trkpt>
      <trkpt lat="43.86796" lon="6.98062">
        <ele>490.40979</ele>
        <time>2009-03-22T11:01:22Z</time>
      </trkpt>
      <trkpt lat="43.86805" lon="6.98084">
        <ele>490.89038</ele>
        <time>2009-03-22T11:01:29Z</time>
      </trkpt>
      <trkpt lat="43.86814" lon="6.98109">
        <ele>493.77429</ele>
        <time>2009-03-22T11:01:37Z</time>
      </trkpt>
      <trkpt lat="43.86823" lon="6.9813">
        <ele>496.65832</ele>
        <time>2009-03-22T11:01:43Z</time>
      </trkpt>
      <trkpt lat="43.86829" lon="6.98149">
        <ele>491.85168</ele>
        <time>2009-03-22T11:01:49Z</time>
      </trkpt>
      <trkpt lat="43.86834" lon="6.98166">
        <ele>489.92907</ele>
        <time>2009-03-22T11:01:55Z</time>
      </trkpt>
      <trkpt lat="43.86832" lon="6.98169">
        <ele>491.37097</ele>
        <time>2009-03-22T11:01:59Z</time>
      </trkpt>
      <trkpt lat="43.86831" lon="6.98175">
        <ele>491.85168</ele>
        <time>2009-03-22T11:02:04Z</time>
      </trkpt>
      <trkpt lat="43.86831" lon="6.98176">
        <ele>490.89038</ele>
        <time>2009-03-22T11:02:09Z</time>
      </trkpt>
      <trkpt lat="43.86827" lon="6.98174">
        <ele>484.16113</ele>
        <time>2009-03-22T11:02:35Z</time>
      </trkpt>
      <trkpt lat="43.86824" lon="6.98172">
        <ele>483.68042</ele>
        <time>2009-03-22T11:02:51Z</time>
      </trkpt>
      <trkpt lat="43.86823" lon="6.98174">
        <ele>481.27722</ele>
        <time>2009-03-22T11:03:23Z</time>
      </trkpt>
      <trkpt lat="43.86823" lon="6.98173">
        <ele>484.64184</ele>
        <time>2009-03-22T11:03:33Z</time>
      </trkpt>
      <trkpt lat="43.86823" lon="6.98174">
        <ele>482.23852</ele>
        <time>2009-03-22T11:03:40Z</time>
      </trkpt>
      <trkpt lat="43.8683" lon="6.98178">
        <ele>489.92907</ele>
        <time>2009-03-22T11:05:20Z</time>
      </trkpt>
      <trkpt lat="43.86826" lon="6.98187">
        <ele>483.68042</ele>
        <time>2009-03-22T11:06:26Z</time>
      </trkpt>
      <trkpt lat="43.86821" lon="6.982">
        <ele>483.68042</ele>
        <time>2009-03-22T11:06:30Z</time>
      </trkpt>
      <trkpt lat="43.86825" lon="6.98212">
        <ele>482.71923</ele>
        <time>2009-03-22T11:06:34Z</time>
      </trkpt>
      <trkpt lat="43.86826" lon="6.98228">
        <ele>483.19982</ele>
        <time>2009-03-22T11:06:37Z</time>
      </trkpt>
      <trkpt lat="43.86828" lon="6.98239">
        <ele>484.16113</ele>
        <time>2009-03-22T11:06:39Z</time>
      </trkpt>
      <trkpt lat="43.86829" lon="6.98262">
        <ele>485.12243</ele>
        <time>2009-03-22T11:06:43Z</time>
      </trkpt>
      <trkpt lat="43.86819" lon="6.98272">
        <ele>485.12243</ele>
        <time>2009-03-22T11:06:48Z</time>
      </trkpt>
      <trkpt lat="43.86816" lon="6.98273">
        <ele>484.16113</ele>
        <time>2009-03-22T11:06:49Z</time>
      </trkpt>
      <trkpt lat="43.86818" lon="6.98281">
        <ele>484.16113</ele>
        <time>2009-03-22T11:06:53Z</time>
      </trkpt>
      <trkpt lat="43.8682" lon="6.98286">
        <ele>483.68042</ele>
        <time>2009-03-22T11:06:54Z</time>
      </trkpt>
      <trkpt lat="43.86827" lon="6.98308">
        <ele>483.19982</ele>
        <time>2009-03-22T11:06:58Z</time>
      </trkpt>
      <trkpt lat="43.86832" lon="6.98326">
        <ele>481.27722</ele>
        <time>2009-03-22T11:07:01Z</time>
      </trkpt>
      <trkpt lat="43.86832" lon="6.98343">
        <ele>480.79663</ele>
        <time>2009-03-22T11:07:03Z</time>
      </trkpt>
      <trkpt lat="43.86819" lon="6.9839">
        <ele>475.98986</ele>
        <time>2009-03-22T11:07:08Z</time>
      </trkpt>
      <trkpt lat="43.86817" lon="6.98398">
        <ele>475.02868</ele>
        <time>2009-03-22T11:07:09Z</time>
      </trkpt>
      <trkpt lat="43.86819" lon="6.98404">
        <ele>470.70263</ele>
        <time>2009-03-22T11:07:12Z</time>
      </trkpt>
      <trkpt lat="43.86826" lon="6.98392">
        <ele>466.3767</ele>
        <time>2009-03-22T11:07:15Z</time>
      </trkpt>
      <trkpt lat="43.86825" lon="6.98406">
        <ele>464.93481</ele>
        <time>2009-03-22T11:07:18Z</time>
      </trkpt>
      <trkpt lat="43.86822" lon="6.98422">
        <ele>463.01208</ele>
        <time>2009-03-22T11:07:20Z</time>
      </trkpt>
      <trkpt lat="43.86816" lon="6.98444">
        <ele>456.28295</ele>
        <time>2009-03-22T11:07:25Z</time>
      </trkpt>
      <trkpt lat="43.86823" lon="6.98435">
        <ele>454.36022</ele>
        <time>2009-03-22T11:07:27Z</time>
      </trkpt>
      <trkpt lat="43.86831" lon="6.98424">
        <ele>451.95703</ele>
        <time>2009-03-22T11:07:29Z</time>
      </trkpt>
      <trkpt lat="43.86839" lon="6.9843">
        <ele>450.9956</ele>
        <time>2009-03-22T11:07:32Z</time>
      </trkpt>
      <trkpt lat="43.86835" lon="6.98445">
        <ele>448.11181</ele>
        <time>2009-03-22T11:07:35Z</time>
      </trkpt>
      <trkpt lat="43.86824" lon="6.98467">
        <ele>448.11181</ele>
        <time>2009-03-22T11:07:38Z</time>
      </trkpt>
      <trkpt lat="43.8682" lon="6.98473">
        <ele>447.15026</ele>
        <time>2009-03-22T11:07:39Z</time>
      </trkpt>
      <trkpt lat="43.86816" lon="6.98483">
        <ele>446.18908</ele>
        <time>2009-03-22T11:07:42Z</time>
      </trkpt>
      <trkpt lat="43.86831" lon="6.98471">
        <ele>439.45971</ele>
        <time>2009-03-22T11:07:46Z</time>
      </trkpt>
      <trkpt lat="43.86844" lon="6.98455">
        <ele>435.6145</ele>
        <time>2009-03-22T11:07:49Z</time>
      </trkpt>
      <trkpt lat="43.86848" lon="6.9845">
        <ele>435.6145</ele>
        <time>2009-03-22T11:07:52Z</time>
      </trkpt>
      <trkpt lat="43.86841" lon="6.9848">
        <ele>434.1726</ele>
        <time>2009-03-22T11:07:56Z</time>
      </trkpt>
      <trkpt lat="43.8683" lon="6.98505">
        <ele>430.80798</ele>
        <time>2009-03-22T11:07:59Z</time>
      </trkpt>
      <trkpt lat="43.86823" lon="6.98529">
        <ele>428.88537</ele>
        <time>2009-03-22T11:08:02Z</time>
      </trkpt>
      <trkpt lat="43.86823" lon="6.98536">
        <ele>426.00134</ele>
        <time>2009-03-22T11:08:05Z</time>
      </trkpt>
      <trkpt lat="43.86833" lon="6.98523">
        <ele>424.55944</ele>
        <time>2009-03-22T11:08:07Z</time>
      </trkpt>
      <trkpt lat="43.86857" lon="6.98506">
        <ele>421.19482</ele>
        <time>2009-03-22T11:08:11Z</time>
      </trkpt>
      <trkpt lat="43.86876" lon="6.98494">
        <ele>420.23339</ele>
        <time>2009-03-22T11:08:17Z</time>
      </trkpt>
      <trkpt lat="43.86874" lon="6.98495">
        <ele>420.23339</ele>
        <time>2009-03-22T11:08:18Z</time>
      </trkpt>
      <trkpt lat="43.86866" lon="6.98523">
        <ele>417.3496</ele>
        <time>2009-03-22T11:08:23Z</time>
      </trkpt>
      <trkpt lat="43.86881" lon="6.9852">
        <ele>410.62023</ele>
        <time>2009-03-22T11:08:27Z</time>
      </trkpt>
      <trkpt lat="43.86884" lon="6.98521">
        <ele>409.17834</ele>
        <time>2009-03-22T11:08:28Z</time>
      </trkpt>
      <trkpt lat="43.86893" lon="6.9853">
        <ele>410.13964</ele>
        <time>2009-03-22T11:08:33Z</time>
      </trkpt>
      <trkpt lat="43.86902" lon="6.98543">
        <ele>408.21704</ele>
        <time>2009-03-22T11:08:37Z</time>
      </trkpt>
      <trkpt lat="43.86907" lon="6.98556">
        <ele>405.81372</ele>
        <time>2009-03-22T11:08:40Z</time>
      </trkpt>
      <trkpt lat="43.86907" lon="6.98573">
        <ele>401.00708</ele>
        <time>2009-03-22T11:08:44Z</time>
      </trkpt>
      <trkpt lat="43.86904" lon="6.98578">
        <ele>400.04589</ele>
        <time>2009-03-22T11:08:46Z</time>
      </trkpt>
      <trkpt lat="43.86904" lon="6.98584">
        <ele>399.56506</ele>
        <time>2009-03-22T11:08:50Z</time>
      </trkpt>
      <trkpt lat="43.86906" lon="6.98589">
        <ele>401.48779</ele>
        <time>2009-03-22T11:09:00Z</time>
      </trkpt>
      <trkpt lat="43.86908" lon="6.98592">
        <ele>403.4104</ele>
        <time>2009-03-22T11:09:13Z</time>
      </trkpt>
      <trkpt lat="43.86911" lon="6.98587">
        <ele>385.14538</ele>
        <time>2009-03-22T11:09:53Z</time>
      </trkpt>
      <trkpt lat="43.86912" lon="6.98586">
        <ele>386.10668</ele>
        <time>2009-03-22T11:10:00Z</time>
      </trkpt>
      <trkpt lat="43.86919" lon="6.98583">
        <ele>387.06799</ele>
        <time>2009-03-22T11:10:04Z</time>
      </trkpt>
      <trkpt lat="43.86923" lon="6.98576">
        <ele>388.02929</ele>
        <time>2009-03-22T11:10:07Z</time>
      </trkpt>
      <trkpt lat="43.86923" lon="6.98571">
        <ele>389.9519</ele>
        <time>2009-03-22T11:10:09Z</time>
      </trkpt>
      <trkpt lat="43.86925" lon="6.98555">
        <ele>390.9132</ele>
        <time>2009-03-22T11:10:15Z</time>
      </trkpt>
      <trkpt lat="43.86931" lon="6.98564">
        <ele>389.9519</ele>
        <time>2009-03-22T11:10:18Z</time>
      </trkpt>
      <trkpt lat="43.86931" lon="6.98567">
        <ele>390.43261</ele>
        <time>2009-03-22T11:10:19Z</time>
      </trkpt>
      <trkpt lat="43.86933" lon="6.98581">
        <ele>391.39379</ele>
        <time>2009-03-22T11:10:22Z</time>
      </trkpt>
      <trkpt lat="43.8693" lon="6.98599">
        <ele>391.87451</ele>
        <time>2009-03-22T11:10:27Z</time>
      </trkpt>
      <trkpt lat="43.86928" lon="6.98596">
        <ele>388.02929</ele>
        <time>2009-03-22T11:10:40Z</time>
      </trkpt>
      <trkpt lat="43.86924" lon="6.98596">
        <ele>388.02929</ele>
        <time>2009-03-22T11:10:50Z</time>
      </trkpt>
      <trkpt lat="43.86926" lon="6.98597">
        <ele>388.51001</ele>
        <time>2009-03-22T11:11:00Z</time>
      </trkpt>
      <trkpt lat="43.86927" lon="6.98603">
        <ele>390.9132</ele>
        <time>2009-03-22T11:11:03Z</time>
      </trkpt>
      <trkpt lat="43.86919" lon="6.98619">
        <ele>389.47119</ele>
        <time>2009-03-22T11:11:07Z</time>
      </trkpt>
      <trkpt lat="43.86894" lon="6.98644">
        <ele>386.5874</ele>
        <time>2009-03-22T11:11:13Z</time>
      </trkpt>
      <trkpt lat="43.86882" lon="6.98665">
        <ele>383.22265</ele>
        <time>2009-03-22T11:11:18Z</time>
      </trkpt>
      <trkpt lat="43.86872" lon="6.98692">
        <ele>382.26135</ele>
        <time>2009-03-22T11:11:24Z</time>
      </trkpt>
      <trkpt lat="43.86873" lon="6.98713">
        <ele>379.85803</ele>
        <time>2009-03-22T11:11:29Z</time>
      </trkpt>
      <trkpt lat="43.86892" lon="6.98713">
        <ele>377.45483</ele>
        <time>2009-03-22T11:11:33Z</time>
      </trkpt>
      <trkpt lat="43.869" lon="6.98705">
        <ele>375.5321</ele>
        <time>2009-03-22T11:11:35Z</time>
      </trkpt>
      <trkpt lat="43.86923" lon="6.98671">
        <ele>374.09008</ele>
        <time>2009-03-22T11:11:42Z</time>
      </trkpt>
      <trkpt lat="43.86938" lon="6.98651">
        <ele>375.05151</ele>
        <time>2009-03-22T11:11:47Z</time>
      </trkpt>
      <trkpt lat="43.86955" lon="6.98638">
        <ele>372.64819</ele>
        <time>2009-03-22T11:11:53Z</time>
      </trkpt>
      <trkpt lat="43.86972" lon="6.98641">
        <ele>374.09008</ele>
        <time>2009-03-22T11:11:58Z</time>
      </trkpt>
      <trkpt lat="43.87" lon="6.9865">
        <ele>373.1289</ele>
        <time>2009-03-22T11:12:05Z</time>
      </trkpt>
      <trkpt lat="43.8701" lon="6.98658">
        <ele>373.1289</ele>
        <time>2009-03-22T11:12:07Z</time>
      </trkpt>
      <trkpt lat="43.87042" lon="6.98682">
        <ele>372.64819</ele>
        <time>2009-03-22T11:12:14Z</time>
      </trkpt>
      <trkpt lat="43.87064" lon="6.98701">
        <ele>372.64819</ele>
        <time>2009-03-22T11:12:20Z</time>
      </trkpt>
      <trkpt lat="43.87077" lon="6.9872">
        <ele>374.09008</ele>
        <time>2009-03-22T11:12:24Z</time>
      </trkpt>
      <trkpt lat="43.87095" lon="6.98735">
        <ele>374.09008</ele>
        <time>2009-03-22T11:12:30Z</time>
      </trkpt>
      <trkpt lat="43.87113" lon="6.98747">
        <ele>382.74206</ele>
        <time>2009-03-22T11:12:38Z</time>
      </trkpt>
      <trkpt lat="43.87124" lon="6.98756">
        <ele>386.5874</ele>
        <time>2009-03-22T11:12:43Z</time>
      </trkpt>
      <trkpt lat="43.87141" lon="6.98773">
        <ele>387.06799</ele>
        <time>2009-03-22T11:12:51Z</time>
      </trkpt>
      <trkpt lat="43.87136" lon="6.98775">
        <ele>385.62597</ele>
        <time>2009-03-22T11:13:00Z</time>
      </trkpt>
      <trkpt lat="43.87131" lon="6.98774">
        <ele>387.54858</ele>
        <time>2009-03-22T11:13:07Z</time>
      </trkpt>
      <trkpt lat="43.87134" lon="6.98777">
        <ele>388.51001</ele>
        <time>2009-03-22T11:13:13Z</time>
      </trkpt>
      <trkpt lat="43.87139" lon="6.98773">
        <ele>390.43261</ele>
        <time>2009-03-22T11:13:20Z</time>
      </trkpt>
      <trkpt lat="43.8714" lon="6.98775">
        <ele>382.26135</ele>
        <time>2009-03-22T11:13:23Z</time>
      </trkpt>
      <trkpt lat="43.87151" lon="6.98784">
        <ele>383.70324</ele>
        <time>2009-03-22T11:13:29Z</time>
      </trkpt>
      <trkpt lat="43.8717" lon="6.98792">
        <ele>383.70324</ele>
        <time>2009-03-22T11:13:35Z</time>
      </trkpt>
      <trkpt lat="43.87194" lon="6.98797">
        <ele>384.18408</ele>
        <time>2009-03-22T11:13:41Z</time>
      </trkpt>
      <trkpt lat="43.87209" lon="6.98802">
        <ele>382.26135</ele>
        <time>2009-03-22T11:13:46Z</time>
      </trkpt>
      <trkpt lat="43.87222" lon="6.9881">
        <ele>382.26135</ele>
        <time>2009-03-22T11:13:52Z</time>
      </trkpt>
      <trkpt lat="43.87229" lon="6.98816">
        <ele>382.74206</ele>
        <time>2009-03-22T11:13:57Z</time>
      </trkpt>
      <trkpt lat="43.87242" lon="6.98822">
        <ele>385.62597</ele>
        <time>2009-03-22T11:14:05Z</time>
      </trkpt>
      <trkpt lat="43.8726" lon="6.9883">
        <ele>385.62597</ele>
        <time>2009-03-22T11:14:12Z</time>
      </trkpt>
      <trkpt lat="43.8728" lon="6.98834">
        <ele>384.18408</ele>
        <time>2009-03-22T11:14:18Z</time>
      </trkpt>
      <trkpt lat="43.87298" lon="6.98839">
        <ele>384.18408</ele>
        <time>2009-03-22T11:14:24Z</time>
      </trkpt>
      <trkpt lat="43.87314" lon="6.98853">
        <ele>383.70324</ele>
        <time>2009-03-22T11:14:31Z</time>
      </trkpt>
      <trkpt lat="43.87332" lon="6.98855">
        <ele>384.18408</ele>
        <time>2009-03-22T11:14:37Z</time>
      </trkpt>
      <trkpt lat="43.87344" lon="6.98861">
        <ele>384.18408</ele>
        <time>2009-03-22T11:14:43Z</time>
      </trkpt>
      <trkpt lat="43.87349" lon="6.9888">
        <ele>385.62597</ele>
        <time>2009-03-22T11:14:50Z</time>
      </trkpt>
      <trkpt lat="43.87357" lon="6.98901">
        <ele>388.02929</ele>
        <time>2009-03-22T11:14:58Z</time>
      </trkpt>
      <trkpt lat="43.87366" lon="6.98922">
        <ele>391.39379</ele>
        <time>2009-03-22T11:15:06Z</time>
      </trkpt>
      <trkpt lat="43.87378" lon="6.98944">
        <ele>392.83593</ele>
        <time>2009-03-22T11:15:13Z</time>
      </trkpt>
      <trkpt lat="43.87387" lon="6.98971">
        <ele>390.9132</ele>
        <time>2009-03-22T11:15:20Z</time>
      </trkpt>
      <trkpt lat="43.87392" lon="6.98992">
        <ele>393.31652</ele>
        <time>2009-03-22T11:15:26Z</time>
      </trkpt>
      <trkpt lat="43.87399" lon="6.99018">
        <ele>395.71984</ele>
        <time>2009-03-22T11:15:33Z</time>
      </trkpt>
      <trkpt lat="43.87411" lon="6.99045">
        <ele>396.68115</ele>
        <time>2009-03-22T11:15:41Z</time>
      </trkpt>
      <trkpt lat="43.87422" lon="6.99065">
        <ele>391.87451</ele>
        <time>2009-03-22T11:15:47Z</time>
      </trkpt>
      <trkpt lat="43.87426" lon="6.99073">
        <ele>390.43261</ele>
        <time>2009-03-22T11:15:51Z</time>
      </trkpt>
      <trkpt lat="43.87427" lon="6.99075">
        <ele>389.47119</ele>
        <time>2009-03-22T11:15:57Z</time>
      </trkpt>
      <trkpt lat="43.87429" lon="6.99093">
        <ele>389.47119</ele>
        <time>2009-03-22T11:16:03Z</time>
      </trkpt>
      <trkpt lat="43.87435" lon="6.99129">
        <ele>390.43261</ele>
        <time>2009-03-22T11:16:09Z</time>
      </trkpt>
      <trkpt lat="43.87442" lon="6.9915">
        <ele>389.47119</ele>
        <time>2009-03-22T11:16:12Z</time>
      </trkpt>
      <trkpt lat="43.87446" lon="6.99185">
        <ele>381.78064</ele>
        <time>2009-03-22T11:16:17Z</time>
      </trkpt>
      <trkpt lat="43.87443" lon="6.99202">
        <ele>378.41613</ele>
        <time>2009-03-22T11:16:19Z</time>
      </trkpt>
      <trkpt lat="43.8744" lon="6.99219">
        <ele>376.97424</ele>
        <time>2009-03-22T11:16:21Z</time>
      </trkpt>
      <trkpt lat="43.87437" lon="6.99261">
        <ele>367.36096</ele>
        <time>2009-03-22T11:16:26Z</time>
      </trkpt>
      <trkpt lat="43.87438" lon="6.99291">
        <ele>363.51574</ele>
        <time>2009-03-22T11:16:30Z</time>
      </trkpt>
      <trkpt lat="43.8744" lon="6.99311">
        <ele>361.59314</ele>
        <time>2009-03-22T11:16:34Z</time>
      </trkpt>
      <trkpt lat="43.87445" lon="6.99306">
        <ele>358.70898</ele>
        <time>2009-03-22T11:16:36Z</time>
      </trkpt>
      <trkpt lat="43.8746" lon="6.99304">
        <ele>357.26709</ele>
        <time>2009-03-22T11:16:41Z</time>
      </trkpt>
      <trkpt lat="43.87458" lon="6.99318">
        <ele>356.30578</ele>
        <time>2009-03-22T11:16:43Z</time>
      </trkpt>
      <trkpt lat="43.87455" lon="6.99343">
        <ele>355.34448</ele>
        <time>2009-03-22T11:16:46Z</time>
      </trkpt>
      <trkpt lat="43.87443" lon="6.99385">
        <ele>350.05725</ele>
        <time>2009-03-22T11:16:51Z</time>
      </trkpt>
      <trkpt lat="43.87437" lon="6.99422">
        <ele>347.65393</ele>
        <time>2009-03-22T11:16:55Z</time>
      </trkpt>
      <trkpt lat="43.87428" lon="6.99445">
        <ele>344.28942</ele>
        <time>2009-03-22T11:16:58Z</time>
      </trkpt>
      <trkpt lat="43.87424" lon="6.99457">
        <ele>342.84729</ele>
        <time>2009-03-22T11:16:59Z</time>
      </trkpt>
      <trkpt lat="43.8741" lon="6.99504">
        <ele>339.00207</ele>
        <time>2009-03-22T11:17:03Z</time>
      </trkpt>
      <trkpt lat="43.87386" lon="6.99558">
        <ele>336.59887</ele>
        <time>2009-03-22T11:17:09Z</time>
      </trkpt>
      <trkpt lat="43.87381" lon="6.99572">
        <ele>335.63732</ele>
        <time>2009-03-22T11:17:11Z</time>
      </trkpt>
      <trkpt lat="43.87369" lon="6.99609">
        <ele>339.48266</ele>
        <time>2009-03-22T11:17:18Z</time>
      </trkpt>
      <trkpt lat="43.87361" lon="6.99631">
        <ele>342.84729</ele>
        <time>2009-03-22T11:17:23Z</time>
      </trkpt>
      <trkpt lat="43.87359" lon="6.99637">
        <ele>344.77002</ele>
        <time>2009-03-22T11:17:24Z</time>
      </trkpt>
      <trkpt lat="43.87352" lon="6.99677">
        <ele>351.01843</ele>
        <time>2009-03-22T11:17:30Z</time>
      </trkpt>
      <trkpt lat="43.87349" lon="6.99716">
        <ele>347.65393</ele>
        <time>2009-03-22T11:17:35Z</time>
      </trkpt>
      <trkpt lat="43.87348" lon="6.9976">
        <ele>344.28942</ele>
        <time>2009-03-22T11:17:40Z</time>
      </trkpt>
      <trkpt lat="43.87348" lon="6.99787">
        <ele>339.96337</ele>
        <time>2009-03-22T11:17:43Z</time>
      </trkpt>
      <trkpt lat="43.87338" lon="6.99849">
        <ele>343.32788</ele>
        <time>2009-03-22T11:17:51Z</time>
      </trkpt>
      <trkpt lat="43.87332" lon="6.999">
        <ele>346.69262</ele>
        <time>2009-03-22T11:17:57Z</time>
      </trkpt>
      <trkpt lat="43.87331" lon="6.99916">
        <ele>342.36669</ele>
        <time>2009-03-22T11:17:59Z</time>
      </trkpt>
      <trkpt lat="43.87329" lon="6.99955">
        <ele>340.44409</ele>
        <time>2009-03-22T11:18:05Z</time>
      </trkpt>
      <trkpt lat="43.87318" lon="6.99988">
        <ele>345.25061</ele>
        <time>2009-03-22T11:18:11Z</time>
      </trkpt>
      <trkpt lat="43.87317" lon="6.99996">
        <ele>345.73132</ele>
        <time>2009-03-22T11:18:12Z</time>
      </trkpt>
      <trkpt lat="43.87313" lon="7.00034">
        <ele>349.09582</ele>
        <time>2009-03-22T11:18:17Z</time>
      </trkpt>
      <trkpt lat="43.87309" lon="7.0005">
        <ele>349.57653</ele>
        <time>2009-03-22T11:18:19Z</time>
      </trkpt>
      <trkpt lat="43.87294" lon="7.00086">
        <ele>343.80859</ele>
        <time>2009-03-22T11:18:24Z</time>
      </trkpt>
      <trkpt lat="43.87285" lon="7.00109">
        <ele>344.28942</ele>
        <time>2009-03-22T11:18:27Z</time>
      </trkpt>
      <trkpt lat="43.87274" lon="7.00155">
        <ele>340.92468</ele>
        <time>2009-03-22T11:18:33Z</time>
      </trkpt>
      <trkpt lat="43.87267" lon="7.00183">
        <ele>339.00207</ele>
        <time>2009-03-22T11:18:36Z</time>
      </trkpt>
      <trkpt lat="43.87265" lon="7.00232">
        <ele>338.04077</ele>
        <time>2009-03-22T11:18:41Z</time>
      </trkpt>
      <trkpt lat="43.87265" lon="7.00238">
        <ele>337.07946</ele>
        <time>2009-03-22T11:18:42Z</time>
      </trkpt>
      <trkpt lat="43.87263" lon="7.00281">
        <ele>336.59887</ele>
        <time>2009-03-22T11:18:49Z</time>
      </trkpt>
      <trkpt lat="43.87265" lon="7.00303">
        <ele>341.40527</ele>
        <time>2009-03-22T11:18:54Z</time>
      </trkpt>
      <trkpt lat="43.87265" lon="7.00332">
        <ele>343.80859</ele>
        <time>2009-03-22T11:18:59Z</time>
      </trkpt>
      <trkpt lat="43.87265" lon="7.00375">
        <ele>344.77002</ele>
        <time>2009-03-22T11:19:05Z</time>
      </trkpt>
      <trkpt lat="43.87268" lon="7.00417">
        <ele>345.73132</ele>
        <time>2009-03-22T11:19:11Z</time>
      </trkpt>
      <trkpt lat="43.87264" lon="7.00445">
        <ele>344.28942</ele>
        <time>2009-03-22T11:19:17Z</time>
      </trkpt>
      <trkpt lat="43.87254" lon="7.00471">
        <ele>338.04077</ele>
        <time>2009-03-22T11:19:25Z</time>
      </trkpt>
      <trkpt lat="43.87253" lon="7.00483">
        <ele>335.15673</ele>
        <time>2009-03-22T11:19:30Z</time>
      </trkpt>
      <trkpt lat="43.87258" lon="7.0051">
        <ele>332.75354</ele>
        <time>2009-03-22T11:19:35Z</time>
      </trkpt>
      <trkpt lat="43.87263" lon="7.00544">
        <ele>328.42761</ele>
        <time>2009-03-22T11:19:40Z</time>
      </trkpt>
      <trkpt lat="43.87264" lon="7.00582">
        <ele>322.17895</ele>
        <time>2009-03-22T11:19:47Z</time>
      </trkpt>
      <trkpt lat="43.8727" lon="7.00601">
        <ele>321.21777</ele>
        <time>2009-03-22T11:19:52Z</time>
      </trkpt>
      <trkpt lat="43.87269" lon="7.00603">
        <ele>321.21777</ele>
        <time>2009-03-22T11:19:53Z</time>
      </trkpt>
      <trkpt lat="43.87253" lon="7.00617">
        <ele>320.25634</ele>
        <time>2009-03-22T11:19:59Z</time>
      </trkpt>
      <trkpt lat="43.87243" lon="7.00622">
        <ele>322.17895</ele>
        <time>2009-03-22T11:20:04Z</time>
      </trkpt>
      <trkpt lat="43.87239" lon="7.00623">
        <ele>328.90832</ele>
        <time>2009-03-22T11:20:14Z</time>
      </trkpt>
      <trkpt lat="43.87235" lon="7.0062">
        <ele>332.75354</ele>
        <time>2009-03-22T11:20:50Z</time>
      </trkpt>
      <trkpt lat="43.87235" lon="7.0061">
        <ele>323.14038</ele>
        <time>2009-03-22T11:21:13Z</time>
      </trkpt>
      <trkpt lat="43.87239" lon="7.00612">
        <ele>325.06298</ele>
        <time>2009-03-22T11:22:39Z</time>
      </trkpt>
      <trkpt lat="43.87235" lon="7.00616">
        <ele>318.81433</ele>
        <time>2009-03-22T11:22:58Z</time>
      </trkpt>
      <trkpt lat="43.87226" lon="7.00609">
        <ele>319.77563</ele>
        <time>2009-03-22T11:23:04Z</time>
      </trkpt>
      <trkpt lat="43.8721" lon="7.00595">
        <ele>320.73706</ele>
        <time>2009-03-22T11:23:11Z</time>
      </trkpt>
      <trkpt lat="43.872" lon="7.00585">
        <ele>317.85302</ele>
        <time>2009-03-22T11:23:16Z</time>
      </trkpt>
      <trkpt lat="43.87196" lon="7.00583">
        <ele>317.37243</ele>
        <time>2009-03-22T11:23:21Z</time>
      </trkpt>
      <trkpt lat="43.87195" lon="7.00586">
        <ele>321.21777</ele>
        <time>2009-03-22T11:23:27Z</time>
      </trkpt>
      <trkpt lat="43.87196" lon="7.00585">
        <ele>321.69836</ele>
        <time>2009-03-22T11:23:28Z</time>
      </trkpt>
      <trkpt lat="43.87194" lon="7.00585">
        <ele>322.65966</ele>
        <time>2009-03-22T11:23:32Z</time>
      </trkpt>
      <trkpt lat="43.87192" lon="7.00602">
        <ele>329.38891</ele>
        <time>2009-03-22T11:23:38Z</time>
      </trkpt>
      <trkpt lat="43.87188" lon="7.00632">
        <ele>329.8695</ele>
        <time>2009-03-22T11:23:46Z</time>
      </trkpt>
      <trkpt lat="43.8718" lon="7.00636">
        <ele>327.94677</ele>
        <time>2009-03-22T11:23:51Z</time>
      </trkpt>
      <trkpt lat="43.87177" lon="7.00635">
        <ele>326.98559</ele>
        <time>2009-03-22T11:23:54Z</time>
      </trkpt>
      <trkpt lat="43.87178" lon="7.00634">
        <ele>322.65966</ele>
        <time>2009-03-22T11:24:03Z</time>
      </trkpt>
      <trkpt lat="43.87179" lon="7.00631">
        <ele>323.14038</ele>
        <time>2009-03-22T11:24:44Z</time>
      </trkpt>
      <trkpt lat="43.87184" lon="7.00632">
        <ele>326.98559</ele>
        <time>2009-03-22T11:24:50Z</time>
      </trkpt>
      <trkpt lat="43.87188" lon="7.00629">
        <ele>328.90832</ele>
        <time>2009-03-22T11:24:57Z</time>
      </trkpt>
      <trkpt lat="43.87188" lon="7.00627">
        <ele>327.94677</ele>
        <time>2009-03-22T11:24:59Z</time>
      </trkpt>
      <trkpt lat="43.8719" lon="7.00611">
        <ele>322.65966</ele>
        <time>2009-03-22T11:25:08Z</time>
      </trkpt>
      <trkpt lat="43.87193" lon="7.00596">
        <ele>322.65966</ele>
        <time>2009-03-22T11:25:16Z</time>
      </trkpt>
      <trkpt lat="43.87196" lon="7.00586">
        <ele>322.17895</ele>
        <time>2009-03-22T11:25:21Z</time>
      </trkpt>
      <trkpt lat="43.87191" lon="7.00585">
        <ele>326.02417</ele>
        <time>2009-03-22T11:25:25Z</time>
      </trkpt>
      <trkpt lat="43.8719" lon="7.00589">
        <ele>332.27282</ele>
        <time>2009-03-22T11:25:34Z</time>
      </trkpt>
      <trkpt lat="43.8719" lon="7.00579">
        <ele>326.50488</ele>
        <time>2009-03-22T11:25:55Z</time>
      </trkpt>
      <trkpt lat="43.87184" lon="7.00576">
        <ele>326.02417</ele>
        <time>2009-03-22T11:26:02Z</time>
      </trkpt>
      <trkpt lat="43.87183" lon="7.00574">
        <ele>326.02417</ele>
        <time>2009-03-22T11:26:08Z</time>
      </trkpt>
      <trkpt lat="43.87172" lon="7.00566">
        <ele>326.50488</ele>
        <time>2009-03-22T11:26:14Z</time>
      </trkpt>
      <trkpt lat="43.87148" lon="7.00554">
        <ele>328.42761</ele>
        <time>2009-03-22T11:26:25Z</time>
      </trkpt>
      <trkpt lat="43.8713" lon="7.00539">
        <ele>328.42761</ele>
        <time>2009-03-22T11:26:34Z</time>
      </trkpt>
      <trkpt lat="43.87116" lon="7.00523">
        <ele>326.98559</ele>
        <time>2009-03-22T11:26:42Z</time>
      </trkpt>
      <trkpt lat="43.87102" lon="7.00507">
        <ele>326.50488</ele>
        <time>2009-03-22T11:26:50Z</time>
      </trkpt>
      <trkpt lat="43.87092" lon="7.00494">
        <ele>327.94677</ele>
        <time>2009-03-22T11:26:56Z</time>
      </trkpt>
      <trkpt lat="43.87075" lon="7.00478">
        <ele>328.90832</ele>
        <time>2009-03-22T11:27:05Z</time>
      </trkpt>
      <trkpt lat="43.87058" lon="7.00467">
        <ele>329.8695</ele>
        <time>2009-03-22T11:27:13Z</time>
      </trkpt>
      <trkpt lat="43.87048" lon="7.0046">
        <ele>331.79211</ele>
        <time>2009-03-22T11:27:19Z</time>
      </trkpt>
      <trkpt lat="43.87031" lon="7.00452">
        <ele>335.15673</ele>
        <time>2009-03-22T11:27:27Z</time>
      </trkpt>
      <trkpt lat="43.87011" lon="7.00442">
        <ele>338.04077</ele>
        <time>2009-03-22T11:27:36Z</time>
      </trkpt>
      <trkpt lat="43.86985" lon="7.00427">
        <ele>336.11816</ele>
        <time>2009-03-22T11:27:47Z</time>
      </trkpt>
      <trkpt lat="43.86969" lon="7.00426">
        <ele>338.04077</ele>
        <time>2009-03-22T11:27:54Z</time>
      </trkpt>
      <trkpt lat="43.86953" lon="7.00432">
        <ele>336.59887</ele>
        <time>2009-03-22T11:28:01Z</time>
      </trkpt>
      <trkpt lat="43.86939" lon="7.00447">
        <ele>337.56005</ele>
        <time>2009-03-22T11:28:08Z</time>
      </trkpt>
      <trkpt lat="43.8692" lon="7.00463">
        <ele>336.11816</ele>
        <time>2009-03-22T11:28:17Z</time>
      </trkpt>
      <trkpt lat="43.86904" lon="7.00467">
        <ele>337.56005</ele>
        <time>2009-03-22T11:28:24Z</time>
      </trkpt>
      <trkpt lat="43.86885" lon="7.00456">
        <ele>340.44409</ele>
        <time>2009-03-22T11:28:32Z</time>
      </trkpt>
      <trkpt lat="43.86865" lon="7.00453">
        <ele>345.25061</ele>
        <time>2009-03-22T11:28:40Z</time>
      </trkpt>
      <trkpt lat="43.86854" lon="7.00462">
        <ele>341.88598</ele>
        <time>2009-03-22T11:28:46Z</time>
      </trkpt>
      <trkpt lat="43.86845" lon="7.00468">
        <ele>337.07946</ele>
        <time>2009-03-22T11:28:51Z</time>
      </trkpt>
      <trkpt lat="43.86828" lon="7.00475">
        <ele>339.48266</ele>
        <time>2009-03-22T11:28:58Z</time>
      </trkpt>
      <trkpt lat="43.86831" lon="7.00479">
        <ele>340.92468</ele>
        <time>2009-03-22T11:29:02Z</time>
      </trkpt>
      <trkpt lat="43.86836" lon="7.00473">
        <ele>342.84729</ele>
        <time>2009-03-22T11:29:05Z</time>
      </trkpt>
      <trkpt lat="43.86829" lon="7.00474">
        <ele>346.69262</ele>
        <time>2009-03-22T11:29:08Z</time>
      </trkpt>
      <trkpt lat="43.86828" lon="7.00475">
        <ele>348.13464</ele>
        <time>2009-03-22T11:29:09Z</time>
      </trkpt>
      <trkpt lat="43.86817" lon="7.00481">
        <ele>356.78637</ele>
        <time>2009-03-22T11:29:16Z</time>
      </trkpt>
      <trkpt lat="43.86808" lon="7.00477">
        <ele>353.90258</ele>
        <time>2009-03-22T11:29:23Z</time>
      </trkpt>
      <trkpt lat="43.86799" lon="7.00477">
        <ele>352.94116</ele>
        <time>2009-03-22T11:29:30Z</time>
      </trkpt>
      <trkpt lat="43.86789" lon="7.00481">
        <ele>354.38317</ele>
        <time>2009-03-22T11:29:36Z</time>
      </trkpt>
      <trkpt lat="43.86775" lon="7.00483">
        <ele>352.94116</ele>
        <time>2009-03-22T11:29:45Z</time>
      </trkpt>
      <trkpt lat="43.86768" lon="7.00487">
        <ele>351.97985</ele>
        <time>2009-03-22T11:29:51Z</time>
      </trkpt>
      <trkpt lat="43.86757" lon="7.00495">
        <ele>354.38317</ele>
        <time>2009-03-22T11:29:59Z</time>
      </trkpt>
      <trkpt lat="43.86745" lon="7.00498">
        <ele>354.86377</ele>
        <time>2009-03-22T11:30:07Z</time>
      </trkpt>
      <trkpt lat="43.86732" lon="7.00499">
        <ele>358.70898</ele>
        <time>2009-03-22T11:30:14Z</time>
      </trkpt>
      <trkpt lat="43.86722" lon="7.00501">
        <ele>361.59314</ele>
        <time>2009-03-22T11:30:20Z</time>
      </trkpt>
      <trkpt lat="43.86721" lon="7.00503">
        <ele>361.11242</ele>
        <time>2009-03-22T11:30:25Z</time>
      </trkpt>
      <trkpt lat="43.86723" lon="7.00505">
        <ele>363.03503</ele>
        <time>2009-03-22T11:30:36Z</time>
      </trkpt>
      <trkpt lat="43.8672" lon="7.00509">
        <ele>362.07373</ele>
        <time>2009-03-22T11:30:45Z</time>
      </trkpt>
      <trkpt lat="43.86714" lon="7.00516">
        <ele>359.67041</ele>
        <time>2009-03-22T11:30:52Z</time>
      </trkpt>
      <trkpt lat="43.86709" lon="7.00525">
        <ele>362.55432</ele>
        <time>2009-03-22T11:30:58Z</time>
      </trkpt>
      <trkpt lat="43.86697" lon="7.00533">
        <ele>363.51574</ele>
        <time>2009-03-22T11:31:06Z</time>
      </trkpt>
      <trkpt lat="43.86693" lon="7.00534">
        <ele>364.95764</ele>
        <time>2009-03-22T11:31:08Z</time>
      </trkpt>
      <trkpt lat="43.86682" lon="7.0053">
        <ele>367.36096</ele>
        <time>2009-03-22T11:31:16Z</time>
      </trkpt>
      <trkpt lat="43.86672" lon="7.00532">
        <ele>367.36096</ele>
        <time>2009-03-22T11:31:22Z</time>
      </trkpt>
      <trkpt lat="43.8666" lon="7.00538">
        <ele>369.76428</ele>
        <time>2009-03-22T11:31:30Z</time>
      </trkpt>
      <trkpt lat="43.86647" lon="7.00533">
        <ele>371.20629</ele>
        <time>2009-03-22T11:31:38Z</time>
      </trkpt>
      <trkpt lat="43.86632" lon="7.00533">
        <ele>375.05151</ele>
        <time>2009-03-22T11:31:47Z</time>
      </trkpt>
      <trkpt lat="43.86618" lon="7.00534">
        <ele>375.05151</ele>
        <time>2009-03-22T11:31:55Z</time>
      </trkpt>
      <trkpt lat="43.8661" lon="7.00533">
        <ele>379.37744</ele>
        <time>2009-03-22T11:32:01Z</time>
      </trkpt>
      <trkpt lat="43.86601" lon="7.0053">
        <ele>380.81945</ele>
        <time>2009-03-22T11:32:08Z</time>
      </trkpt>
      <trkpt lat="43.86591" lon="7.00526">
        <ele>379.85803</ele>
        <time>2009-03-22T11:32:16Z</time>
      </trkpt>
      <trkpt lat="43.86584" lon="7.00517">
        <ele>380.33874</ele>
        <time>2009-03-22T11:32:24Z</time>
      </trkpt>
      <trkpt lat="43.86572" lon="7.00517">
        <ele>384.66479</ele>
        <time>2009-03-22T11:32:31Z</time>
      </trkpt>
      <trkpt lat="43.86562" lon="7.00518">
        <ele>390.43261</ele>
        <time>2009-03-22T11:32:38Z</time>
      </trkpt>
      <trkpt lat="43.86552" lon="7.0052">
        <ele>391.39379</ele>
        <time>2009-03-22T11:32:45Z</time>
      </trkpt>
      <trkpt lat="43.86552" lon="7.0053">
        <ele>390.9132</ele>
        <time>2009-03-22T11:32:50Z</time>
      </trkpt>
      <trkpt lat="43.8656" lon="7.00545">
        <ele>390.9132</ele>
        <time>2009-03-22T11:32:59Z</time>
      </trkpt>
      <trkpt lat="43.86564" lon="7.00556">
        <ele>392.83593</ele>
        <time>2009-03-22T11:33:05Z</time>
      </trkpt>
      <trkpt lat="43.8657" lon="7.00575">
        <ele>398.60376</ele>
        <time>2009-03-22T11:33:15Z</time>
      </trkpt>
      <trkpt lat="43.8657" lon="7.00577">
        <ele>399.08435</ele>
        <time>2009-03-22T11:33:16Z</time>
      </trkpt>
      <trkpt lat="43.8657" lon="7.00587">
        <ele>397.16174</ele>
        <time>2009-03-22T11:33:22Z</time>
      </trkpt>
      <trkpt lat="43.86579" lon="7.00606">
        <ele>399.08435</ele>
        <time>2009-03-22T11:33:32Z</time>
      </trkpt>
      <trkpt lat="43.86583" lon="7.00616">
        <ele>400.04589</ele>
        <time>2009-03-22T11:33:38Z</time>
      </trkpt>
      <trkpt lat="43.86583" lon="7.00618">
        <ele>400.52648</ele>
        <time>2009-03-22T11:33:39Z</time>
      </trkpt>
      <trkpt lat="43.86583" lon="7.00632">
        <ele>403.4104</ele>
        <time>2009-03-22T11:33:47Z</time>
      </trkpt>
      <trkpt lat="43.8658" lon="7.0065">
        <ele>407.25561</ele>
        <time>2009-03-22T11:33:57Z</time>
      </trkpt>
      <trkpt lat="43.8658" lon="7.00653">
        <ele>405.333</ele>
        <time>2009-03-22T11:34:00Z</time>
      </trkpt>
      <trkpt lat="43.86573" lon="7.00663">
        <ele>404.3717</ele>
        <time>2009-03-22T11:34:08Z</time>
      </trkpt>
      <trkpt lat="43.86562" lon="7.00668">
        <ele>402.92968</ele>
        <time>2009-03-22T11:34:16Z</time>
      </trkpt>
      <trkpt lat="43.86549" lon="7.00675">
        <ele>407.25561</ele>
        <time>2009-03-22T11:34:24Z</time>
      </trkpt>
      <trkpt lat="43.86541" lon="7.00676">
        <ele>406.29431</ele>
        <time>2009-03-22T11:34:31Z</time>
      </trkpt>
      <trkpt lat="43.86536" lon="7.00686">
        <ele>406.7749</ele>
        <time>2009-03-22T11:34:37Z</time>
      </trkpt>
      <trkpt lat="43.86537" lon="7.00693">
        <ele>408.21704</ele>
        <time>2009-03-22T11:34:40Z</time>
      </trkpt>
      <trkpt lat="43.86545" lon="7.00708">
        <ele>411.10095</ele>
        <time>2009-03-22T11:34:49Z</time>
      </trkpt>
      <trkpt lat="43.86548" lon="7.00721">
        <ele>410.13964</ele>
        <time>2009-03-22T11:34:56Z</time>
      </trkpt>
      <trkpt lat="43.86548" lon="7.00736">
        <ele>413.50427</ele>
        <time>2009-03-22T11:35:03Z</time>
      </trkpt>
      <trkpt lat="43.86549" lon="7.00746">
        <ele>415.42688</ele>
        <time>2009-03-22T11:35:08Z</time>
      </trkpt>
      <trkpt lat="43.86547" lon="7.00756">
        <ele>417.3496</ele>
        <time>2009-03-22T11:35:13Z</time>
      </trkpt>
      <trkpt lat="43.86543" lon="7.0077">
        <ele>417.3496</ele>
        <time>2009-03-22T11:35:21Z</time>
      </trkpt>
      <trkpt lat="43.86538" lon="7.0078">
        <ele>414.94616</ele>
        <time>2009-03-22T11:35:28Z</time>
      </trkpt>
      <trkpt lat="43.86532" lon="7.0079">
        <ele>415.90747</ele>
        <time>2009-03-22T11:35:35Z</time>
      </trkpt>
      <trkpt lat="43.86525" lon="7.008">
        <ele>415.90747</ele>
        <time>2009-03-22T11:35:42Z</time>
      </trkpt>
      <trkpt lat="43.86516" lon="7.0081">
        <ele>416.86889</ele>
        <time>2009-03-22T11:35:49Z</time>
      </trkpt>
      <trkpt lat="43.86505" lon="7.00815">
        <ele>416.86889</ele>
        <time>2009-03-22T11:35:57Z</time>
      </trkpt>
      <trkpt lat="43.86492" lon="7.00823">
        <ele>418.31079</ele>
        <time>2009-03-22T11:36:06Z</time>
      </trkpt>
      <trkpt lat="43.86479" lon="7.00831">
        <ele>420.71411</ele>
        <time>2009-03-22T11:36:15Z</time>
      </trkpt>
      <trkpt lat="43.86471" lon="7.00842">
        <ele>425.52075</ele>
        <time>2009-03-22T11:36:21Z</time>
      </trkpt>
      <trkpt lat="43.86469" lon="7.00852">
        <ele>428.88537</ele>
        <time>2009-03-22T11:36:26Z</time>
      </trkpt>
      <trkpt lat="43.86473" lon="7.00856">
        <ele>430.80798</ele>
        <time>2009-03-22T11:36:30Z</time>
      </trkpt>
      <trkpt lat="43.86481" lon="7.00864">
        <ele>432.73071</ele>
        <time>2009-03-22T11:36:37Z</time>
      </trkpt>
      <trkpt lat="43.86487" lon="7.00877">
        <ele>432.73071</ele>
        <time>2009-03-22T11:36:45Z</time>
      </trkpt>
      <trkpt lat="43.86495" lon="7.00893">
        <ele>432.73071</ele>
        <time>2009-03-22T11:36:55Z</time>
      </trkpt>
      <trkpt lat="43.86501" lon="7.00905">
        <ele>434.1726</ele>
        <time>2009-03-22T11:37:03Z</time>
      </trkpt>
      <trkpt lat="43.86501" lon="7.00919">
        <ele>438.49853</ele>
        <time>2009-03-22T11:37:10Z</time>
      </trkpt>
      <trkpt lat="43.86499" lon="7.00933">
        <ele>439.45971</ele>
        <time>2009-03-22T11:37:18Z</time>
      </trkpt>
      <trkpt lat="43.86496" lon="7.00944">
        <ele>437.05651</ele>
        <time>2009-03-22T11:37:25Z</time>
      </trkpt>
      <trkpt lat="43.86495" lon="7.00955">
        <ele>438.97912</ele>
        <time>2009-03-22T11:37:31Z</time>
      </trkpt>
      <trkpt lat="43.86491" lon="7.00968">
        <ele>441.86315</ele>
        <time>2009-03-22T11:37:38Z</time>
      </trkpt>
      <trkpt lat="43.8649" lon="7.00976">
        <ele>443.78576</ele>
        <time>2009-03-22T11:37:42Z</time>
      </trkpt>
      <trkpt lat="43.86489" lon="7.00984">
        <ele>440.90185</ele>
        <time>2009-03-22T11:37:48Z</time>
      </trkpt>
      <trkpt lat="43.86485" lon="7.01">
        <ele>440.90185</ele>
        <time>2009-03-22T11:37:56Z</time>
      </trkpt>
      <trkpt lat="43.86484" lon="7.01003">
        <ele>441.38244</ele>
        <time>2009-03-22T11:37:57Z</time>
      </trkpt>
      <trkpt lat="43.86475" lon="7.01009">
        <ele>441.86315</ele>
        <time>2009-03-22T11:38:03Z</time>
      </trkpt>
      <trkpt lat="43.86472" lon="7.01009">
        <ele>440.90185</ele>
        <time>2009-03-22T11:38:09Z</time>
      </trkpt>
      <trkpt lat="43.86468" lon="7.01021">
        <ele>451.47631</ele>
        <time>2009-03-22T11:39:36Z</time>
      </trkpt>
      <trkpt lat="43.86467" lon="7.01022">
        <ele>448.5924</ele>
        <time>2009-03-22T11:39:42Z</time>
      </trkpt>
      <trkpt lat="43.86463" lon="7.0103">
        <ele>450.03442</ele>
        <time>2009-03-22T11:39:48Z</time>
      </trkpt>
      <trkpt lat="43.86458" lon="7.01044">
        <ele>450.9956</ele>
        <time>2009-03-22T11:39:55Z</time>
      </trkpt>
      <trkpt lat="43.8645" lon="7.01055">
        <ele>450.03442</ele>
        <time>2009-03-22T11:40:02Z</time>
      </trkpt>
      <trkpt lat="43.86441" lon="7.01068">
        <ele>450.03442</ele>
        <time>2009-03-22T11:40:10Z</time>
      </trkpt>
      <trkpt lat="43.86434" lon="7.01078">
        <ele>450.51501</ele>
        <time>2009-03-22T11:40:17Z</time>
      </trkpt>
      <trkpt lat="43.8643" lon="7.01089">
        <ele>452.43762</ele>
        <time>2009-03-22T11:40:22Z</time>
      </trkpt>
      <trkpt lat="43.86439" lon="7.01103">
        <ele>461.57019</ele>
        <time>2009-03-22T11:40:29Z</time>
      </trkpt>
      <trkpt lat="43.86434" lon="7.01118">
        <ele>461.08947</ele>
        <time>2009-03-22T11:40:36Z</time>
      </trkpt>
      <trkpt lat="43.86429" lon="7.01127">
        <ele>459.64758</ele>
        <time>2009-03-22T11:40:41Z</time>
      </trkpt>
      <trkpt lat="43.86423" lon="7.01132">
        <ele>459.16687</ele>
        <time>2009-03-22T11:40:46Z</time>
      </trkpt>
      <trkpt lat="43.86413" lon="7.01139">
        <ele>457.72497</ele>
        <time>2009-03-22T11:40:54Z</time>
      </trkpt>
      <trkpt lat="43.86406" lon="7.01146">
        <ele>457.72497</ele>
        <time>2009-03-22T11:41:02Z</time>
      </trkpt>
      <trkpt lat="43.86401" lon="7.01153">
        <ele>459.16687</ele>
        <time>2009-03-22T11:41:08Z</time>
      </trkpt>
      <trkpt lat="43.86397" lon="7.01163">
        <ele>460.12817</ele>
        <time>2009-03-22T11:41:15Z</time>
      </trkpt>
      <trkpt lat="43.86392" lon="7.01174">
        <ele>462.53137</ele>
        <time>2009-03-22T11:41:23Z</time>
      </trkpt>
      <trkpt lat="43.86393" lon="7.01192">
        <ele>465.41552</ele>
        <time>2009-03-22T11:41:33Z</time>
      </trkpt>
      <trkpt lat="43.86394" lon="7.01206">
        <ele>468.29931</ele>
        <time>2009-03-22T11:41:41Z</time>
      </trkpt>
      <trkpt lat="43.86391" lon="7.01218">
        <ele>471.18335</ele>
        <time>2009-03-22T11:41:48Z</time>
      </trkpt>
      <trkpt lat="43.86388" lon="7.0123">
        <ele>472.62536</ele>
        <time>2009-03-22T11:41:56Z</time>
      </trkpt>
      <trkpt lat="43.86386" lon="7.01238">
        <ele>472.14465</ele>
        <time>2009-03-22T11:42:01Z</time>
      </trkpt>
      <trkpt lat="43.86378" lon="7.0125">
        <ele>471.18335</ele>
        <time>2009-03-22T11:42:10Z</time>
      </trkpt>
      <trkpt lat="43.8637" lon="7.01255">
        <ele>470.22192</ele>
        <time>2009-03-22T11:42:17Z</time>
      </trkpt>
      <trkpt lat="43.8636" lon="7.01261">
        <ele>472.14465</ele>
        <time>2009-03-22T11:42:26Z</time>
      </trkpt>
      <trkpt lat="43.86353" lon="7.01266">
        <ele>472.14465</ele>
        <time>2009-03-22T11:42:33Z</time>
      </trkpt>
      <trkpt lat="43.86346" lon="7.01271">
        <ele>474.06726</ele>
        <time>2009-03-22T11:42:41Z</time>
      </trkpt>
      <trkpt lat="43.8634" lon="7.01275">
        <ele>473.58667</ele>
        <time>2009-03-22T11:42:47Z</time>
      </trkpt>
      <trkpt lat="43.86333" lon="7.01287">
        <ele>473.58667</ele>
        <time>2009-03-22T11:42:56Z</time>
      </trkpt>
      <trkpt lat="43.86333" lon="7.01288">
        <ele>474.06726</ele>
        <time>2009-03-22T11:42:57Z</time>
      </trkpt>
      <trkpt lat="43.86331" lon="7.01291">
        <ele>475.02868</ele>
        <time>2009-03-22T11:42:59Z</time>
      </trkpt>
      <trkpt lat="43.86329" lon="7.01296">
        <ele>475.98986</ele>
        <time>2009-03-22T11:43:03Z</time>
      </trkpt>
      <trkpt lat="43.86326" lon="7.013">
        <ele>477.43188</ele>
        <time>2009-03-22T11:43:07Z</time>
      </trkpt>
      <trkpt lat="43.86315" lon="7.01311">
        <ele>479.83508</ele>
        <time>2009-03-22T11:43:18Z</time>
      </trkpt>
      <trkpt lat="43.86309" lon="7.0132">
        <ele>482.71923</ele>
        <time>2009-03-22T11:43:25Z</time>
      </trkpt>
      <trkpt lat="43.86308" lon="7.01322">
        <ele>483.19982</ele>
        <time>2009-03-22T11:43:26Z</time>
      </trkpt>
      <trkpt lat="43.86306" lon="7.01339">
        <ele>488.00647</ele>
        <time>2009-03-22T11:43:35Z</time>
      </trkpt>
      <trkpt lat="43.86308" lon="7.01353">
        <ele>490.40979</ele>
        <time>2009-03-22T11:43:41Z</time>
      </trkpt>
      <trkpt lat="43.86308" lon="7.01354">
        <ele>491.37097</ele>
        <time>2009-03-22T11:43:42Z</time>
      </trkpt>
      <trkpt lat="43.86309" lon="7.01371">
        <ele>491.85168</ele>
        <time>2009-03-22T11:43:51Z</time>
      </trkpt>
      <trkpt lat="43.86312" lon="7.01384">
        <ele>492.33239</ele>
        <time>2009-03-22T11:43:59Z</time>
      </trkpt>
      <trkpt lat="43.86314" lon="7.01401">
        <ele>491.85168</ele>
        <time>2009-03-22T11:44:08Z</time>
      </trkpt>
      <trkpt lat="43.86314" lon="7.01405">
        <ele>491.85168</ele>
        <time>2009-03-22T11:44:10Z</time>
      </trkpt>
      <trkpt lat="43.86306" lon="7.01416">
        <ele>492.33239</ele>
        <time>2009-03-22T11:44:17Z</time>
      </trkpt>
      <trkpt lat="43.86293" lon="7.01418">
        <ele>492.33239</ele>
        <time>2009-03-22T11:44:27Z</time>
      </trkpt>
      <trkpt lat="43.86281" lon="7.01413">
        <ele>493.29357</ele>
        <time>2009-03-22T11:44:36Z</time>
      </trkpt>
      <trkpt lat="43.86273" lon="7.01406">
        <ele>493.77429</ele>
        <time>2009-03-22T11:44:43Z</time>
      </trkpt>
      <trkpt lat="43.86265" lon="7.01397">
        <ele>492.81298</ele>
        <time>2009-03-22T11:44:51Z</time>
      </trkpt>
      <trkpt lat="43.8626" lon="7.01389">
        <ele>494.255</ele>
        <time>2009-03-22T11:44:58Z</time>
      </trkpt>
      <trkpt lat="43.86253" lon="7.01376">
        <ele>493.77429</ele>
        <time>2009-03-22T11:45:07Z</time>
      </trkpt>
      <trkpt lat="43.86247" lon="7.01363">
        <ele>497.13891</ele>
        <time>2009-03-22T11:45:16Z</time>
      </trkpt>
      <trkpt lat="43.8624" lon="7.01348">
        <ele>499.06152</ele>
        <time>2009-03-22T11:45:26Z</time>
      </trkpt>
      <trkpt lat="43.86232" lon="7.01335">
        <ele>497.13891</ele>
        <time>2009-03-22T11:45:34Z</time>
      </trkpt>
      <trkpt lat="43.86223" lon="7.0133">
        <ele>499.06152</ele>
        <time>2009-03-22T11:45:41Z</time>
      </trkpt>
      <trkpt lat="43.86214" lon="7.01325">
        <ele>500.50354</ele>
        <time>2009-03-22T11:45:49Z</time>
      </trkpt>
      <trkpt lat="43.86202" lon="7.01322">
        <ele>502.42614</ele>
        <time>2009-03-22T11:45:59Z</time>
      </trkpt>
      <trkpt lat="43.86194" lon="7.01318">
        <ele>504.34887</ele>
        <time>2009-03-22T11:46:07Z</time>
      </trkpt>
      <trkpt lat="43.86185" lon="7.01315">
        <ele>504.82946</ele>
        <time>2009-03-22T11:46:15Z</time>
      </trkpt>
      <trkpt lat="43.86172" lon="7.01307">
        <ele>507.7135</ele>
        <time>2009-03-22T11:46:26Z</time>
      </trkpt>
      <trkpt lat="43.86159" lon="7.01303">
        <ele>511.55871</ele>
        <time>2009-03-22T11:46:36Z</time>
      </trkpt>
      <trkpt lat="43.86153" lon="7.013">
        <ele>512.03942</ele>
        <time>2009-03-22T11:46:42Z</time>
      </trkpt>
      <trkpt lat="43.86147" lon="7.01298">
        <ele>511.55871</ele>
        <time>2009-03-22T11:46:48Z</time>
      </trkpt>
      <trkpt lat="43.8615" lon="7.01294">
        <ele>513.48144</ele>
        <time>2009-03-22T11:46:56Z</time>
      </trkpt>
      <trkpt lat="43.86154" lon="7.01289">
        <ele>511.55871</ele>
        <time>2009-03-22T11:47:09Z</time>
      </trkpt>
      <trkpt lat="43.86155" lon="7.01291">
        <ele>514.92334</ele>
        <time>2009-03-22T11:47:17Z</time>
      </trkpt>
      <trkpt lat="43.86154" lon="7.01297">
        <ele>520.21057</ele>
        <time>2009-03-22T11:47:27Z</time>
      </trkpt>
      <trkpt lat="43.86146" lon="7.01302">
        <ele>514.44262</ele>
        <time>2009-03-22T11:47:42Z</time>
      </trkpt>
      <trkpt lat="43.86153" lon="7.01297">
        <ele>519.72985</ele>
        <time>2009-03-22T11:48:00Z</time>
      </trkpt>
      <trkpt lat="43.86154" lon="7.01287">
        <ele>508.19409</ele>
        <time>2009-03-22T11:48:36Z</time>
      </trkpt>
      <trkpt lat="43.86155" lon="7.01286">
        <ele>507.23278</ele>
        <time>2009-03-22T11:48:46Z</time>
      </trkpt>
      <trkpt lat="43.86155" lon="7.01286">
        <ele>506.75207</ele>
        <time>2009-03-22T11:49:00Z</time>
      </trkpt>
      <trkpt lat="43.86154" lon="7.0129">
        <ele>507.23278</ele>
        <time>2009-03-22T11:49:23Z</time>
      </trkpt>
      <trkpt lat="43.86155" lon="7.01293">
        <ele>512.03942</ele>
        <time>2009-03-22T11:49:58Z</time>
      </trkpt>
      <trkpt lat="43.86159" lon="7.01292">
        <ele>517.80725</ele>
        <time>2009-03-22T11:50:32Z</time>
      </trkpt>
      <trkpt lat="43.86159" lon="7.01292">
        <ele>518.76855</ele>
        <time>2009-03-22T11:50:43Z</time>
      </trkpt>
      <trkpt lat="43.86154" lon="7.01293">
        <ele>516.36523</ele>
        <time>2009-03-22T11:50:48Z</time>
      </trkpt>
      <trkpt lat="43.86146" lon="7.01293">
        <ele>515.40405</ele>
        <time>2009-03-22T11:50:53Z</time>
      </trkpt>
      <trkpt lat="43.8613" lon="7.01286">
        <ele>513.00073</ele>
        <time>2009-03-22T11:51:01Z</time>
      </trkpt>
      <trkpt lat="43.86127" lon="7.01284">
        <ele>513.48144</ele>
        <time>2009-03-22T11:51:03Z</time>
      </trkpt>
      <trkpt lat="43.86122" lon="7.01279">
        <ele>515.40405</ele>
        <time>2009-03-22T11:51:07Z</time>
      </trkpt>
      <trkpt lat="43.86118" lon="7.01264">
        <ele>517.80725</ele>
        <time>2009-03-22T11:51:15Z</time>
      </trkpt>
      <trkpt lat="43.86116" lon="7.01252">
        <ele>516.36523</ele>
        <time>2009-03-22T11:51:21Z</time>
      </trkpt>
      <trkpt lat="43.86115" lon="7.01242">
        <ele>519.24926</ele>
        <time>2009-03-22T11:51:28Z</time>
      </trkpt>
      <trkpt lat="43.86117" lon="7.01225">
        <ele>519.24926</ele>
        <time>2009-03-22T11:51:35Z</time>
      </trkpt>
      <trkpt lat="43.8612" lon="7.01208">
        <ele>517.80725</ele>
        <time>2009-03-22T11:51:43Z</time>
      </trkpt>
      <trkpt lat="43.86122" lon="7.01191">
        <ele>516.36523</ele>
        <time>2009-03-22T11:51:51Z</time>
      </trkpt>
      <trkpt lat="43.86121" lon="7.01174">
        <ele>517.32666</ele>
        <time>2009-03-22T11:51:59Z</time>
      </trkpt>
      <trkpt lat="43.86123" lon="7.01156">
        <ele>515.88464</ele>
        <time>2009-03-22T11:52:07Z</time>
      </trkpt>
      <trkpt lat="43.86125" lon="7.0114">
        <ele>515.88464</ele>
        <time>2009-03-22T11:52:14Z</time>
      </trkpt>
      <trkpt lat="43.86122" lon="7.01128">
        <ele>519.72985</ele>
        <time>2009-03-22T11:52:20Z</time>
      </trkpt>
      <trkpt lat="43.86116" lon="7.01117">
        <ele>523.0946</ele>
        <time>2009-03-22T11:52:25Z</time>
      </trkpt>
      <trkpt lat="43.86111" lon="7.01103">
        <ele>528.38183</ele>
        <time>2009-03-22T11:52:30Z</time>
      </trkpt>
      <trkpt lat="43.86107" lon="7.0109">
        <ele>534.63037</ele>
        <time>2009-03-22T11:52:37Z</time>
      </trkpt>
      <trkpt lat="43.86104" lon="7.01073">
        <ele>532.70776</ele>
        <time>2009-03-22T11:52:43Z</time>
      </trkpt>
      <trkpt lat="43.86102" lon="7.01057">
        <ele>529.34314</ele>
        <time>2009-03-22T11:52:50Z</time>
      </trkpt>
      <trkpt lat="43.86098" lon="7.01042">
        <ele>527.901</ele>
        <time>2009-03-22T11:52:57Z</time>
      </trkpt>
      <trkpt lat="43.86097" lon="7.01027">
        <ele>530.30444</ele>
        <time>2009-03-22T11:53:04Z</time>
      </trkpt>
      <trkpt lat="43.86099" lon="7.0101">
        <ele>531.26574</ele>
        <time>2009-03-22T11:53:11Z</time>
      </trkpt>
      <trkpt lat="43.86098" lon="7.00991">
        <ele>534.14965</ele>
        <time>2009-03-22T11:53:18Z</time>
      </trkpt>
      <trkpt lat="43.86096" lon="7.00984">
        <ele>537.03369</ele>
        <time>2009-03-22T11:53:21Z</time>
      </trkpt>
      <trkpt lat="43.86087" lon="7.00977">
        <ele>545.20483</ele>
        <time>2009-03-22T11:53:28Z</time>
      </trkpt>
      <trkpt lat="43.86073" lon="7.00973">
        <ele>546.16626</ele>
        <time>2009-03-22T11:53:35Z</time>
      </trkpt>
      <trkpt lat="43.86063" lon="7.00968">
        <ele>549.53076</ele>
        <time>2009-03-22T11:53:43Z</time>
      </trkpt>
      <trkpt lat="43.86057" lon="7.00956">
        <ele>550.49218</ele>
        <time>2009-03-22T11:53:50Z</time>
      </trkpt>
      <trkpt lat="43.86056" lon="7.00955">
        <ele>550.97265</ele>
        <time>2009-03-22T11:53:51Z</time>
      </trkpt>
      <trkpt lat="43.86051" lon="7.00942">
        <ele>552.41455</ele>
        <time>2009-03-22T11:53:59Z</time>
      </trkpt>
      <trkpt lat="43.86045" lon="7.00936">
        <ele>554.81787</ele>
        <time>2009-03-22T11:54:05Z</time>
      </trkpt>
      <trkpt lat="43.86042" lon="7.0093">
        <ele>554.3374</ele>
        <time>2009-03-22T11:54:09Z</time>
      </trkpt>
      <trkpt lat="43.86034" lon="7.00922">
        <ele>555.77929</ele>
        <time>2009-03-22T11:54:16Z</time>
      </trkpt>
      <trkpt lat="43.86032" lon="7.00919">
        <ele>555.77929</ele>
        <time>2009-03-22T11:54:18Z</time>
      </trkpt>
      <trkpt lat="43.86028" lon="7.00909">
        <ele>554.81787</ele>
        <time>2009-03-22T11:54:23Z</time>
      </trkpt>
      <trkpt lat="43.86022" lon="7.00897">
        <ele>553.85668</ele>
        <time>2009-03-22T11:54:30Z</time>
      </trkpt>
      <trkpt lat="43.86015" lon="7.00888">
        <ele>558.18286</ele>
        <time>2009-03-22T11:54:38Z</time>
      </trkpt>
      <trkpt lat="43.86009" lon="7.00874">
        <ele>555.77929</ele>
        <time>2009-03-22T11:54:46Z</time>
      </trkpt>
      <trkpt lat="43.86004" lon="7.00862">
        <ele>556.74072</ele>
        <time>2009-03-22T11:54:54Z</time>
      </trkpt>
      <trkpt lat="43.86002" lon="7.00856">
        <ele>558.18286</ele>
        <time>2009-03-22T11:54:59Z</time>
      </trkpt>
      <trkpt lat="43.85995" lon="7.00845">
        <ele>559.62475</ele>
        <time>2009-03-22T11:55:07Z</time>
      </trkpt>
      <trkpt lat="43.8599" lon="7.00835">
        <ele>562.98925</ele>
        <time>2009-03-22T11:55:14Z</time>
      </trkpt>
      <trkpt lat="43.85985" lon="7.00826">
        <ele>568.75708</ele>
        <time>2009-03-22T11:55:21Z</time>
      </trkpt>
      <trkpt lat="43.85982" lon="7.00806">
        <ele>565.39257</ele>
        <time>2009-03-22T11:55:29Z</time>
      </trkpt>
      <trkpt lat="43.85976" lon="7.00801">
        <ele>569.23779</ele>
        <time>2009-03-22T11:55:35Z</time>
      </trkpt>
      <trkpt lat="43.85973" lon="7.00799">
        <ele>570.67968</ele>
        <time>2009-03-22T11:55:37Z</time>
      </trkpt>
      <trkpt lat="43.8597" lon="7.00796">
        <ele>573.56396</ele>
        <time>2009-03-22T11:55:40Z</time>
      </trkpt>
      <trkpt lat="43.85964" lon="7.00788">
        <ele>575.48632</ele>
        <time>2009-03-22T11:55:47Z</time>
      </trkpt>
      <trkpt lat="43.85962" lon="7.00783">
        <ele>577.40918</ele>
        <time>2009-03-22T11:55:50Z</time>
      </trkpt>
      <trkpt lat="43.85957" lon="7.00773">
        <ele>576.44775</ele>
        <time>2009-03-22T11:55:57Z</time>
      </trkpt>
      <trkpt lat="43.85953" lon="7.00766">
        <ele>574.52514</ele>
        <time>2009-03-22T11:56:01Z</time>
      </trkpt>
      <trkpt lat="43.85951" lon="7.00752">
        <ele>572.60253</ele>
        <time>2009-03-22T11:56:07Z</time>
      </trkpt>
      <trkpt lat="43.85942" lon="7.00743">
        <ele>573.56396</ele>
        <time>2009-03-22T11:56:15Z</time>
      </trkpt>
      <trkpt lat="43.85937" lon="7.00729">
        <ele>573.56396</ele>
        <time>2009-03-22T11:56:22Z</time>
      </trkpt>
      <trkpt lat="43.85934" lon="7.00722">
        <ele>575.00585</ele>
        <time>2009-03-22T11:56:26Z</time>
      </trkpt>
      <trkpt lat="43.85931" lon="7.00716">
        <ele>576.44775</ele>
        <time>2009-03-22T11:56:30Z</time>
      </trkpt>
      <trkpt lat="43.85926" lon="7.00704">
        <ele>576.92846</ele>
        <time>2009-03-22T11:56:38Z</time>
      </trkpt>
      <trkpt lat="43.85921" lon="7.00691">
        <ele>577.40918</ele>
        <time>2009-03-22T11:56:45Z</time>
      </trkpt>
      <trkpt lat="43.85921" lon="7.00689">
        <ele>577.40918</ele>
        <time>2009-03-22T11:56:46Z</time>
      </trkpt>
      <trkpt lat="43.85921" lon="7.00674">
        <ele>577.88964</ele>
        <time>2009-03-22T11:56:55Z</time>
      </trkpt>
      <trkpt lat="43.85922" lon="7.00661">
        <ele>581.25439</ele>
        <time>2009-03-22T11:57:02Z</time>
      </trkpt>
      <trkpt lat="43.85924" lon="7.00645">
        <ele>582.69628</ele>
        <time>2009-03-22T11:57:10Z</time>
      </trkpt>
      <trkpt lat="43.85926" lon="7.00627">
        <ele>584.61889</ele>
        <time>2009-03-22T11:57:18Z</time>
      </trkpt>
      <trkpt lat="43.85927" lon="7.0061">
        <ele>591.34814</ele>
        <time>2009-03-22T11:57:26Z</time>
      </trkpt>
      <trkpt lat="43.85928" lon="7.00595">
        <ele>594.71264</ele>
        <time>2009-03-22T11:57:34Z</time>
      </trkpt>
      <trkpt lat="43.85925" lon="7.00587">
        <ele>595.67407</ele>
        <time>2009-03-22T11:57:38Z</time>
      </trkpt>
      <trkpt lat="43.85921" lon="7.00568">
        <ele>596.63549</ele>
        <time>2009-03-22T11:57:45Z</time>
      </trkpt>
      <trkpt lat="43.85918" lon="7.00553">
        <ele>599.51928</ele>
        <time>2009-03-22T11:57:51Z</time>
      </trkpt>
      <trkpt lat="43.85917" lon="7.00538">
        <ele>599.03857</ele>
        <time>2009-03-22T11:57:57Z</time>
      </trkpt>
      <trkpt lat="43.85915" lon="7.00529">
        <ele>600</ele>
        <time>2009-03-22T11:58:01Z</time>
      </trkpt>
      <trkpt lat="43.85913" lon="7.00518">
        <ele>600.48071</ele>
        <time>2009-03-22T11:58:05Z</time>
      </trkpt>
      <trkpt lat="43.85909" lon="7.00502">
        <ele>600</ele>
        <time>2009-03-22T11:58:11Z</time>
      </trkpt>
      <trkpt lat="43.85907" lon="7.00497">
        <ele>600</ele>
        <time>2009-03-22T11:58:13Z</time>
      </trkpt>
      <trkpt lat="43.859" lon="7.00478">
        <ele>599.51928</ele>
        <time>2009-03-22T11:58:20Z</time>
      </trkpt>
      <trkpt lat="43.85892" lon="7.00463">
        <ele>598.07739</ele>
        <time>2009-03-22T11:58:26Z</time>
      </trkpt>
      <trkpt lat="43.85886" lon="7.00451">
        <ele>596.63549</ele>
        <time>2009-03-22T11:58:32Z</time>
      </trkpt>
      <trkpt lat="43.85887" lon="7.00449">
        <ele>594.71264</ele>
        <time>2009-03-22T11:58:37Z</time>
      </trkpt>
      <trkpt lat="43.85887" lon="7.00447">
        <ele>593.75146</ele>
        <time>2009-03-22T11:58:52Z</time>
      </trkpt>
      <trkpt lat="43.85888" lon="7.00444">
        <ele>593.75146</ele>
        <time>2009-03-22T11:58:57Z</time>
      </trkpt>
      <trkpt lat="43.85889" lon="7.00439">
        <ele>585.58007</ele>
        <time>2009-03-22T11:59:30Z</time>
      </trkpt>
      <trkpt lat="43.85887" lon="7.0044">
        <ele>585.58007</ele>
        <time>2009-03-22T11:59:40Z</time>
      </trkpt>
      <trkpt lat="43.8589" lon="7.0044">
        <ele>587.98339</ele>
        <time>2009-03-22T11:59:52Z</time>
      </trkpt>
      <trkpt lat="43.85893" lon="7.00438">
        <ele>590.86743</ele>
        <time>2009-03-22T12:00:06Z</time>
      </trkpt>
      <trkpt lat="43.85894" lon="7.00437">
        <ele>587.50268</ele>
        <time>2009-03-22T12:00:23Z</time>
      </trkpt>
      <trkpt lat="43.85903" lon="7.00435">
        <ele>582.21557</ele>
        <time>2009-03-22T12:00:45Z</time>
      </trkpt>
      <trkpt lat="43.85901" lon="7.00438">
        <ele>571.1604</ele>
        <time>2009-03-22T12:01:09Z</time>
      </trkpt>
      <trkpt lat="43.85896" lon="7.00434">
        <ele>562.50854</ele>
        <time>2009-03-22T12:01:52Z</time>
      </trkpt>
      <trkpt lat="43.85903" lon="7.00431">
        <ele>569.23779</ele>
        <time>2009-03-22T12:02:25Z</time>
      </trkpt>
      <trkpt lat="43.85904" lon="7.00435">
        <ele>575.00585</ele>
        <time>2009-03-22T12:02:37Z</time>
      </trkpt>
      <trkpt lat="43.85903" lon="7.00438">
        <ele>579.33154</ele>
        <time>2009-03-22T12:02:50Z</time>
      </trkpt>
      <trkpt lat="43.85902" lon="7.00439">
        <ele>581.25439</ele>
        <time>2009-03-22T12:03:03Z</time>
      </trkpt>
      <trkpt lat="43.85906" lon="7.00437">
        <ele>588.46435</ele>
        <time>2009-03-22T12:04:08Z</time>
      </trkpt>
      <trkpt lat="43.85913" lon="7.00433">
        <ele>590.86743</ele>
        <time>2009-03-22T12:04:31Z</time>
      </trkpt>
      <trkpt lat="43.85904" lon="7.00436">
        <ele>588.46435</ele>
        <time>2009-03-22T12:05:12Z</time>
      </trkpt>
      <trkpt lat="43.859" lon="7.00428">
        <ele>589.42553</ele>
        <time>2009-03-22T12:06:29Z</time>
      </trkpt>
      <trkpt lat="43.85902" lon="7.00431">
        <ele>583.65747</ele>
        <time>2009-03-22T12:07:30Z</time>
      </trkpt>
      <trkpt lat="43.85902" lon="7.00432">
        <ele>588.94506</ele>
        <time>2009-03-22T12:07:55Z</time>
      </trkpt>
      <trkpt lat="43.85912" lon="7.0043">
        <ele>601.44189</ele>
        <time>2009-03-22T12:08:12Z</time>
      </trkpt>
      <trkpt lat="43.85902" lon="7.00432">
        <ele>599.51928</ele>
        <time>2009-03-22T12:08:53Z</time>
      </trkpt>
      <trkpt lat="43.85908" lon="7.00423">
        <ele>600.48071</ele>
        <time>2009-03-22T12:09:13Z</time>
      </trkpt>
      <trkpt lat="43.85907" lon="7.00421">
        <ele>587.02197</ele>
        <time>2009-03-22T12:09:40Z</time>
      </trkpt>
      <trkpt lat="43.85887" lon="7.0045">
        <ele>598.55786</ele>
        <time>2009-03-22T12:10:43Z</time>
      </trkpt>
      <trkpt lat="43.85885" lon="7.00452">
        <ele>591.82885</ele>
        <time>2009-03-22T12:10:59Z</time>
      </trkpt>
      <trkpt lat="43.85891" lon="7.00445">
        <ele>591.82885</ele>
        <time>2009-03-22T12:11:10Z</time>
      </trkpt>
      <trkpt lat="43.85894" lon="7.00436">
        <ele>591.82885</ele>
        <time>2009-03-22T12:11:40Z</time>
      </trkpt>
      <trkpt lat="43.85889" lon="7.00441">
        <ele>585.58007</ele>
        <time>2009-03-22T12:11:47Z</time>
      </trkpt>
      <trkpt lat="43.85884" lon="7.00447">
        <ele>586.06079</ele>
        <time>2009-03-22T12:12:09Z</time>
      </trkpt>
      <trkpt lat="43.85886" lon="7.00441">
        <ele>586.06079</ele>
        <time>2009-03-22T12:12:38Z</time>
      </trkpt>
      <trkpt lat="43.85893" lon="7.00437">
        <ele>588.46435</ele>
        <time>2009-03-22T12:13:02Z</time>
      </trkpt>
      <trkpt lat="43.85898" lon="7.00435">
        <ele>585.58007</ele>
        <time>2009-03-22T12:13:21Z</time>
      </trkpt>
      <trkpt lat="43.859" lon="7.00436">
        <ele>578.37036</ele>
        <time>2009-03-22T12:13:45Z</time>
      </trkpt>
      <trkpt lat="43.85897" lon="7.00433">
        <ele>607.69067</ele>
        <time>2009-03-22T12:14:29Z</time>
      </trkpt>
      <trkpt lat="43.8589" lon="7.0044">
        <ele>595.19335</ele>
        <time>2009-03-22T12:15:49Z</time>
      </trkpt>
      <trkpt lat="43.85883" lon="7.00441">
        <ele>582.21557</ele>
        <time>2009-03-22T12:16:39Z</time>
      </trkpt>
      <trkpt lat="43.85883" lon="7.0044">
        <ele>577.40918</ele>
        <time>2009-03-22T12:17:15Z</time>
      </trkpt>
      <trkpt lat="43.85885" lon="7.00439">
        <ele>579.81225</ele>
        <time>2009-03-22T12:17:29Z</time>
      </trkpt>
      <trkpt lat="43.85886" lon="7.00439">
        <ele>579.81225</ele>
        <time>2009-03-22T12:17:44Z</time>
      </trkpt>
      <trkpt lat="43.85882" lon="7.00437">
        <ele>577.40918</ele>
        <time>2009-03-22T12:18:10Z</time>
      </trkpt>
      <trkpt lat="43.85881" lon="7.00434">
        <ele>571.64086</ele>
        <time>2009-03-22T12:18:30Z</time>
      </trkpt>
      <trkpt lat="43.8588" lon="7.00441">
        <ele>584.13818</ele>
        <time>2009-03-22T12:19:24Z</time>
      </trkpt>
      <trkpt lat="43.85874" lon="7.00444">
        <ele>568.75708</ele>
        <time>2009-03-22T12:20:28Z</time>
      </trkpt>
      <trkpt lat="43.85876" lon="7.00441">
        <ele>567.79565</ele>
        <time>2009-03-22T12:20:45Z</time>
      </trkpt>
      <trkpt lat="43.85877" lon="7.00441">
        <ele>572.12182</ele>
        <time>2009-03-22T12:21:02Z</time>
      </trkpt>
      <trkpt lat="43.85876" lon="7.00441">
        <ele>567.79565</ele>
        <time>2009-03-22T12:21:22Z</time>
      </trkpt>
      <trkpt lat="43.8587" lon="7.00448">
        <ele>563.46997</ele>
        <time>2009-03-22T12:21:37Z</time>
      </trkpt>
      <trkpt lat="43.85868" lon="7.00449">
        <ele>560.58593</ele>
        <time>2009-03-22T12:21:56Z</time>
      </trkpt>
      <trkpt lat="43.85869" lon="7.00449">
        <ele>564.91186</ele>
        <time>2009-03-22T12:23:01Z</time>
      </trkpt>
      <trkpt lat="43.85885" lon="7.00433">
        <ele>563.95043</ele>
        <time>2009-03-22T12:23:34Z</time>
      </trkpt>
      <trkpt lat="43.85875" lon="7.00448">
        <ele>571.64086</ele>
        <time>2009-03-22T12:24:08Z</time>
      </trkpt>
      <trkpt lat="43.85884" lon="7.00434">
        <ele>572.60253</ele>
        <time>2009-03-22T12:25:12Z</time>
      </trkpt>
      <trkpt lat="43.85883" lon="7.00437">
        <ele>586.06079</ele>
        <time>2009-03-22T12:25:26Z</time>
      </trkpt>
      <trkpt lat="43.85889" lon="7.00433">
        <ele>597.11596</ele>
        <time>2009-03-22T12:25:45Z</time>
      </trkpt>
      <trkpt lat="43.8589" lon="7.00432">
        <ele>599.51928</ele>
        <time>2009-03-22T12:25:57Z</time>
      </trkpt>
      <trkpt lat="43.85887" lon="7.00436">
        <ele>600</ele>
        <time>2009-03-22T12:26:12Z</time>
      </trkpt>
      <trkpt lat="43.85884" lon="7.00437">
        <ele>599.51928</ele>
        <time>2009-03-22T12:26:25Z</time>
      </trkpt>
      <trkpt lat="43.85881" lon="7.00441">
        <ele>600.96118</ele>
        <time>2009-03-22T12:26:54Z</time>
      </trkpt>
      <trkpt lat="43.85877" lon="7.00444">
        <ele>587.98339</ele>
        <time>2009-03-22T12:27:30Z</time>
      </trkpt>
      <trkpt lat="43.85879" lon="7.00441">
        <ele>586.06079</ele>
        <time>2009-03-22T12:28:00Z</time>
      </trkpt>
      <trkpt lat="43.85881" lon="7.00437">
        <ele>589.42553</ele>
        <time>2009-03-22T12:28:44Z</time>
      </trkpt>
      <trkpt lat="43.85883" lon="7.00441">
        <ele>594.71264</ele>
        <time>2009-03-22T12:29:06Z</time>
      </trkpt>
      <trkpt lat="43.85884" lon="7.0044">
        <ele>594.23217</ele>
        <time>2009-03-22T12:29:16Z</time>
      </trkpt>
      <trkpt lat="43.85883" lon="7.0044">
        <ele>594.23217</ele>
        <time>2009-03-22T12:29:27Z</time>
      </trkpt>
      <trkpt lat="43.85882" lon="7.0044">
        <ele>592.79028</ele>
        <time>2009-03-22T12:29:45Z</time>
      </trkpt>
      <trkpt lat="43.85882" lon="7.0044">
        <ele>594.71264</ele>
        <time>2009-03-22T12:29:54Z</time>
      </trkpt>
      <trkpt lat="43.85883" lon="7.00437">
        <ele>595.19335</ele>
        <time>2009-03-22T12:30:12Z</time>
      </trkpt>
      <trkpt lat="43.85878" lon="7.00436">
        <ele>598.07739</ele>
        <time>2009-03-22T12:30:31Z</time>
      </trkpt>
      <trkpt lat="43.85877" lon="7.00438">
        <ele>602.40307</ele>
        <time>2009-03-22T12:30:55Z</time>
      </trkpt>
      <trkpt lat="43.85877" lon="7.00439">
        <ele>603.3645</ele>
        <time>2009-03-22T12:31:02Z</time>
      </trkpt>
      <trkpt lat="43.85876" lon="7.00432">
        <ele>602.40307</ele>
        <time>2009-03-22T12:31:07Z</time>
      </trkpt>
      <trkpt lat="43.85872" lon="7.00418">
        <ele>598.07739</ele>
        <time>2009-03-22T12:31:14Z</time>
      </trkpt>
      <trkpt lat="43.8587" lon="7.004">
        <ele>596.15478</ele>
        <time>2009-03-22T12:31:21Z</time>
      </trkpt>
      <trkpt lat="43.8587" lon="7.0039">
        <ele>596.63549</ele>
        <time>2009-03-22T12:31:25Z</time>
      </trkpt>
      <trkpt lat="43.85869" lon="7.00373">
        <ele>599.03857</ele>
        <time>2009-03-22T12:31:31Z</time>
      </trkpt>
      <trkpt lat="43.85865" lon="7.0036">
        <ele>601.9226</ele>
        <time>2009-03-22T12:31:37Z</time>
      </trkpt>
      <trkpt lat="43.85862" lon="7.00343">
        <ele>601.9226</ele>
        <time>2009-03-22T12:31:44Z</time>
      </trkpt>
      <trkpt lat="43.85857" lon="7.00334">
        <ele>601.9226</ele>
        <time>2009-03-22T12:31:49Z</time>
      </trkpt>
      <trkpt lat="43.8585" lon="7.00333">
        <ele>601.44189</ele>
        <time>2009-03-22T12:31:56Z</time>
      </trkpt>
      <trkpt lat="43.8584" lon="7.00333">
        <ele>602.88378</ele>
        <time>2009-03-22T12:32:03Z</time>
      </trkpt>
      <trkpt lat="43.8583" lon="7.00331">
        <ele>604.80664</ele>
        <time>2009-03-22T12:32:10Z</time>
      </trkpt>
      <trkpt lat="43.85811" lon="7.00326">
        <ele>605.28735</ele>
        <time>2009-03-22T12:32:22Z</time>
      </trkpt>
      <trkpt lat="43.85798" lon="7.00319">
        <ele>605.28735</ele>
        <time>2009-03-22T12:32:30Z</time>
      </trkpt>
      <trkpt lat="43.8579" lon="7.00309">
        <ele>602.88378</ele>
        <time>2009-03-22T12:32:37Z</time>
      </trkpt>
      <trkpt lat="43.85779" lon="7.00302">
        <ele>604.32617</ele>
        <time>2009-03-22T12:32:44Z</time>
      </trkpt>
      <trkpt lat="43.85772" lon="7.0029">
        <ele>604.32617</ele>
        <time>2009-03-22T12:32:51Z</time>
      </trkpt>
      <trkpt lat="43.85767" lon="7.00279">
        <ele>605.76806</ele>
        <time>2009-03-22T12:32:58Z</time>
      </trkpt>
      <trkpt lat="43.85763" lon="7.00263">
        <ele>606.72924</ele>
        <time>2009-03-22T12:33:06Z</time>
      </trkpt>
      <trkpt lat="43.85759" lon="7.00253">
        <ele>611.05517</ele>
        <time>2009-03-22T12:33:13Z</time>
      </trkpt>
      <trkpt lat="43.85756" lon="7.00241">
        <ele>614.90039</ele>
        <time>2009-03-22T12:33:20Z</time>
      </trkpt>
      <trkpt lat="43.85753" lon="7.0023">
        <ele>617.30371</ele>
        <time>2009-03-22T12:33:27Z</time>
      </trkpt>
      <trkpt lat="43.85748" lon="7.00219">
        <ele>620.66845</ele>
        <time>2009-03-22T12:33:34Z</time>
      </trkpt>
      <trkpt lat="43.85743" lon="7.00207">
        <ele>624.51367</ele>
        <time>2009-03-22T12:33:42Z</time>
      </trkpt>
      <trkpt lat="43.85736" lon="7.00195">
        <ele>629.80078</ele>
        <time>2009-03-22T12:33:51Z</time>
      </trkpt>
      <trkpt lat="43.85732" lon="7.00192">
        <ele>628.8396</ele>
        <time>2009-03-22T12:33:56Z</time>
      </trkpt>
      <trkpt lat="43.85728" lon="7.00195">
        <ele>629.80078</ele>
        <time>2009-03-22T12:34:02Z</time>
      </trkpt>
      <trkpt lat="43.85725" lon="7.00203">
        <ele>628.8396</ele>
        <time>2009-03-22T12:34:08Z</time>
      </trkpt>
      <trkpt lat="43.85722" lon="7.00213">
        <ele>629.32006</ele>
        <time>2009-03-22T12:34:15Z</time>
      </trkpt>
      <trkpt lat="43.8572" lon="7.00222">
        <ele>629.32006</ele>
        <time>2009-03-22T12:34:22Z</time>
      </trkpt>
      <trkpt lat="43.85712" lon="7.00232">
        <ele>627.87817</ele>
        <time>2009-03-22T12:34:28Z</time>
      </trkpt>
      <trkpt lat="43.85703" lon="7.00238">
        <ele>627.3977</ele>
        <time>2009-03-22T12:34:35Z</time>
      </trkpt>
      <trkpt lat="43.85695" lon="7.00239">
        <ele>629.32006</ele>
        <time>2009-03-22T12:34:42Z</time>
      </trkpt>
      <trkpt lat="43.85684" lon="7.00235">
        <ele>630.28149</ele>
        <time>2009-03-22T12:34:50Z</time>
      </trkpt>
      <trkpt lat="43.85683" lon="7.00234">
        <ele>630.28149</ele>
        <time>2009-03-22T12:34:51Z</time>
      </trkpt>
      <trkpt lat="43.85685" lon="7.00225">
        <ele>630.28149</ele>
        <time>2009-03-22T12:34:57Z</time>
      </trkpt>
      <trkpt lat="43.85695" lon="7.00225">
        <ele>629.80078</ele>
        <time>2009-03-22T12:35:05Z</time>
      </trkpt>
      <trkpt lat="43.85698" lon="7.00222">
        <ele>629.80078</ele>
        <time>2009-03-22T12:35:08Z</time>
      </trkpt>
      <trkpt lat="43.85703" lon="7.00207">
        <ele>630.28149</ele>
        <time>2009-03-22T12:35:16Z</time>
      </trkpt>
      <trkpt lat="43.85704" lon="7.00193">
        <ele>632.2041</ele>
        <time>2009-03-22T12:35:24Z</time>
      </trkpt>
      <trkpt lat="43.85707" lon="7.00181">
        <ele>635.08813</ele>
        <time>2009-03-22T12:35:31Z</time>
      </trkpt>
      <trkpt lat="43.85712" lon="7.00168">
        <ele>637.01074</ele>
        <time>2009-03-22T12:35:39Z</time>
      </trkpt>
      <trkpt lat="43.85715" lon="7.00157">
        <ele>638.45288</ele>
        <time>2009-03-22T12:35:47Z</time>
      </trkpt>
      <trkpt lat="43.85718" lon="7.00149">
        <ele>639.89477</ele>
        <time>2009-03-22T12:35:54Z</time>
      </trkpt>
      <trkpt lat="43.8572" lon="7.00148">
        <ele>640.85595</ele>
        <time>2009-03-22T12:36:00Z</time>
      </trkpt>
      <trkpt lat="43.85736" lon="7.00146">
        <ele>646.62402</ele>
        <time>2009-03-22T12:36:08Z</time>
      </trkpt>
      <trkpt lat="43.85749" lon="7.00154">
        <ele>652.87255</ele>
        <time>2009-03-22T12:36:16Z</time>
      </trkpt>
      <trkpt lat="43.85757" lon="7.00166">
        <ele>653.35327</ele>
        <time>2009-03-22T12:36:23Z</time>
      </trkpt>
      <trkpt lat="43.85768" lon="7.00176">
        <ele>655.27587</ele>
        <time>2009-03-22T12:36:31Z</time>
      </trkpt>
      <trkpt lat="43.85783" lon="7.00184">
        <ele>654.79516</ele>
        <time>2009-03-22T12:36:41Z</time>
      </trkpt>
      <trkpt lat="43.85791" lon="7.0019">
        <ele>654.79516</ele>
        <time>2009-03-22T12:36:48Z</time>
      </trkpt>
      <trkpt lat="43.85801" lon="7.00199">
        <ele>657.67919</ele>
        <time>2009-03-22T12:36:56Z</time>
      </trkpt>
      <trkpt lat="43.85807" lon="7.00203">
        <ele>657.19848</ele>
        <time>2009-03-22T12:37:00Z</time>
      </trkpt>
      <trkpt lat="43.85814" lon="7.00211">
        <ele>657.67919</ele>
        <time>2009-03-22T12:37:06Z</time>
      </trkpt>
      <trkpt lat="43.8582" lon="7.00216">
        <ele>660.08227</ele>
        <time>2009-03-22T12:37:11Z</time>
      </trkpt>
      <trkpt lat="43.85831" lon="7.00219">
        <ele>660.56298</ele>
        <time>2009-03-22T12:37:19Z</time>
      </trkpt>
      <trkpt lat="43.85844" lon="7.00216">
        <ele>658.64038</ele>
        <time>2009-03-22T12:37:27Z</time>
      </trkpt>
      <trkpt lat="43.85857" lon="7.00204">
        <ele>659.12109</ele>
        <time>2009-03-22T12:37:36Z</time>
      </trkpt>
      <trkpt lat="43.85869" lon="7.00201">
        <ele>662.9663</ele>
        <time>2009-03-22T12:37:43Z</time>
      </trkpt>
      <trkpt lat="43.85881" lon="7.00202">
        <ele>665.85034</ele>
        <time>2009-03-22T12:37:51Z</time>
      </trkpt>
      <trkpt lat="43.85888" lon="7.00203">
        <ele>666.81152</ele>
        <time>2009-03-22T12:37:56Z</time>
      </trkpt>
      <trkpt lat="43.85894" lon="7.00205">
        <ele>667.29223</ele>
        <time>2009-03-22T12:38:00Z</time>
      </trkpt>
      <trkpt lat="43.85908" lon="7.00206">
        <ele>668.73437</ele>
        <time>2009-03-22T12:38:09Z</time>
      </trkpt>
      <trkpt lat="43.85923" lon="7.0021">
        <ele>671.13769</ele>
        <time>2009-03-22T12:38:18Z</time>
      </trkpt>
      <trkpt lat="43.85935" lon="7.00216">
        <ele>671.13769</ele>
        <time>2009-03-22T12:38:26Z</time>
      </trkpt>
      <trkpt lat="43.8595" lon="7.00229">
        <ele>672.57959</ele>
        <time>2009-03-22T12:38:35Z</time>
      </trkpt>
      <trkpt lat="43.85961" lon="7.00243">
        <ele>674.50219</ele>
        <time>2009-03-22T12:38:43Z</time>
      </trkpt>
      <trkpt lat="43.85969" lon="7.00262">
        <ele>681.23144</ele>
        <time>2009-03-22T12:38:52Z</time>
      </trkpt>
      <trkpt lat="43.85983" lon="7.00277">
        <ele>689.8833</ele>
        <time>2009-03-22T12:39:03Z</time>
      </trkpt>
      <trkpt lat="43.85997" lon="7.00291">
        <ele>699.49633</ele>
        <time>2009-03-22T12:39:13Z</time>
      </trkpt>
      <trkpt lat="43.86008" lon="7.003">
        <ele>704.78369</ele>
        <time>2009-03-22T12:39:21Z</time>
      </trkpt>
      <trkpt lat="43.86009" lon="7.00301">
        <ele>705.74511</ele>
        <time>2009-03-22T12:39:22Z</time>
      </trkpt>
      <trkpt lat="43.86019" lon="7.00305">
        <ele>711.03222</ele>
        <time>2009-03-22T12:39:29Z</time>
      </trkpt>
      <trkpt lat="43.86034" lon="7.00307">
        <ele>713.43554</ele>
        <time>2009-03-22T12:39:38Z</time>
      </trkpt>
      <trkpt lat="43.86044" lon="7.00302">
        <ele>711.99365</ele>
        <time>2009-03-22T12:39:44Z</time>
      </trkpt>
      <trkpt lat="43.8605" lon="7.00295">
        <ele>711.03222</ele>
        <time>2009-03-22T12:39:48Z</time>
      </trkpt>
      <trkpt lat="43.86046" lon="7.00286">
        <ele>711.03222</ele>
        <time>2009-03-22T12:39:54Z</time>
      </trkpt>
      <trkpt lat="43.86039" lon="7.00288">
        <ele>710.55151</ele>
        <time>2009-03-22T12:40:01Z</time>
      </trkpt>
      <trkpt lat="43.86028" lon="7.00286">
        <ele>709.59033</ele>
        <time>2009-03-22T12:40:08Z</time>
      </trkpt>
      <trkpt lat="43.86015" lon="7.00273">
        <ele>710.55151</ele>
        <time>2009-03-22T12:40:16Z</time>
      </trkpt>
      <trkpt lat="43.86005" lon="7.0026">
        <ele>699.01562</ele>
        <time>2009-03-22T12:40:24Z</time>
      </trkpt>
      <trkpt lat="43.85992" lon="7.00246">
        <ele>677.38623</ele>
        <time>2009-03-22T12:40:32Z</time>
      </trkpt>
      <trkpt lat="43.85978" lon="7.00225">
        <ele>667.29223</ele>
        <time>2009-03-22T12:40:40Z</time>
      </trkpt>
      <trkpt lat="43.85957" lon="7.00186">
        <ele>662.48559</ele>
        <time>2009-03-22T12:40:52Z</time>
      </trkpt>
      <trkpt lat="43.8594" lon="7.00154">
        <ele>668.73437</ele>
        <time>2009-03-22T12:41:01Z</time>
      </trkpt>
      <trkpt lat="43.85923" lon="7.00141">
        <ele>664.4082</ele>
        <time>2009-03-22T12:41:09Z</time>
      </trkpt>
      <trkpt lat="43.85911" lon="7.00141">
        <ele>663.44702</ele>
        <time>2009-03-22T12:41:14Z</time>
      </trkpt>
      <trkpt lat="43.85899" lon="7.0013">
        <ele>664.4082</ele>
        <time>2009-03-22T12:41:20Z</time>
      </trkpt>
      <trkpt lat="43.8589" lon="7.00116">
        <ele>669.6958</ele>
        <time>2009-03-22T12:41:26Z</time>
      </trkpt>
      <trkpt lat="43.85876" lon="7.00091">
        <ele>678.82812</ele>
        <time>2009-03-22T12:41:36Z</time>
      </trkpt>
      <trkpt lat="43.85869" lon="7.00072">
        <ele>680.75073</ele>
        <time>2009-03-22T12:41:43Z</time>
      </trkpt>
      <trkpt lat="43.85864" lon="7.00053">
        <ele>682.67334</ele>
        <time>2009-03-22T12:41:49Z</time>
      </trkpt>
      <trkpt lat="43.85854" lon="7.00038">
        <ele>686.03808</ele>
        <time>2009-03-22T12:41:55Z</time>
      </trkpt>
      <trkpt lat="43.85847" lon="7.00025">
        <ele>689.8833</ele>
        <time>2009-03-22T12:42:01Z</time>
      </trkpt>
      <trkpt lat="43.85845" lon="7.00025">
        <ele>689.8833</ele>
        <time>2009-03-22T12:42:02Z</time>
      </trkpt>
      <trkpt lat="43.85838" lon="7.00012">
        <ele>692.28662</ele>
        <time>2009-03-22T12:42:09Z</time>
      </trkpt>
      <trkpt lat="43.85834" lon="7.00004">
        <ele>692.76733</ele>
        <time>2009-03-22T12:42:13Z</time>
      </trkpt>
      <trkpt lat="43.8583" lon="6.99996">
        <ele>694.68969</ele>
        <time>2009-03-22T12:42:19Z</time>
      </trkpt>
      <trkpt lat="43.85827" lon="6.99996">
        <ele>694.20922</ele>
        <time>2009-03-22T12:42:43Z</time>
      </trkpt>
      <trkpt lat="43.85837" lon="6.99994">
        <ele>687.47998</ele>
        <time>2009-03-22T12:43:15Z</time>
      </trkpt>
      <trkpt lat="43.85836" lon="6.9999">
        <ele>692.76733</ele>
        <time>2009-03-22T12:43:23Z</time>
      </trkpt>
      <trkpt lat="43.8583" lon="6.99983">
        <ele>694.68969</ele>
        <time>2009-03-22T12:43:27Z</time>
      </trkpt>
      <trkpt lat="43.85826" lon="6.99974">
        <ele>696.13183</ele>
        <time>2009-03-22T12:43:31Z</time>
      </trkpt>
      <trkpt lat="43.85818" lon="6.9996">
        <ele>697.57373</ele>
        <time>2009-03-22T12:43:39Z</time>
      </trkpt>
      <trkpt lat="43.8581" lon="6.99942">
        <ele>696.61254</ele>
        <time>2009-03-22T12:43:46Z</time>
      </trkpt>
      <trkpt lat="43.85803" lon="6.9992">
        <ele>696.61254</ele>
        <time>2009-03-22T12:43:53Z</time>
      </trkpt>
      <trkpt lat="43.85791" lon="6.99901">
        <ele>695.65112</ele>
        <time>2009-03-22T12:44:00Z</time>
      </trkpt>
      <trkpt lat="43.85778" lon="6.99888">
        <ele>695.17041</ele>
        <time>2009-03-22T12:44:06Z</time>
      </trkpt>
      <trkpt lat="43.8576" lon="6.9988">
        <ele>696.61254</ele>
        <time>2009-03-22T12:44:13Z</time>
      </trkpt>
      <trkpt lat="43.8574" lon="6.99869">
        <ele>698.05444</ele>
        <time>2009-03-22T12:44:21Z</time>
      </trkpt>
      <trkpt lat="43.85723" lon="6.99853">
        <ele>699.49633</ele>
        <time>2009-03-22T12:44:29Z</time>
      </trkpt>
      <trkpt lat="43.85711" lon="6.99836">
        <ele>705.74511</ele>
        <time>2009-03-22T12:44:35Z</time>
      </trkpt>
      <trkpt lat="43.85714" lon="6.99818">
        <ele>703.82251</ele>
        <time>2009-03-22T12:44:41Z</time>
      </trkpt>
      <trkpt lat="43.85715" lon="6.99815">
        <ele>703.34179</ele>
        <time>2009-03-22T12:44:42Z</time>
      </trkpt>
      <trkpt lat="43.85729" lon="6.99792">
        <ele>701.41918</ele>
        <time>2009-03-22T12:44:50Z</time>
      </trkpt>
      <trkpt lat="43.85742" lon="6.99769">
        <ele>700.93847</ele>
        <time>2009-03-22T12:44:58Z</time>
      </trkpt>
      <trkpt lat="43.85752" lon="6.99747">
        <ele>700.93847</ele>
        <time>2009-03-22T12:45:06Z</time>
      </trkpt>
      <trkpt lat="43.85755" lon="6.99725">
        <ele>699.97705</ele>
        <time>2009-03-22T12:45:12Z</time>
      </trkpt>
      <trkpt lat="43.85749" lon="6.99705">
        <ele>700.458</ele>
        <time>2009-03-22T12:45:18Z</time>
      </trkpt>
      <trkpt lat="43.85737" lon="6.99685">
        <ele>701.41918</ele>
        <time>2009-03-22T12:45:25Z</time>
      </trkpt>
      <trkpt lat="43.85725" lon="6.99663">
        <ele>701.8999</ele>
        <time>2009-03-22T12:45:32Z</time>
      </trkpt>
      <trkpt lat="43.85713" lon="6.99648">
        <ele>697.57373</ele>
        <time>2009-03-22T12:45:38Z</time>
      </trkpt>
      <trkpt lat="43.85698" lon="6.99631">
        <ele>693.72851</ele>
        <time>2009-03-22T12:45:45Z</time>
      </trkpt>
      <trkpt lat="43.85691" lon="6.99611">
        <ele>690.84448</ele>
        <time>2009-03-22T12:45:51Z</time>
      </trkpt>
      <trkpt lat="43.85685" lon="6.99598">
        <ele>688.4414</ele>
        <time>2009-03-22T12:45:56Z</time>
      </trkpt>
      <trkpt lat="43.85676" lon="6.99594">
        <ele>689.40258</ele>
        <time>2009-03-22T12:46:01Z</time>
      </trkpt>
      <trkpt lat="43.85661" lon="6.99601">
        <ele>689.8833</ele>
        <time>2009-03-22T12:46:08Z</time>
      </trkpt>
      <trkpt lat="43.85646" lon="6.99603">
        <ele>690.84448</ele>
        <time>2009-03-22T12:46:15Z</time>
      </trkpt>
      <trkpt lat="43.8563" lon="6.99607">
        <ele>689.8833</ele>
        <time>2009-03-22T12:46:22Z</time>
      </trkpt>
      <trkpt lat="43.85617" lon="6.99614">
        <ele>688.92211</ele>
        <time>2009-03-22T12:46:29Z</time>
      </trkpt>
      <trkpt lat="43.85599" lon="6.99616">
        <ele>690.84448</ele>
        <time>2009-03-22T12:46:37Z</time>
      </trkpt>
      <trkpt lat="43.85583" lon="6.99615">
        <ele>692.28662</ele>
        <time>2009-03-22T12:46:44Z</time>
      </trkpt>
      <trkpt lat="43.85576" lon="6.99627">
        <ele>686.51879</ele>
        <time>2009-03-22T12:46:48Z</time>
      </trkpt>
      <trkpt lat="43.85566" lon="6.99654">
        <ele>675.46337</ele>
        <time>2009-03-22T12:46:57Z</time>
      </trkpt>
      <trkpt lat="43.8555" lon="6.99665">
        <ele>673.0603</ele>
        <time>2009-03-22T12:47:03Z</time>
      </trkpt>
      <trkpt lat="43.85531" lon="6.99665">
        <ele>674.50219</ele>
        <time>2009-03-22T12:47:09Z</time>
      </trkpt>
      <trkpt lat="43.85518" lon="6.99666">
        <ele>674.02148</ele>
        <time>2009-03-22T12:47:13Z</time>
      </trkpt>
      <trkpt lat="43.8551" lon="6.99681">
        <ele>672.57959</ele>
        <time>2009-03-22T12:47:18Z</time>
      </trkpt>
      <trkpt lat="43.85495" lon="6.99707">
        <ele>672.09887</ele>
        <time>2009-03-22T12:47:26Z</time>
      </trkpt>
      <trkpt lat="43.85478" lon="6.99713">
        <ele>671.61816</ele>
        <time>2009-03-22T12:47:31Z</time>
      </trkpt>
      <trkpt lat="43.8546" lon="6.99722">
        <ele>670.65698</ele>
        <time>2009-03-22T12:47:37Z</time>
      </trkpt>
      <trkpt lat="43.8544" lon="6.99736">
        <ele>669.6958</ele>
        <time>2009-03-22T12:47:44Z</time>
      </trkpt>
      <trkpt lat="43.85419" lon="6.99753">
        <ele>668.73437</ele>
        <time>2009-03-22T12:47:51Z</time>
      </trkpt>
      <trkpt lat="43.85399" lon="6.99768">
        <ele>669.21508</ele>
        <time>2009-03-22T12:47:58Z</time>
      </trkpt>
      <trkpt lat="43.85377" lon="6.99781">
        <ele>672.57959</ele>
        <time>2009-03-22T12:48:06Z</time>
      </trkpt>
      <trkpt lat="43.85374" lon="6.99782">
        <ele>673.54101</ele>
        <time>2009-03-22T12:48:07Z</time>
      </trkpt>
      <trkpt lat="43.85365" lon="6.99773">
        <ele>676.90551</ele>
        <time>2009-03-22T12:48:12Z</time>
      </trkpt>
      <trkpt lat="43.85361" lon="6.99771">
        <ele>678.34741</ele>
        <time>2009-03-22T12:48:14Z</time>
      </trkpt>
      <trkpt lat="43.85352" lon="6.99774">
        <ele>680.75073</ele>
        <time>2009-03-22T12:48:19Z</time>
      </trkpt>
      <trkpt lat="43.85334" lon="6.9977">
        <ele>685.0769</ele>
        <time>2009-03-22T12:48:28Z</time>
      </trkpt>
      <trkpt lat="43.85319" lon="6.99764">
        <ele>687.96069</ele>
        <time>2009-03-22T12:48:36Z</time>
      </trkpt>
      <trkpt lat="43.85304" lon="6.99758">
        <ele>692.28662</ele>
        <time>2009-03-22T12:48:44Z</time>
      </trkpt>
      <trkpt lat="43.85294" lon="6.99754">
        <ele>694.68969</ele>
        <time>2009-03-22T12:48:50Z</time>
      </trkpt>
      <trkpt lat="43.85291" lon="6.99753">
        <ele>696.13183</ele>
        <time>2009-03-22T12:48:55Z</time>
      </trkpt>
      <trkpt lat="43.8529" lon="6.99748">
        <ele>702.86108</ele>
        <time>2009-03-22T12:49:08Z</time>
      </trkpt>
      <trkpt lat="43.85302" lon="6.99743">
        <ele>716.80029</ele>
        <time>2009-03-22T12:49:27Z</time>
      </trkpt>
      <trkpt lat="43.85302" lon="6.99741">
        <ele>710.0708</ele>
        <time>2009-03-22T12:49:40Z</time>
      </trkpt>
      <trkpt lat="43.8529" lon="6.99736">
        <ele>708.14843</ele>
        <time>2009-03-22T12:49:46Z</time>
      </trkpt>
      <trkpt lat="43.85268" lon="6.99727">
        <ele>711.51293</ele>
        <time>2009-03-22T12:49:58Z</time>
      </trkpt>
      <trkpt lat="43.85255" lon="6.99717">
        <ele>713.91601</ele>
        <time>2009-03-22T12:50:06Z</time>
      </trkpt>
      <trkpt lat="43.85246" lon="6.99707">
        <ele>714.39672</ele>
        <time>2009-03-22T12:50:13Z</time>
      </trkpt>
      <trkpt lat="43.85235" lon="6.99692">
        <ele>711.51293</ele>
        <time>2009-03-22T12:50:21Z</time>
      </trkpt>
      <trkpt lat="43.85222" lon="6.99683">
        <ele>715.83886</ele>
        <time>2009-03-22T12:50:28Z</time>
      </trkpt>
      <trkpt lat="43.85205" lon="6.99675">
        <ele>720.6455</ele>
        <time>2009-03-22T12:50:38Z</time>
      </trkpt>
      <trkpt lat="43.85195" lon="6.99664">
        <ele>721.12622</ele>
        <time>2009-03-22T12:50:45Z</time>
      </trkpt>
      <trkpt lat="43.85193" lon="6.99651">
        <ele>721.12622</ele>
        <time>2009-03-22T12:50:51Z</time>
      </trkpt>
      <trkpt lat="43.85198" lon="6.99631">
        <ele>720.16479</ele>
        <time>2009-03-22T12:51:00Z</time>
      </trkpt>
      <trkpt lat="43.85205" lon="6.99611">
        <ele>721.12622</ele>
        <time>2009-03-22T12:51:08Z</time>
      </trkpt>
      <trkpt lat="43.85209" lon="6.99594">
        <ele>721.12622</ele>
        <time>2009-03-22T12:51:16Z</time>
      </trkpt>
      <trkpt lat="43.85216" lon="6.99575">
        <ele>721.60668</ele>
        <time>2009-03-22T12:51:25Z</time>
      </trkpt>
      <trkpt lat="43.8522" lon="6.99551">
        <ele>724.49072</ele>
        <time>2009-03-22T12:51:35Z</time>
      </trkpt>
      <trkpt lat="43.85216" lon="6.99535">
        <ele>726.41333</ele>
        <time>2009-03-22T12:51:42Z</time>
      </trkpt>
      <trkpt lat="43.8521" lon="6.99512">
        <ele>729.77783</ele>
        <time>2009-03-22T12:51:52Z</time>
      </trkpt>
      <trkpt lat="43.85205" lon="6.99495">
        <ele>730.73925</ele>
        <time>2009-03-22T12:52:00Z</time>
      </trkpt>
      <trkpt lat="43.85202" lon="6.99483">
        <ele>731.70043</ele>
        <time>2009-03-22T12:52:05Z</time>
      </trkpt>
      <trkpt lat="43.85196" lon="6.99468">
        <ele>735.06543</ele>
        <time>2009-03-22T12:52:13Z</time>
      </trkpt>
      <trkpt lat="43.85187" lon="6.99456">
        <ele>740.833</ele>
        <time>2009-03-22T12:52:23Z</time>
      </trkpt>
      <trkpt lat="43.85178" lon="6.99449">
        <ele>741.79443</ele>
        <time>2009-03-22T12:52:31Z</time>
      </trkpt>
      <trkpt lat="43.85168" lon="6.99437">
        <ele>742.27514</ele>
        <time>2009-03-22T12:52:40Z</time>
      </trkpt>
      <trkpt lat="43.85162" lon="6.99424">
        <ele>742.75585</ele>
        <time>2009-03-22T12:52:48Z</time>
      </trkpt>
      <trkpt lat="43.8516" lon="6.99415">
        <ele>744.19775</ele>
        <time>2009-03-22T12:52:54Z</time>
      </trkpt>
      <trkpt lat="43.85157" lon="6.99401">
        <ele>748.52368</ele>
        <time>2009-03-22T12:53:01Z</time>
      </trkpt>
      <trkpt lat="43.85152" lon="6.99387">
        <ele>748.52368</ele>
        <time>2009-03-22T12:53:07Z</time>
      </trkpt>
      <trkpt lat="43.85148" lon="6.99378">
        <ele>748.04321</ele>
        <time>2009-03-22T12:53:11Z</time>
      </trkpt>
      <trkpt lat="43.85147" lon="6.99367">
        <ele>749.00439</ele>
        <time>2009-03-22T12:53:16Z</time>
      </trkpt>
      <trkpt lat="43.85144" lon="6.99358">
        <ele>748.04321</ele>
        <time>2009-03-22T12:53:21Z</time>
      </trkpt>
      <trkpt lat="43.85149" lon="6.9934">
        <ele>749.00439</ele>
        <time>2009-03-22T12:53:29Z</time>
      </trkpt>
      <trkpt lat="43.85156" lon="6.99324">
        <ele>750.927</ele>
        <time>2009-03-22T12:53:37Z</time>
      </trkpt>
      <trkpt lat="43.85162" lon="6.99304">
        <ele>751.40771</ele>
        <time>2009-03-22T12:53:46Z</time>
      </trkpt>
      <trkpt lat="43.85168" lon="6.99284">
        <ele>752.36889</ele>
        <time>2009-03-22T12:53:56Z</time>
      </trkpt>
      <trkpt lat="43.85174" lon="6.99267">
        <ele>752.8496</ele>
        <time>2009-03-22T12:54:04Z</time>
      </trkpt>
      <trkpt lat="43.85181" lon="6.9925">
        <ele>752.8496</ele>
        <time>2009-03-22T12:54:12Z</time>
      </trkpt>
      <trkpt lat="43.85184" lon="6.99232">
        <ele>752.36889</ele>
        <time>2009-03-22T12:54:21Z</time>
      </trkpt>
      <trkpt lat="43.85185" lon="6.99228">
        <ele>752.36889</ele>
        <time>2009-03-22T12:54:23Z</time>
      </trkpt>
      <trkpt lat="43.85182" lon="6.99217">
        <ele>752.8496</ele>
        <time>2009-03-22T12:54:29Z</time>
      </trkpt>
      <trkpt lat="43.85176" lon="6.99197">
        <ele>753.81103</ele>
        <time>2009-03-22T12:54:40Z</time>
      </trkpt>
      <trkpt lat="43.85173" lon="6.99177">
        <ele>756.21411</ele>
        <time>2009-03-22T12:54:50Z</time>
      </trkpt>
      <trkpt lat="43.85167" lon="6.9916">
        <ele>756.21411</ele>
        <time>2009-03-22T12:54:59Z</time>
      </trkpt>
      <trkpt lat="43.8516" lon="6.99146">
        <ele>757.17553</ele>
        <time>2009-03-22T12:55:07Z</time>
      </trkpt>
      <trkpt lat="43.85151" lon="6.99136">
        <ele>759.09814</ele>
        <time>2009-03-22T12:55:15Z</time>
      </trkpt>
      <trkpt lat="43.85144" lon="6.99123">
        <ele>761.98217</ele>
        <time>2009-03-22T12:55:23Z</time>
      </trkpt>
      <trkpt lat="43.85134" lon="6.99108">
        <ele>761.50146</ele>
        <time>2009-03-22T12:55:31Z</time>
      </trkpt>
      <trkpt lat="43.85122" lon="6.99095">
        <ele>759.09814</ele>
        <time>2009-03-22T12:55:39Z</time>
      </trkpt>
      <trkpt lat="43.85114" lon="6.99085">
        <ele>754.77221</ele>
        <time>2009-03-22T12:55:46Z</time>
      </trkpt>
      <trkpt lat="43.85113" lon="6.99081">
        <ele>756.21411</ele>
        <time>2009-03-22T12:55:48Z</time>
      </trkpt>
      <trkpt lat="43.85109" lon="6.99074">
        <ele>756.21411</ele>
        <time>2009-03-22T12:55:52Z</time>
      </trkpt>
      <trkpt lat="43.8511" lon="6.99059">
        <ele>759.57885</ele>
        <time>2009-03-22T12:55:59Z</time>
      </trkpt>
      <trkpt lat="43.8511" lon="6.99057">
        <ele>759.57885</ele>
        <time>2009-03-22T12:56:00Z</time>
      </trkpt>
      <trkpt lat="43.85114" lon="6.99041">
        <ele>763.90454</ele>
        <time>2009-03-22T12:56:08Z</time>
      </trkpt>
      <trkpt lat="43.85118" lon="6.9903">
        <ele>767.26953</ele>
        <time>2009-03-22T12:56:14Z</time>
      </trkpt>
      <trkpt lat="43.85119" lon="6.99009">
        <ele>767.75</ele>
        <time>2009-03-22T12:56:23Z</time>
      </trkpt>
      <trkpt lat="43.85119" lon="6.98995">
        <ele>768.23071</ele>
        <time>2009-03-22T12:56:29Z</time>
      </trkpt>
      <trkpt lat="43.85123" lon="6.98981">
        <ele>770.15332</ele>
        <time>2009-03-22T12:56:36Z</time>
      </trkpt>
      <trkpt lat="43.85124" lon="6.98977">
        <ele>771.11474</ele>
        <time>2009-03-22T12:56:38Z</time>
      </trkpt>
      <trkpt lat="43.85126" lon="6.98969">
        <ele>773.99853</ele>
        <time>2009-03-22T12:56:42Z</time>
      </trkpt>
      <trkpt lat="43.85133" lon="6.98951">
        <ele>776.88256</ele>
        <time>2009-03-22T12:56:52Z</time>
      </trkpt>
      <trkpt lat="43.85144" lon="6.98943">
        <ele>778.32446</ele>
        <time>2009-03-22T12:57:00Z</time>
      </trkpt>
      <trkpt lat="43.85152" lon="6.98937">
        <ele>779.28564</ele>
        <time>2009-03-22T12:57:05Z</time>
      </trkpt>
      <trkpt lat="43.85154" lon="6.98937">
        <ele>779.28564</ele>
        <time>2009-03-22T12:57:06Z</time>
      </trkpt>
      <trkpt lat="43.85156" lon="6.98924">
        <ele>780.24731</ele>
        <time>2009-03-22T12:57:13Z</time>
      </trkpt>
      <trkpt lat="43.85154" lon="6.98921">
        <ele>779.76635</ele>
        <time>2009-03-22T12:57:15Z</time>
      </trkpt>
      <trkpt lat="43.85148" lon="6.9892">
        <ele>779.76635</ele>
        <time>2009-03-22T12:57:20Z</time>
      </trkpt>
      <trkpt lat="43.85139" lon="6.98924">
        <ele>781.20874</ele>
        <time>2009-03-22T12:57:27Z</time>
      </trkpt>
      <trkpt lat="43.85133" lon="6.98932">
        <ele>784.57324</ele>
        <time>2009-03-22T12:57:34Z</time>
      </trkpt>
      <trkpt lat="43.85127" lon="6.98944">
        <ele>789.37963</ele>
        <time>2009-03-22T12:57:42Z</time>
      </trkpt>
      <trkpt lat="43.85124" lon="6.98955">
        <ele>793.22485</ele>
        <time>2009-03-22T12:57:49Z</time>
      </trkpt>
      <trkpt lat="43.85122" lon="6.98961">
        <ele>798.03173</ele>
        <time>2009-03-22T12:57:54Z</time>
      </trkpt>
      <trkpt lat="43.85122" lon="6.98967">
        <ele>801.39624</ele>
        <time>2009-03-22T12:57:59Z</time>
      </trkpt>
      <trkpt lat="43.85116" lon="6.98976">
        <ele>799.95434</ele>
        <time>2009-03-22T12:58:05Z</time>
      </trkpt>
      <trkpt lat="43.85113" lon="6.9899">
        <ele>800.43505</ele>
        <time>2009-03-22T12:58:11Z</time>
      </trkpt>
      <trkpt lat="43.85109" lon="6.99004">
        <ele>803.31884</ele>
        <time>2009-03-22T12:58:18Z</time>
      </trkpt>
      <trkpt lat="43.85104" lon="6.99017">
        <ele>803.31884</ele>
        <time>2009-03-22T12:58:25Z</time>
      </trkpt>
      <trkpt lat="43.851" lon="6.9903">
        <ele>804.76074</ele>
        <time>2009-03-22T12:58:32Z</time>
      </trkpt>
      <trkpt lat="43.85096" lon="6.99038">
        <ele>804.76074</ele>
        <time>2009-03-22T12:58:37Z</time>
      </trkpt>
      <trkpt lat="43.85095" lon="6.9905">
        <ele>808.60595</ele>
        <time>2009-03-22T12:58:43Z</time>
      </trkpt>
      <trkpt lat="43.85093" lon="6.99063">
        <ele>811.9707</ele>
        <time>2009-03-22T12:58:50Z</time>
      </trkpt>
      <trkpt lat="43.8509" lon="6.99072">
        <ele>811.9707</ele>
        <time>2009-03-22T12:58:56Z</time>
      </trkpt>
      <trkpt lat="43.85089" lon="6.99075">
        <ele>811.48999</ele>
        <time>2009-03-22T12:58:57Z</time>
      </trkpt>
      <trkpt lat="43.85086" lon="6.99089">
        <ele>809.56738</ele>
        <time>2009-03-22T12:59:04Z</time>
      </trkpt>
      <trkpt lat="43.85085" lon="6.99104">
        <ele>813.41284</ele>
        <time>2009-03-22T12:59:12Z</time>
      </trkpt>
      <trkpt lat="43.8509" lon="6.99116">
        <ele>818.69995</ele>
        <time>2009-03-22T12:59:18Z</time>
      </trkpt>
      <trkpt lat="43.85097" lon="6.99135">
        <ele>823.50659</ele>
        <time>2009-03-22T12:59:27Z</time>
      </trkpt>
      <trkpt lat="43.85097" lon="6.99148">
        <ele>823.02587</ele>
        <time>2009-03-22T12:59:35Z</time>
      </trkpt>
      <trkpt lat="43.85099" lon="6.99162">
        <ele>823.02587</ele>
        <time>2009-03-22T12:59:42Z</time>
      </trkpt>
      <trkpt lat="43.85103" lon="6.99178">
        <ele>825.90966</ele>
        <time>2009-03-22T12:59:50Z</time>
      </trkpt>
      <trkpt lat="43.85112" lon="6.99201">
        <ele>826.87109</ele>
        <time>2009-03-22T12:59:59Z</time>
      </trkpt>
      <trkpt lat="43.85113" lon="6.99207">
        <ele>826.39038</ele>
        <time>2009-03-22T13:00:02Z</time>
      </trkpt>
      <trkpt lat="43.85112" lon="6.99217">
        <ele>826.39038</ele>
        <time>2009-03-22T13:00:07Z</time>
      </trkpt>
      <trkpt lat="43.85105" lon="6.99234">
        <ele>826.39038</ele>
        <time>2009-03-22T13:00:16Z</time>
      </trkpt>
      <trkpt lat="43.85093" lon="6.99242">
        <ele>823.02587</ele>
        <time>2009-03-22T13:00:24Z</time>
      </trkpt>
      <trkpt lat="43.85082" lon="6.99246">
        <ele>821.10327</ele>
        <time>2009-03-22T13:00:31Z</time>
      </trkpt>
      <trkpt lat="43.85072" lon="6.99254">
        <ele>822.54516</ele>
        <time>2009-03-22T13:00:40Z</time>
      </trkpt>
      <trkpt lat="43.85068" lon="6.99262">
        <ele>823.98706</ele>
        <time>2009-03-22T13:00:46Z</time>
      </trkpt>
      <trkpt lat="43.85064" lon="6.99271">
        <ele>825.42895</ele>
        <time>2009-03-22T13:00:52Z</time>
      </trkpt>
      <trkpt lat="43.85064" lon="6.99273">
        <ele>825.42895</ele>
        <time>2009-03-22T13:00:53Z</time>
      </trkpt>
      <trkpt lat="43.85058" lon="6.99287">
        <ele>829.27441</ele>
        <time>2009-03-22T13:01:02Z</time>
      </trkpt>
      <trkpt lat="43.85054" lon="6.99298">
        <ele>830.71655</ele>
        <time>2009-03-22T13:01:09Z</time>
      </trkpt>
      <trkpt lat="43.85049" lon="6.99311">
        <ele>831.67773</ele>
        <time>2009-03-22T13:01:17Z</time>
      </trkpt>
      <trkpt lat="43.85046" lon="6.99321">
        <ele>833.11962</ele>
        <time>2009-03-22T13:01:23Z</time>
      </trkpt>
      <trkpt lat="43.85041" lon="6.99334">
        <ele>834.08105</ele>
        <time>2009-03-22T13:01:31Z</time>
      </trkpt>
      <trkpt lat="43.85037" lon="6.99352">
        <ele>833.60034</ele>
        <time>2009-03-22T13:01:40Z</time>
      </trkpt>
      <trkpt lat="43.85034" lon="6.99366">
        <ele>832.15844</ele>
        <time>2009-03-22T13:01:47Z</time>
      </trkpt>
      <trkpt lat="43.85034" lon="6.99368">
        <ele>834.56176</ele>
        <time>2009-03-22T13:01:49Z</time>
      </trkpt>
      <trkpt lat="43.85031" lon="6.99373">
        <ele>834.56176</ele>
        <time>2009-03-22T13:01:52Z</time>
      </trkpt>
      <trkpt lat="43.8503" lon="6.99386">
        <ele>834.08105</ele>
        <time>2009-03-22T13:01:59Z</time>
      </trkpt>
      <trkpt lat="43.85033" lon="6.99406">
        <ele>836.48437</ele>
        <time>2009-03-22T13:02:09Z</time>
      </trkpt>
      <trkpt lat="43.85038" lon="6.9942">
        <ele>840.81005</ele>
        <time>2009-03-22T13:02:16Z</time>
      </trkpt>
      <trkpt lat="43.85038" lon="6.99422">
        <ele>841.29077</ele>
        <time>2009-03-22T13:02:17Z</time>
      </trkpt>
      <trkpt lat="43.85033" lon="6.99436">
        <ele>840.32959</ele>
        <time>2009-03-22T13:02:25Z</time>
      </trkpt>
      <trkpt lat="43.8503" lon="6.99449">
        <ele>838.88769</ele>
        <time>2009-03-22T13:02:31Z</time>
      </trkpt>
      <trkpt lat="43.85028" lon="6.99464">
        <ele>839.84887</ele>
        <time>2009-03-22T13:02:40Z</time>
      </trkpt>
      <trkpt lat="43.85028" lon="6.99479">
        <ele>841.77148</ele>
        <time>2009-03-22T13:02:48Z</time>
      </trkpt>
      <trkpt lat="43.85029" lon="6.99494">
        <ele>844.17504</ele>
        <time>2009-03-22T13:02:57Z</time>
      </trkpt>
      <trkpt lat="43.85033" lon="6.99508">
        <ele>845.61694</ele>
        <time>2009-03-22T13:03:04Z</time>
      </trkpt>
      <trkpt lat="43.85037" lon="6.99517">
        <ele>848.02026</ele>
        <time>2009-03-22T13:03:10Z</time>
      </trkpt>
      <trkpt lat="43.85041" lon="6.99528">
        <ele>849.46215</ele>
        <time>2009-03-22T13:03:17Z</time>
      </trkpt>
      <trkpt lat="43.85039" lon="6.99534">
        <ele>848.98144</ele>
        <time>2009-03-22T13:03:21Z</time>
      </trkpt>
      <trkpt lat="43.85035" lon="6.99535">
        <ele>848.50073</ele>
        <time>2009-03-22T13:03:24Z</time>
      </trkpt>
      <trkpt lat="43.8503" lon="6.9953">
        <ele>847.05883</ele>
        <time>2009-03-22T13:03:28Z</time>
      </trkpt>
      <trkpt lat="43.85022" lon="6.99509">
        <ele>842.25219</ele>
        <time>2009-03-22T13:03:39Z</time>
      </trkpt>
      <trkpt lat="43.85018" lon="6.99495">
        <ele>839.84887</ele>
        <time>2009-03-22T13:03:46Z</time>
      </trkpt>
      <trkpt lat="43.85012" lon="6.99479">
        <ele>837.44555</ele>
        <time>2009-03-22T13:03:53Z</time>
      </trkpt>
      <trkpt lat="43.85006" lon="6.99465">
        <ele>836.48437</ele>
        <time>2009-03-22T13:04:00Z</time>
      </trkpt>
      <trkpt lat="43.85002" lon="6.99451">
        <ele>836.96484</ele>
        <time>2009-03-22T13:04:06Z</time>
      </trkpt>
      <trkpt lat="43.84998" lon="6.99428">
        <ele>837.44555</ele>
        <time>2009-03-22T13:04:16Z</time>
      </trkpt>
      <trkpt lat="43.84996" lon="6.99411">
        <ele>839.84887</ele>
        <time>2009-03-22T13:04:24Z</time>
      </trkpt>
      <trkpt lat="43.84993" lon="6.99396">
        <ele>840.81005</ele>
        <time>2009-03-22T13:04:31Z</time>
      </trkpt>
      <trkpt lat="43.84991" lon="6.99382">
        <ele>842.73291</ele>
        <time>2009-03-22T13:04:39Z</time>
      </trkpt>
      <trkpt lat="43.84991" lon="6.99371">
        <ele>842.73291</ele>
        <time>2009-03-22T13:04:45Z</time>
      </trkpt>
      <trkpt lat="43.8499" lon="6.99369">
        <ele>842.25219</ele>
        <time>2009-03-22T13:04:46Z</time>
      </trkpt>
      <trkpt lat="43.84992" lon="6.99348">
        <ele>844.65551</ele>
        <time>2009-03-22T13:04:55Z</time>
      </trkpt>
      <trkpt lat="43.84991" lon="6.99341">
        <ele>844.65551</ele>
        <time>2009-03-22T13:04:58Z</time>
      </trkpt>
      <trkpt lat="43.84991" lon="6.99333">
        <ele>845.61694</ele>
        <time>2009-03-22T13:05:02Z</time>
      </trkpt>
      <trkpt lat="43.84991" lon="6.99316">
        <ele>845.61694</ele>
        <time>2009-03-22T13:05:10Z</time>
      </trkpt>
      <trkpt lat="43.84993" lon="6.99298">
        <ele>847.53955</ele>
        <time>2009-03-22T13:05:18Z</time>
      </trkpt>
      <trkpt lat="43.84995" lon="6.99273">
        <ele>850.42358</ele>
        <time>2009-03-22T13:05:30Z</time>
      </trkpt>
      <trkpt lat="43.84998" lon="6.99252">
        <ele>851.38476</ele>
        <time>2009-03-22T13:05:40Z</time>
      </trkpt>
      <trkpt lat="43.85001" lon="6.99236">
        <ele>853.30737</ele>
        <time>2009-03-22T13:05:48Z</time>
      </trkpt>
      <trkpt lat="43.85004" lon="6.9922">
        <ele>855.71069</ele>
        <time>2009-03-22T13:05:56Z</time>
      </trkpt>
      <trkpt lat="43.85008" lon="6.99196">
        <ele>857.15258</ele>
        <time>2009-03-22T13:06:07Z</time>
      </trkpt>
      <trkpt lat="43.85008" lon="6.99181">
        <ele>857.6333</ele>
        <time>2009-03-22T13:06:15Z</time>
      </trkpt>
      <trkpt lat="43.85005" lon="6.99169">
        <ele>859.5559</ele>
        <time>2009-03-22T13:06:21Z</time>
      </trkpt>
      <trkpt lat="43.85001" lon="6.99154">
        <ele>861.95947</ele>
        <time>2009-03-22T13:06:28Z</time>
      </trkpt>
      <trkpt lat="43.84999" lon="6.99137">
        <ele>864.84326</ele>
        <time>2009-03-22T13:06:36Z</time>
      </trkpt>
      <trkpt lat="43.84996" lon="6.99119">
        <ele>864.84326</ele>
        <time>2009-03-22T13:06:45Z</time>
      </trkpt>
      <trkpt lat="43.84996" lon="6.99104">
        <ele>864.84326</ele>
        <time>2009-03-22T13:06:53Z</time>
      </trkpt>
      <trkpt lat="43.84994" lon="6.99094">
        <ele>863.40136</ele>
        <time>2009-03-22T13:06:58Z</time>
      </trkpt>
      <trkpt lat="43.84993" lon="6.99088">
        <ele>863.40136</ele>
        <time>2009-03-22T13:07:01Z</time>
      </trkpt>
      <trkpt lat="43.84989" lon="6.99077">
        <ele>864.36254</ele>
        <time>2009-03-22T13:07:06Z</time>
      </trkpt>
      <trkpt lat="43.8499" lon="6.99052">
        <ele>864.36254</ele>
        <time>2009-03-22T13:07:18Z</time>
      </trkpt>
      <trkpt lat="43.84992" lon="6.99033">
        <ele>864.36254</ele>
        <time>2009-03-22T13:07:27Z</time>
      </trkpt>
      <trkpt lat="43.84996" lon="6.99012">
        <ele>866.28515</ele>
        <time>2009-03-22T13:07:36Z</time>
      </trkpt>
      <trkpt lat="43.84998" lon="6.98997">
        <ele>867.72705</ele>
        <time>2009-03-22T13:07:43Z</time>
      </trkpt>
      <trkpt lat="43.85" lon="6.98979">
        <ele>869.16918</ele>
        <time>2009-03-22T13:07:51Z</time>
      </trkpt>
      <trkpt lat="43.85002" lon="6.98957">
        <ele>869.6499</ele>
        <time>2009-03-22T13:08:00Z</time>
      </trkpt>
      <trkpt lat="43.85004" lon="6.98941">
        <ele>870.13037</ele>
        <time>2009-03-22T13:08:07Z</time>
      </trkpt>
      <trkpt lat="43.85007" lon="6.98921">
        <ele>870.61108</ele>
        <time>2009-03-22T13:08:16Z</time>
      </trkpt>
      <trkpt lat="43.85011" lon="6.98903">
        <ele>872.05297</ele>
        <time>2009-03-22T13:08:25Z</time>
      </trkpt>
      <trkpt lat="43.85018" lon="6.98885">
        <ele>873.49511</ele>
        <time>2009-03-22T13:08:35Z</time>
      </trkpt>
      <trkpt lat="43.85023" lon="6.98867">
        <ele>874.45629</ele>
        <time>2009-03-22T13:08:44Z</time>
      </trkpt>
      <trkpt lat="43.85028" lon="6.98848">
        <ele>875.89819</ele>
        <time>2009-03-22T13:08:53Z</time>
      </trkpt>
      <trkpt lat="43.85033" lon="6.98832">
        <ele>877.82104</ele>
        <time>2009-03-22T13:09:01Z</time>
      </trkpt>
      <trkpt lat="43.85034" lon="6.98816">
        <ele>878.78247</ele>
        <time>2009-03-22T13:09:08Z</time>
      </trkpt>
      <trkpt lat="43.85032" lon="6.98799">
        <ele>879.74365</ele>
        <time>2009-03-22T13:09:15Z</time>
      </trkpt>
      <trkpt lat="43.8503" lon="6.98781">
        <ele>881.66626</ele>
        <time>2009-03-22T13:09:23Z</time>
      </trkpt>
      <trkpt lat="43.85028" lon="6.98763">
        <ele>885.51147</ele>
        <time>2009-03-22T13:09:31Z</time>
      </trkpt>
      <trkpt lat="43.85024" lon="6.98744">
        <ele>885.99218</ele>
        <time>2009-03-22T13:09:39Z</time>
      </trkpt>
      <trkpt lat="43.85024" lon="6.98729">
        <ele>889.35668</ele>
        <time>2009-03-22T13:09:46Z</time>
      </trkpt>
      <trkpt lat="43.85024" lon="6.98714">
        <ele>890.79858</ele>
        <time>2009-03-22T13:09:53Z</time>
      </trkpt>
      <trkpt lat="43.85022" lon="6.98698">
        <ele>893.20214</ele>
        <time>2009-03-22T13:10:01Z</time>
      </trkpt>
      <trkpt lat="43.85022" lon="6.9869">
        <ele>895.12475</ele>
        <time>2009-03-22T13:10:05Z</time>
      </trkpt>
      <trkpt lat="43.85013" lon="6.98686">
        <ele>899.45068</ele>
        <time>2009-03-22T13:10:13Z</time>
      </trkpt>
      <trkpt lat="43.85009" lon="6.98686">
        <ele>900.4121</ele>
        <time>2009-03-22T13:10:16Z</time>
      </trkpt>
      <trkpt lat="43.85004" lon="6.98689">
        <ele>902.33447</ele>
        <time>2009-03-22T13:10:21Z</time>
      </trkpt>
      <trkpt lat="43.85003" lon="6.98688">
        <ele>903.77661</ele>
        <time>2009-03-22T13:10:28Z</time>
      </trkpt>
      <trkpt lat="43.85004" lon="6.98688">
        <ele>901.854</ele>
        <time>2009-03-22T13:13:41Z</time>
      </trkpt>
      <trkpt lat="43.85005" lon="6.98689">
        <ele>899.45068</ele>
        <time>2009-03-22T13:14:18Z</time>
      </trkpt>
      <trkpt lat="43.85007" lon="6.98691">
        <ele>895.60546</ele>
        <time>2009-03-22T13:18:07Z</time>
      </trkpt>
      <trkpt lat="43.85008" lon="6.98693">
        <ele>897.52807</ele>
        <time>2009-03-22T13:19:25Z</time>
      </trkpt>
      <trkpt lat="43.85007" lon="6.98694">
        <ele>898.96997</ele>
        <time>2009-03-22T13:19:41Z</time>
      </trkpt>
      <trkpt lat="43.85007" lon="6.98695">
        <ele>899.45068</ele>
        <time>2009-03-22T13:19:49Z</time>
      </trkpt>
      <trkpt lat="43.84997" lon="6.98703">
        <ele>902.81518</ele>
        <time>2009-03-22T13:19:54Z</time>
      </trkpt>
      <trkpt lat="43.84994" lon="6.98705">
        <ele>902.81518</ele>
        <time>2009-03-22T13:19:55Z</time>
      </trkpt>
      <trkpt lat="43.84989" lon="6.98705">
        <ele>903.77661</ele>
        <time>2009-03-22T13:20:00Z</time>
      </trkpt>
      <trkpt lat="43.84988" lon="6.98699">
        <ele>906.17968</ele>
        <time>2009-03-22T13:20:42Z</time>
      </trkpt>
      <trkpt lat="43.8498" lon="6.98709">
        <ele>907.14111</ele>
        <time>2009-03-22T13:20:47Z</time>
      </trkpt>
      <trkpt lat="43.84956" lon="6.98731">
        <ele>901.854</ele>
        <time>2009-03-22T13:20:52Z</time>
      </trkpt>
      <trkpt lat="43.84938" lon="6.98752">
        <ele>894.16357</ele>
        <time>2009-03-22T13:20:55Z</time>
      </trkpt>
      <trkpt lat="43.84922" lon="6.98776">
        <ele>887.43408</ele>
        <time>2009-03-22T13:20:58Z</time>
      </trkpt>
      <trkpt lat="43.84899" lon="6.98821">
        <ele>879.26293</ele>
        <time>2009-03-22T13:21:03Z</time>
      </trkpt>
      <trkpt lat="43.84873" lon="6.98847">
        <ele>875.89819</ele>
        <time>2009-03-22T13:21:08Z</time>
      </trkpt>
      <trkpt lat="43.84868" lon="6.98851">
        <ele>875.41748</ele>
        <time>2009-03-22T13:21:09Z</time>
      </trkpt>
      <trkpt lat="43.84853" lon="6.98873">
        <ele>873.49511</ele>
        <time>2009-03-22T13:21:13Z</time>
      </trkpt>
      <trkpt lat="43.84834" lon="6.98885">
        <ele>877.34057</ele>
        <time>2009-03-22T13:21:17Z</time>
      </trkpt>
      <trkpt lat="43.84815" lon="6.98898">
        <ele>878.78247</ele>
        <time>2009-03-22T13:21:21Z</time>
      </trkpt>
      <trkpt lat="43.848" lon="6.98923">
        <ele>879.74365</ele>
        <time>2009-03-22T13:21:25Z</time>
      </trkpt>
      <trkpt lat="43.84787" lon="6.98975">
        <ele>879.74365</ele>
        <time>2009-03-22T13:21:32Z</time>
      </trkpt>
      <trkpt lat="43.84775" lon="6.98999">
        <ele>881.18579</ele>
        <time>2009-03-22T13:21:38Z</time>
      </trkpt>
      <trkpt lat="43.84761" lon="6.99013">
        <ele>890.31811</ele>
        <time>2009-03-22T13:21:45Z</time>
      </trkpt>
      <trkpt lat="43.8475" lon="6.99023">
        <ele>895.60546</ele>
        <time>2009-03-22T13:21:51Z</time>
      </trkpt>
      <trkpt lat="43.84738" lon="6.99034">
        <ele>898.00878</ele>
        <time>2009-03-22T13:21:57Z</time>
      </trkpt>
      <trkpt lat="43.84731" lon="6.99053">
        <ele>897.52807</ele>
        <time>2009-03-22T13:22:02Z</time>
      </trkpt>
      <trkpt lat="43.8473" lon="6.99064">
        <ele>897.04736</ele>
        <time>2009-03-22T13:22:04Z</time>
      </trkpt>
      <trkpt lat="43.84722" lon="6.99097">
        <ele>895.60546</ele>
        <time>2009-03-22T13:22:08Z</time>
      </trkpt>
      <trkpt lat="43.847" lon="6.99149">
        <ele>895.60546</ele>
        <time>2009-03-22T13:22:14Z</time>
      </trkpt>
      <trkpt lat="43.84684" lon="6.99178">
        <ele>895.60546</ele>
        <time>2009-03-22T13:22:18Z</time>
      </trkpt>
      <trkpt lat="43.84674" lon="6.99189">
        <ele>897.52807</ele>
        <time>2009-03-22T13:22:20Z</time>
      </trkpt>
      <trkpt lat="43.84644" lon="6.99213">
        <ele>896.08618</ele>
        <time>2009-03-22T13:22:26Z</time>
      </trkpt>
      <trkpt lat="43.84631" lon="6.99239">
        <ele>893.20214</ele>
        <time>2009-03-22T13:22:30Z</time>
      </trkpt>
      <trkpt lat="43.84616" lon="6.99287">
        <ele>886.95336</ele>
        <time>2009-03-22T13:22:36Z</time>
      </trkpt>
      <trkpt lat="43.84604" lon="6.99319">
        <ele>882.14697</ele>
        <time>2009-03-22T13:22:40Z</time>
      </trkpt>
      <trkpt lat="43.8458" lon="6.99363">
        <ele>874.93701</ele>
        <time>2009-03-22T13:22:46Z</time>
      </trkpt>
      <trkpt lat="43.84576" lon="6.99371">
        <ele>874.93701</ele>
        <time>2009-03-22T13:22:47Z</time>
      </trkpt>
      <trkpt lat="43.84551" lon="6.99391">
        <ele>873.97558</ele>
        <time>2009-03-22T13:22:51Z</time>
      </trkpt>
      <trkpt lat="43.84542" lon="6.99389">
        <ele>873.0144</ele>
        <time>2009-03-22T13:22:52Z</time>
      </trkpt>
      <trkpt lat="43.84526" lon="6.99385">
        <ele>871.57226</ele>
        <time>2009-03-22T13:22:54Z</time>
      </trkpt>
      <trkpt lat="43.84505" lon="6.99375">
        <ele>870.61108</ele>
        <time>2009-03-22T13:22:58Z</time>
      </trkpt>
      <trkpt lat="43.84502" lon="6.99374">
        <ele>871.57226</ele>
        <time>2009-03-22T13:22:59Z</time>
      </trkpt>
      <trkpt lat="43.84499" lon="6.99375">
        <ele>872.53369</ele>
        <time>2009-03-22T13:23:04Z</time>
      </trkpt>
      <trkpt lat="43.84501" lon="6.99376">
        <ele>874.93701</ele>
        <time>2009-03-22T13:23:27Z</time>
      </trkpt>
      <trkpt lat="43.84499" lon="6.99365">
        <ele>873.0144</ele>
        <time>2009-03-22T13:24:31Z</time>
      </trkpt>
      <trkpt lat="43.84505" lon="6.99355">
        <ele>883.10815</ele>
        <time>2009-03-22T13:24:56Z</time>
      </trkpt>
      <trkpt lat="43.84503" lon="6.99358">
        <ele>881.66626</ele>
        <time>2009-03-22T13:26:11Z</time>
      </trkpt>
      <trkpt lat="43.84506" lon="6.99361">
        <ele>887.43408</ele>
        <time>2009-03-22T13:26:17Z</time>
      </trkpt>
      <trkpt lat="43.84496" lon="6.9936">
        <ele>880.70507</ele>
        <time>2009-03-22T13:26:32Z</time>
      </trkpt>
      <trkpt lat="43.84491" lon="6.99358">
        <ele>883.58886</ele>
        <time>2009-03-22T13:26:49Z</time>
      </trkpt>
      <trkpt lat="43.84491" lon="6.99355">
        <ele>888.87622</ele>
        <time>2009-03-22T13:27:14Z</time>
      </trkpt>
      <trkpt lat="43.84493" lon="6.99355">
        <ele>885.99218</ele>
        <time>2009-03-22T13:27:17Z</time>
      </trkpt>
      <trkpt lat="43.84488" lon="6.9936">
        <ele>884.55029</ele>
        <time>2009-03-22T13:27:21Z</time>
      </trkpt>
      <trkpt lat="43.84485" lon="6.99368">
        <ele>882.62768</ele>
        <time>2009-03-22T13:27:25Z</time>
      </trkpt>
      <trkpt lat="43.84476" lon="6.99374">
        <ele>879.26293</ele>
        <time>2009-03-22T13:27:29Z</time>
      </trkpt>
      <trkpt lat="43.84473" lon="6.99377">
        <ele>878.30175</ele>
        <time>2009-03-22T13:27:30Z</time>
      </trkpt>
      <trkpt lat="43.84465" lon="6.99396">
        <ele>873.97558</ele>
        <time>2009-03-22T13:27:35Z</time>
      </trkpt>
      <trkpt lat="43.8446" lon="6.99431">
        <ele>869.16918</ele>
        <time>2009-03-22T13:27:40Z</time>
      </trkpt>
      <trkpt lat="43.84459" lon="6.99438">
        <ele>868.20776</ele>
        <time>2009-03-22T13:27:41Z</time>
      </trkpt>
      <trkpt lat="43.84455" lon="6.99457">
        <ele>866.76586</ele>
        <time>2009-03-22T13:27:44Z</time>
      </trkpt>
      <trkpt lat="43.84457" lon="6.99477">
        <ele>865.80468</ele>
        <time>2009-03-22T13:27:48Z</time>
      </trkpt>
      <trkpt lat="43.84457" lon="6.99482">
        <ele>865.32397</ele>
        <time>2009-03-22T13:27:52Z</time>
      </trkpt>
      <trkpt lat="43.84457" lon="6.99482">
        <ele>862.92065</ele>
        <time>2009-03-22T13:28:00Z</time>
      </trkpt>
      <trkpt lat="43.84457" lon="6.99497">
        <ele>862.92065</ele>
        <time>2009-03-22T13:28:05Z</time>
      </trkpt>
      <trkpt lat="43.84452" lon="6.99524">
        <ele>860.51733</ele>
        <time>2009-03-22T13:28:11Z</time>
      </trkpt>
      <trkpt lat="43.84451" lon="6.99532">
        <ele>860.51733</ele>
        <time>2009-03-22T13:28:15Z</time>
      </trkpt>
      <trkpt lat="43.8445" lon="6.99534">
        <ele>863.40136</ele>
        <time>2009-03-22T13:29:09Z</time>
      </trkpt>
      <trkpt lat="43.84451" lon="6.99544">
        <ele>863.40136</ele>
        <time>2009-03-22T13:29:13Z</time>
      </trkpt>
      <trkpt lat="43.84452" lon="6.99553">
        <ele>860.99804</ele>
        <time>2009-03-22T13:29:18Z</time>
      </trkpt>
      <trkpt lat="43.84453" lon="6.99566">
        <ele>858.59448</ele>
        <time>2009-03-22T13:29:23Z</time>
      </trkpt>
      <trkpt lat="43.84453" lon="6.99571">
        <ele>858.59448</ele>
        <time>2009-03-22T13:29:27Z</time>
      </trkpt>
      <trkpt lat="43.84453" lon="6.99585">
        <ele>857.15258</ele>
        <time>2009-03-22T13:29:31Z</time>
      </trkpt>
      <trkpt lat="43.84457" lon="6.9961">
        <ele>851.38476</ele>
        <time>2009-03-22T13:29:36Z</time>
      </trkpt>
      <trkpt lat="43.84463" lon="6.99632">
        <ele>846.57836</ele>
        <time>2009-03-22T13:29:41Z</time>
      </trkpt>
      <trkpt lat="43.84461" lon="6.99654">
        <ele>847.05883</ele>
        <time>2009-03-22T13:29:45Z</time>
      </trkpt>
      <trkpt lat="43.84461" lon="6.99662">
        <ele>847.05883</ele>
        <time>2009-03-22T13:29:49Z</time>
      </trkpt>
      <trkpt lat="43.8446" lon="6.99667">
        <ele>847.05883</ele>
        <time>2009-03-22T13:29:53Z</time>
      </trkpt>
      <trkpt lat="43.84458" lon="6.99673">
        <ele>848.98144</ele>
        <time>2009-03-22T13:30:00Z</time>
      </trkpt>
      <trkpt lat="43.84457" lon="6.99686">
        <ele>851.86547</ele>
        <time>2009-03-22T13:30:05Z</time>
      </trkpt>
      <trkpt lat="43.84461" lon="6.99707">
        <ele>850.42358</ele>
        <time>2009-03-22T13:30:09Z</time>
      </trkpt>
      <trkpt lat="43.84463" lon="6.99713">
        <ele>849.94287</ele>
        <time>2009-03-22T13:30:10Z</time>
      </trkpt>
      <trkpt lat="43.84476" lon="6.99745">
        <ele>849.46215</ele>
        <time>2009-03-22T13:30:16Z</time>
      </trkpt>
      <trkpt lat="43.84481" lon="6.99759">
        <ele>848.50073</ele>
        <time>2009-03-22T13:30:20Z</time>
      </trkpt>
      <trkpt lat="43.84487" lon="6.99779">
        <ele>847.53955</ele>
        <time>2009-03-22T13:30:24Z</time>
      </trkpt>
      <trkpt lat="43.84471" lon="6.998">
        <ele>844.17504</ele>
        <time>2009-03-22T13:30:28Z</time>
      </trkpt>
      <trkpt lat="43.84449" lon="6.99828">
        <ele>841.29077</ele>
        <time>2009-03-22T13:30:32Z</time>
      </trkpt>
      <trkpt lat="43.84438" lon="6.99882">
        <ele>834.56176</ele>
        <time>2009-03-22T13:30:38Z</time>
      </trkpt>
      <trkpt lat="43.84422" lon="6.99929">
        <ele>828.79394</ele>
        <time>2009-03-22T13:30:43Z</time>
      </trkpt>
      <trkpt lat="43.84411" lon="6.99963">
        <ele>825.90966</ele>
        <time>2009-03-22T13:30:46Z</time>
      </trkpt>
      <trkpt lat="43.84398" lon="7.00002">
        <ele>823.50659</ele>
        <time>2009-03-22T13:30:50Z</time>
      </trkpt>
      <trkpt lat="43.84391" lon="7.0002">
        <ele>821.58374</ele>
        <time>2009-03-22T13:30:52Z</time>
      </trkpt>
      <trkpt lat="43.8438" lon="7.00045">
        <ele>817.25805</ele>
        <time>2009-03-22T13:30:56Z</time>
      </trkpt>
      <trkpt lat="43.84379" lon="7.00051">
        <ele>816.77734</ele>
        <time>2009-03-22T13:30:57Z</time>
      </trkpt>
      <trkpt lat="43.84373" lon="7.00075">
        <ele>812.45141</ele>
        <time>2009-03-22T13:31:02Z</time>
      </trkpt>
      <trkpt lat="43.84367" lon="7.00114">
        <ele>809.08667</ele>
        <time>2009-03-22T13:31:07Z</time>
      </trkpt>
      <trkpt lat="43.84366" lon="7.00122">
        <ele>808.60595</ele>
        <time>2009-03-22T13:31:08Z</time>
      </trkpt>
      <trkpt lat="43.84359" lon="7.00155">
        <ele>807.16406</ele>
        <time>2009-03-22T13:31:12Z</time>
      </trkpt>
      <trkpt lat="43.84352" lon="7.00187">
        <ele>804.76074</ele>
        <time>2009-03-22T13:31:17Z</time>
      </trkpt>
      <trkpt lat="43.84351" lon="7.00225">
        <ele>805.24145</ele>
        <time>2009-03-22T13:31:23Z</time>
      </trkpt>
      <trkpt lat="43.8435" lon="7.00263">
        <ele>798.03173</ele>
        <time>2009-03-22T13:31:28Z</time>
      </trkpt>
      <trkpt lat="43.8435" lon="7.00279">
        <ele>794.18627</ele>
        <time>2009-03-22T13:31:30Z</time>
      </trkpt>
      <trkpt lat="43.84348" lon="7.00306">
        <ele>792.26367</ele>
        <time>2009-03-22T13:31:33Z</time>
      </trkpt>
      <trkpt lat="43.84343" lon="7.00342">
        <ele>791.30224</ele>
        <time>2009-03-22T13:31:37Z</time>
      </trkpt>
      <trkpt lat="43.84329" lon="7.00386">
        <ele>787.93774</ele>
        <time>2009-03-22T13:31:42Z</time>
      </trkpt>
      <trkpt lat="43.84323" lon="7.00403">
        <ele>788.89917</ele>
        <time>2009-03-22T13:31:44Z</time>
      </trkpt>
      <trkpt lat="43.84315" lon="7.00437">
        <ele>788.41845</ele>
        <time>2009-03-22T13:31:49Z</time>
      </trkpt>
      <trkpt lat="43.84314" lon="7.00491">
        <ele>786.49585</ele>
        <time>2009-03-22T13:31:56Z</time>
      </trkpt>
      <trkpt lat="43.84317" lon="7.00535">
        <ele>782.65063</ele>
        <time>2009-03-22T13:32:01Z</time>
      </trkpt>
      <trkpt lat="43.84319" lon="7.00555">
        <ele>782.65063</ele>
        <time>2009-03-22T13:32:05Z</time>
      </trkpt>
      <trkpt lat="43.84321" lon="7.00571">
        <ele>780.72802</ele>
        <time>2009-03-22T13:32:11Z</time>
      </trkpt>
      <trkpt lat="43.8432" lon="7.00574">
        <ele>783.1311</ele>
        <time>2009-03-22T13:32:16Z</time>
      </trkpt>
      <trkpt lat="43.8432" lon="7.00578">
        <ele>785.53442</ele>
        <time>2009-03-22T13:32:22Z</time>
      </trkpt>
      <trkpt lat="43.8432" lon="7.00586">
        <ele>785.05395</ele>
        <time>2009-03-22T13:32:32Z</time>
      </trkpt>
      <trkpt lat="43.8432" lon="7.006">
        <ele>784.57324</ele>
        <time>2009-03-22T13:32:37Z</time>
      </trkpt>
      <trkpt lat="43.84323" lon="7.00601">
        <ele>783.61181</ele>
        <time>2009-03-22T13:33:03Z</time>
      </trkpt>
      <trkpt lat="43.84324" lon="7.00601">
        <ele>781.6892</ele>
        <time>2009-03-22T13:33:35Z</time>
      </trkpt>
      <trkpt lat="43.84324" lon="7.00602">
        <ele>783.61181</ele>
        <time>2009-03-22T13:33:51Z</time>
      </trkpt>
      <trkpt lat="43.84324" lon="7.00601">
        <ele>784.57324</ele>
        <time>2009-03-22T13:34:05Z</time>
      </trkpt>
      <trkpt lat="43.84324" lon="7.006">
        <ele>782.65063</ele>
        <time>2009-03-22T13:34:17Z</time>
      </trkpt>
      <trkpt lat="43.84322" lon="7.00601">
        <ele>762.46264</ele>
        <time>2009-03-22T13:34:53Z</time>
      </trkpt>
      <trkpt lat="43.84322" lon="7.00601">
        <ele>763.42407</ele>
        <time>2009-03-22T13:35:08Z</time>
      </trkpt>
      <trkpt lat="43.84321" lon="7.00601">
        <ele>766.3081</ele>
        <time>2009-03-22T13:35:18Z</time>
      </trkpt>
      <trkpt lat="43.84321" lon="7.00599">
        <ele>767.75</ele>
        <time>2009-03-22T13:35:27Z</time>
      </trkpt>
      <trkpt lat="43.84321" lon="7.006">
        <ele>771.59521</ele>
        <time>2009-03-22T13:35:36Z</time>
      </trkpt>
      <trkpt lat="43.84321" lon="7.0061">
        <ele>773.51806</ele>
        <time>2009-03-22T13:35:41Z</time>
      </trkpt>
      <trkpt lat="43.84309" lon="7.00626">
        <ele>772.55664</ele>
        <time>2009-03-22T13:35:45Z</time>
      </trkpt>
      <trkpt lat="43.84301" lon="7.0064">
        <ele>770.63403</ele>
        <time>2009-03-22T13:35:47Z</time>
      </trkpt>
      <trkpt lat="43.84288" lon="7.00677">
        <ele>765.82763</ele>
        <time>2009-03-22T13:35:52Z</time>
      </trkpt>
      <trkpt lat="43.84286" lon="7.00685">
        <ele>764.86621</ele>
        <time>2009-03-22T13:35:53Z</time>
      </trkpt>
      <trkpt lat="43.84286" lon="7.00719">
        <ele>765.82763</ele>
        <time>2009-03-22T13:35:57Z</time>
      </trkpt>
      <trkpt lat="43.8429" lon="7.00752">
        <ele>762.46264</ele>
        <time>2009-03-22T13:36:01Z</time>
      </trkpt>
      <trkpt lat="43.8429" lon="7.00774">
        <ele>762.46264</ele>
        <time>2009-03-22T13:36:05Z</time>
      </trkpt>
      <trkpt lat="43.84288" lon="7.0078">
        <ele>762.46264</ele>
        <time>2009-03-22T13:36:07Z</time>
      </trkpt>
      <trkpt lat="43.84282" lon="7.008">
        <ele>761.50146</ele>
        <time>2009-03-22T13:36:12Z</time>
      </trkpt>
      <trkpt lat="43.84281" lon="7.00806">
        <ele>760.54003</ele>
        <time>2009-03-22T13:36:13Z</time>
      </trkpt>
      <trkpt lat="43.8428" lon="7.00818">
        <ele>759.57885</ele>
        <time>2009-03-22T13:36:15Z</time>
      </trkpt>
      <trkpt lat="43.84276" lon="7.00844">
        <ele>761.02075</ele>
        <time>2009-03-22T13:36:19Z</time>
      </trkpt>
      <trkpt lat="43.84263" lon="7.00863">
        <ele>759.09814</ele>
        <time>2009-03-22T13:36:24Z</time>
      </trkpt>
      <trkpt lat="43.8424" lon="7.00887">
        <ele>755.25293</ele>
        <time>2009-03-22T13:36:29Z</time>
      </trkpt>
      <trkpt lat="43.84233" lon="7.0091">
        <ele>752.8496</ele>
        <time>2009-03-22T13:36:32Z</time>
      </trkpt>
      <trkpt lat="43.84231" lon="7.00945">
        <ele>749.96582</ele>
        <time>2009-03-22T13:36:36Z</time>
      </trkpt>
      <trkpt lat="43.84224" lon="7.0097">
        <ele>749.96582</ele>
        <time>2009-03-22T13:36:39Z</time>
      </trkpt>
      <trkpt lat="43.84218" lon="7.00981">
        <ele>748.52368</ele>
        <time>2009-03-22T13:36:43Z</time>
      </trkpt>
      <trkpt lat="43.84217" lon="7.00988">
        <ele>749.4851</ele>
        <time>2009-03-22T13:36:47Z</time>
      </trkpt>
      <trkpt lat="43.84214" lon="7.01003">
        <ele>756.21411</ele>
        <time>2009-03-22T13:36:53Z</time>
      </trkpt>
      <trkpt lat="43.84214" lon="7.01021">
        <ele>755.73364</ele>
        <time>2009-03-22T13:36:57Z</time>
      </trkpt>
      <trkpt lat="43.84216" lon="7.01042">
        <ele>752.8496</ele>
        <time>2009-03-22T13:37:00Z</time>
      </trkpt>
      <trkpt lat="43.84215" lon="7.0107">
        <ele>755.73364</ele>
        <time>2009-03-22T13:37:05Z</time>
      </trkpt>
      <trkpt lat="43.84216" lon="7.01089">
        <ele>757.65625</ele>
        <time>2009-03-22T13:37:11Z</time>
      </trkpt>
      <trkpt lat="43.84221" lon="7.01107">
        <ele>755.73364</ele>
        <time>2009-03-22T13:37:16Z</time>
      </trkpt>
      <trkpt lat="43.84226" lon="7.01131">
        <ele>753.81103</ele>
        <time>2009-03-22T13:37:22Z</time>
      </trkpt>
      <trkpt lat="43.8423" lon="7.0114">
        <ele>754.77221</ele>
        <time>2009-03-22T13:37:24Z</time>
      </trkpt>
      <trkpt lat="43.84239" lon="7.01173">
        <ele>753.81103</ele>
        <time>2009-03-22T13:37:29Z</time>
      </trkpt>
      <trkpt lat="43.84248" lon="7.01192">
        <ele>751.40771</ele>
        <time>2009-03-22T13:37:34Z</time>
      </trkpt>
      <trkpt lat="43.84252" lon="7.01211">
        <ele>751.88842</ele>
        <time>2009-03-22T13:37:39Z</time>
      </trkpt>
      <trkpt lat="43.8426" lon="7.01233">
        <ele>750.927</ele>
        <time>2009-03-22T13:37:44Z</time>
      </trkpt>
      <trkpt lat="43.84265" lon="7.01243">
        <ele>747.08154</ele>
        <time>2009-03-22T13:37:46Z</time>
      </trkpt>
      <trkpt lat="43.84271" lon="7.01269">
        <ele>741.79443</ele>
        <time>2009-03-22T13:37:50Z</time>
      </trkpt>
      <trkpt lat="43.8428" lon="7.01307">
        <ele>739.39111</ele>
        <time>2009-03-22T13:37:56Z</time>
      </trkpt>
      <trkpt lat="43.84282" lon="7.01311">
        <ele>739.39111</ele>
        <time>2009-03-22T13:37:57Z</time>
      </trkpt>
      <trkpt lat="43.84294" lon="7.01335">
        <ele>738.91064</ele>
        <time>2009-03-22T13:38:02Z</time>
      </trkpt>
      <trkpt lat="43.84301" lon="7.0135">
        <ele>732.6621</ele>
        <time>2009-03-22T13:38:06Z</time>
      </trkpt>
      <trkpt lat="43.84313" lon="7.01368">
        <ele>726.89404</ele>
        <time>2009-03-22T13:38:11Z</time>
      </trkpt>
      <trkpt lat="43.84319" lon="7.01383">
        <ele>723.04882</ele>
        <time>2009-03-22T13:38:15Z</time>
      </trkpt>
      <trkpt lat="43.84331" lon="7.01407">
        <ele>720.16479</ele>
        <time>2009-03-22T13:38:20Z</time>
      </trkpt>
      <trkpt lat="43.84336" lon="7.01426">
        <ele>715.83886</ele>
        <time>2009-03-22T13:38:24Z</time>
      </trkpt>
      <trkpt lat="43.8434" lon="7.01439">
        <ele>712.47412</ele>
        <time>2009-03-22T13:38:27Z</time>
      </trkpt>
      <trkpt lat="43.84351" lon="7.01467">
        <ele>708.14843</ele>
        <time>2009-03-22T13:38:32Z</time>
      </trkpt>
      <trkpt lat="43.84356" lon="7.0146">
        <ele>707.18701</ele>
        <time>2009-03-22T13:38:35Z</time>
      </trkpt>
      <trkpt lat="43.84362" lon="7.01455">
        <ele>705.74511</ele>
        <time>2009-03-22T13:38:38Z</time>
      </trkpt>
      <trkpt lat="43.84371" lon="7.01468">
        <ele>700.458</ele>
        <time>2009-03-22T13:38:42Z</time>
      </trkpt>
      <trkpt lat="43.84373" lon="7.01485">
        <ele>696.61254</ele>
        <time>2009-03-22T13:38:46Z</time>
      </trkpt>
      <trkpt lat="43.84372" lon="7.01494">
        <ele>693.72851</ele>
        <time>2009-03-22T13:38:48Z</time>
      </trkpt>
      <trkpt lat="43.84375" lon="7.01509">
        <ele>690.36401</ele>
        <time>2009-03-22T13:38:54Z</time>
      </trkpt>
      <trkpt lat="43.84377" lon="7.0152">
        <ele>687.47998</ele>
        <time>2009-03-22T13:38:57Z</time>
      </trkpt>
      <trkpt lat="43.84379" lon="7.0155">
        <ele>683.1538</ele>
        <time>2009-03-22T13:39:02Z</time>
      </trkpt>
      <trkpt lat="43.84381" lon="7.01551">
        <ele>680.75073</ele>
        <time>2009-03-22T13:39:04Z</time>
      </trkpt>
      <trkpt lat="43.84384" lon="7.01522">
        <ele>674.50219</ele>
        <time>2009-03-22T13:39:09Z</time>
      </trkpt>
      <trkpt lat="43.84386" lon="7.01516">
        <ele>672.09887</ele>
        <time>2009-03-22T13:39:10Z</time>
      </trkpt>
      <trkpt lat="43.84397" lon="7.01486">
        <ele>664.4082</ele>
        <time>2009-03-22T13:39:15Z</time>
      </trkpt>
      <trkpt lat="43.84401" lon="7.01474">
        <ele>662.00512</ele>
        <time>2009-03-22T13:39:17Z</time>
      </trkpt>
      <trkpt lat="43.84405" lon="7.01453">
        <ele>659.6018</ele>
        <time>2009-03-22T13:39:21Z</time>
      </trkpt>
      <trkpt lat="43.84412" lon="7.01465">
        <ele>656.71777</ele>
        <time>2009-03-22T13:39:25Z</time>
      </trkpt>
      <trkpt lat="43.84413" lon="7.01484">
        <ele>651.43042</ele>
        <time>2009-03-22T13:39:29Z</time>
      </trkpt>
      <trkpt lat="43.84414" lon="7.01489">
        <ele>649.98852</ele>
        <time>2009-03-22T13:39:30Z</time>
      </trkpt>
      <trkpt lat="43.8442" lon="7.0152">
        <ele>644.2207</ele>
        <time>2009-03-22T13:39:34Z</time>
      </trkpt>
      <trkpt lat="43.84425" lon="7.0152">
        <ele>642.7788</ele>
        <time>2009-03-22T13:39:37Z</time>
      </trkpt>
      <trkpt lat="43.84429" lon="7.01498">
        <ele>638.93359</ele>
        <time>2009-03-22T13:39:41Z</time>
      </trkpt>
      <trkpt lat="43.8443" lon="7.01496">
        <ele>637.97216</ele>
        <time>2009-03-22T13:39:42Z</time>
      </trkpt>
      <trkpt lat="43.84436" lon="7.01511">
        <ele>636.04956</ele>
        <time>2009-03-22T13:39:46Z</time>
      </trkpt>
      <trkpt lat="43.84431" lon="7.01546">
        <ele>637.01074</ele>
        <time>2009-03-22T13:39:51Z</time>
      </trkpt>
      <trkpt lat="43.84434" lon="7.01553">
        <ele>636.04956</ele>
        <time>2009-03-22T13:39:52Z</time>
      </trkpt>
      <trkpt lat="43.84433" lon="7.01583">
        <ele>636.04956</ele>
        <time>2009-03-22T13:39:55Z</time>
      </trkpt>
      <trkpt lat="43.84425" lon="7.01642">
        <ele>632.2041</ele>
        <time>2009-03-22T13:40:01Z</time>
      </trkpt>
      <trkpt lat="43.8442" lon="7.01651">
        <ele>631.24292</ele>
        <time>2009-03-22T13:40:04Z</time>
      </trkpt>
      <trkpt lat="43.84418" lon="7.01648">
        <ele>627.87817</ele>
        <time>2009-03-22T13:40:10Z</time>
      </trkpt>
      <trkpt lat="43.84417" lon="7.01645">
        <ele>625.95556</ele>
        <time>2009-03-22T13:40:35Z</time>
      </trkpt>
      <trkpt lat="43.84419" lon="7.01645">
        <ele>619.70703</ele>
        <time>2009-03-22T13:41:19Z</time>
      </trkpt>
      <trkpt lat="43.84418" lon="7.01645">
        <ele>616.82299</ele>
        <time>2009-03-22T13:41:36Z</time>
      </trkpt>
      <trkpt lat="43.84418" lon="7.01645">
        <ele>620.18774</ele>
        <time>2009-03-22T13:42:05Z</time>
      </trkpt>
      <trkpt lat="43.84418" lon="7.01646">
        <ele>627.87817</ele>
        <time>2009-03-22T13:42:20Z</time>
      </trkpt>
      <trkpt lat="43.84418" lon="7.01646">
        <ele>629.80078</ele>
        <time>2009-03-22T13:42:31Z</time>
      </trkpt>
      <trkpt lat="43.84419" lon="7.01646">
        <ele>629.32006</ele>
        <time>2009-03-22T13:42:43Z</time>
      </trkpt>
      <trkpt lat="43.84417" lon="7.01657">
        <ele>624.03295</ele>
        <time>2009-03-22T13:42:56Z</time>
      </trkpt>
      <trkpt lat="43.84412" lon="7.01666">
        <ele>623.55249</ele>
        <time>2009-03-22T13:42:58Z</time>
      </trkpt>
      <trkpt lat="43.8442" lon="7.01672">
        <ele>619.70703</ele>
        <time>2009-03-22T13:43:02Z</time>
      </trkpt>
      <trkpt lat="43.84425" lon="7.01669">
        <ele>617.78418</ele>
        <time>2009-03-22T13:43:03Z</time>
      </trkpt>
      <trkpt lat="43.84436" lon="7.01665">
        <ele>615.3811</ele>
        <time>2009-03-22T13:43:05Z</time>
      </trkpt>
      <trkpt lat="43.84452" lon="7.01658">
        <ele>609.13256</ele>
        <time>2009-03-22T13:43:10Z</time>
      </trkpt>
      <trkpt lat="43.84449" lon="7.01676">
        <ele>606.72924</ele>
        <time>2009-03-22T13:43:13Z</time>
      </trkpt>
      <trkpt lat="43.84436" lon="7.01713">
        <ele>597.11596</ele>
        <time>2009-03-22T13:43:19Z</time>
      </trkpt>
      <trkpt lat="43.84424" lon="7.0174">
        <ele>588.94506</ele>
        <time>2009-03-22T13:43:25Z</time>
      </trkpt>
      <trkpt lat="43.84415" lon="7.01755">
        <ele>583.17675</ele>
        <time>2009-03-22T13:43:29Z</time>
      </trkpt>
      <trkpt lat="43.84403" lon="7.01763">
        <ele>577.40918</ele>
        <time>2009-03-22T13:43:33Z</time>
      </trkpt>
      <trkpt lat="43.84393" lon="7.01769">
        <ele>573.08325</ele>
        <time>2009-03-22T13:43:37Z</time>
      </trkpt>
      <trkpt lat="43.84388" lon="7.01773">
        <ele>569.23779</ele>
        <time>2009-03-22T13:43:41Z</time>
      </trkpt>
      <trkpt lat="43.84387" lon="7.01775">
        <ele>569.23779</ele>
        <time>2009-03-22T13:43:42Z</time>
      </trkpt>
      <trkpt lat="43.84385" lon="7.0178">
        <ele>567.31518</ele>
        <time>2009-03-22T13:43:47Z</time>
      </trkpt>
      <trkpt lat="43.84383" lon="7.01781">
        <ele>566.83447</ele>
        <time>2009-03-22T13:43:52Z</time>
      </trkpt>
      <trkpt lat="43.84383" lon="7.01782">
        <ele>567.79565</ele>
        <time>2009-03-22T13:43:53Z</time>
      </trkpt>
      <trkpt lat="43.84376" lon="7.01796">
        <ele>573.08325</ele>
        <time>2009-03-22T13:43:59Z</time>
      </trkpt>
      <trkpt lat="43.84374" lon="7.01797">
        <ele>573.56396</ele>
        <time>2009-03-22T13:44:02Z</time>
      </trkpt>
      <trkpt lat="43.84371" lon="7.01801">
        <ele>572.12182</ele>
        <time>2009-03-22T13:44:07Z</time>
      </trkpt>
      <trkpt lat="43.84371" lon="7.01802">
        <ele>571.1604</ele>
        <time>2009-03-22T13:44:11Z</time>
      </trkpt>
      <trkpt lat="43.84361" lon="7.01805">
        <ele>568.75708</ele>
        <time>2009-03-22T13:44:16Z</time>
      </trkpt>
      <trkpt lat="43.84358" lon="7.01805">
        <ele>568.27636</ele>
        <time>2009-03-22T13:44:17Z</time>
      </trkpt>
      <trkpt lat="43.8435" lon="7.01805">
        <ele>568.27636</ele>
        <time>2009-03-22T13:44:19Z</time>
      </trkpt>
      <trkpt lat="43.84338" lon="7.01815">
        <ele>566.83447</ele>
        <time>2009-03-22T13:44:23Z</time>
      </trkpt>
      <trkpt lat="43.84331" lon="7.01827">
        <ele>565.39257</ele>
        <time>2009-03-22T13:44:26Z</time>
      </trkpt>
      <trkpt lat="43.84328" lon="7.01832">
        <ele>565.87329</ele>
        <time>2009-03-22T13:44:27Z</time>
      </trkpt>
      <trkpt lat="43.8432" lon="7.01848">
        <ele>562.98925</ele>
        <time>2009-03-22T13:44:32Z</time>
      </trkpt>
      <trkpt lat="43.84321" lon="7.01863">
        <ele>562.50854</ele>
        <time>2009-03-22T13:44:37Z</time>
      </trkpt>
      <trkpt lat="43.84322" lon="7.01871">
        <ele>561.54736</ele>
        <time>2009-03-22T13:44:41Z</time>
      </trkpt>
      <trkpt lat="43.84322" lon="7.01872">
        <ele>560.58593</ele>
        <time>2009-03-22T13:44:44Z</time>
      </trkpt>
      <trkpt lat="43.84323" lon="7.01883">
        <ele>561.54736</ele>
        <time>2009-03-22T13:44:50Z</time>
      </trkpt>
      <trkpt lat="43.84323" lon="7.01886">
        <ele>560.58593</ele>
        <time>2009-03-22T13:44:53Z</time>
      </trkpt>
      <trkpt lat="43.84323" lon="7.01892">
        <ele>559.62475</ele>
        <time>2009-03-22T13:44:57Z</time>
      </trkpt>
      <trkpt lat="43.84321" lon="7.01908">
        <ele>556.26001</ele>
        <time>2009-03-22T13:45:01Z</time>
      </trkpt>
      <trkpt lat="43.84319" lon="7.01926">
        <ele>554.3374</ele>
        <time>2009-03-22T13:45:05Z</time>
      </trkpt>
      <trkpt lat="43.84319" lon="7.01937">
        <ele>551.45336</ele>
        <time>2009-03-22T13:45:09Z</time>
      </trkpt>
      <trkpt lat="43.84321" lon="7.01953">
        <ele>546.64685</ele>
        <time>2009-03-22T13:45:13Z</time>
      </trkpt>
      <trkpt lat="43.84319" lon="7.0198">
        <ele>543.2821</ele>
        <time>2009-03-22T13:45:19Z</time>
      </trkpt>
      <trkpt lat="43.84318" lon="7.02009">
        <ele>538.4757</ele>
        <time>2009-03-22T13:45:25Z</time>
      </trkpt>
      <trkpt lat="43.84319" lon="7.02027">
        <ele>536.07238</ele>
        <time>2009-03-22T13:45:29Z</time>
      </trkpt>
      <trkpt lat="43.84317" lon="7.02052">
        <ele>530.78515</ele>
        <time>2009-03-22T13:45:33Z</time>
      </trkpt>
      <trkpt lat="43.84313" lon="7.02088">
        <ele>525.97839</ele>
        <time>2009-03-22T13:45:37Z</time>
      </trkpt>
      <trkpt lat="43.8433" lon="7.02122">
        <ele>519.24926</ele>
        <time>2009-03-22T13:45:43Z</time>
      </trkpt>
      <trkpt lat="43.84334" lon="7.02143">
        <ele>517.32666</ele>
        <time>2009-03-22T13:45:47Z</time>
      </trkpt>
      <trkpt lat="43.8434" lon="7.02156">
        <ele>515.40405</ele>
        <time>2009-03-22T13:45:51Z</time>
      </trkpt>
      <trkpt lat="43.8434" lon="7.0216">
        <ele>514.92334</ele>
        <time>2009-03-22T13:45:52Z</time>
      </trkpt>
      <trkpt lat="43.84341" lon="7.02172">
        <ele>515.40405</ele>
        <time>2009-03-22T13:45:55Z</time>
      </trkpt>
      <trkpt lat="43.84348" lon="7.022">
        <ele>512.03942</ele>
        <time>2009-03-22T13:46:01Z</time>
      </trkpt>
      <trkpt lat="43.84347" lon="7.02214">
        <ele>512.52002</ele>
        <time>2009-03-22T13:46:04Z</time>
      </trkpt>
      <trkpt lat="43.84341" lon="7.0225">
        <ele>508.19409</ele>
        <time>2009-03-22T13:46:09Z</time>
      </trkpt>
      <trkpt lat="43.84345" lon="7.0228">
        <ele>504.34887</ele>
        <time>2009-03-22T13:46:13Z</time>
      </trkpt>
      <trkpt lat="43.84346" lon="7.02283">
        <ele>499.06152</ele>
        <time>2009-03-22T13:46:17Z</time>
      </trkpt>
      <trkpt lat="43.84344" lon="7.02284">
        <ele>499.06152</ele>
        <time>2009-03-22T13:46:30Z</time>
      </trkpt>
      <trkpt lat="43.84343" lon="7.02284">
        <ele>499.54223</ele>
        <time>2009-03-22T13:46:59Z</time>
      </trkpt>
      <trkpt lat="43.84344" lon="7.02282">
        <ele>496.17773</ele>
        <time>2009-03-22T13:47:10Z</time>
      </trkpt>
      <trkpt lat="43.84344" lon="7.02282">
        <ele>496.65832</ele>
        <time>2009-03-22T13:47:35Z</time>
      </trkpt>
      <trkpt lat="43.84345" lon="7.02282">
        <ele>494.255</ele>
        <time>2009-03-22T13:48:07Z</time>
      </trkpt>
      <trkpt lat="43.84346" lon="7.02289">
        <ele>495.21618</ele>
        <time>2009-03-22T13:48:11Z</time>
      </trkpt>
      <trkpt lat="43.8435" lon="7.02302">
        <ele>494.73559</ele>
        <time>2009-03-22T13:48:16Z</time>
      </trkpt>
      <trkpt lat="43.84352" lon="7.02311">
        <ele>494.255</ele>
        <time>2009-03-22T13:48:18Z</time>
      </trkpt>
      <trkpt lat="43.84354" lon="7.02347">
        <ele>498.10034</ele>
        <time>2009-03-22T13:48:24Z</time>
      </trkpt>
      <trkpt lat="43.84347" lon="7.02375">
        <ele>496.17773</ele>
        <time>2009-03-22T13:48:30Z</time>
      </trkpt>
      <trkpt lat="43.84346" lon="7.02386">
        <ele>495.69689</ele>
        <time>2009-03-22T13:48:32Z</time>
      </trkpt>
      <trkpt lat="43.8435" lon="7.02426">
        <ele>488.48718</ele>
        <time>2009-03-22T13:48:38Z</time>
      </trkpt>
      <trkpt lat="43.84351" lon="7.02432">
        <ele>487.04504</ele>
        <time>2009-03-22T13:48:39Z</time>
      </trkpt>
      <trkpt lat="43.84352" lon="7.02444">
        <ele>485.60302</ele>
        <time>2009-03-22T13:48:41Z</time>
      </trkpt>
      <trkpt lat="43.84346" lon="7.02472">
        <ele>480.79663</ele>
        <time>2009-03-22T13:48:45Z</time>
      </trkpt>
      <trkpt lat="43.84321" lon="7.02521">
        <ele>471.66394</ele>
        <time>2009-03-22T13:48:51Z</time>
      </trkpt>
      <trkpt lat="43.84318" lon="7.02528">
        <ele>470.70263</ele>
        <time>2009-03-22T13:48:52Z</time>
      </trkpt>
      <trkpt lat="43.84321" lon="7.0255">
        <ele>467.81872</ele>
        <time>2009-03-22T13:48:56Z</time>
      </trkpt>
      <trkpt lat="43.84333" lon="7.02549">
        <ele>466.3767</ele>
        <time>2009-03-22T13:48:58Z</time>
      </trkpt>
      <trkpt lat="43.84349" lon="7.02555">
        <ele>464.93481</ele>
        <time>2009-03-22T13:49:01Z</time>
      </trkpt>
      <trkpt lat="43.84367" lon="7.02553">
        <ele>459.16687</ele>
        <time>2009-03-22T13:49:04Z</time>
      </trkpt>
      <trkpt lat="43.84391" lon="7.02565">
        <ele>455.32153</ele>
        <time>2009-03-22T13:49:09Z</time>
      </trkpt>
      <trkpt lat="43.84388" lon="7.02578">
        <ele>452.91821</ele>
        <time>2009-03-22T13:49:12Z</time>
      </trkpt>
      <trkpt lat="43.84388" lon="7.02589">
        <ele>450.03442</ele>
        <time>2009-03-22T13:49:15Z</time>
      </trkpt>
      <trkpt lat="43.8439" lon="7.0259">
        <ele>448.5924</ele>
        <time>2009-03-22T13:49:16Z</time>
      </trkpt>
      <trkpt lat="43.84403" lon="7.02599">
        <ele>445.70837</ele>
        <time>2009-03-22T13:49:19Z</time>
      </trkpt>
      <trkpt lat="43.84417" lon="7.02619">
        <ele>445.70837</ele>
        <time>2009-03-22T13:49:23Z</time>
      </trkpt>
      <trkpt lat="43.84425" lon="7.0263">
        <ele>443.30505</ele>
        <time>2009-03-22T13:49:25Z</time>
      </trkpt>
      <trkpt lat="43.84436" lon="7.02637">
        <ele>440.42126</ele>
        <time>2009-03-22T13:49:28Z</time>
      </trkpt>
      <trkpt lat="43.84443" lon="7.02656">
        <ele>440.42126</ele>
        <time>2009-03-22T13:49:34Z</time>
      </trkpt>
      <trkpt lat="43.84453" lon="7.02671">
        <ele>442.34387</ele>
        <time>2009-03-22T13:49:39Z</time>
      </trkpt>
      <trkpt lat="43.84455" lon="7.02674">
        <ele>443.30505</ele>
        <time>2009-03-22T13:49:43Z</time>
      </trkpt>
      <trkpt lat="43.84456" lon="7.02674">
        <ele>438.01782</ele>
        <time>2009-03-22T13:49:51Z</time>
      </trkpt>
      <trkpt lat="43.84457" lon="7.02675">
        <ele>434.65332</ele>
        <time>2009-03-22T13:49:56Z</time>
      </trkpt>
      <trkpt lat="43.84456" lon="7.02678">
        <ele>437.5371</ele>
        <time>2009-03-22T13:50:09Z</time>
      </trkpt>
      <trkpt lat="43.84457" lon="7.0268">
        <ele>438.97912</ele>
        <time>2009-03-22T13:50:12Z</time>
      </trkpt>
      <trkpt lat="43.84466" lon="7.02702">
        <ele>439.45971</ele>
        <time>2009-03-22T13:50:17Z</time>
      </trkpt>
      <trkpt lat="43.84464" lon="7.02714">
        <ele>438.01782</ele>
        <time>2009-03-22T13:50:19Z</time>
      </trkpt>
      <trkpt lat="43.84456" lon="7.02736">
        <ele>438.97912</ele>
        <time>2009-03-22T13:50:24Z</time>
      </trkpt>
      <trkpt lat="43.84455" lon="7.02744">
        <ele>436.57592</ele>
        <time>2009-03-22T13:50:26Z</time>
      </trkpt>
      <trkpt lat="43.8445" lon="7.02753">
        <ele>437.5371</ele>
        <time>2009-03-22T13:50:32Z</time>
      </trkpt>
      <trkpt lat="43.84446" lon="7.02758">
        <ele>437.05651</ele>
        <time>2009-03-22T13:50:38Z</time>
      </trkpt>
      <trkpt lat="43.84445" lon="7.02761">
        <ele>437.05651</ele>
        <time>2009-03-22T13:50:58Z</time>
      </trkpt>
      <trkpt lat="43.84445" lon="7.02767">
        <ele>437.05651</ele>
        <time>2009-03-22T13:51:05Z</time>
      </trkpt>
      <trkpt lat="43.84445" lon="7.02772">
        <ele>435.13391</ele>
        <time>2009-03-22T13:51:13Z</time>
      </trkpt>
      <trkpt lat="43.84446" lon="7.02775">
        <ele>435.6145</ele>
        <time>2009-03-22T13:51:15Z</time>
      </trkpt>
      <trkpt lat="43.84453" lon="7.0279">
        <ele>436.09521</ele>
        <time>2009-03-22T13:51:21Z</time>
      </trkpt>
      <trkpt lat="43.84466" lon="7.02812">
        <ele>433.2113</ele>
        <time>2009-03-22T13:51:27Z</time>
      </trkpt>
      <trkpt lat="43.84475" lon="7.02829">
        <ele>431.76916</ele>
        <time>2009-03-22T13:51:33Z</time>
      </trkpt>
      <trkpt lat="43.84478" lon="7.02832">
        <ele>429.36596</ele>
        <time>2009-03-22T13:51:39Z</time>
      </trkpt>
      <trkpt lat="43.8448" lon="7.02836">
        <ele>427.44335</ele>
        <time>2009-03-22T13:51:45Z</time>
      </trkpt>
      <trkpt lat="43.84481" lon="7.02836">
        <ele>423.11743</ele>
        <time>2009-03-22T13:52:01Z</time>
      </trkpt>
      <trkpt lat="43.8448" lon="7.02836">
        <ele>424.07873</ele>
        <time>2009-03-22T13:52:07Z</time>
      </trkpt>
      <trkpt lat="43.8448" lon="7.02836">
        <ele>424.07873</ele>
        <time>2009-03-22T13:52:08Z</time>
      </trkpt>
      <trkpt lat="43.84476" lon="7.02831">
        <ele>424.07873</ele>
        <time>2009-03-22T13:52:14Z</time>
      </trkpt>
      <trkpt lat="43.84475" lon="7.0283">
        <ele>425.52075</ele>
        <time>2009-03-22T13:52:20Z</time>
      </trkpt>
      <trkpt lat="43.84481" lon="7.02831">
        <ele>433.2113</ele>
        <time>2009-03-22T13:52:42Z</time>
      </trkpt>
      <trkpt lat="43.84481" lon="7.0283">
        <ele>434.65332</ele>
        <time>2009-03-22T13:53:01Z</time>
      </trkpt>
      <trkpt lat="43.84481" lon="7.02827">
        <ele>427.92395</ele>
        <time>2009-03-22T13:53:19Z</time>
      </trkpt>
      <trkpt lat="43.84476" lon="7.02819">
        <ele>420.23339</ele>
        <time>2009-03-22T13:54:14Z</time>
      </trkpt>
      <trkpt lat="43.84476" lon="7.02816">
        <ele>420.71411</ele>
        <time>2009-03-22T13:54:24Z</time>
      </trkpt>
      <trkpt lat="43.84473" lon="7.02809">
        <ele>422.156</ele>
        <time>2009-03-22T13:54:33Z</time>
      </trkpt>
      <trkpt lat="43.84463" lon="7.02795">
        <ele>424.07873</ele>
        <time>2009-03-22T13:54:38Z</time>
      </trkpt>
      <trkpt lat="43.84451" lon="7.02782">
        <ele>429.84655</ele>
        <time>2009-03-22T13:54:44Z</time>
      </trkpt>
      <trkpt lat="43.84447" lon="7.02766">
        <ele>435.13391</ele>
        <time>2009-03-22T13:54:50Z</time>
      </trkpt>
      <trkpt lat="43.84448" lon="7.02751">
        <ele>436.57592</ele>
        <time>2009-03-22T13:54:55Z</time>
      </trkpt>
      <trkpt lat="43.84449" lon="7.02748">
        <ele>436.09521</ele>
        <time>2009-03-22T13:54:56Z</time>
      </trkpt>
      <trkpt lat="43.8445" lon="7.0273">
        <ele>436.09521</ele>
        <time>2009-03-22T13:55:02Z</time>
      </trkpt>
      <trkpt lat="43.84445" lon="7.02709">
        <ele>438.49853</ele>
        <time>2009-03-22T13:55:10Z</time>
      </trkpt>
      <trkpt lat="43.84438" lon="7.02692">
        <ele>436.09521</ele>
        <time>2009-03-22T13:55:16Z</time>
      </trkpt>
      <trkpt lat="43.84429" lon="7.02677">
        <ele>432.73071</ele>
        <time>2009-03-22T13:55:22Z</time>
      </trkpt>
      <trkpt lat="43.84416" lon="7.02659">
        <ele>432.73071</ele>
        <time>2009-03-22T13:55:30Z</time>
      </trkpt>
      <trkpt lat="43.84403" lon="7.02659">
        <ele>434.65332</ele>
        <time>2009-03-22T13:55:36Z</time>
      </trkpt>
      <trkpt lat="43.84394" lon="7.0267">
        <ele>437.05651</ele>
        <time>2009-03-22T13:55:42Z</time>
      </trkpt>
      <trkpt lat="43.8439" lon="7.02688">
        <ele>441.86315</ele>
        <time>2009-03-22T13:55:49Z</time>
      </trkpt>
      <trkpt lat="43.84389" lon="7.02705">
        <ele>447.15026</ele>
        <time>2009-03-22T13:55:55Z</time>
      </trkpt>
      <trkpt lat="43.84396" lon="7.02725">
        <ele>449.07299</ele>
        <time>2009-03-22T13:56:02Z</time>
      </trkpt>
      <trkpt lat="43.844" lon="7.02748">
        <ele>450.9956</ele>
        <time>2009-03-22T13:56:10Z</time>
      </trkpt>
      <trkpt lat="43.84401" lon="7.02769">
        <ele>452.43762</ele>
        <time>2009-03-22T13:56:17Z</time>
      </trkpt>
      <trkpt lat="43.84404" lon="7.0279">
        <ele>457.24426</ele>
        <time>2009-03-22T13:56:24Z</time>
      </trkpt>
      <trkpt lat="43.84406" lon="7.02808">
        <ele>459.64758</ele>
        <time>2009-03-22T13:56:30Z</time>
      </trkpt>
      <trkpt lat="43.84407" lon="7.0283">
        <ele>463.01208</ele>
        <time>2009-03-22T13:56:37Z</time>
      </trkpt>
      <trkpt lat="43.84405" lon="7.02849">
        <ele>466.85742</ele>
        <time>2009-03-22T13:56:43Z</time>
      </trkpt>
      <trkpt lat="43.84396" lon="7.02873">
        <ele>463.01208</ele>
        <time>2009-03-22T13:56:51Z</time>
      </trkpt>
      <trkpt lat="43.84386" lon="7.02887">
        <ele>464.4541</ele>
        <time>2009-03-22T13:56:57Z</time>
      </trkpt>
      <trkpt lat="43.84369" lon="7.029">
        <ele>463.97338</ele>
        <time>2009-03-22T13:57:05Z</time>
      </trkpt>
      <trkpt lat="43.84354" lon="7.02915">
        <ele>461.57019</ele>
        <time>2009-03-22T13:57:13Z</time>
      </trkpt>
      <trkpt lat="43.84349" lon="7.02934">
        <ele>463.01208</ele>
        <time>2009-03-22T13:57:19Z</time>
      </trkpt>
      <trkpt lat="43.8435" lon="7.0296">
        <ele>463.49279</ele>
        <time>2009-03-22T13:57:26Z</time>
      </trkpt>
      <trkpt lat="43.84351" lon="7.02988">
        <ele>464.4541</ele>
        <time>2009-03-22T13:57:34Z</time>
      </trkpt>
      <trkpt lat="43.84347" lon="7.03003">
        <ele>464.4541</ele>
        <time>2009-03-22T13:57:39Z</time>
      </trkpt>
      <trkpt lat="43.84339" lon="7.03016">
        <ele>464.93481</ele>
        <time>2009-03-22T13:57:44Z</time>
      </trkpt>
      <trkpt lat="43.84328" lon="7.03031">
        <ele>464.4541</ele>
        <time>2009-03-22T13:57:51Z</time>
      </trkpt>
      <trkpt lat="43.84325" lon="7.0305">
        <ele>469.26074</ele>
        <time>2009-03-22T13:57:57Z</time>
      </trkpt>
      <trkpt lat="43.84326" lon="7.03056">
        <ele>467.81872</ele>
        <time>2009-03-22T13:57:59Z</time>
      </trkpt>
      <trkpt lat="43.84333" lon="7.03077">
        <ele>467.81872</ele>
        <time>2009-03-22T13:58:06Z</time>
      </trkpt>
      <trkpt lat="43.84337" lon="7.03105">
        <ele>473.58667</ele>
        <time>2009-03-22T13:58:14Z</time>
      </trkpt>
      <trkpt lat="43.84343" lon="7.03135">
        <ele>475.02868</ele>
        <time>2009-03-22T13:58:23Z</time>
      </trkpt>
      <trkpt lat="43.84341" lon="7.03158">
        <ele>475.98986</ele>
        <time>2009-03-22T13:58:30Z</time>
      </trkpt>
      <trkpt lat="43.84332" lon="7.0318">
        <ele>474.06726</ele>
        <time>2009-03-22T13:58:37Z</time>
      </trkpt>
      <trkpt lat="43.84332" lon="7.03201">
        <ele>474.54797</ele>
        <time>2009-03-22T13:58:43Z</time>
      </trkpt>
      <trkpt lat="43.8434" lon="7.03227">
        <ele>475.50927</ele>
        <time>2009-03-22T13:58:51Z</time>
      </trkpt>
      <trkpt lat="43.84336" lon="7.03255">
        <ele>476.47058</ele>
        <time>2009-03-22T13:59:00Z</time>
      </trkpt>
      <trkpt lat="43.84328" lon="7.03273">
        <ele>479.35449</ele>
        <time>2009-03-22T13:59:07Z</time>
      </trkpt>
      <trkpt lat="43.84316" lon="7.03293">
        <ele>480.31591</ele>
        <time>2009-03-22T13:59:15Z</time>
      </trkpt>
      <trkpt lat="43.84311" lon="7.03314">
        <ele>482.23852</ele>
        <time>2009-03-22T13:59:22Z</time>
      </trkpt>
      <trkpt lat="43.84303" lon="7.03351">
        <ele>485.60302</ele>
        <time>2009-03-22T13:59:33Z</time>
      </trkpt>
      <trkpt lat="43.84296" lon="7.03376">
        <ele>483.68042</ele>
        <time>2009-03-22T13:59:41Z</time>
      </trkpt>
      <trkpt lat="43.8429" lon="7.03399">
        <ele>484.16113</ele>
        <time>2009-03-22T13:59:48Z</time>
      </trkpt>
      <trkpt lat="43.84281" lon="7.03422">
        <ele>485.60302</ele>
        <time>2009-03-22T13:59:56Z</time>
      </trkpt>
      <trkpt lat="43.84273" lon="7.03441">
        <ele>488.48718</ele>
        <time>2009-03-22T14:00:03Z</time>
      </trkpt>
      <trkpt lat="43.84268" lon="7.0346">
        <ele>491.85168</ele>
        <time>2009-03-22T14:00:09Z</time>
      </trkpt>
      <trkpt lat="43.84261" lon="7.03482">
        <ele>495.69689</ele>
        <time>2009-03-22T14:00:16Z</time>
      </trkpt>
      <trkpt lat="43.84259" lon="7.03505">
        <ele>497.61962</ele>
        <time>2009-03-22T14:00:23Z</time>
      </trkpt>
      <trkpt lat="43.84259" lon="7.03522">
        <ele>496.17773</ele>
        <time>2009-03-22T14:00:28Z</time>
      </trkpt>
      <trkpt lat="43.8426" lon="7.03549">
        <ele>498.58093</ele>
        <time>2009-03-22T14:00:36Z</time>
      </trkpt>
      <trkpt lat="43.84263" lon="7.0357">
        <ele>497.61962</ele>
        <time>2009-03-22T14:00:42Z</time>
      </trkpt>
      <trkpt lat="43.84262" lon="7.03593">
        <ele>500.02294</ele>
        <time>2009-03-22T14:00:49Z</time>
      </trkpt>
      <trkpt lat="43.84257" lon="7.03612">
        <ele>500.98413</ele>
        <time>2009-03-22T14:00:55Z</time>
      </trkpt>
      <trkpt lat="43.84252" lon="7.0363">
        <ele>501.46484</ele>
        <time>2009-03-22T14:01:01Z</time>
      </trkpt>
      <trkpt lat="43.84248" lon="7.03656">
        <ele>500.98413</ele>
        <time>2009-03-22T14:01:08Z</time>
      </trkpt>
      <trkpt lat="43.84246" lon="7.03685">
        <ele>504.34887</ele>
        <time>2009-03-22T14:01:16Z</time>
      </trkpt>
      <trkpt lat="43.84246" lon="7.03712">
        <ele>506.27148</ele>
        <time>2009-03-22T14:01:24Z</time>
      </trkpt>
      <trkpt lat="43.84246" lon="7.03743">
        <ele>507.23278</ele>
        <time>2009-03-22T14:01:33Z</time>
      </trkpt>
      <trkpt lat="43.84249" lon="7.03767">
        <ele>508.19409</ele>
        <time>2009-03-22T14:01:40Z</time>
      </trkpt>
      <trkpt lat="43.84249" lon="7.03791">
        <ele>507.7135</ele>
        <time>2009-03-22T14:01:47Z</time>
      </trkpt>
      <trkpt lat="43.8425" lon="7.03822">
        <ele>506.75207</ele>
        <time>2009-03-22T14:01:56Z</time>
      </trkpt>
      <trkpt lat="43.84256" lon="7.0384">
        <ele>506.75207</ele>
        <time>2009-03-22T14:02:02Z</time>
      </trkpt>
      <trkpt lat="43.84269" lon="7.03863">
        <ele>508.67468</ele>
        <time>2009-03-22T14:02:10Z</time>
      </trkpt>
      <trkpt lat="43.84277" lon="7.03892">
        <ele>511.078</ele>
        <time>2009-03-22T14:02:19Z</time>
      </trkpt>
      <trkpt lat="43.84281" lon="7.03918">
        <ele>511.078</ele>
        <time>2009-03-22T14:02:26Z</time>
      </trkpt>
      <trkpt lat="43.84285" lon="7.03934">
        <ele>511.078</ele>
        <time>2009-03-22T14:02:30Z</time>
      </trkpt>
      <trkpt lat="43.84301" lon="7.03932">
        <ele>506.27148</ele>
        <time>2009-03-22T14:02:36Z</time>
      </trkpt>
      <trkpt lat="43.84312" lon="7.03919">
        <ele>506.27148</ele>
        <time>2009-03-22T14:02:41Z</time>
      </trkpt>
      <trkpt lat="43.84323" lon="7.03894">
        <ele>506.75207</ele>
        <time>2009-03-22T14:02:48Z</time>
      </trkpt>
      <trkpt lat="43.84334" lon="7.03875">
        <ele>507.23278</ele>
        <time>2009-03-22T14:02:54Z</time>
      </trkpt>
      <trkpt lat="43.84346" lon="7.03857">
        <ele>509.6361</ele>
        <time>2009-03-22T14:03:00Z</time>
      </trkpt>
      <trkpt lat="43.84359" lon="7.03834">
        <ele>513.96203</ele>
        <time>2009-03-22T14:03:07Z</time>
      </trkpt>
      <trkpt lat="43.84363" lon="7.03811">
        <ele>513.00073</ele>
        <time>2009-03-22T14:03:13Z</time>
      </trkpt>
      <trkpt lat="43.84369" lon="7.03785">
        <ele>515.40405</ele>
        <time>2009-03-22T14:03:20Z</time>
      </trkpt>
      <trkpt lat="43.8438" lon="7.03763">
        <ele>518.76855</ele>
        <time>2009-03-22T14:03:27Z</time>
      </trkpt>
      <trkpt lat="43.84397" lon="7.03734">
        <ele>522.61389</ele>
        <time>2009-03-22T14:03:36Z</time>
      </trkpt>
      <trkpt lat="43.84414" lon="7.03705">
        <ele>518.28784</ele>
        <time>2009-03-22T14:03:45Z</time>
      </trkpt>
      <trkpt lat="43.84428" lon="7.03693">
        <ele>524.05578</ele>
        <time>2009-03-22T14:03:51Z</time>
      </trkpt>
      <trkpt lat="43.84434" lon="7.03677">
        <ele>526.4591</ele>
        <time>2009-03-22T14:03:56Z</time>
      </trkpt>
      <trkpt lat="43.84435" lon="7.0365">
        <ele>528.86254</ele>
        <time>2009-03-22T14:04:04Z</time>
      </trkpt>
      <trkpt lat="43.84443" lon="7.03632">
        <ele>526.93981</ele>
        <time>2009-03-22T14:04:10Z</time>
      </trkpt>
      <trkpt lat="43.84459" lon="7.03612">
        <ele>526.93981</ele>
        <time>2009-03-22T14:04:18Z</time>
      </trkpt>
      <trkpt lat="43.84472" lon="7.03596">
        <ele>527.42041</ele>
        <time>2009-03-22T14:04:25Z</time>
      </trkpt>
      <trkpt lat="43.84484" lon="7.03576">
        <ele>531.26574</ele>
        <time>2009-03-22T14:04:32Z</time>
      </trkpt>
      <trkpt lat="43.84493" lon="7.03554">
        <ele>534.63037</ele>
        <time>2009-03-22T14:04:39Z</time>
      </trkpt>
      <trkpt lat="43.84503" lon="7.0354">
        <ele>534.14965</ele>
        <time>2009-03-22T14:04:44Z</time>
      </trkpt>
      <trkpt lat="43.84514" lon="7.03526">
        <ele>534.14965</ele>
        <time>2009-03-22T14:04:50Z</time>
      </trkpt>
      <trkpt lat="43.84528" lon="7.03514">
        <ele>533.66894</ele>
        <time>2009-03-22T14:04:55Z</time>
      </trkpt>
      <trkpt lat="43.84542" lon="7.03491">
        <ele>538.4757</ele>
        <time>2009-03-22T14:05:02Z</time>
      </trkpt>
      <trkpt lat="43.84556" lon="7.03474">
        <ele>537.99499</ele>
        <time>2009-03-22T14:05:09Z</time>
      </trkpt>
      <trkpt lat="43.84577" lon="7.03461">
        <ele>544.72424</ele>
        <time>2009-03-22T14:05:17Z</time>
      </trkpt>
      <trkpt lat="43.84592" lon="7.0345">
        <ele>547.12744</ele>
        <time>2009-03-22T14:05:23Z</time>
      </trkpt>
      <trkpt lat="43.84606" lon="7.03431">
        <ele>550.49218</ele>
        <time>2009-03-22T14:05:30Z</time>
      </trkpt>
      <trkpt lat="43.84622" lon="7.0341">
        <ele>551.45336</ele>
        <time>2009-03-22T14:05:38Z</time>
      </trkpt>
      <trkpt lat="43.84634" lon="7.03391">
        <ele>547.60815</ele>
        <time>2009-03-22T14:05:45Z</time>
      </trkpt>
      <trkpt lat="43.84648" lon="7.03371">
        <ele>541.35949</ele>
        <time>2009-03-22T14:05:52Z</time>
      </trkpt>
      <trkpt lat="43.84663" lon="7.03352">
        <ele>535.59155</ele>
        <time>2009-03-22T14:06:00Z</time>
      </trkpt>
      <trkpt lat="43.84678" lon="7.03338">
        <ele>535.59155</ele>
        <time>2009-03-22T14:06:07Z</time>
      </trkpt>
      <trkpt lat="43.84692" lon="7.03326">
        <ele>534.14965</ele>
        <time>2009-03-22T14:06:13Z</time>
      </trkpt>
      <trkpt lat="43.84704" lon="7.03315">
        <ele>533.18835</ele>
        <time>2009-03-22T14:06:18Z</time>
      </trkpt>
      <trkpt lat="43.84711" lon="7.03325">
        <ele>539.43689</ele>
        <time>2009-03-22T14:06:22Z</time>
      </trkpt>
      <trkpt lat="43.84702" lon="7.03335">
        <ele>543.2821</ele>
        <time>2009-03-22T14:06:26Z</time>
      </trkpt>
      <trkpt lat="43.84699" lon="7.03337">
        <ele>544.24365</ele>
        <time>2009-03-22T14:06:27Z</time>
      </trkpt>
      <trkpt lat="43.84679" lon="7.03352">
        <ele>541.84021</ele>
        <time>2009-03-22T14:06:35Z</time>
      </trkpt>
      <trkpt lat="43.84665" lon="7.0337">
        <ele>541.84021</ele>
        <time>2009-03-22T14:06:42Z</time>
      </trkpt>
      <trkpt lat="43.84649" lon="7.03398">
        <ele>545.20483</ele>
        <time>2009-03-22T14:06:51Z</time>
      </trkpt>
      <trkpt lat="43.84638" lon="7.03418">
        <ele>548.56933</ele>
        <time>2009-03-22T14:06:57Z</time>
      </trkpt>
      <trkpt lat="43.84628" lon="7.03438">
        <ele>553.85668</ele>
        <time>2009-03-22T14:07:03Z</time>
      </trkpt>
      <trkpt lat="43.84617" lon="7.03462">
        <ele>567.31518</ele>
        <time>2009-03-22T14:07:10Z</time>
      </trkpt>
      <trkpt lat="43.846" lon="7.03487">
        <ele>565.39257</ele>
        <time>2009-03-22T14:07:18Z</time>
      </trkpt>
      <trkpt lat="43.84588" lon="7.03499">
        <ele>556.26001</ele>
        <time>2009-03-22T14:07:24Z</time>
      </trkpt>
      <trkpt lat="43.84576" lon="7.03516">
        <ele>550.97265</ele>
        <time>2009-03-22T14:07:31Z</time>
      </trkpt>
      <trkpt lat="43.84564" lon="7.03538">
        <ele>551.93408</ele>
        <time>2009-03-22T14:07:38Z</time>
      </trkpt>
      <trkpt lat="43.84554" lon="7.03561">
        <ele>562.50854</ele>
        <time>2009-03-22T14:07:44Z</time>
      </trkpt>
      <trkpt lat="43.84543" lon="7.03583">
        <ele>567.31518</ele>
        <time>2009-03-22T14:07:51Z</time>
      </trkpt>
      <trkpt lat="43.84533" lon="7.03611">
        <ele>573.56396</ele>
        <time>2009-03-22T14:07:59Z</time>
      </trkpt>
      <trkpt lat="43.84525" lon="7.03637">
        <ele>579.33154</ele>
        <time>2009-03-22T14:08:06Z</time>
      </trkpt>
      <trkpt lat="43.84516" lon="7.03658">
        <ele>584.61889</ele>
        <time>2009-03-22T14:08:12Z</time>
      </trkpt>
      <trkpt lat="43.84505" lon="7.03681">
        <ele>590.86743</ele>
        <time>2009-03-22T14:08:19Z</time>
      </trkpt>
      <trkpt lat="43.84494" lon="7.0371">
        <ele>589.42553</ele>
        <time>2009-03-22T14:08:27Z</time>
      </trkpt>
      <trkpt lat="43.84485" lon="7.03734">
        <ele>588.94506</ele>
        <time>2009-03-22T14:08:34Z</time>
      </trkpt>
      <trkpt lat="43.84476" lon="7.03755">
        <ele>589.42553</ele>
        <time>2009-03-22T14:08:41Z</time>
      </trkpt>
      <trkpt lat="43.84468" lon="7.03781">
        <ele>588.94506</ele>
        <time>2009-03-22T14:08:48Z</time>
      </trkpt>
      <trkpt lat="43.84464" lon="7.03803">
        <ele>590.86743</ele>
        <time>2009-03-22T14:08:54Z</time>
      </trkpt>
      <trkpt lat="43.84468" lon="7.03834">
        <ele>593.75146</ele>
        <time>2009-03-22T14:09:02Z</time>
      </trkpt>
      <trkpt lat="43.84471" lon="7.03858">
        <ele>591.82885</ele>
        <time>2009-03-22T14:09:08Z</time>
      </trkpt>
      <trkpt lat="43.84473" lon="7.03882">
        <ele>591.34814</ele>
        <time>2009-03-22T14:09:14Z</time>
      </trkpt>
      <trkpt lat="43.8447" lon="7.03904">
        <ele>589.90625</ele>
        <time>2009-03-22T14:09:20Z</time>
      </trkpt>
      <trkpt lat="43.84467" lon="7.03928">
        <ele>588.46435</ele>
        <time>2009-03-22T14:09:26Z</time>
      </trkpt>
      <trkpt lat="43.84463" lon="7.03953">
        <ele>588.94506</ele>
        <time>2009-03-22T14:09:33Z</time>
      </trkpt>
      <trkpt lat="43.84456" lon="7.03977">
        <ele>595.19335</ele>
        <time>2009-03-22T14:09:40Z</time>
      </trkpt>
      <trkpt lat="43.84453" lon="7.03996">
        <ele>597.59668</ele>
        <time>2009-03-22T14:09:45Z</time>
      </trkpt>
      <trkpt lat="43.84445" lon="7.0403">
        <ele>604.32617</ele>
        <time>2009-03-22T14:09:54Z</time>
      </trkpt>
      <trkpt lat="43.84434" lon="7.04054">
        <ele>607.20996</ele>
        <time>2009-03-22T14:10:01Z</time>
      </trkpt>
      <trkpt lat="43.84423" lon="7.04073">
        <ele>607.69067</ele>
        <time>2009-03-22T14:10:08Z</time>
      </trkpt>
      <trkpt lat="43.84407" lon="7.04094">
        <ele>607.69067</ele>
        <time>2009-03-22T14:10:16Z</time>
      </trkpt>
      <trkpt lat="43.84401" lon="7.04119">
        <ele>610.09375</ele>
        <time>2009-03-22T14:10:23Z</time>
      </trkpt>
      <trkpt lat="43.84406" lon="7.0415">
        <ele>612.0166</ele>
        <time>2009-03-22T14:10:31Z</time>
      </trkpt>
      <trkpt lat="43.84411" lon="7.0418">
        <ele>609.13256</ele>
        <time>2009-03-22T14:10:38Z</time>
      </trkpt>
      <trkpt lat="43.84415" lon="7.04197">
        <ele>609.13256</ele>
        <time>2009-03-22T14:10:43Z</time>
      </trkpt>
      <trkpt lat="43.84418" lon="7.0422">
        <ele>607.20996</ele>
        <time>2009-03-22T14:10:50Z</time>
      </trkpt>
      <trkpt lat="43.84416" lon="7.04237">
        <ele>603.84521</ele>
        <time>2009-03-22T14:10:55Z</time>
      </trkpt>
      <trkpt lat="43.84404" lon="7.04255">
        <ele>600</ele>
        <time>2009-03-22T14:11:01Z</time>
      </trkpt>
      <trkpt lat="43.84388" lon="7.04271">
        <ele>603.3645</ele>
        <time>2009-03-22T14:11:08Z</time>
      </trkpt>
      <trkpt lat="43.84377" lon="7.04281">
        <ele>608.17138</ele>
        <time>2009-03-22T14:11:14Z</time>
      </trkpt>
      <trkpt lat="43.84366" lon="7.043">
        <ele>612.97778</ele>
        <time>2009-03-22T14:11:20Z</time>
      </trkpt>
      <trkpt lat="43.84362" lon="7.04322">
        <ele>617.78418</ele>
        <time>2009-03-22T14:11:26Z</time>
      </trkpt>
      <trkpt lat="43.84355" lon="7.04357">
        <ele>621.14917</ele>
        <time>2009-03-22T14:11:36Z</time>
      </trkpt>
      <trkpt lat="43.84349" lon="7.0438">
        <ele>621.14917</ele>
        <time>2009-03-22T14:11:43Z</time>
      </trkpt>
      <trkpt lat="43.84337" lon="7.04411">
        <ele>620.66845</ele>
        <time>2009-03-22T14:11:52Z</time>
      </trkpt>
      <trkpt lat="43.84333" lon="7.04432">
        <ele>621.14917</ele>
        <time>2009-03-22T14:11:58Z</time>
      </trkpt>
      <trkpt lat="43.84328" lon="7.04464">
        <ele>612.97778</ele>
        <time>2009-03-22T14:12:07Z</time>
      </trkpt>
      <trkpt lat="43.84323" lon="7.04486">
        <ele>610.09375</ele>
        <time>2009-03-22T14:12:14Z</time>
      </trkpt>
      <trkpt lat="43.84319" lon="7.04502">
        <ele>611.05517</ele>
        <time>2009-03-22T14:12:19Z</time>
      </trkpt>
      <trkpt lat="43.84313" lon="7.04524">
        <ele>616.82299</ele>
        <time>2009-03-22T14:12:26Z</time>
      </trkpt>
      <trkpt lat="43.84308" lon="7.04546">
        <ele>619.22631</ele>
        <time>2009-03-22T14:12:33Z</time>
      </trkpt>
      <trkpt lat="43.84307" lon="7.0457">
        <ele>618.7456</ele>
        <time>2009-03-22T14:12:40Z</time>
      </trkpt>
      <trkpt lat="43.8431" lon="7.04591">
        <ele>613.93896</ele>
        <time>2009-03-22T14:12:46Z</time>
      </trkpt>
      <trkpt lat="43.84305" lon="7.04611">
        <ele>612.97778</ele>
        <time>2009-03-22T14:12:52Z</time>
      </trkpt>
      <trkpt lat="43.84292" lon="7.04629">
        <ele>611.05517</ele>
        <time>2009-03-22T14:13:00Z</time>
      </trkpt>
      <trkpt lat="43.84283" lon="7.04645">
        <ele>610.57446</ele>
        <time>2009-03-22T14:13:06Z</time>
      </trkpt>
      <trkpt lat="43.84279" lon="7.04665">
        <ele>611.05517</ele>
        <time>2009-03-22T14:13:13Z</time>
      </trkpt>
      <trkpt lat="43.84278" lon="7.04687">
        <ele>609.13256</ele>
        <time>2009-03-22T14:13:19Z</time>
      </trkpt>
      <trkpt lat="43.84279" lon="7.0471">
        <ele>604.80664</ele>
        <time>2009-03-22T14:13:26Z</time>
      </trkpt>
      <trkpt lat="43.84274" lon="7.04733">
        <ele>604.80664</ele>
        <time>2009-03-22T14:13:33Z</time>
      </trkpt>
      <trkpt lat="43.84266" lon="7.04762">
        <ele>610.57446</ele>
        <time>2009-03-22T14:13:42Z</time>
      </trkpt>
      <trkpt lat="43.84262" lon="7.04789">
        <ele>610.57446</ele>
        <time>2009-03-22T14:13:50Z</time>
      </trkpt>
      <trkpt lat="43.8426" lon="7.04819">
        <ele>616.82299</ele>
        <time>2009-03-22T14:13:59Z</time>
      </trkpt>
      <trkpt lat="43.84254" lon="7.04855">
        <ele>616.34228</ele>
        <time>2009-03-22T14:14:10Z</time>
      </trkpt>
      <trkpt lat="43.8425" lon="7.04879">
        <ele>618.7456</ele>
        <time>2009-03-22T14:14:17Z</time>
      </trkpt>
      <trkpt lat="43.84241" lon="7.04899">
        <ele>621.14917</ele>
        <time>2009-03-22T14:14:24Z</time>
      </trkpt>
      <trkpt lat="43.84241" lon="7.04905">
        <ele>622.59106</ele>
        <time>2009-03-22T14:14:30Z</time>
      </trkpt>
      <trkpt lat="43.84241" lon="7.04905">
        <ele>618.7456</ele>
        <time>2009-03-22T14:14:35Z</time>
      </trkpt>
      <trkpt lat="43.84235" lon="7.0491">
        <ele>623.55249</ele>
        <time>2009-03-22T14:15:43Z</time>
      </trkpt>
      <trkpt lat="43.84236" lon="7.0491">
        <ele>623.07177</ele>
        <time>2009-03-22T14:16:01Z</time>
      </trkpt>
      <trkpt lat="43.84236" lon="7.04905">
        <ele>615.86181</ele>
        <time>2009-03-22T14:16:21Z</time>
      </trkpt>
      <trkpt lat="43.8424" lon="7.04905">
        <ele>605.28735</ele>
        <time>2009-03-22T14:17:31Z</time>
      </trkpt>
      <trkpt lat="43.8424" lon="7.04905">
        <ele>617.30371</ele>
        <time>2009-03-22T14:30:29Z</time>
      </trkpt>
      <trkpt lat="43.84243" lon="7.04904">
        <ele>619.70703</ele>
        <time>2009-03-22T14:30:34Z</time>
      </trkpt>
      <trkpt lat="43.84243" lon="7.04904">
        <ele>620.18774</ele>
        <time>2009-03-22T14:30:36Z</time>
      </trkpt>
      <trkpt lat="43.8425" lon="7.04902">
        <ele>620.66845</ele>
        <time>2009-03-22T14:30:41Z</time>
      </trkpt>
      <trkpt lat="43.8426" lon="7.04898">
        <ele>620.66845</ele>
        <time>2009-03-22T14:30:46Z</time>
      </trkpt>
      <trkpt lat="43.84261" lon="7.04897">
        <ele>621.14917</ele>
        <time>2009-03-22T14:30:47Z</time>
      </trkpt>
      <trkpt lat="43.84271" lon="7.04892">
        <ele>620.18774</ele>
        <time>2009-03-22T14:30:54Z</time>
      </trkpt>
      <trkpt lat="43.84281" lon="7.04892">
        <ele>618.7456</ele>
        <time>2009-03-22T14:31:00Z</time>
      </trkpt>
      <trkpt lat="43.84293" lon="7.04897">
        <ele>617.78418</ele>
        <time>2009-03-22T14:31:05Z</time>
      </trkpt>
      <trkpt lat="43.84299" lon="7.0491">
        <ele>612.49707</ele>
        <time>2009-03-22T14:31:09Z</time>
      </trkpt>
      <trkpt lat="43.84298" lon="7.04915">
        <ele>611.05517</ele>
        <time>2009-03-22T14:31:13Z</time>
      </trkpt>
      <trkpt lat="43.84291" lon="7.04918">
        <ele>611.05517</ele>
        <time>2009-03-22T14:31:19Z</time>
      </trkpt>
      <trkpt lat="43.84289" lon="7.04921">
        <ele>616.34228</ele>
        <time>2009-03-22T14:31:31Z</time>
      </trkpt>
      <trkpt lat="43.84279" lon="7.04923">
        <ele>613.45849</ele>
        <time>2009-03-22T14:31:35Z</time>
      </trkpt>
      <trkpt lat="43.84274" lon="7.04926">
        <ele>612.0166</ele>
        <time>2009-03-22T14:31:37Z</time>
      </trkpt>
      <trkpt lat="43.84272" lon="7.04934">
        <ele>611.53588</ele>
        <time>2009-03-22T14:31:40Z</time>
      </trkpt>
      <trkpt lat="43.84276" lon="7.04941">
        <ele>609.61328</ele>
        <time>2009-03-22T14:31:44Z</time>
      </trkpt>
      <trkpt lat="43.84276" lon="7.04941">
        <ele>606.72924</ele>
        <time>2009-03-22T14:31:54Z</time>
      </trkpt>
      <trkpt lat="43.84276" lon="7.0494">
        <ele>606.24853</ele>
        <time>2009-03-22T14:31:56Z</time>
      </trkpt>
      <trkpt lat="43.84288" lon="7.04933">
        <ele>606.72924</ele>
        <time>2009-03-22T14:32:02Z</time>
      </trkpt>
      <trkpt lat="43.84295" lon="7.04936">
        <ele>605.28735</ele>
        <time>2009-03-22T14:32:05Z</time>
      </trkpt>
      <trkpt lat="43.84295" lon="7.04944">
        <ele>604.80664</ele>
        <time>2009-03-22T14:32:10Z</time>
      </trkpt>
      <trkpt lat="43.8429" lon="7.04948">
        <ele>601.9226</ele>
        <time>2009-03-22T14:32:15Z</time>
      </trkpt>
      <trkpt lat="43.84284" lon="7.04952">
        <ele>602.40307</ele>
        <time>2009-03-22T14:32:20Z</time>
      </trkpt>
      <trkpt lat="43.84284" lon="7.04952">
        <ele>600.96118</ele>
        <time>2009-03-22T14:32:28Z</time>
      </trkpt>
      <trkpt lat="43.84285" lon="7.04949">
        <ele>599.51928</ele>
        <time>2009-03-22T14:32:39Z</time>
      </trkpt>
      <trkpt lat="43.84285" lon="7.04949">
        <ele>596.15478</ele>
        <time>2009-03-22T14:32:44Z</time>
      </trkpt>
      <trkpt lat="43.84289" lon="7.04947">
        <ele>595.67407</ele>
        <time>2009-03-22T14:32:51Z</time>
      </trkpt>
      <trkpt lat="43.84292" lon="7.04945">
        <ele>595.67407</ele>
        <time>2009-03-22T14:32:56Z</time>
      </trkpt>
      <trkpt lat="43.84298" lon="7.04941">
        <ele>595.19335</ele>
        <time>2009-03-22T14:33:04Z</time>
      </trkpt>
      <trkpt lat="43.84298" lon="7.04941">
        <ele>595.67407</ele>
        <time>2009-03-22T14:33:06Z</time>
      </trkpt>
      <trkpt lat="43.84294" lon="7.04933">
        <ele>594.71264</ele>
        <time>2009-03-22T14:33:11Z</time>
      </trkpt>
      <trkpt lat="43.84282" lon="7.04933">
        <ele>596.63549</ele>
        <time>2009-03-22T14:33:18Z</time>
      </trkpt>
      <trkpt lat="43.84276" lon="7.04936">
        <ele>598.07739</ele>
        <time>2009-03-22T14:33:23Z</time>
      </trkpt>
      <trkpt lat="43.84276" lon="7.04943">
        <ele>600.96118</ele>
        <time>2009-03-22T14:33:29Z</time>
      </trkpt>
      <trkpt lat="43.84272" lon="7.04948">
        <ele>614.41967</ele>
        <time>2009-03-22T14:33:51Z</time>
      </trkpt>
      <trkpt lat="43.84273" lon="7.04943">
        <ele>605.28735</ele>
        <time>2009-03-22T14:36:10Z</time>
      </trkpt>
      <trkpt lat="43.84273" lon="7.0494">
        <ele>604.80664</ele>
        <time>2009-03-22T14:36:15Z</time>
      </trkpt>
      <trkpt lat="43.84277" lon="7.04939">
        <ele>604.80664</ele>
        <time>2009-03-22T14:36:22Z</time>
      </trkpt>
      <trkpt lat="43.84277" lon="7.04944">
        <ele>605.28735</ele>
        <time>2009-03-22T14:36:49Z</time>
      </trkpt>
      <trkpt lat="43.8428" lon="7.04943">
        <ele>608.65185</ele>
        <time>2009-03-22T14:37:10Z</time>
      </trkpt>
      <trkpt lat="43.84278" lon="7.04941">
        <ele>608.17138</ele>
        <time>2009-03-22T14:37:20Z</time>
      </trkpt>
      <trkpt lat="43.84275" lon="7.04935">
        <ele>607.69067</ele>
        <time>2009-03-22T14:37:26Z</time>
      </trkpt>
      <trkpt lat="43.84275" lon="7.04933">
        <ele>606.24853</ele>
        <time>2009-03-22T14:37:30Z</time>
      </trkpt>
      <trkpt lat="43.84278" lon="7.04922">
        <ele>607.69067</ele>
        <time>2009-03-22T14:37:35Z</time>
      </trkpt>
      <trkpt lat="43.8429" lon="7.04915">
        <ele>607.69067</ele>
        <time>2009-03-22T14:37:43Z</time>
      </trkpt>
      <trkpt lat="43.84299" lon="7.04914">
        <ele>610.57446</ele>
        <time>2009-03-22T14:37:50Z</time>
      </trkpt>
      <trkpt lat="43.84298" lon="7.04904">
        <ele>610.09375</ele>
        <time>2009-03-22T14:37:56Z</time>
      </trkpt>
      <trkpt lat="43.84296" lon="7.049">
        <ele>609.13256</ele>
        <time>2009-03-22T14:37:58Z</time>
      </trkpt>
      <trkpt lat="43.84285" lon="7.04893">
        <ele>610.57446</ele>
        <time>2009-03-22T14:38:06Z</time>
      </trkpt>
      <trkpt lat="43.84276" lon="7.04891">
        <ele>609.13256</ele>
        <time>2009-03-22T14:38:12Z</time>
      </trkpt>
      <trkpt lat="43.84263" lon="7.04893">
        <ele>611.05517</ele>
        <time>2009-03-22T14:38:18Z</time>
      </trkpt>
      <trkpt lat="43.84249" lon="7.04897">
        <ele>616.82299</ele>
        <time>2009-03-22T14:38:22Z</time>
      </trkpt>
      <trkpt lat="43.84236" lon="7.049">
        <ele>618.26489</ele>
        <time>2009-03-22T14:38:25Z</time>
      </trkpt>
      <trkpt lat="43.84224" lon="7.04905">
        <ele>618.7456</ele>
        <time>2009-03-22T14:38:28Z</time>
      </trkpt>
      <trkpt lat="43.84196" lon="7.04916">
        <ele>622.59106</ele>
        <time>2009-03-22T14:38:35Z</time>
      </trkpt>
      <trkpt lat="43.84168" lon="7.04928">
        <ele>622.59106</ele>
        <time>2009-03-22T14:38:43Z</time>
      </trkpt>
      <trkpt lat="43.84145" lon="7.04948">
        <ele>618.7456</ele>
        <time>2009-03-22T14:38:51Z</time>
      </trkpt>
      <trkpt lat="43.84125" lon="7.04956">
        <ele>618.26489</ele>
        <time>2009-03-22T14:38:57Z</time>
      </trkpt>
      <trkpt lat="43.8409" lon="7.0495">
        <ele>618.7456</ele>
        <time>2009-03-22T14:39:06Z</time>
      </trkpt>
      <trkpt lat="43.84069" lon="7.04957">
        <ele>618.7456</ele>
        <time>2009-03-22T14:39:11Z</time>
      </trkpt>
      <trkpt lat="43.84057" lon="7.04978">
        <ele>616.82299</ele>
        <time>2009-03-22T14:39:16Z</time>
      </trkpt>
      <trkpt lat="43.84052" lon="7.05001">
        <ele>613.93896</ele>
        <time>2009-03-22T14:39:20Z</time>
      </trkpt>
      <trkpt lat="43.84039" lon="7.0502">
        <ele>612.0166</ele>
        <time>2009-03-22T14:39:24Z</time>
      </trkpt>
      <trkpt lat="43.84035" lon="7.05023">
        <ele>611.05517</ele>
        <time>2009-03-22T14:39:25Z</time>
      </trkpt>
      <trkpt lat="43.84025" lon="7.05027">
        <ele>610.09375</ele>
        <time>2009-03-22T14:39:27Z</time>
      </trkpt>
      <trkpt lat="43.84011" lon="7.05031">
        <ele>608.65185</ele>
        <time>2009-03-22T14:39:30Z</time>
      </trkpt>
      <trkpt lat="43.83997" lon="7.05033">
        <ele>607.69067</ele>
        <time>2009-03-22T14:39:33Z</time>
      </trkpt>
      <trkpt lat="43.83981" lon="7.05047">
        <ele>606.72924</ele>
        <time>2009-03-22T14:39:37Z</time>
      </trkpt>
      <trkpt lat="43.83978" lon="7.05068">
        <ele>605.76806</ele>
        <time>2009-03-22T14:39:40Z</time>
      </trkpt>
      <trkpt lat="43.83977" lon="7.05083">
        <ele>604.80664</ele>
        <time>2009-03-22T14:39:42Z</time>
      </trkpt>
      <trkpt lat="43.83975" lon="7.05105">
        <ele>603.84521</ele>
        <time>2009-03-22T14:39:45Z</time>
      </trkpt>
      <trkpt lat="43.83978" lon="7.05139">
        <ele>601.44189</ele>
        <time>2009-03-22T14:39:49Z</time>
      </trkpt>
      <trkpt lat="43.83991" lon="7.05155">
        <ele>600</ele>
        <time>2009-03-22T14:39:52Z</time>
      </trkpt>
      <trkpt lat="43.84012" lon="7.05166">
        <ele>600.96118</ele>
        <time>2009-03-22T14:39:56Z</time>
      </trkpt>
      <trkpt lat="43.84041" lon="7.05173">
        <ele>601.44189</ele>
        <time>2009-03-22T14:40:01Z</time>
      </trkpt>
      <trkpt lat="43.84057" lon="7.05185">
        <ele>609.13256</ele>
        <time>2009-03-22T14:40:05Z</time>
      </trkpt>
      <trkpt lat="43.8406" lon="7.05201">
        <ele>609.13256</ele>
        <time>2009-03-22T14:40:07Z</time>
      </trkpt>
      <trkpt lat="43.84075" lon="7.0526">
        <ele>609.13256</ele>
        <time>2009-03-22T14:40:15Z</time>
      </trkpt>
      <trkpt lat="43.84087" lon="7.05312">
        <ele>610.09375</ele>
        <time>2009-03-22T14:40:22Z</time>
      </trkpt>
      <trkpt lat="43.84092" lon="7.05368">
        <ele>607.69067</ele>
        <time>2009-03-22T14:40:29Z</time>
      </trkpt>
      <trkpt lat="43.84091" lon="7.05384">
        <ele>608.17138</ele>
        <time>2009-03-22T14:40:31Z</time>
      </trkpt>
      <trkpt lat="43.84082" lon="7.05413">
        <ele>607.20996</ele>
        <time>2009-03-22T14:40:35Z</time>
      </trkpt>
      <trkpt lat="43.84071" lon="7.05431">
        <ele>606.24853</ele>
        <time>2009-03-22T14:40:38Z</time>
      </trkpt>
      <trkpt lat="43.84061" lon="7.05466">
        <ele>604.80664</ele>
        <time>2009-03-22T14:40:43Z</time>
      </trkpt>
      <trkpt lat="43.84062" lon="7.05483">
        <ele>604.80664</ele>
        <time>2009-03-22T14:40:45Z</time>
      </trkpt>
      <trkpt lat="43.84062" lon="7.05508">
        <ele>602.88378</ele>
        <time>2009-03-22T14:40:48Z</time>
      </trkpt>
      <trkpt lat="43.84051" lon="7.05544">
        <ele>600.48071</ele>
        <time>2009-03-22T14:40:53Z</time>
      </trkpt>
      <trkpt lat="43.8404" lon="7.05597">
        <ele>596.63549</ele>
        <time>2009-03-22T14:41:00Z</time>
      </trkpt>
      <trkpt lat="43.84025" lon="7.05618">
        <ele>596.15478</ele>
        <time>2009-03-22T14:41:04Z</time>
      </trkpt>
      <trkpt lat="43.8402" lon="7.05619">
        <ele>596.63549</ele>
        <time>2009-03-22T14:41:05Z</time>
      </trkpt>
      <trkpt lat="43.83996" lon="7.05617">
        <ele>600</ele>
        <time>2009-03-22T14:41:10Z</time>
      </trkpt>
      <trkpt lat="43.83971" lon="7.05624">
        <ele>604.80664</ele>
        <time>2009-03-22T14:41:16Z</time>
      </trkpt>
      <trkpt lat="43.83958" lon="7.05655">
        <ele>607.20996</ele>
        <time>2009-03-22T14:41:20Z</time>
      </trkpt>
      <trkpt lat="43.83945" lon="7.05682">
        <ele>608.65185</ele>
        <time>2009-03-22T14:41:24Z</time>
      </trkpt>
      <trkpt lat="43.83944" lon="7.05689">
        <ele>608.65185</ele>
        <time>2009-03-22T14:41:25Z</time>
      </trkpt>
      <trkpt lat="43.8394" lon="7.05706">
        <ele>609.61328</ele>
        <time>2009-03-22T14:41:27Z</time>
      </trkpt>
      <trkpt lat="43.83941" lon="7.05739">
        <ele>608.65185</ele>
        <time>2009-03-22T14:41:31Z</time>
      </trkpt>
      <trkpt lat="43.83947" lon="7.05773">
        <ele>609.13256</ele>
        <time>2009-03-22T14:41:35Z</time>
      </trkpt>
      <trkpt lat="43.83944" lon="7.05815">
        <ele>608.65185</ele>
        <time>2009-03-22T14:41:40Z</time>
      </trkpt>
      <trkpt lat="43.83937" lon="7.05837">
        <ele>608.17138</ele>
        <time>2009-03-22T14:41:43Z</time>
      </trkpt>
      <trkpt lat="43.83935" lon="7.05869">
        <ele>606.72924</ele>
        <time>2009-03-22T14:41:47Z</time>
      </trkpt>
      <trkpt lat="43.83944" lon="7.05899">
        <ele>607.20996</ele>
        <time>2009-03-22T14:41:51Z</time>
      </trkpt>
      <trkpt lat="43.8395" lon="7.05932">
        <ele>609.61328</ele>
        <time>2009-03-22T14:41:55Z</time>
      </trkpt>
      <trkpt lat="43.83944" lon="7.05962">
        <ele>610.57446</ele>
        <time>2009-03-22T14:41:59Z</time>
      </trkpt>
      <trkpt lat="43.83928" lon="7.05993">
        <ele>611.53588</ele>
        <time>2009-03-22T14:42:04Z</time>
      </trkpt>
      <trkpt lat="43.83924" lon="7.0601">
        <ele>611.53588</ele>
        <time>2009-03-22T14:42:06Z</time>
      </trkpt>
      <trkpt lat="43.8391" lon="7.06064">
        <ele>611.53588</ele>
        <time>2009-03-22T14:42:13Z</time>
      </trkpt>
      <trkpt lat="43.83906" lon="7.06088">
        <ele>611.53588</ele>
        <time>2009-03-22T14:42:16Z</time>
      </trkpt>
      <trkpt lat="43.83914" lon="7.06116">
        <ele>612.0166</ele>
        <time>2009-03-22T14:42:20Z</time>
      </trkpt>
      <trkpt lat="43.83919" lon="7.06119">
        <ele>612.0166</ele>
        <time>2009-03-22T14:42:21Z</time>
      </trkpt>
      <trkpt lat="43.83941" lon="7.06147">
        <ele>613.93896</ele>
        <time>2009-03-22T14:42:26Z</time>
      </trkpt>
      <trkpt lat="43.83962" lon="7.06181">
        <ele>613.45849</ele>
        <time>2009-03-22T14:42:31Z</time>
      </trkpt>
      <trkpt lat="43.83984" lon="7.06189">
        <ele>609.13256</ele>
        <time>2009-03-22T14:42:34Z</time>
      </trkpt>
      <trkpt lat="43.84" lon="7.06209">
        <ele>606.72924</ele>
        <time>2009-03-22T14:42:37Z</time>
      </trkpt>
      <trkpt lat="43.84004" lon="7.06238">
        <ele>606.72924</ele>
        <time>2009-03-22T14:42:40Z</time>
      </trkpt>
      <trkpt lat="43.84001" lon="7.06321">
        <ele>604.80664</ele>
        <time>2009-03-22T14:42:49Z</time>
      </trkpt>
      <trkpt lat="43.84" lon="7.0638">
        <ele>603.3645</ele>
        <time>2009-03-22T14:42:55Z</time>
      </trkpt>
      <trkpt lat="43.84004" lon="7.06446">
        <ele>605.28735</ele>
        <time>2009-03-22T14:43:01Z</time>
      </trkpt>
      <trkpt lat="43.84009" lon="7.06478">
        <ele>605.76806</ele>
        <time>2009-03-22T14:43:04Z</time>
      </trkpt>
      <trkpt lat="43.84006" lon="7.06529">
        <ele>605.28735</ele>
        <time>2009-03-22T14:43:09Z</time>
      </trkpt>
      <trkpt lat="43.83996" lon="7.06554">
        <ele>604.80664</ele>
        <time>2009-03-22T14:43:12Z</time>
      </trkpt>
      <trkpt lat="43.83984" lon="7.06579">
        <ele>605.28735</ele>
        <time>2009-03-22T14:43:15Z</time>
      </trkpt>
      <trkpt lat="43.83976" lon="7.06616">
        <ele>604.32617</ele>
        <time>2009-03-22T14:43:19Z</time>
      </trkpt>
      <trkpt lat="43.83977" lon="7.06626">
        <ele>605.28735</ele>
        <time>2009-03-22T14:43:20Z</time>
      </trkpt>
      <trkpt lat="43.8398" lon="7.06655">
        <ele>606.24853</ele>
        <time>2009-03-22T14:43:23Z</time>
      </trkpt>
      <trkpt lat="43.83976" lon="7.06712">
        <ele>606.72924</ele>
        <time>2009-03-22T14:43:29Z</time>
      </trkpt>
      <trkpt lat="43.83975" lon="7.06722">
        <ele>606.72924</ele>
        <time>2009-03-22T14:43:30Z</time>
      </trkpt>
      <trkpt lat="43.83975" lon="7.06777">
        <ele>606.24853</ele>
        <time>2009-03-22T14:43:35Z</time>
      </trkpt>
      <trkpt lat="43.83972" lon="7.06856">
        <ele>602.40307</ele>
        <time>2009-03-22T14:43:42Z</time>
      </trkpt>
      <trkpt lat="43.83968" lon="7.06878">
        <ele>601.44189</ele>
        <time>2009-03-22T14:43:44Z</time>
      </trkpt>
      <trkpt lat="43.83969" lon="7.06936">
        <ele>600.96118</ele>
        <time>2009-03-22T14:43:49Z</time>
      </trkpt>
      <trkpt lat="43.83977" lon="7.07007">
        <ele>600</ele>
        <time>2009-03-22T14:43:55Z</time>
      </trkpt>
      <trkpt lat="43.83979" lon="7.07067">
        <ele>600</ele>
        <time>2009-03-22T14:44:00Z</time>
      </trkpt>
      <trkpt lat="43.83988" lon="7.07152">
        <ele>599.51928</ele>
        <time>2009-03-22T14:44:07Z</time>
      </trkpt>
      <trkpt lat="43.83992" lon="7.07235">
        <ele>599.51928</ele>
        <time>2009-03-22T14:44:14Z</time>
      </trkpt>
      <trkpt lat="43.83994" lon="7.07285">
        <ele>599.03857</ele>
        <time>2009-03-22T14:44:19Z</time>
      </trkpt>
      <trkpt lat="43.83989" lon="7.07327">
        <ele>599.03857</ele>
        <time>2009-03-22T14:44:23Z</time>
      </trkpt>
      <trkpt lat="43.83991" lon="7.0737">
        <ele>599.03857</ele>
        <time>2009-03-22T14:44:27Z</time>
      </trkpt>
      <trkpt lat="43.83994" lon="7.07381">
        <ele>599.03857</ele>
        <time>2009-03-22T14:44:28Z</time>
      </trkpt>
      <trkpt lat="43.84005" lon="7.07412">
        <ele>598.55786</ele>
        <time>2009-03-22T14:44:31Z</time>
      </trkpt>
      <trkpt lat="43.84011" lon="7.07477">
        <ele>599.03857</ele>
        <time>2009-03-22T14:44:37Z</time>
      </trkpt>
      <trkpt lat="43.84005" lon="7.07538">
        <ele>600.48071</ele>
        <time>2009-03-22T14:44:43Z</time>
      </trkpt>
      <trkpt lat="43.83998" lon="7.07602">
        <ele>600.48071</ele>
        <time>2009-03-22T14:44:49Z</time>
      </trkpt>
      <trkpt lat="43.83997" lon="7.07675">
        <ele>601.44189</ele>
        <time>2009-03-22T14:44:56Z</time>
      </trkpt>
      <trkpt lat="43.84002" lon="7.07753">
        <ele>600.96118</ele>
        <time>2009-03-22T14:45:04Z</time>
      </trkpt>
      <trkpt lat="43.84006" lon="7.0784">
        <ele>603.3645</ele>
        <time>2009-03-22T14:45:13Z</time>
      </trkpt>
      <trkpt lat="43.84009" lon="7.07895">
        <ele>603.84521</ele>
        <time>2009-03-22T14:45:19Z</time>
      </trkpt>
      <trkpt lat="43.84017" lon="7.07927">
        <ele>604.80664</ele>
        <time>2009-03-22T14:45:24Z</time>
      </trkpt>
      <trkpt lat="43.84019" lon="7.07938">
        <ele>604.80664</ele>
        <time>2009-03-22T14:45:26Z</time>
      </trkpt>
      <trkpt lat="43.84022" lon="7.07949">
        <ele>604.32617</ele>
        <time>2009-03-22T14:45:28Z</time>
      </trkpt>
      <trkpt lat="43.84026" lon="7.07988">
        <ele>604.80664</ele>
        <time>2009-03-22T14:45:35Z</time>
      </trkpt>
      <trkpt lat="43.84026" lon="7.0801">
        <ele>604.80664</ele>
        <time>2009-03-22T14:45:38Z</time>
      </trkpt>
      <trkpt lat="43.84019" lon="7.08054">
        <ele>603.84521</ele>
        <time>2009-03-22T14:45:44Z</time>
      </trkpt>
      <trkpt lat="43.84023" lon="7.08092">
        <ele>605.28735</ele>
        <time>2009-03-22T14:45:49Z</time>
      </trkpt>
      <trkpt lat="43.84037" lon="7.08143">
        <ele>608.65185</ele>
        <time>2009-03-22T14:45:56Z</time>
      </trkpt>
      <trkpt lat="43.84041" lon="7.0818">
        <ele>609.13256</ele>
        <time>2009-03-22T14:46:00Z</time>
      </trkpt>
      <trkpt lat="43.84041" lon="7.08198">
        <ele>609.13256</ele>
        <time>2009-03-22T14:46:02Z</time>
      </trkpt>
      <trkpt lat="43.84035" lon="7.08232">
        <ele>608.17138</ele>
        <time>2009-03-22T14:46:06Z</time>
      </trkpt>
      <trkpt lat="43.84034" lon="7.0827">
        <ele>604.32617</ele>
        <time>2009-03-22T14:46:10Z</time>
      </trkpt>
      <trkpt lat="43.84039" lon="7.08316">
        <ele>601.9226</ele>
        <time>2009-03-22T14:46:15Z</time>
      </trkpt>
      <trkpt lat="43.84034" lon="7.08358">
        <ele>601.44189</ele>
        <time>2009-03-22T14:46:20Z</time>
      </trkpt>
      <trkpt lat="43.84034" lon="7.08386">
        <ele>601.9226</ele>
        <time>2009-03-22T14:46:23Z</time>
      </trkpt>
      <trkpt lat="43.84041" lon="7.08412">
        <ele>601.9226</ele>
        <time>2009-03-22T14:46:26Z</time>
      </trkpt>
      <trkpt lat="43.84045" lon="7.08475">
        <ele>600.96118</ele>
        <time>2009-03-22T14:46:33Z</time>
      </trkpt>
      <trkpt lat="43.84031" lon="7.08498">
        <ele>600.96118</ele>
        <time>2009-03-22T14:46:36Z</time>
      </trkpt>
      <trkpt lat="43.8401" lon="7.08533">
        <ele>601.44189</ele>
        <time>2009-03-22T14:46:41Z</time>
      </trkpt>
      <trkpt lat="43.8401" lon="7.08561">
        <ele>601.44189</ele>
        <time>2009-03-22T14:46:44Z</time>
      </trkpt>
      <trkpt lat="43.84011" lon="7.08634">
        <ele>606.24853</ele>
        <time>2009-03-22T14:46:52Z</time>
      </trkpt>
      <trkpt lat="43.84011" lon="7.08702">
        <ele>607.20996</ele>
        <time>2009-03-22T14:46:59Z</time>
      </trkpt>
      <trkpt lat="43.84009" lon="7.0876">
        <ele>607.20996</ele>
        <time>2009-03-22T14:47:05Z</time>
      </trkpt>
      <trkpt lat="43.84013" lon="7.08798">
        <ele>605.28735</ele>
        <time>2009-03-22T14:47:09Z</time>
      </trkpt>
      <trkpt lat="43.84024" lon="7.08822">
        <ele>605.76806</ele>
        <time>2009-03-22T14:47:12Z</time>
      </trkpt>
      <trkpt lat="43.84037" lon="7.08878">
        <ele>606.24853</ele>
        <time>2009-03-22T14:47:19Z</time>
      </trkpt>
      <trkpt lat="43.84039" lon="7.08912">
        <ele>605.28735</ele>
        <time>2009-03-22T14:47:23Z</time>
      </trkpt>
      <trkpt lat="43.84051" lon="7.08942">
        <ele>604.32617</ele>
        <time>2009-03-22T14:47:27Z</time>
      </trkpt>
      <trkpt lat="43.84062" lon="7.0896">
        <ele>602.88378</ele>
        <time>2009-03-22T14:47:30Z</time>
      </trkpt>
      <trkpt lat="43.84089" lon="7.08977">
        <ele>602.88378</ele>
        <time>2009-03-22T14:47:35Z</time>
      </trkpt>
      <trkpt lat="43.84129" lon="7.08999">
        <ele>602.88378</ele>
        <time>2009-03-22T14:47:42Z</time>
      </trkpt>
      <trkpt lat="43.84161" lon="7.09029">
        <ele>601.9226</ele>
        <time>2009-03-22T14:47:48Z</time>
      </trkpt>
      <trkpt lat="43.84179" lon="7.09061">
        <ele>600.96118</ele>
        <time>2009-03-22T14:47:53Z</time>
      </trkpt>
      <trkpt lat="43.84203" lon="7.09099">
        <ele>602.40307</ele>
        <time>2009-03-22T14:47:59Z</time>
      </trkpt>
      <trkpt lat="43.84228" lon="7.09107">
        <ele>601.44189</ele>
        <time>2009-03-22T14:48:03Z</time>
      </trkpt>
      <trkpt lat="43.84244" lon="7.09091">
        <ele>601.44189</ele>
        <time>2009-03-22T14:48:06Z</time>
      </trkpt>
      <trkpt lat="43.84246" lon="7.09063">
        <ele>601.44189</ele>
        <time>2009-03-22T14:48:09Z</time>
      </trkpt>
      <trkpt lat="43.84245" lon="7.09053">
        <ele>601.9226</ele>
        <time>2009-03-22T14:48:10Z</time>
      </trkpt>
      <trkpt lat="43.84243" lon="7.09">
        <ele>601.9226</ele>
        <time>2009-03-22T14:48:15Z</time>
      </trkpt>
      <trkpt lat="43.84254" lon="7.08962">
        <ele>603.3645</ele>
        <time>2009-03-22T14:48:19Z</time>
      </trkpt>
      <trkpt lat="43.84272" lon="7.08969">
        <ele>600.96118</ele>
        <time>2009-03-22T14:48:21Z</time>
      </trkpt>
      <trkpt lat="43.84279" lon="7.0897">
        <ele>601.9226</ele>
        <time>2009-03-22T14:48:22Z</time>
      </trkpt>
      <trkpt lat="43.84305" lon="7.08992">
        <ele>598.55786</ele>
        <time>2009-03-22T14:48:27Z</time>
      </trkpt>
      <trkpt lat="43.84329" lon="7.0903">
        <ele>601.9226</ele>
        <time>2009-03-22T14:48:34Z</time>
      </trkpt>
      <trkpt lat="43.84342" lon="7.09049">
        <ele>601.9226</ele>
        <time>2009-03-22T14:48:38Z</time>
      </trkpt>
      <trkpt lat="43.84353" lon="7.09085">
        <ele>601.9226</ele>
        <time>2009-03-22T14:48:43Z</time>
      </trkpt>
      <trkpt lat="43.84364" lon="7.09139">
        <ele>601.44189</ele>
        <time>2009-03-22T14:48:50Z</time>
      </trkpt>
      <trkpt lat="43.84375" lon="7.09197">
        <ele>600.48071</ele>
        <time>2009-03-22T14:48:57Z</time>
      </trkpt>
      <trkpt lat="43.84378" lon="7.09215">
        <ele>600</ele>
        <time>2009-03-22T14:48:59Z</time>
      </trkpt>
      <trkpt lat="43.84394" lon="7.09243">
        <ele>601.44189</ele>
        <time>2009-03-22T14:49:03Z</time>
      </trkpt>
      <trkpt lat="43.84416" lon="7.09252">
        <ele>603.3645</ele>
        <time>2009-03-22T14:49:06Z</time>
      </trkpt>
      <trkpt lat="43.84437" lon="7.09248">
        <ele>603.3645</ele>
        <time>2009-03-22T14:49:09Z</time>
      </trkpt>
      <trkpt lat="43.84465" lon="7.09241">
        <ele>602.88378</ele>
        <time>2009-03-22T14:49:13Z</time>
      </trkpt>
      <trkpt lat="43.84488" lon="7.09252">
        <ele>604.32617</ele>
        <time>2009-03-22T14:49:17Z</time>
      </trkpt>
      <trkpt lat="43.84493" lon="7.09257">
        <ele>604.32617</ele>
        <time>2009-03-22T14:49:18Z</time>
      </trkpt>
      <trkpt lat="43.84503" lon="7.09268">
        <ele>605.28735</ele>
        <time>2009-03-22T14:49:20Z</time>
      </trkpt>
      <trkpt lat="43.84523" lon="7.09279">
        <ele>606.24853</ele>
        <time>2009-03-22T14:49:24Z</time>
      </trkpt>
      <trkpt lat="43.84545" lon="7.09278">
        <ele>606.24853</ele>
        <time>2009-03-22T14:49:29Z</time>
      </trkpt>
      <trkpt lat="43.84553" lon="7.09279">
        <ele>606.72924</ele>
        <time>2009-03-22T14:49:32Z</time>
      </trkpt>
      <trkpt lat="43.84555" lon="7.09282">
        <ele>605.28735</ele>
        <time>2009-03-22T14:49:36Z</time>
      </trkpt>
      <trkpt lat="43.84554" lon="7.09282">
        <ele>605.76806</ele>
        <time>2009-03-22T14:49:43Z</time>
      </trkpt>
      <trkpt lat="43.84553" lon="7.09282">
        <ele>607.20996</ele>
        <time>2009-03-22T14:49:59Z</time>
      </trkpt>
      <trkpt lat="43.84552" lon="7.09282">
        <ele>607.69067</ele>
        <time>2009-03-22T14:50:19Z</time>
      </trkpt>
      <trkpt lat="43.84552" lon="7.09282">
        <ele>605.76806</ele>
        <time>2009-03-22T14:50:31Z</time>
      </trkpt>
    </trkseg>
  </trk>
</gpx>